<?xml version='1.0' encoding='UTF-8'?><gpx version="1.1" creator="JPX - https://github.com/jenetics/jpx" xmlns="http://www.topografix.com/GPX/1/1"><trk><trkseg><trkpt lat="45.24418041274895" lon="14.672369387697838"><ele>780.0</ele><time>2026-05-01T15:48:16.999Z</time></trkpt><trkpt lat="45.244116419697455" lon="14.67240312407505"><ele>780.0</ele><time>2026-05-01T15:48:17.999Z</time></trkpt><trkpt lat="45.24405421969062" lon="14.672439144399027"><ele>780.0</ele><time>2026-05-01T15:48:18.999Z</time></trkpt><trkpt lat="45.24399651282286" lon="14.672475043963468"><ele>780.0</ele><time>2026-05-01T15:48:19.999Z</time></trkpt><trkpt lat="45.24394503950191" lon="14.672528408811244"><ele>780.0</ele><time>2026-05-01T15:48:20.999Z</time></trkpt><trkpt lat="45.24383002633945" lon="14.672567393549357"><ele>780.0</ele><time>2026-05-01T15:48:22.999Z</time></trkpt><trkpt lat="45.24372374276332" lon="14.672646431168204"><ele>779.8333333333334</ele><time>2026-05-01T15:48:24.999Z</time></trkpt><trkpt lat="45.24363326200543" lon="14.672719086734125"><ele>779.6666666666667</ele><time>2026-05-01T15:48:26.999Z</time></trkpt><trkpt lat="45.24357765655011" lon="14.672790230014163"><ele>779.5</ele><time>2026-05-01T15:48:28.999Z</time></trkpt><trkpt lat="45.24352098218649" lon="14.672846030765356"><ele>779.3333333333334</ele><time>2026-05-01T15:48:33.999Z</time></trkpt><trkpt lat="45.24358879256567" lon="14.672760590590704"><ele>779.1666666666667</ele><time>2026-05-01T15:48:40.999Z</time></trkpt><trkpt lat="45.24364974881141" lon="14.672684401000472"><ele>779.0</ele><time>2026-05-01T15:48:42.999Z</time></trkpt><trkpt lat="45.24373823278232" lon="14.672614669374669"><ele>779.1666666666667</ele><time>2026-05-01T15:48:44.999Z</time></trkpt><trkpt lat="45.2438013158465" lon="14.672596878285487"><ele>779.3333333333334</ele><time>2026-05-01T15:48:45.999Z</time></trkpt><trkpt lat="45.24391250587737" lon="14.672525302316819"><ele>779.5</ele><time>2026-05-01T15:48:47.999Z</time></trkpt><trkpt lat="45.243974613988115" lon="14.672488436284038"><ele>779.6666666666667</ele><time>2026-05-01T15:48:48.999Z</time></trkpt><trkpt lat="45.24403703893113" lon="14.672453522833477"><ele>779.8333333333334</ele><time>2026-05-01T15:48:49.999Z</time></trkpt><trkpt lat="45.24409716981912" lon="14.672412431793214"><ele>780.0</ele><time>2026-05-01T15:48:50.999Z</time></trkpt><trkpt lat="45.24416043610415" lon="14.672373074708023"><ele>780.0</ele><time>2026-05-01T15:48:51.999Z</time></trkpt><trkpt lat="45.24422653397948" lon="14.672331955264406"><ele>780.0</ele><time>2026-05-01T15:48:52.999Z</time></trkpt><trkpt lat="45.24429347673142" lon="14.672290312080422"><ele>780.0</ele><time>2026-05-01T15:48:53.999Z</time></trkpt><trkpt lat="45.24436242824615" lon="14.672266547631494"><ele>780.0</ele><time>2026-05-01T15:48:54.999Z</time></trkpt><trkpt lat="45.24443169100525" lon="14.672241663715047"><ele>780.0</ele><time>2026-05-01T15:48:55.999Z</time></trkpt><trkpt lat="45.244496796160924" lon="14.672208567918506"><ele>780.0</ele><time>2026-05-01T15:48:56.999Z</time></trkpt><trkpt lat="45.244564620499254" lon="14.672174090293261"><ele>780.0</ele><time>2026-05-01T15:48:57.999Z</time></trkpt><trkpt lat="45.24463630712049" lon="14.67215286470286"><ele>780.0</ele><time>2026-05-01T15:48:58.999Z</time></trkpt><trkpt lat="45.244709052009114" lon="14.67213882884099"><ele>780.0</ele><time>2026-05-01T15:48:59.999Z</time></trkpt><trkpt lat="45.244774388919666" lon="14.67211264164758"><ele>780.0</ele><time>2026-05-01T15:49:00.999Z</time></trkpt><trkpt lat="45.2448538893064" lon="14.672125511489735"><ele>780.0</ele><time>2026-05-01T15:49:01.999Z</time></trkpt><trkpt lat="45.24493151618085" lon="14.672145615110901"><ele>780.0</ele><time>2026-05-01T15:49:02.999Z</time></trkpt><trkpt lat="45.24500685022018" lon="14.672162820542184"><ele>780.0</ele><time>2026-05-01T15:49:03.999Z</time></trkpt><trkpt lat="45.2451586393116" lon="14.672190475969916"><ele>781.4</ele><time>2026-05-01T15:49:05.999Z</time></trkpt><trkpt lat="45.24523711321983" lon="14.672232355200928"><ele>782.8</ele><time>2026-05-01T15:49:06.999Z</time></trkpt><trkpt lat="45.24531320885906" lon="14.672260736019467"><ele>784.2</ele><time>2026-05-01T15:49:07.999Z</time></trkpt><trkpt lat="45.24539076156353" lon="14.67232992119829"><ele>785.6</ele><time>2026-05-01T15:49:08.999Z</time></trkpt><trkpt lat="45.24551735047567" lon="14.672431016560271"><ele>787.0</ele><time>2026-05-01T15:49:09.999Z</time></trkpt><trkpt lat="45.245596574609245" lon="14.67245249034667"><ele>787.2857142857142</ele><time>2026-05-01T15:49:10.999Z</time></trkpt><trkpt lat="45.24567316355988" lon="14.672455114206928"><ele>787.5714285714286</ele><time>2026-05-01T15:49:11.999Z</time></trkpt><trkpt lat="45.24574489027862" lon="14.672438984227767"><ele>787.8571428571429</ele><time>2026-05-01T15:49:12.999Z</time></trkpt><trkpt lat="45.245813205405724" lon="14.672403817484351"><ele>788.1428571428571</ele><time>2026-05-01T15:49:13.999Z</time></trkpt><trkpt lat="45.24587948051986" lon="14.672364372590973"><ele>788.4285714285714</ele><time>2026-05-01T15:49:14.999Z</time></trkpt><trkpt lat="45.245944398312226" lon="14.672320298507335"><ele>788.7142857142857</ele><time>2026-05-01T15:49:15.994Z</time></trkpt><trkpt lat="45.246004299840685" lon="14.672270113869793"><ele>789.0</ele><time>2026-05-01T15:49:16.994Z</time></trkpt><trkpt lat="45.24605936937148" lon="14.672209310826219"><ele>788.9999999999999</ele><time>2026-05-01T15:49:17.994Z</time></trkpt><trkpt lat="45.24611047329313" lon="14.67214352779626"><ele>789.0</ele><time>2026-05-01T15:49:18.994Z</time></trkpt><trkpt lat="45.24615560381312" lon="14.67206741020051"><ele>789.0</ele><time>2026-05-01T15:49:19.994Z</time></trkpt><trkpt lat="45.24619726842412" lon="14.671979957919822"><ele>789.0</ele><time>2026-05-01T15:49:20.994Z</time></trkpt><trkpt lat="45.24623785912053" lon="14.67189304823762"><ele>789.0</ele><time>2026-05-01T15:49:21.994Z</time></trkpt><trkpt lat="45.24627622330931" lon="14.671804650227863"><ele>788.9999999999999</ele><time>2026-05-01T15:49:22.995Z</time></trkpt><trkpt lat="45.24630946186661" lon="14.671717305317056"><ele>789.0</ele><time>2026-05-01T15:49:23.995Z</time></trkpt><trkpt lat="45.24633609926782" lon="14.671632695061277"><ele>788.8333333333334</ele><time>2026-05-01T15:49:24.995Z</time></trkpt><trkpt lat="45.24635688197876" lon="14.671546169454624"><ele>788.6666666666667</ele><time>2026-05-01T15:49:25.995Z</time></trkpt><trkpt lat="45.24639207179198" lon="14.671395713566563"><ele>788.5</ele><time>2026-05-01T15:49:27.995Z</time></trkpt><trkpt lat="45.24645338576493" lon="14.671337810455112"><ele>788.3333333333334</ele><time>2026-05-01T15:49:31.996Z</time></trkpt><trkpt lat="45.24648073292746" lon="14.671427197659947"><ele>788.1666666666667</ele><time>2026-05-01T15:49:35.996Z</time></trkpt><trkpt lat="45.24650156054095" lon="14.6715450046294"><ele>788.0</ele><time>2026-05-01T15:49:37.996Z</time></trkpt><trkpt lat="45.246523873221115" lon="14.67164516754839"><ele>790.0000000000001</ele><time>2026-05-01T15:49:40.997Z</time></trkpt><trkpt lat="45.24659753303448" lon="14.671741132756765"><ele>792.0</ele><time>2026-05-01T15:49:44.997Z</time></trkpt><trkpt lat="45.24667928053041" lon="14.671814059802193"><ele>794.0</ele><time>2026-05-01T15:49:46.997Z</time></trkpt><trkpt lat="45.246732049567825" lon="14.67188049869449"><ele>796.0</ele><time>2026-05-01T15:49:48.997Z</time></trkpt><trkpt lat="45.24676334950988" lon="14.671964314072707"><ele>798.0000000000001</ele><time>2026-05-01T15:49:51.997Z</time></trkpt><trkpt lat="45.24675711015802" lon="14.672054146835826"><ele>800.0</ele><time>2026-05-01T15:50:25.999Z</time></trkpt><trkpt lat="45.24675706601544" lon="14.672156645752583"><ele>800.0</ele><time>2026-05-01T15:50:27.999Z</time></trkpt><trkpt lat="45.24673035855212" lon="14.67227723303162"><ele>800.0</ele><time>2026-05-01T15:50:29.999Z</time></trkpt><trkpt lat="45.246691580583345" lon="14.672417849855323"><ele>800.0</ele><time>2026-05-01T15:50:31.999Z</time></trkpt><trkpt lat="45.24665104133433" lon="14.672551921181157"><ele>800.0</ele><time>2026-05-01T15:50:33.999Z</time></trkpt><trkpt lat="45.24660638901719" lon="14.672702355472927"><ele>800.0</ele><time>2026-05-01T15:50:35.999Z</time></trkpt><trkpt lat="45.24656157296103" lon="14.672860733423393"><ele>800.25</ele><time>2026-05-01T15:50:37.999Z</time></trkpt><trkpt lat="45.24651445025384" lon="14.673021552982021"><ele>800.5</ele><time>2026-05-01T15:50:39.999Z</time></trkpt><trkpt lat="45.246453869569194" lon="14.673177794090877"><ele>800.75</ele><time>2026-05-01T15:50:41.999Z</time></trkpt><trkpt lat="45.24637748166893" lon="14.67331351107872"><ele>801.0</ele><time>2026-05-01T15:50:43.999Z</time></trkpt><trkpt lat="45.2462975405417" lon="14.673442428400923"><ele>801.0</ele><time>2026-05-01T15:50:45.999Z</time></trkpt><trkpt lat="45.246224868015105" lon="14.673575477989083"><ele>801.0</ele><time>2026-05-01T15:50:47.999Z</time></trkpt><trkpt lat="45.246132219773784" lon="14.673675501605056"><ele>801.0</ele><time>2026-05-01T15:50:49.999Z</time></trkpt><trkpt lat="45.246075302446286" lon="14.673714847296084"><ele>801.0</ele><time>2026-05-01T15:50:50.999Z</time></trkpt><trkpt lat="45.246012762881605" lon="14.673760355667236"><ele>801.0</ele><time>2026-05-01T15:50:51.999Z</time></trkpt><trkpt lat="45.24591338706076" lon="14.673840626341006"><ele>803.8333333333334</ele><time>2026-05-01T15:50:53.999Z</time></trkpt><trkpt lat="45.245864842986016" lon="14.673950015297207"><ele>806.6666666666667</ele><time>2026-05-01T15:50:55.999Z</time></trkpt><trkpt lat="45.245843941826216" lon="14.674059916194329"><ele>809.5</ele><time>2026-05-01T15:50:57.999Z</time></trkpt><trkpt lat="45.24582295704278" lon="14.674187958986098"><ele>812.3333333333334</ele><time>2026-05-01T15:50:59.999Z</time></trkpt><trkpt lat="45.24578883245586" lon="14.674266759793174"><ele>815.1666666666667</ele><time>2026-05-01T15:51:00.999Z</time></trkpt><trkpt lat="45.24574120139032" lon="14.67432791449911"><ele>818.0</ele><time>2026-05-01T15:51:02.999Z</time></trkpt><trkpt lat="45.245682675194935" lon="14.674361551186486"><ele>818.2</ele><time>2026-05-01T15:51:04.999Z</time></trkpt><trkpt lat="45.24566250404496" lon="14.674475479561996"><ele>818.4</ele><time>2026-05-01T15:51:07.999Z</time></trkpt><trkpt lat="45.24565519374259" lon="14.674598912830504"><ele>818.6</ele><time>2026-05-01T15:51:09.999Z</time></trkpt><trkpt lat="45.24561863915323" lon="14.67471729954821"><ele>818.8000000000001</ele><time>2026-05-01T15:51:12Z</time></trkpt><trkpt lat="45.24558622245803" lon="14.674855051939984"><ele>819.0</ele><time>2026-05-01T15:51:14Z</time></trkpt><trkpt lat="45.24552970015643" lon="14.674981792155267"><ele>819.0</ele><time>2026-05-01T15:51:16Z</time></trkpt><trkpt lat="45.24550393051193" lon="14.675063911604537"><ele>819.0</ele><time>2026-05-01T15:51:17Z</time></trkpt><trkpt lat="45.24546473851521" lon="14.675235627854175"><ele>819.0</ele><time>2026-05-01T15:51:19Z</time></trkpt><trkpt lat="45.245448173634216" lon="14.675399429232135"><ele>819.0</ele><time>2026-05-01T15:51:21Z</time></trkpt><trkpt lat="45.24541711496966" lon="14.67555618141482"><ele>819.0</ele><time>2026-05-01T15:51:22.997Z</time></trkpt><trkpt lat="45.245392400320455" lon="14.67564220954259"><ele>818.6666666666666</ele><time>2026-05-01T15:51:23.998Z</time></trkpt><trkpt lat="45.245352337058705" lon="14.6757957876932"><ele>818.3333333333333</ele><time>2026-05-01T15:51:25.998Z</time></trkpt><trkpt lat="45.24533779319803" lon="14.675886776608694"><ele>818.0</ele><time>2026-05-01T15:51:26.998Z</time></trkpt><trkpt lat="45.24532137118034" lon="14.675974597702176"><ele>817.6666666666666</ele><time>2026-05-01T15:51:27.998Z</time></trkpt><trkpt lat="45.245308752226485" lon="14.676067686214123"><ele>817.3333333333333</ele><time>2026-05-01T15:51:28.998Z</time></trkpt><trkpt lat="45.24527460197352" lon="14.67624012901223"><ele>817.0</ele><time>2026-05-01T15:51:30.998Z</time></trkpt><trkpt lat="45.245233905631316" lon="14.67640164405291"><ele>816.2</ele><time>2026-05-01T15:51:32.998Z</time></trkpt><trkpt lat="45.245208046930436" lon="14.67655691845121"><ele>815.4000000000001</ele><time>2026-05-01T15:51:34.998Z</time></trkpt><trkpt lat="45.2451627904795" lon="14.676689750084892"><ele>814.5999999999999</ele><time>2026-05-01T15:51:36.998Z</time></trkpt><trkpt lat="45.24510258189669" lon="14.676823513359134"><ele>813.8</ele><time>2026-05-01T15:51:38.999Z</time></trkpt><trkpt lat="45.24506037393762" lon="14.676958745661116"><ele>813.0</ele><time>2026-05-01T15:51:40.999Z</time></trkpt><trkpt lat="45.24502522301801" lon="14.677112868247688"><ele>813.0</ele><time>2026-05-01T15:51:42.999Z</time></trkpt><trkpt lat="45.24500283091335" lon="14.677197370520785"><ele>813.0</ele><time>2026-05-01T15:51:43.999Z</time></trkpt><trkpt lat="45.2449442514672" lon="14.677310748884423"><ele>813.0</ele><time>2026-05-01T15:51:45.999Z</time></trkpt><trkpt lat="45.24486939360747" lon="14.677390510257151"><ele>813.0</ele><time>2026-05-01T15:51:47.999Z</time></trkpt><trkpt lat="45.24477493275789" lon="14.677493506501063"><ele>813.0</ele><time>2026-05-01T15:51:49.999Z</time></trkpt><trkpt lat="45.244684996826614" lon="14.67760411243422"><ele>812.8333333333334</ele><time>2026-05-01T15:51:51.999Z</time></trkpt><trkpt lat="45.244643121461536" lon="14.677716108761842"><ele>812.6666666666667</ele><time>2026-05-01T15:51:53.999Z</time></trkpt><trkpt lat="45.24458809952591" lon="14.677835919887015"><ele>812.5</ele><time>2026-05-01T15:51:55.999Z</time></trkpt><trkpt lat="45.244517419373885" lon="14.67794403321268"><ele>812.3333333333334</ele><time>2026-05-01T15:51:58Z</time></trkpt><trkpt lat="45.24444426070292" lon="14.678004036923525"><ele>812.1666666666667</ele><time>2026-05-01T15:52:00Z</time></trkpt><trkpt lat="45.24437518243872" lon="14.67800770148061"><ele>812.0</ele><time>2026-05-01T15:52:02Z</time></trkpt><trkpt lat="45.24429009732491" lon="14.677986791405402"><ele>812.0</ele><time>2026-05-01T15:52:06Z</time></trkpt><trkpt lat="45.244233350525114" lon="14.678039340423384"><ele>812.0</ele><time>2026-05-01T15:52:08Z</time></trkpt><trkpt lat="45.244183107647274" lon="14.678150170499713"><ele>812.0</ele><time>2026-05-01T15:52:10Z</time></trkpt><trkpt lat="45.24413062786577" lon="14.67829373695746"><ele>812.0</ele><time>2026-05-01T15:52:12Z</time></trkpt><trkpt lat="45.244063970740555" lon="14.678427996178925"><ele>812.0</ele><time>2026-05-01T15:52:14Z</time></trkpt><trkpt lat="45.24399755063069" lon="14.67858117207978"><ele>811.5000000000001</ele><time>2026-05-01T15:52:16Z</time></trkpt><trkpt lat="45.2439618491925" lon="14.678658066030705"><ele>811.0</ele><time>2026-05-01T15:52:17Z</time></trkpt><trkpt lat="45.24391518786256" lon="14.678729385202525"><ele>810.5</ele><time>2026-05-01T15:52:18Z</time></trkpt><trkpt lat="45.24386869657209" lon="14.678794930491483"><ele>810.0</ele><time>2026-05-01T15:52:19Z</time></trkpt><trkpt lat="45.2437839489657" lon="14.678914346029794"><ele>809.5000000000001</ele><time>2026-05-01T15:52:21Z</time></trkpt><trkpt lat="45.243692741585356" lon="14.679013690342485"><ele>809.0</ele><time>2026-05-01T15:52:23Z</time></trkpt><trkpt lat="45.24364111054488" lon="14.679096649670194"><ele>809.0</ele><time>2026-05-01T15:52:24Z</time></trkpt><trkpt lat="45.243596066640244" lon="14.679184114844816"><ele>809.0</ele><time>2026-05-01T15:52:25Z</time></trkpt><trkpt lat="45.24355217747396" lon="14.679264801830344"><ele>809.0</ele><time>2026-05-01T15:52:26Z</time></trkpt><trkpt lat="45.24350383251309" lon="14.679325879894234"><ele>809.0</ele><time>2026-05-01T15:52:27Z</time></trkpt><trkpt lat="45.24342573128192" lon="14.67947573878311"><ele>809.0</ele><time>2026-05-01T15:52:29Z</time></trkpt><trkpt lat="45.24335340364982" lon="14.679597154873827"><ele>808.1666666666667</ele><time>2026-05-01T15:52:31Z</time></trkpt><trkpt lat="45.24329836560236" lon="14.67964210666019"><ele>807.3333333333334</ele><time>2026-05-01T15:52:32.001Z</time></trkpt><trkpt lat="45.243237456914706" lon="14.679702071874418"><ele>806.5</ele><time>2026-05-01T15:52:33.001Z</time></trkpt><trkpt lat="45.24318055274877" lon="14.679767089978185"><ele>805.6666666666667</ele><time>2026-05-01T15:52:34.001Z</time></trkpt><trkpt lat="45.24312315855187" lon="14.679818907071123"><ele>804.8333333333334</ele><time>2026-05-01T15:52:35.001Z</time></trkpt><trkpt lat="45.24302327516192" lon="14.67989986581587"><ele>804.0</ele><time>2026-05-01T15:52:37.001Z</time></trkpt><trkpt lat="45.24293726471631" lon="14.680015350332827"><ele>804.0</ele><time>2026-05-01T15:52:39.001Z</time></trkpt><trkpt lat="45.24289277602837" lon="14.680119860403137"><ele>804.0</ele><time>2026-05-01T15:52:41.001Z</time></trkpt><trkpt lat="45.24287914135479" lon="14.68022424851837"><ele>804.0</ele><time>2026-05-01T15:52:43.001Z</time></trkpt><trkpt lat="45.242876042300345" lon="14.680319411177607"><ele>804.0</ele><time>2026-05-01T15:52:45.001Z</time></trkpt><trkpt lat="45.24285456846783" lon="14.680414202463652"><ele>804.0</ele><time>2026-05-01T15:52:47.001Z</time></trkpt><trkpt lat="45.24280838482437" lon="14.68048367508951"><ele>804.0</ele><time>2026-05-01T15:52:49.001Z</time></trkpt><trkpt lat="45.24271258816661" lon="14.680586140199399"><ele>804.6</ele><time>2026-05-01T15:52:51.001Z</time></trkpt><trkpt lat="45.24266355256769" lon="14.680650274665098"><ele>805.2</ele><time>2026-05-01T15:52:52.001Z</time></trkpt><trkpt lat="45.24261594006255" lon="14.680716803546334"><ele>805.8000000000001</ele><time>2026-05-01T15:52:53.001Z</time></trkpt><trkpt lat="45.24253336942118" lon="14.680849760194661"><ele>806.4000000000001</ele><time>2026-05-01T15:52:55.001Z</time></trkpt><trkpt lat="45.24246514222093" lon="14.681006005042745"><ele>807.0</ele><time>2026-05-01T15:52:57.001Z</time></trkpt><trkpt lat="45.242431950939036" lon="14.681131060490168"><ele>805.8333333333334</ele><time>2026-05-01T15:52:58.001Z</time></trkpt><trkpt lat="45.24240591722289" lon="14.681255730414243"><ele>804.6666666666667</ele><time>2026-05-01T15:52:59.001Z</time></trkpt><trkpt lat="45.242387324446106" lon="14.681355383495903"><ele>803.5</ele><time>2026-05-01T15:53:00.001Z</time></trkpt><trkpt lat="45.24236820205201" lon="14.681508567148125"><ele>802.3333333333334</ele><time>2026-05-01T15:53:02.001Z</time></trkpt><trkpt lat="45.242293347953314" lon="14.681588918936393"><ele>801.1666666666667</ele><time>2026-05-01T15:53:04.001Z</time></trkpt><trkpt lat="45.242233813668086" lon="14.681625309127854"><ele>800.0</ele><time>2026-05-01T15:53:05.001Z</time></trkpt><trkpt lat="45.24216482874802" lon="14.681692462631641"><ele>800.0000000000001</ele><time>2026-05-01T15:53:06.001Z</time></trkpt><trkpt lat="45.24210677909983" lon="14.68177248578983"><ele>800.0</ele><time>2026-05-01T15:53:07.001Z</time></trkpt><trkpt lat="45.242041917864775" lon="14.681869243772237"><ele>800.0</ele><time>2026-05-01T15:53:08.001Z</time></trkpt><trkpt lat="45.241975235479" lon="14.681970501238848"><ele>800.0</ele><time>2026-05-01T15:53:09.001Z</time></trkpt><trkpt lat="45.24191321350151" lon="14.682066530747589"><ele>800.0000000000001</ele><time>2026-05-01T15:53:10.001Z</time></trkpt><trkpt lat="45.24185510950725" lon="14.682145528757491"><ele>800.0</ele><time>2026-05-01T15:53:11.001Z</time></trkpt><trkpt lat="45.241806392745914" lon="14.68222186520511"><ele>800.6666666666667</ele><time>2026-05-01T15:53:12.002Z</time></trkpt><trkpt lat="45.241763483857014" lon="14.68230477334017"><ele>801.3333333333334</ele><time>2026-05-01T15:53:13.002Z</time></trkpt><trkpt lat="45.24171753146068" lon="14.682395988802941"><ele>802.0</ele><time>2026-05-01T15:53:14.002Z</time></trkpt><trkpt lat="45.24168204836296" lon="14.68247504090821"><ele>802.6666666666667</ele><time>2026-05-01T15:53:15.002Z</time></trkpt><trkpt lat="45.24163491664425" lon="14.682624380298847"><ele>803.3333333333334</ele><time>2026-05-01T15:53:17.002Z</time></trkpt><trkpt lat="45.241607406046796" lon="14.68271894910257"><ele>804.0</ele><time>2026-05-01T15:53:18.002Z</time></trkpt><trkpt lat="45.24157778198743" lon="14.682816408711886"><ele>805.4000000000001</ele><time>2026-05-01T15:53:19.002Z</time></trkpt><trkpt lat="45.24154665655249" lon="14.682906510040977"><ele>806.8</ele><time>2026-05-01T15:53:20.002Z</time></trkpt><trkpt lat="45.24151220417256" lon="14.682984818834518"><ele>808.2</ele><time>2026-05-01T15:53:21.002Z</time></trkpt><trkpt lat="45.24145068855181" lon="14.683125690534819"><ele>809.5999999999999</ele><time>2026-05-01T15:53:23.002Z</time></trkpt><trkpt lat="45.24142299795925" lon="14.683271218607857"><ele>811.0</ele><time>2026-05-01T15:53:25.002Z</time></trkpt><trkpt lat="45.24133672865967" lon="14.683377200708092"><ele>808.1666666666666</ele><time>2026-05-01T15:53:27.002Z</time></trkpt><trkpt lat="45.24129425885117" lon="14.683453786769425"><ele>805.3333333333333</ele><time>2026-05-01T15:53:27.998Z</time></trkpt><trkpt lat="45.24125086787251" lon="14.68355439608013"><ele>802.5</ele><time>2026-05-01T15:53:28.998Z</time></trkpt><trkpt lat="45.241208614803064" lon="14.683654715459193"><ele>799.6666666666667</ele><time>2026-05-01T15:53:29.998Z</time></trkpt><trkpt lat="45.24117942376832" lon="14.683756765090235"><ele>796.8333333333334</ele><time>2026-05-01T15:53:30.998Z</time></trkpt><trkpt lat="45.24115927993906" lon="14.683856379100222"><ele>794.0</ele><time>2026-05-01T15:53:31.998Z</time></trkpt><trkpt lat="45.241129240339774" lon="14.683963188892985"><ele>794.0000000000001</ele><time>2026-05-01T15:53:32.998Z</time></trkpt><trkpt lat="45.241098264342774" lon="14.684078299600902"><ele>794.0</ele><time>2026-05-01T15:53:33.998Z</time></trkpt><trkpt lat="45.24106702152062" lon="14.684180680194958"><ele>794.0</ele><time>2026-05-01T15:53:34.998Z</time></trkpt><trkpt lat="45.24104416348597" lon="14.684271836322507"><ele>794.0</ele><time>2026-05-01T15:53:35.998Z</time></trkpt><trkpt lat="45.24101379859784" lon="14.68437365809192"><ele>794.0000000000001</ele><time>2026-05-01T15:53:36.998Z</time></trkpt><trkpt lat="45.24098199266663" lon="14.684483860448088"><ele>794.0</ele><time>2026-05-01T15:53:37.998Z</time></trkpt><trkpt lat="45.24091175694959" lon="14.684541196468482"><ele>794.8333333333334</ele><time>2026-05-01T15:53:38.999Z</time></trkpt><trkpt lat="45.240864936931885" lon="14.684678534525146"><ele>795.6666666666667</ele><time>2026-05-01T15:53:40.999Z</time></trkpt><trkpt lat="45.24082557148367" lon="14.684773759834771"><ele>796.5</ele><time>2026-05-01T15:53:44.999Z</time></trkpt><trkpt lat="45.24078204588117" lon="14.684918771816617"><ele>797.3333333333333</ele><time>2026-05-01T15:53:46.999Z</time></trkpt><trkpt lat="45.24075443162048" lon="14.685006705134652"><ele>798.1666666666666</ele><time>2026-05-01T15:53:47.999Z</time></trkpt><trkpt lat="45.24072327820642" lon="14.685095727866832"><ele>799.0</ele><time>2026-05-01T15:53:48.999Z</time></trkpt><trkpt lat="45.24068533532289" lon="14.685193626253797"><ele>798.8333333333333</ele><time>2026-05-01T15:53:49.999Z</time></trkpt><trkpt lat="45.240642761113335" lon="14.685294250786432"><ele>798.6666666666666</ele><time>2026-05-01T15:53:50.999Z</time></trkpt><trkpt lat="45.240601841050776" lon="14.685403149518931"><ele>798.5</ele><time>2026-05-01T15:53:51.999Z</time></trkpt><trkpt lat="45.240566148600784" lon="14.685503360974263"><ele>798.3333333333333</ele><time>2026-05-01T15:53:52.999Z</time></trkpt><trkpt lat="45.24053305997108" lon="14.685587451259162"><ele>798.1666666666666</ele><time>2026-05-01T15:53:53.999Z</time></trkpt><trkpt lat="45.2404312755483" lon="14.685699478139428"><ele>798.0</ele><time>2026-05-01T15:53:55.999Z</time></trkpt><trkpt lat="45.24035443589553" lon="14.685742261714946"><ele>796.8333333333334</ele><time>2026-05-01T15:53:57Z</time></trkpt><trkpt lat="45.24027597819873" lon="14.685778324138079"><ele>795.6666666666667</ele><time>2026-05-01T15:53:58Z</time></trkpt><trkpt lat="45.240205668249104" lon="14.685803434828864"><ele>794.5</ele><time>2026-05-01T15:53:59Z</time></trkpt><trkpt lat="45.24010497919751" lon="14.6858242348353"><ele>793.3333333333334</ele><time>2026-05-01T15:54:01Z</time></trkpt><trkpt lat="45.240047524979396" lon="14.685909429757727"><ele>792.1666666666667</ele><time>2026-05-01T15:54:03Z</time></trkpt><trkpt lat="45.24005109153862" lon="14.686007783418958"><ele>791.0</ele><time>2026-05-01T15:54:05Z</time></trkpt><trkpt lat="45.24007211662525" lon="14.686099454271568"><ele>789.5999999999999</ele><time>2026-05-01T15:54:08Z</time></trkpt><trkpt lat="45.240072401771904" lon="14.686221482981834"><ele>788.2</ele><time>2026-05-01T15:54:11Z</time></trkpt><trkpt lat="45.24003610818775" lon="14.686317335433724"><ele>786.8</ele><time>2026-05-01T15:54:13Z</time></trkpt><trkpt lat="45.23997681509849" lon="14.686403426427752"><ele>785.4000000000001</ele><time>2026-05-01T15:54:15Z</time></trkpt><trkpt lat="45.239896844252364" lon="14.686516788933373"><ele>784.0</ele><time>2026-05-01T15:54:17Z</time></trkpt><trkpt lat="45.239885704375325" lon="14.686650836355277"><ele>784.0</ele><time>2026-05-01T15:54:19Z</time></trkpt><trkpt lat="45.239916338521105" lon="14.686729580769585"><ele>784.0</ele><time>2026-05-01T15:54:20Z</time></trkpt><trkpt lat="45.23999829727017" lon="14.686853500972376"><ele>784.0</ele><time>2026-05-01T15:54:22Z</time></trkpt><trkpt lat="45.24007741821263" lon="14.687002047901732"><ele>784.0</ele><time>2026-05-01T15:54:24.001Z</time></trkpt><trkpt lat="45.24012108472762" lon="14.687097618372288"><ele>784.0</ele><time>2026-05-01T15:54:25.001Z</time></trkpt><trkpt lat="45.240161216696414" lon="14.68719118053451"><ele>782.6666666666666</ele><time>2026-05-01T15:54:26.001Z</time></trkpt><trkpt lat="45.240212830444634" lon="14.687273344640719"><ele>781.3333333333333</ele><time>2026-05-01T15:54:27.001Z</time></trkpt><trkpt lat="45.24022942961602" lon="14.687376307946423"><ele>780.0</ele><time>2026-05-01T15:54:28.001Z</time></trkpt><trkpt lat="45.24025595861212" lon="14.687464786183497"><ele>778.6666666666667</ele><time>2026-05-01T15:54:29.001Z</time></trkpt><trkpt lat="45.240275293551655" lon="14.687549919231552"><ele>777.3333333333334</ele><time>2026-05-01T15:54:30.001Z</time></trkpt><trkpt lat="45.240282584448615" lon="14.687736377041771"><ele>776.0</ele><time>2026-05-01T15:54:32.001Z</time></trkpt><trkpt lat="45.24029913770713" lon="14.687847320259287"><ele>774.0000000000001</ele><time>2026-05-01T15:54:33.001Z</time></trkpt><trkpt lat="45.24028145333285" lon="14.687965444824764"><ele>772.0</ele><time>2026-05-01T15:54:34.001Z</time></trkpt><trkpt lat="45.240279269249264" lon="14.688077713678151"><ele>770.0</ele><time>2026-05-01T15:54:35.001Z</time></trkpt><trkpt lat="45.240276446330626" lon="14.688178813157249"><ele>768.0</ele><time>2026-05-01T15:54:36.001Z</time></trkpt><trkpt lat="45.24028003663238" lon="14.688321952940349"><ele>766.0</ele><time>2026-05-01T15:54:38.001Z</time></trkpt><trkpt lat="45.2402667214258" lon="14.68847653466152"><ele>764.0</ele><time>2026-05-01T15:54:40.001Z</time></trkpt><trkpt lat="45.24025533760057" lon="14.688581795815619"><ele>761.4000000000001</ele><time>2026-05-01T15:54:41.001Z</time></trkpt><trkpt lat="45.240247435057036" lon="14.688698480756797"><ele>758.8</ele><time>2026-05-01T15:54:42.001Z</time></trkpt><trkpt lat="45.24025470473984" lon="14.688828995322943"><ele>756.2</ele><time>2026-05-01T15:54:43.001Z</time></trkpt><trkpt lat="45.2402680731478" lon="14.688969661972111"><ele>753.5999999999999</ele><time>2026-05-01T15:54:44.001Z</time></trkpt><trkpt lat="45.24028215228398" lon="14.689118604584857"><ele>751.0</ele><time>2026-05-01T15:54:45.001Z</time></trkpt><trkpt lat="45.24029720824279" lon="14.689278994881448"><ele>748.5999999999999</ele><time>2026-05-01T15:54:46.001Z</time></trkpt><trkpt lat="45.24031246001628" lon="14.689442022161032"><ele>746.2</ele><time>2026-05-01T15:54:47.001Z</time></trkpt><trkpt lat="45.240329665478484" lon="14.689599191687448"><ele>743.8</ele><time>2026-05-01T15:54:48.001Z</time></trkpt><trkpt lat="45.24035207519314" lon="14.68974660337783"><ele>741.4000000000001</ele><time>2026-05-01T15:54:49.001Z</time></trkpt><trkpt lat="45.2403785575306" lon="14.689898907531132"><ele>739.0</ele><time>2026-05-01T15:54:50.001Z</time></trkpt><trkpt lat="45.24041163306082" lon="14.690060510665617"><ele>739.0</ele><time>2026-05-01T15:54:51.001Z</time></trkpt><trkpt lat="45.24045118219141" lon="14.690213979764343"><ele>739.0</ele><time>2026-05-01T15:54:52.001Z</time></trkpt><trkpt lat="45.24048484877693" lon="14.690346074183884"><ele>739.0</ele><time>2026-05-01T15:54:53.001Z</time></trkpt><trkpt lat="45.24051315727735" lon="14.690460708749642"><ele>739.0</ele><time>2026-05-01T15:54:54.001Z</time></trkpt><trkpt lat="45.24053921509697" lon="14.690555936812109"><ele>739.0</ele><time>2026-05-01T15:54:55.001Z</time></trkpt><trkpt lat="45.24061722946026" lon="14.690671984752038"><ele>739.8333333333334</ele><time>2026-05-01T15:54:57.002Z</time></trkpt><trkpt lat="45.24068170888662" lon="14.690674626579405"><ele>740.6666666666667</ele><time>2026-05-01T15:54:58.002Z</time></trkpt><trkpt lat="45.24074944745861" lon="14.69066744848568"><ele>741.5</ele><time>2026-05-01T15:54:59.002Z</time></trkpt><trkpt lat="45.24081968048801" lon="14.690686598486376"><ele>742.3333333333334</ele><time>2026-05-01T15:55:00.002Z</time></trkpt><trkpt lat="45.2408862698772" lon="14.690707326524688"><ele>743.1666666666666</ele><time>2026-05-01T15:55:01.002Z</time></trkpt><trkpt lat="45.24094021364328" lon="14.690778803420423"><ele>744.0</ele><time>2026-05-01T15:55:03.002Z</time></trkpt><trkpt lat="45.2408668028785" lon="14.69091055767303"><ele>744.0</ele><time>2026-05-01T15:55:05.002Z</time></trkpt><trkpt lat="45.24081656290779" lon="14.690972264064593"><ele>744.0</ele><time>2026-05-01T15:55:06.002Z</time></trkpt><trkpt lat="45.240759452689325" lon="14.69104052068158"><ele>744.0</ele><time>2026-05-01T15:55:07.002Z</time></trkpt><trkpt lat="45.24069391095526" lon="14.691118341655148"><ele>744.0</ele><time>2026-05-01T15:55:08.002Z</time></trkpt><trkpt lat="45.24062497303463" lon="14.691199763361972"><ele>744.0</ele><time>2026-05-01T15:55:09.002Z</time></trkpt><trkpt lat="45.24056854450634" lon="14.691305946926247"><ele>744.0</ele><time>2026-05-01T15:55:10.002Z</time></trkpt><trkpt lat="45.240484010762735" lon="14.691389646264637"><ele>739.6</ele><time>2026-05-01T15:55:11.002Z</time></trkpt><trkpt lat="45.24041982624048" lon="14.691496838276455"><ele>735.2</ele><time>2026-05-01T15:55:12.002Z</time></trkpt><trkpt lat="45.24032689753448" lon="14.691551490707003"><ele>730.8000000000001</ele><time>2026-05-01T15:55:13.002Z</time></trkpt><trkpt lat="45.24026351991994" lon="14.691653289764792"><ele>726.4000000000001</ele><time>2026-05-01T15:55:14.002Z</time></trkpt><trkpt lat="45.2401863948049" lon="14.691732555767548"><ele>722.0</ele><time>2026-05-01T15:55:15.002Z</time></trkpt><trkpt lat="45.24012829481906" lon="14.691826391855882"><ele>722.0</ele><time>2026-05-01T15:55:16.002Z</time></trkpt><trkpt lat="45.240072299096454" lon="14.691914621144289"><ele>722.0</ele><time>2026-05-01T15:55:17.002Z</time></trkpt><trkpt lat="45.24001097485838" lon="14.692003967968963"><ele>722.0</ele><time>2026-05-01T15:55:18.002Z</time></trkpt><trkpt lat="45.23994240474573" lon="14.692090402777096"><ele>722.0</ele><time>2026-05-01T15:55:19.002Z</time></trkpt><trkpt lat="45.23987374386639" lon="14.692177776268622"><ele>722.0</ele><time>2026-05-01T15:55:20.002Z</time></trkpt><trkpt lat="45.23981009593755" lon="14.692263350159928"><ele>722.0</ele><time>2026-05-01T15:55:21.002Z</time></trkpt><trkpt lat="45.23975064344035" lon="14.692344599410543"><ele>722.1666666666666</ele><time>2026-05-01T15:55:22.002Z</time></trkpt><trkpt lat="45.239692305317085" lon="14.692427552757776"><ele>722.3333333333333</ele><time>2026-05-01T15:55:23.002Z</time></trkpt><trkpt lat="45.23963465344592" lon="14.692511290283468"><ele>722.5</ele><time>2026-05-01T15:55:24.002Z</time></trkpt><trkpt lat="45.2395772710682" lon="14.692592714353209"><ele>722.6666666666666</ele><time>2026-05-01T15:55:25.002Z</time></trkpt><trkpt lat="45.23952118905918" lon="14.692672365285649"><ele>722.8333333333334</ele><time>2026-05-01T15:55:26.002Z</time></trkpt><trkpt lat="45.23946643317669" lon="14.692751815701532"><ele>723.0</ele><time>2026-05-01T15:55:27.002Z</time></trkpt><trkpt lat="45.23942425083721" lon="14.692847142945409"><ele>723.0</ele><time>2026-05-01T15:55:28.002Z</time></trkpt><trkpt lat="45.23937202525965" lon="14.69292676788104"><ele>723.0</ele><time>2026-05-01T15:55:29.002Z</time></trkpt><trkpt lat="45.2393203123614" lon="14.6930002667984"><ele>723.0</ele><time>2026-05-01T15:55:30.003Z</time></trkpt><trkpt lat="45.2392631822707" lon="14.69306343174475"><ele>723.0</ele><time>2026-05-01T15:55:31.003Z</time></trkpt><trkpt lat="45.239218005939925" lon="14.693148630561833"><ele>723.0</ele><time>2026-05-01T15:55:32.003Z</time></trkpt><trkpt lat="45.2391644642531" lon="14.693233246444757"><ele>723.0</ele><time>2026-05-01T15:55:33.003Z</time></trkpt><trkpt lat="45.239100270124595" lon="14.693300472295935"><ele>723.0</ele><time>2026-05-01T15:55:33.999Z</time></trkpt><trkpt lat="45.2390337700067" lon="14.693372776664821"><ele>723.0</ele><time>2026-05-01T15:55:34.999Z</time></trkpt><trkpt lat="45.23896862621719" lon="14.693455080298806"><ele>723.0</ele><time>2026-05-01T15:55:35.999Z</time></trkpt><trkpt lat="45.23890060533718" lon="14.693540375249867"><ele>723.0</ele><time>2026-05-01T15:55:36.999Z</time></trkpt><trkpt lat="45.23883190028206" lon="14.693621951313835"><ele>723.0</ele><time>2026-05-01T15:55:37.999Z</time></trkpt><trkpt lat="45.23875749775097" lon="14.693696830880851"><ele>723.0</ele><time>2026-05-01T15:55:38.999Z</time></trkpt><trkpt lat="45.23868211913366" lon="14.693771847989652"><ele>720.0</ele><time>2026-05-01T15:55:39.999Z</time></trkpt><trkpt lat="45.238611450316775" lon="14.693857891486058"><ele>717.0</ele><time>2026-05-01T15:55:40.999Z</time></trkpt><trkpt lat="45.23853906290779" lon="14.69396471817366"><ele>714.0</ele><time>2026-05-01T15:55:41.999Z</time></trkpt><trkpt lat="45.23846865790885" lon="14.694065234606667"><ele>711.0</ele><time>2026-05-01T15:55:42.999Z</time></trkpt><trkpt lat="45.238407754973245" lon="14.694159016988815"><ele>708.0</ele><time>2026-05-01T15:55:43.999Z</time></trkpt><trkpt lat="45.2383347261414" lon="14.694263624396195"><ele>708.0</ele><time>2026-05-01T15:55:44.999Z</time></trkpt><trkpt lat="45.23824779895871" lon="14.694365014842543"><ele>708.0</ele><time>2026-05-01T15:55:45.999Z</time></trkpt><trkpt lat="45.238148285571896" lon="14.694462863581592"><ele>708.0</ele><time>2026-05-01T15:55:46.999Z</time></trkpt><trkpt lat="45.23804625242457" lon="14.694562835879493"><ele>708.0</ele><time>2026-05-01T15:55:47.999Z</time></trkpt><trkpt lat="45.2379522912004" lon="14.694654015990993"><ele>704.8333333333334</ele><time>2026-05-01T15:55:48.999Z</time></trkpt><trkpt lat="45.23788045841788" lon="14.694727671561704"><ele>701.6666666666666</ele><time>2026-05-01T15:55:49.999Z</time></trkpt><trkpt lat="45.237819268271004" lon="14.694793953642256"><ele>698.5</ele><time>2026-05-01T15:55:50.999Z</time></trkpt><trkpt lat="45.237754024291796" lon="14.694862871835912"><ele>695.3333333333333</ele><time>2026-05-01T15:55:51.999Z</time></trkpt><trkpt lat="45.23770222173159" lon="14.694957005890265"><ele>692.1666666666666</ele><time>2026-05-01T15:55:52.999Z</time></trkpt><trkpt lat="45.237654028097126" lon="14.695061863578985"><ele>689.0</ele><time>2026-05-01T15:55:54Z</time></trkpt><trkpt lat="45.2376071724022" lon="14.695171887653487"><ele>691.3333333333333</ele><time>2026-05-01T15:55:55Z</time></trkpt><trkpt lat="45.237560267519314" lon="14.695285089998537"><ele>693.6666666666666</ele><time>2026-05-01T15:55:56Z</time></trkpt><trkpt lat="45.237512552243324" lon="14.695393584420417"><ele>696.0</ele><time>2026-05-01T15:55:57Z</time></trkpt><trkpt lat="45.23746319862231" lon="14.69549548234983"><ele>698.3333333333334</ele><time>2026-05-01T15:55:58Z</time></trkpt><trkpt lat="45.23742284559198" lon="14.695600172122397"><ele>700.6666666666667</ele><time>2026-05-01T15:55:59Z</time></trkpt><trkpt lat="45.23735499023136" lon="14.695666303759262"><ele>703.0</ele><time>2026-05-01T15:56:00Z</time></trkpt><trkpt lat="45.23730479701126" lon="14.695750373950784"><ele>700.3333333333334</ele><time>2026-05-01T15:56:01Z</time></trkpt><trkpt lat="45.23725952221736" lon="14.695842007521385"><ele>697.6666666666667</ele><time>2026-05-01T15:56:02Z</time></trkpt><trkpt lat="45.23721953943206" lon="14.69595430194821"><ele>695.0</ele><time>2026-05-01T15:56:03Z</time></trkpt><trkpt lat="45.237181046512845" lon="14.696063968985776"><ele>692.3333333333334</ele><time>2026-05-01T15:56:04Z</time></trkpt><trkpt lat="45.23713927989499" lon="14.69617285083597"><ele>689.6666666666666</ele><time>2026-05-01T15:56:05Z</time></trkpt><trkpt lat="45.23710325758308" lon="14.696295984158413"><ele>687.0</ele><time>2026-05-01T15:56:06Z</time></trkpt><trkpt lat="45.23705148094423" lon="14.696415822574316"><ele>687.0</ele><time>2026-05-01T15:56:07Z</time></trkpt><trkpt lat="45.23699036695777" lon="14.696530266992555"><ele>687.0</ele><time>2026-05-01T15:56:08Z</time></trkpt><trkpt lat="45.23691414088186" lon="14.696634320403582"><ele>687.0</ele><time>2026-05-01T15:56:09Z</time></trkpt><trkpt lat="45.23686093580638" lon="14.696771746313317"><ele>687.0</ele><time>2026-05-01T15:56:10Z</time></trkpt><trkpt lat="45.23681654585365" lon="14.69691750542208"><ele>687.0</ele><time>2026-05-01T15:56:11Z</time></trkpt><trkpt lat="45.23677332792389" lon="14.69706322787207"><ele>686.8</ele><time>2026-05-01T15:56:12Z</time></trkpt><trkpt lat="45.236728252762184" lon="14.697197124193226"><ele>686.6</ele><time>2026-05-01T15:56:13Z</time></trkpt><trkpt lat="45.236669356035534" lon="14.697314141496554"><ele>686.4</ele><time>2026-05-01T15:56:14Z</time></trkpt><trkpt lat="45.236602681746305" lon="14.697435757097539"><ele>686.1999999999999</ele><time>2026-05-01T15:56:15Z</time></trkpt><trkpt lat="45.23653200542911" lon="14.697546110198719"><ele>686.0</ele><time>2026-05-01T15:56:16Z</time></trkpt><trkpt lat="45.23646320987508" lon="14.697631042704733"><ele>686.0</ele><time>2026-05-01T15:56:17Z</time></trkpt><trkpt lat="45.23638130524099" lon="14.69769928119232"><ele>686.0</ele><time>2026-05-01T15:56:18.001Z</time></trkpt><trkpt lat="45.2362880947717" lon="14.697762869606292"><ele>686.0</ele><time>2026-05-01T15:56:19.001Z</time></trkpt><trkpt lat="45.23618992665833" lon="14.69782637699747"><ele>686.0</ele><time>2026-05-01T15:56:20.001Z</time></trkpt><trkpt lat="45.23608726432481" lon="14.69789211804368"><ele>686.0</ele><time>2026-05-01T15:56:21.001Z</time></trkpt><trkpt lat="45.235978251984875" lon="14.697962114026016"><ele>685.75</ele><time>2026-05-01T15:56:22.001Z</time></trkpt><trkpt lat="45.2358656781866" lon="14.698033836908678"><ele>685.5</ele><time>2026-05-01T15:56:23.001Z</time></trkpt><trkpt lat="45.23575876926574" lon="14.698127184017787"><ele>685.25</ele><time>2026-05-01T15:56:24.001Z</time></trkpt><trkpt lat="45.2356473904161" lon="14.698192992921998"><ele>685.0</ele><time>2026-05-01T15:56:25.001Z</time></trkpt><trkpt lat="45.23554002846408" lon="14.69825194087747"><ele>685.0</ele><time>2026-05-01T15:56:26.001Z</time></trkpt><trkpt lat="45.23544078468971" lon="14.698314809375468"><ele>685.0</ele><time>2026-05-01T15:56:27.001Z</time></trkpt><trkpt lat="45.235352189761535" lon="14.698372055903059"><ele>685.0</ele><time>2026-05-01T15:56:28.001Z</time></trkpt><trkpt lat="45.23526876292748" lon="14.698412495912551"><ele>685.0</ele><time>2026-05-01T15:56:29.001Z</time></trkpt><trkpt lat="45.235205492996684" lon="14.69851947824649"><ele>685.0</ele><time>2026-05-01T15:56:30.001Z</time></trkpt><trkpt lat="45.23514376014498" lon="14.698646233061996"><ele>686.0</ele><time>2026-05-01T15:56:31.001Z</time></trkpt><trkpt lat="45.23508691063263" lon="14.698780315465472"><ele>687.0</ele><time>2026-05-01T15:56:32.001Z</time></trkpt><trkpt lat="45.235032851364515" lon="14.698911436187222"><ele>688.0</ele><time>2026-05-01T15:56:33.001Z</time></trkpt><trkpt lat="45.234976889666946" lon="14.699050898968446"><ele>689.0</ele><time>2026-05-01T15:56:34.001Z</time></trkpt><trkpt lat="45.2349205904964" lon="14.699195571188856"><ele>690.0</ele><time>2026-05-01T15:56:35.001Z</time></trkpt><trkpt lat="45.23485908836236" lon="14.699348512809294"><ele>687.0</ele><time>2026-05-01T15:56:36.001Z</time></trkpt><trkpt lat="45.23479949311513" lon="14.699504454402291"><ele>684.0</ele><time>2026-05-01T15:56:37.001Z</time></trkpt><trkpt lat="45.23473604780416" lon="14.699662187875855"><ele>681.0</ele><time>2026-05-01T15:56:38.001Z</time></trkpt><trkpt lat="45.23467066058375" lon="14.699822807551486"><ele>678.0</ele><time>2026-05-01T15:56:39.001Z</time></trkpt><trkpt lat="45.23460811330637" lon="14.699985655284591"><ele>678.0</ele><time>2026-05-01T15:56:40.001Z</time></trkpt><trkpt lat="45.23454823952212" lon="14.700134791522679"><ele>678.0</ele><time>2026-05-01T15:56:41.001Z</time></trkpt><trkpt lat="45.23449108536404" lon="14.700278244445688"><ele>678.0</ele><time>2026-05-01T15:56:42.001Z</time></trkpt><trkpt lat="45.23444526452614" lon="14.700407924835979"><ele>678.0</ele><time>2026-05-01T15:56:43.001Z</time></trkpt><trkpt lat="45.234380301820075" lon="14.700510655818036"><ele>678.0</ele><time>2026-05-01T15:56:44.001Z</time></trkpt><trkpt lat="45.23433781188213" lon="14.70060107169498"><ele>678.8333333333334</ele><time>2026-05-01T15:56:45.001Z</time></trkpt><trkpt lat="45.234283889074256" lon="14.70069053674021"><ele>679.6666666666666</ele><time>2026-05-01T15:56:46.001Z</time></trkpt><trkpt lat="45.234211191712255" lon="14.70076848757989"><ele>680.5</ele><time>2026-05-01T15:56:47.001Z</time></trkpt><trkpt lat="45.23412747997015" lon="14.700814723501974"><ele>681.3333333333333</ele><time>2026-05-01T15:56:48.001Z</time></trkpt><trkpt lat="45.23406742117232" lon="14.70085191173951"><ele>682.1666666666666</ele><time>2026-05-01T15:56:49.001Z</time></trkpt><trkpt lat="45.2339990404908" lon="14.70088346594605"><ele>683.0</ele><time>2026-05-01T15:56:51.002Z</time></trkpt><trkpt lat="45.23393286215651" lon="14.700913912404731"><ele>680.2</ele><time>2026-05-01T15:56:54.002Z</time></trkpt><trkpt lat="45.233934400156144" lon="14.701129713370392"><ele>677.4</ele><time>2026-05-01T15:56:55.002Z</time></trkpt><trkpt lat="45.233964164178104" lon="14.701212588368435"><ele>674.6</ele><time>2026-05-01T15:56:56.002Z</time></trkpt><trkpt lat="45.233956909136914" lon="14.701394931427425"><ele>671.8000000000001</ele><time>2026-05-01T15:56:58.002Z</time></trkpt><trkpt lat="45.233952849884254" lon="14.701497397347758"><ele>669.0</ele><time>2026-05-01T15:56:59.002Z</time></trkpt><trkpt lat="45.23394962740581" lon="14.701602746390542"><ele>669.0</ele><time>2026-05-01T15:57:00.002Z</time></trkpt><trkpt lat="45.233944630254875" lon="14.701714305411413"><ele>669.0</ele><time>2026-05-01T15:57:01.002Z</time></trkpt><trkpt lat="45.233917818313195" lon="14.701825923664282"><ele>669.0</ele><time>2026-05-01T15:57:02.002Z</time></trkpt><trkpt lat="45.23391498190171" lon="14.701944916970367"><ele>669.0</ele><time>2026-05-01T15:57:03.002Z</time></trkpt><trkpt lat="45.23391181663346" lon="14.702063486800014"><ele>669.0</ele><time>2026-05-01T15:57:04.002Z</time></trkpt><trkpt lat="45.2339085382173" lon="14.702186521960849"><ele>669.0</ele><time>2026-05-01T15:57:05.002Z</time></trkpt><trkpt lat="45.23390526255919" lon="14.702309453770548"><ele>670.5</ele><time>2026-05-01T15:57:06.002Z</time></trkpt><trkpt lat="45.23390144145644" lon="14.702432287387259"><ele>672.0</ele><time>2026-05-01T15:57:07.002Z</time></trkpt><trkpt lat="45.23389734616719" lon="14.702554158543293"><ele>673.5</ele><time>2026-05-01T15:57:08.002Z</time></trkpt><trkpt lat="45.23390162507262" lon="14.70265791481619"><ele>675.0</ele><time>2026-05-01T15:57:09.002Z</time></trkpt><trkpt lat="45.23385625777408" lon="14.702735317260425"><ele>676.5</ele><time>2026-05-01T15:57:10.002Z</time></trkpt><trkpt lat="45.2338102336609" lon="14.702819595162769"><ele>678.0</ele><time>2026-05-01T15:57:11.002Z</time></trkpt><trkpt lat="45.2337727641741" lon="14.702917389562117"><ele>679.4285714285714</ele><time>2026-05-01T15:57:12.002Z</time></trkpt><trkpt lat="45.233712031672646" lon="14.702979835067813"><ele>680.8571428571429</ele><time>2026-05-01T15:57:13.002Z</time></trkpt><trkpt lat="45.233675580946134" lon="14.703064343851677"><ele>682.2857142857143</ele><time>2026-05-01T15:57:14.002Z</time></trkpt><trkpt lat="45.233630707807556" lon="14.703136701831596"><ele>683.7142857142858</ele><time>2026-05-01T15:57:15.002Z</time></trkpt><trkpt lat="45.23359008465215" lon="14.70321353341925"><ele>685.1428571428571</ele><time>2026-05-01T15:57:16.002Z</time></trkpt><trkpt lat="45.233546960268065" lon="14.703294613675006"><ele>686.5714285714287</ele><time>2026-05-01T15:57:17.002Z</time></trkpt><trkpt lat="45.233510656524786" lon="14.703380069969414"><ele>688.0</ele><time>2026-05-01T15:57:18.002Z</time></trkpt><trkpt lat="45.23347479477532" lon="14.703465383760426"><ele>688.0</ele><time>2026-05-01T15:57:19.002Z</time></trkpt><trkpt lat="45.233439911556765" lon="14.703558329577342"><ele>688.0</ele><time>2026-05-01T15:57:20.002Z</time></trkpt><trkpt lat="45.233407239138444" lon="14.703648638192"><ele>688.0</ele><time>2026-05-01T15:57:21.002Z</time></trkpt><trkpt lat="45.23335889717332" lon="14.70373131368199"><ele>688.0</ele><time>2026-05-01T15:57:22.002Z</time></trkpt><trkpt lat="45.23332275040301" lon="14.703825571663598"><ele>688.0</ele><time>2026-05-01T15:57:23.003Z</time></trkpt><trkpt lat="45.23328570119494" lon="14.703922686981828"><ele>688.0</ele><time>2026-05-01T15:57:24.003Z</time></trkpt><trkpt lat="45.23324829074705" lon="14.70402089699295"><ele>687.0</ele><time>2026-05-01T15:57:25.003Z</time></trkpt><trkpt lat="45.23320895932186" lon="14.70412339943669"><ele>686.0</ele><time>2026-05-01T15:57:26.003Z</time></trkpt><trkpt lat="45.2331690782041" lon="14.704226138858221"><ele>685.0</ele><time>2026-05-01T15:57:27.003Z</time></trkpt><trkpt lat="45.233123318694105" lon="14.704329501761531"><ele>684.0</ele><time>2026-05-01T15:57:28.003Z</time></trkpt><trkpt lat="45.23306660012899" lon="14.704417723598679"><ele>683.0</ele><time>2026-05-01T15:57:29.003Z</time></trkpt><trkpt lat="45.23300854663243" lon="14.704525230658646"><ele>682.0</ele><time>2026-05-01T15:57:30.003Z</time></trkpt><trkpt lat="45.2329357691323" lon="14.70460816428545"><ele>686.4000000000001</ele><time>2026-05-01T15:57:31.003Z</time></trkpt><trkpt lat="45.23286185262127" lon="14.70470059343935"><ele>690.8000000000001</ele><time>2026-05-01T15:57:32.003Z</time></trkpt><trkpt lat="45.232783938788195" lon="14.704789982754674"><ele>695.2</ele><time>2026-05-01T15:57:33.003Z</time></trkpt><trkpt lat="45.232702301165695" lon="14.704886598633582"><ele>699.6</ele><time>2026-05-01T15:57:34.003Z</time></trkpt><trkpt lat="45.23262467147879" lon="14.705001108811233"><ele>704.0</ele><time>2026-05-01T15:57:35.003Z</time></trkpt><trkpt lat="45.232544131041756" lon="14.705109627565594"><ele>704.0</ele><time>2026-05-01T15:57:36.003Z</time></trkpt><trkpt lat="45.23246272643725" lon="14.705220098615982"><ele>704.0</ele><time>2026-05-01T15:57:37.003Z</time></trkpt><trkpt lat="45.23238302305799" lon="14.70533002324602"><ele>704.0</ele><time>2026-05-01T15:57:38.003Z</time></trkpt><trkpt lat="45.23230054837604" lon="14.705453249276488"><ele>704.0</ele><time>2026-05-01T15:57:39.003Z</time></trkpt><trkpt lat="45.23221112888574" lon="14.705572083445771"><ele>703.5</ele><time>2026-05-01T15:57:40.001Z</time></trkpt><trkpt lat="45.23211869793087" lon="14.705691786779383"><ele>703.0</ele><time>2026-05-01T15:57:41.001Z</time></trkpt><trkpt lat="45.23203007165142" lon="14.705803942807453"><ele>702.5</ele><time>2026-05-01T15:57:42.001Z</time></trkpt><trkpt lat="45.23194204100337" lon="14.7059127041735"><ele>702.0</ele><time>2026-05-01T15:57:43.001Z</time></trkpt><trkpt lat="45.23186112019084" lon="14.70602473731987"><ele>706.2</ele><time>2026-05-01T15:57:44.001Z</time></trkpt><trkpt lat="45.231784510121955" lon="14.706116059745975"><ele>710.4000000000001</ele><time>2026-05-01T15:57:45.001Z</time></trkpt><trkpt lat="45.23171738602776" lon="14.70623593875941"><ele>714.5999999999999</ele><time>2026-05-01T15:57:46Z</time></trkpt><trkpt lat="45.23165234336701" lon="14.706355518135837"><ele>718.8</ele><time>2026-05-01T15:57:47Z</time></trkpt><trkpt lat="45.23159455949885" lon="14.70648196137998"><ele>723.0</ele><time>2026-05-01T15:57:48Z</time></trkpt><trkpt lat="45.23153804447392" lon="14.706612761914275"><ele>723.0</ele><time>2026-05-01T15:57:49Z</time></trkpt><trkpt lat="45.23148986649196" lon="14.70675448083006"><ele>723.0</ele><time>2026-05-01T15:57:50Z</time></trkpt><trkpt lat="45.231447326686855" lon="14.70689791715986"><ele>723.0</ele><time>2026-05-01T15:57:51Z</time></trkpt><trkpt lat="45.23141057545116" lon="14.70705283309288"><ele>723.0</ele><time>2026-05-01T15:57:52Z</time></trkpt><trkpt lat="45.23136106641815" lon="14.707204756181362"><ele>721.2</ele><time>2026-05-01T15:57:53Z</time></trkpt><trkpt lat="45.231322634821055" lon="14.707356484807352"><ele>719.4</ele><time>2026-05-01T15:57:54Z</time></trkpt><trkpt lat="45.23129684850613" lon="14.707519398190481"><ele>717.6</ele><time>2026-05-01T15:57:55Z</time></trkpt><trkpt lat="45.23125715929552" lon="14.707672021538482"><ele>715.8000000000001</ele><time>2026-05-01T15:57:56Z</time></trkpt><trkpt lat="45.231211489391875" lon="14.70779935669291"><ele>714.0</ele><time>2026-05-01T15:57:57Z</time></trkpt><trkpt lat="45.23117179550349" lon="14.707944930839306"><ele>714.0</ele><time>2026-05-01T15:57:58Z</time></trkpt><trkpt lat="45.23112690734366" lon="14.708094568914829"><ele>714.0</ele><time>2026-05-01T15:57:59Z</time></trkpt><trkpt lat="45.2310725968289" lon="14.70823410406218"><ele>714.0</ele><time>2026-05-01T15:58:00Z</time></trkpt><trkpt lat="45.231017531107604" lon="14.708378430715053"><ele>714.0</ele><time>2026-05-01T15:58:01Z</time></trkpt><trkpt lat="45.2309660181778" lon="14.708521410734694"><ele>719.0</ele><time>2026-05-01T15:58:02Z</time></trkpt><trkpt lat="45.230915762064186" lon="14.708660848088593"><ele>724.0</ele><time>2026-05-01T15:58:03Z</time></trkpt><trkpt lat="45.23087053322232" lon="14.708793468892347"><ele>729.0</ele><time>2026-05-01T15:58:04Z</time></trkpt><trkpt lat="45.230822356376656" lon="14.708918004036235"><ele>734.0</ele><time>2026-05-01T15:58:05Z</time></trkpt><trkpt lat="45.23077330835732" lon="14.709035531692622"><ele>739.0</ele><time>2026-05-01T15:58:06Z</time></trkpt><trkpt lat="45.23072164324532" lon="14.70913933589041"><ele>739.0</ele><time>2026-05-01T15:58:07Z</time></trkpt><trkpt lat="45.230674155893674" lon="14.709234725109402"><ele>739.0</ele><time>2026-05-01T15:58:08Z</time></trkpt><trkpt lat="45.23063793428494" lon="14.709324201170112"><ele>739.0</ele><time>2026-05-01T15:58:09Z</time></trkpt><trkpt lat="45.23060598453725" lon="14.709407893202423"><ele>739.0</ele><time>2026-05-01T15:58:10Z</time></trkpt><trkpt lat="45.230581365749785" lon="14.709504956462407"><ele>739.0</ele><time>2026-05-01T15:58:11.001Z</time></trkpt><trkpt lat="45.230551492135504" lon="14.7096202235613"><ele>739.0</ele><time>2026-05-01T15:58:12.001Z</time></trkpt><trkpt lat="45.23051473909927" lon="14.709731942546568"><ele>735.6</ele><time>2026-05-01T15:58:13.001Z</time></trkpt><trkpt lat="45.230467698138874" lon="14.709844015311917"><ele>732.2</ele><time>2026-05-01T15:58:14.001Z</time></trkpt><trkpt lat="45.230425033946226" lon="14.70994833817758"><ele>728.8000000000001</ele><time>2026-05-01T15:58:15.001Z</time></trkpt><trkpt lat="45.23041896801671" lon="14.7101019556738"><ele>725.4000000000001</ele><time>2026-05-01T15:58:17.001Z</time></trkpt><trkpt lat="45.230443347567935" lon="14.710191338884197"><ele>722.0</ele><time>2026-05-01T15:58:18.001Z</time></trkpt><trkpt lat="45.23046579146604" lon="14.710343613102133"><ele>722.0</ele><time>2026-05-01T15:58:20.001Z</time></trkpt><trkpt lat="45.230442336045705" lon="14.710429309880249"><ele>722.0</ele><time>2026-05-01T15:58:21.001Z</time></trkpt><trkpt lat="45.230401807643766" lon="14.710513495238025"><ele>722.0</ele><time>2026-05-01T15:58:22.001Z</time></trkpt><trkpt lat="45.23035382694488" lon="14.710601418048002"><ele>722.0</ele><time>2026-05-01T15:58:23.001Z</time></trkpt><trkpt lat="45.23031649579463" lon="14.710690924686194"><ele>722.0</ele><time>2026-05-01T15:58:24.001Z</time></trkpt><trkpt lat="45.23027830655768" lon="14.710780509691968"><ele>722.0</ele><time>2026-05-01T15:58:25.001Z</time></trkpt><trkpt lat="45.2302645980181" lon="14.71089537274161"><ele>722.0</ele><time>2026-05-01T15:58:26.001Z</time></trkpt><trkpt lat="45.23025420630307" lon="14.711008975114158"><ele>724.6666666666666</ele><time>2026-05-01T15:58:27.001Z</time></trkpt><trkpt lat="45.23024413477684" lon="14.711134574886923"><ele>727.3333333333333</ele><time>2026-05-01T15:58:28.001Z</time></trkpt><trkpt lat="45.23023374700071" lon="14.711249322914705"><ele>730.0</ele><time>2026-05-01T15:58:29.001Z</time></trkpt><trkpt lat="45.23022384920588" lon="14.711358120975476"><ele>732.6666666666666</ele><time>2026-05-01T15:58:30.001Z</time></trkpt><trkpt lat="45.230214659024334" lon="14.711460066460095"><ele>735.3333333333334</ele><time>2026-05-01T15:58:31.001Z</time></trkpt><trkpt lat="45.23022220539435" lon="14.71156281865728"><ele>738.0</ele><time>2026-05-01T15:58:32.001Z</time></trkpt><trkpt lat="45.23019825572679" lon="14.711711365376537"><ele>738.0</ele><time>2026-05-01T15:58:34.001Z</time></trkpt><trkpt lat="45.23026492983035" lon="14.711861301414725"><ele>738.0</ele><time>2026-05-01T15:58:36.001Z</time></trkpt><trkpt lat="45.230318453708534" lon="14.71191795210688"><ele>738.0</ele><time>2026-05-01T15:58:37.001Z</time></trkpt><trkpt lat="45.23038960899645" lon="14.711944315743551"><ele>738.0</ele><time>2026-05-01T15:58:38.001Z</time></trkpt><trkpt lat="45.23046680317847" lon="14.711935870974617"><ele>738.0</ele><time>2026-05-01T15:58:39.001Z</time></trkpt><trkpt lat="45.230538692222424" lon="14.711922275811657"><ele>738.0</ele><time>2026-05-01T15:58:40.001Z</time></trkpt><trkpt lat="45.23060663059258" lon="14.711916262795807"><ele>738.8333333333334</ele><time>2026-05-01T15:58:41.001Z</time></trkpt><trkpt lat="45.230672085251804" lon="14.71193216965115"><ele>739.6666666666666</ele><time>2026-05-01T15:58:42.001Z</time></trkpt><trkpt lat="45.23075242587405" lon="14.711949458384236"><ele>740.5</ele><time>2026-05-01T15:58:43.001Z</time></trkpt><trkpt lat="45.23082588999033" lon="14.712002297628986"><ele>741.3333333333333</ele><time>2026-05-01T15:58:44.001Z</time></trkpt><trkpt lat="45.23092193782565" lon="14.712057444252167"><ele>742.1666666666666</ele><time>2026-05-01T15:58:45.001Z</time></trkpt><trkpt lat="45.231009329795" lon="14.712110592645562"><ele>743.0</ele><time>2026-05-01T15:58:46.001Z</time></trkpt><trkpt lat="45.23110903991522" lon="14.712171232358054"><ele>743.0</ele><time>2026-05-01T15:58:47.001Z</time></trkpt><trkpt lat="45.23120962555097" lon="14.712232404723371"><ele>743.0</ele><time>2026-05-01T15:58:48.001Z</time></trkpt><trkpt lat="45.231317583161335" lon="14.712296001605438"><ele>743.0</ele><time>2026-05-01T15:58:49.001Z</time></trkpt><trkpt lat="45.23143220256795" lon="14.712350462555582"><ele>743.0</ele><time>2026-05-01T15:58:50.001Z</time></trkpt><trkpt lat="45.23153565722048" lon="14.712399694956854"><ele>743.3333333333333</ele><time>2026-05-01T15:58:51.001Z</time></trkpt><trkpt lat="45.231615121761344" lon="14.712450443316662"><ele>743.6666666666666</ele><time>2026-05-01T15:58:52.001Z</time></trkpt><trkpt lat="45.23168122303198" lon="14.712444482268277"><ele>744.0</ele><time>2026-05-01T15:58:53.002Z</time></trkpt><trkpt lat="45.23177787925312" lon="14.712456692749242"><ele>744.3333333333334</ele><time>2026-05-01T15:58:55.002Z</time></trkpt><trkpt lat="45.23189239235914" lon="14.712445598432828"><ele>744.6666666666667</ele><time>2026-05-01T15:58:57.002Z</time></trkpt><trkpt lat="45.23195652164493" lon="14.71243108240593"><ele>745.0</ele><time>2026-05-01T15:58:58.002Z</time></trkpt><trkpt lat="45.23202659049335" lon="14.712422460416517"><ele>745.0</ele><time>2026-05-01T15:58:59.002Z</time></trkpt><trkpt lat="45.23210568498243" lon="14.71238270580361"><ele>745.0</ele><time>2026-05-01T15:59:00.002Z</time></trkpt><trkpt lat="45.232196104931965" lon="14.712345492957486"><ele>745.0</ele><time>2026-05-01T15:59:01.002Z</time></trkpt><trkpt lat="45.23228994326788" lon="14.712293785978796"><ele>745.0</ele><time>2026-05-01T15:59:02.002Z</time></trkpt><trkpt lat="45.23238640312713" lon="14.71223144045834"><ele>745.0</ele><time>2026-05-01T15:59:03.002Z</time></trkpt><trkpt lat="45.23246328665757" lon="14.712177669955667"><ele>744.6</ele><time>2026-05-01T15:59:04.002Z</time></trkpt><trkpt lat="45.232552861047814" lon="14.71211441925412"><ele>744.2</ele><time>2026-05-01T15:59:05.002Z</time></trkpt><trkpt lat="45.23263596730044" lon="14.71205509542867"><ele>743.8</ele><time>2026-05-01T15:59:06.002Z</time></trkpt><trkpt lat="45.23271876931504" lon="14.711995988343089"><ele>743.4</ele><time>2026-05-01T15:59:07.002Z</time></trkpt><trkpt lat="45.23280894781685" lon="14.71191985780399"><ele>743.0</ele><time>2026-05-01T15:59:08.002Z</time></trkpt><trkpt lat="45.23289384565595" lon="14.711854631012892"><ele>743.8333333333333</ele><time>2026-05-01T15:59:09.002Z</time></trkpt><trkpt lat="45.2329459565771" lon="14.711781898391767"><ele>744.6666666666666</ele><time>2026-05-01T15:59:10.002Z</time></trkpt><trkpt lat="45.233026095509956" lon="14.71172006217304"><ele>745.5</ele><time>2026-05-01T15:59:11.002Z</time></trkpt><trkpt lat="45.23310695510725" lon="14.711659975659135"><ele>746.3333333333334</ele><time>2026-05-01T15:59:12.002Z</time></trkpt><trkpt lat="45.23317979952654" lon="14.711590885454992"><ele>747.1666666666667</ele><time>2026-05-01T15:59:13.002Z</time></trkpt><trkpt lat="45.23326204417676" lon="14.711551111350488"><ele>748.0</ele><time>2026-05-01T15:59:14.002Z</time></trkpt><trkpt lat="45.23332791098022" lon="14.711520137430766"><ele>748.0</ele><time>2026-05-01T15:59:15.002Z</time></trkpt><trkpt lat="45.23339262881118" lon="14.711500034986857"><ele>748.0</ele><time>2026-05-01T15:59:16.002Z</time></trkpt><trkpt lat="45.2334725317103" lon="14.711519834888021"><ele>748.0</ele><time>2026-05-01T15:59:18.002Z</time></trkpt><trkpt lat="45.23353718951386" lon="14.711579324688858"><ele>748.0</ele><time>2026-05-01T15:59:20.002Z</time></trkpt><trkpt lat="45.233631161892944" lon="14.71171381385076"><ele>748.0</ele><time>2026-05-01T15:59:22.002Z</time></trkpt><trkpt lat="45.233689018248505" lon="14.71181430372518"><ele>748.0</ele><time>2026-05-01T15:59:23.002Z</time></trkpt><trkpt lat="45.23376105960935" lon="14.71190589666"><ele>747.5</ele><time>2026-05-01T15:59:24.002Z</time></trkpt><trkpt lat="45.23380806246899" lon="14.71200944330665"><ele>747.0</ele><time>2026-05-01T15:59:25.002Z</time></trkpt><trkpt lat="45.233846669381784" lon="14.71210195340389"><ele>746.5</ele><time>2026-05-01T15:59:26.002Z</time></trkpt><trkpt lat="45.23387579634294" lon="14.712200896153126"><ele>746.0</ele><time>2026-05-01T15:59:27.002Z</time></trkpt><trkpt lat="45.23390390287932" lon="14.712290719503605"><ele>745.5</ele><time>2026-05-01T15:59:28.002Z</time></trkpt><trkpt lat="45.2339265244356" lon="14.712450610604021"><ele>745.0</ele><time>2026-05-01T15:59:30.002Z</time></trkpt><trkpt lat="45.23392774694159" lon="14.712594846090916"><ele>745.0</ele><time>2026-05-01T15:59:32.002Z</time></trkpt><trkpt lat="45.233932950842295" lon="14.712726456871005"><ele>745.0</ele><time>2026-05-01T15:59:34.003Z</time></trkpt><trkpt lat="45.23390876641014" lon="14.71289285287737"><ele>745.0</ele><time>2026-05-01T15:59:36.003Z</time></trkpt><trkpt lat="45.23388367291438" lon="14.713036835512474"><ele>745.0</ele><time>2026-05-01T15:59:38.003Z</time></trkpt><trkpt lat="45.23386467778377" lon="14.713154189964074"><ele>745.0</ele><time>2026-05-01T15:59:40.003Z</time></trkpt><trkpt lat="45.2338404090428" lon="14.713315940275972"><ele>746.3333333333334</ele><time>2026-05-01T15:59:42.003Z</time></trkpt><trkpt lat="45.233816545979245" lon="14.713514118041804"><ele>747.6666666666667</ele><time>2026-05-01T15:59:44.003Z</time></trkpt><trkpt lat="45.23380639500337" lon="14.713606909997516"><ele>749.0</ele><time>2026-05-01T15:59:45.003Z</time></trkpt><trkpt lat="45.233796269212306" lon="14.713701463311047"><ele>750.3333333333334</ele><time>2026-05-01T15:59:46Z</time></trkpt><trkpt lat="45.23378448068016" lon="14.713811543151303"><ele>751.6666666666666</ele><time>2026-05-01T15:59:47Z</time></trkpt><trkpt lat="45.233772039193596" lon="14.713924564716542"><ele>753.0</ele><time>2026-05-01T15:59:48Z</time></trkpt><trkpt lat="45.23377446228262" lon="14.714037212749899"><ele>753.6666666666666</ele><time>2026-05-01T15:59:49Z</time></trkpt><trkpt lat="45.233761567748004" lon="14.714126189691562"><ele>754.3333333333334</ele><time>2026-05-01T15:59:50Z</time></trkpt><trkpt lat="45.23374460859355" lon="14.714259751974046"><ele>755.0</ele><time>2026-05-01T15:59:51Z</time></trkpt><trkpt lat="45.23373192807903" lon="14.714381457729186"><ele>755.6666666666667</ele><time>2026-05-01T15:59:52Z</time></trkpt><trkpt lat="45.23371871563854" lon="14.714494614236157"><ele>756.3333333333334</ele><time>2026-05-01T15:59:53Z</time></trkpt><trkpt lat="45.2337057075433" lon="14.71461015888829"><ele>757.0</ele><time>2026-05-01T15:59:54Z</time></trkpt><trkpt lat="45.23369636092888" lon="14.714724374482754"><ele>757.2</ele><time>2026-05-01T15:59:55Z</time></trkpt><trkpt lat="45.23367485307242" lon="14.714816183208688"><ele>757.4000000000001</ele><time>2026-05-01T15:59:56Z</time></trkpt><trkpt lat="45.23366118295628" lon="14.714955676120026"><ele>757.5999999999999</ele><time>2026-05-01T15:59:57Z</time></trkpt><trkpt lat="45.233648430968735" lon="14.715084798098527"><ele>757.8</ele><time>2026-05-01T15:59:58Z</time></trkpt><trkpt lat="45.233633970707466" lon="14.715231220000902"><ele>758.0</ele><time>2026-05-01T15:59:59Z</time></trkpt><trkpt lat="45.233621388456925" lon="14.715364761136673"><ele>758.2</ele><time>2026-05-01T16:00:00Z</time></trkpt><trkpt lat="45.23361003123076" lon="14.715497727688106"><ele>758.4</ele><time>2026-05-01T16:00:01Z</time></trkpt><trkpt lat="45.23359886325549" lon="14.715628478058319"><ele>758.6</ele><time>2026-05-01T16:00:02Z</time></trkpt><trkpt lat="45.23360315781119" lon="14.715759337138442"><ele>758.8000000000001</ele><time>2026-05-01T16:00:03Z</time></trkpt><trkpt lat="45.23359814145204" lon="14.715870089704598"><ele>759.0</ele><time>2026-05-01T16:00:04Z</time></trkpt><trkpt lat="45.23358987205622" lon="14.716026342308446"><ele>758.4000000000001</ele><time>2026-05-01T16:00:05Z</time></trkpt><trkpt lat="45.23356755958629" lon="14.716157440121558"><ele>757.8</ele><time>2026-05-01T16:00:06Z</time></trkpt><trkpt lat="45.233575450602764" lon="14.71632051137541"><ele>757.2</ele><time>2026-05-01T16:00:07Z</time></trkpt><trkpt lat="45.23355540148954" lon="14.716463696505969"><ele>756.5999999999999</ele><time>2026-05-01T16:00:08Z</time></trkpt><trkpt lat="45.23356903119151" lon="14.716597838846802"><ele>756.0</ele><time>2026-05-01T16:00:09Z</time></trkpt><trkpt lat="45.23356005330355" lon="14.716731420205512"><ele>756.0</ele><time>2026-05-01T16:00:10Z</time></trkpt><trkpt lat="45.233551454254936" lon="14.716829027440003"><ele>756.0</ele><time>2026-05-01T16:00:11Z</time></trkpt><trkpt lat="45.233569387026805" lon="14.71693807255771"><ele>756.0</ele><time>2026-05-01T16:00:12Z</time></trkpt><trkpt lat="45.23358214818119" lon="14.71703119795058"><ele>756.0</ele><time>2026-05-01T16:00:13.001Z</time></trkpt><trkpt lat="45.233642293839154" lon="14.717212399450554"><ele>756.0</ele><time>2026-05-01T16:00:15.001Z</time></trkpt><trkpt lat="45.23370650219413" lon="14.717311848094493"><ele>755.5</ele><time>2026-05-01T16:00:17.001Z</time></trkpt><trkpt lat="45.23377387620079" lon="14.717366892010086"><ele>755.0</ele><time>2026-05-01T16:00:19.001Z</time></trkpt><trkpt lat="45.23386797254216" lon="14.717365260682811"><ele>754.5</ele><time>2026-05-01T16:00:21.001Z</time></trkpt><trkpt lat="45.23393645134113" lon="14.717348896004413"><ele>754.0</ele><time>2026-05-01T16:00:22.001Z</time></trkpt><trkpt lat="45.23401523224156" lon="14.717339655261299"><ele>753.5</ele><time>2026-05-01T16:00:23.001Z</time></trkpt><trkpt lat="45.23408526248563" lon="14.717325760364549"><ele>753.0</ele><time>2026-05-01T16:00:24.001Z</time></trkpt><trkpt lat="45.23414844170567" lon="14.717319782515037"><ele>751.8</ele><time>2026-05-01T16:00:25.001Z</time></trkpt><trkpt lat="45.234268856641286" lon="14.717345974191652"><ele>750.5999999999999</ele><time>2026-05-01T16:00:27.001Z</time></trkpt><trkpt lat="45.23433172717545" lon="14.71742670161885"><ele>749.4000000000001</ele><time>2026-05-01T16:00:29.001Z</time></trkpt><trkpt lat="45.234417484700586" lon="14.717470766124023"><ele>748.2</ele><time>2026-05-01T16:00:31.001Z</time></trkpt><trkpt lat="45.23450253554891" lon="14.717519937217302"><ele>747.0</ele><time>2026-05-01T16:00:33.001Z</time></trkpt><trkpt lat="45.23458366332107" lon="14.717579468863388"><ele>747.0</ele><time>2026-05-01T16:00:35.001Z</time></trkpt><trkpt lat="45.23464395217611" lon="14.717621703972467"><ele>747.0</ele><time>2026-05-01T16:00:37.001Z</time></trkpt><trkpt lat="45.23473288794365" lon="14.717659256059314"><ele>747.0</ele><time>2026-05-01T16:00:42.001Z</time></trkpt><trkpt lat="45.23467930893052" lon="14.717489041149951"><ele>747.0</ele><time>2026-05-01T16:00:50.001Z</time></trkpt><trkpt lat="45.23458944751136" lon="14.717488973304544"><ele>747.0</ele><time>2026-05-01T16:00:54.001Z</time></trkpt><trkpt lat="45.23449820661508" lon="14.717402895515097"><ele>747.0</ele><time>2026-05-01T16:00:57.001Z</time></trkpt><trkpt lat="45.23440814666128" lon="14.717382834966818"><ele>747.0</ele><time>2026-05-01T16:00:59.002Z</time></trkpt><trkpt lat="45.23434265120828" lon="14.717351643695572"><ele>747.0</ele><time>2026-05-01T16:01:01.002Z</time></trkpt><trkpt lat="45.234224783226466" lon="14.71735372136889"><ele>747.0</ele><time>2026-05-01T16:01:03.002Z</time></trkpt><trkpt lat="45.23413557069808" lon="14.71736629384289"><ele>747.0</ele><time>2026-05-01T16:01:04.002Z</time></trkpt><trkpt lat="45.23406133671412" lon="14.717375943040384"><ele>747.0</ele><time>2026-05-01T16:01:05.002Z</time></trkpt><trkpt lat="45.23399744898123" lon="14.71738909234112"><ele>747.3333333333334</ele><time>2026-05-01T16:01:06.002Z</time></trkpt><trkpt lat="45.23389847737931" lon="14.71739552080177"><ele>747.6666666666666</ele><time>2026-05-01T16:01:08.002Z</time></trkpt><trkpt lat="45.23380795855711" lon="14.717413508967544"><ele>748.0</ele><time>2026-05-01T16:01:10.002Z</time></trkpt><trkpt lat="45.233739819186134" lon="14.717390126688612"><ele>748.3333333333333</ele><time>2026-05-01T16:01:15.002Z</time></trkpt><trkpt lat="45.23371694860745" lon="14.71747767114951"><ele>748.6666666666666</ele><time>2026-05-01T16:01:39.002Z</time></trkpt><trkpt lat="45.23365251523468" lon="14.717614073675845"><ele>749.0</ele><time>2026-05-01T16:01:41.003Z</time></trkpt><trkpt lat="45.23366510616862" lon="14.71777064523499"><ele>749.0</ele><time>2026-05-01T16:01:43.003Z</time></trkpt><trkpt lat="45.23367351661143" lon="14.71789529695017"><ele>749.0</ele><time>2026-05-01T16:01:45.003Z</time></trkpt><trkpt lat="45.23367107233397" lon="14.717991790282712"><ele>749.0</ele><time>2026-05-01T16:01:47.003Z</time></trkpt><trkpt lat="45.23364146763695" lon="14.718096414766315"><ele>749.0</ele><time>2026-05-01T16:01:49.003Z</time></trkpt><trkpt lat="45.23357626518216" lon="14.718182091866066"><ele>749.0</ele><time>2026-05-01T16:01:51.003Z</time></trkpt><trkpt lat="45.2334901390274" lon="14.718290478439796"><ele>749.0</ele><time>2026-05-01T16:01:53.001Z</time></trkpt><trkpt lat="45.23342991826486" lon="14.718349757073822"><ele>749.0</ele><time>2026-05-01T16:01:54.001Z</time></trkpt><trkpt lat="45.233334372613655" lon="14.718411656182147"><ele>749.0</ele><time>2026-05-01T16:01:55.001Z</time></trkpt><trkpt lat="45.23327360604076" lon="14.718471478802805"><ele>749.0</ele><time>2026-05-01T16:01:56.001Z</time></trkpt><trkpt lat="45.2332094692243" lon="14.718530335729339"><ele>749.0</ele><time>2026-05-01T16:01:57.001Z</time></trkpt><trkpt lat="45.23312941252748" lon="14.718577375260518"><ele>749.0</ele><time>2026-05-01T16:01:58.001Z</time></trkpt><trkpt lat="45.23307351177735" lon="14.718637623483355"><ele>749.0</ele><time>2026-05-01T16:01:59.001Z</time></trkpt><trkpt lat="45.23300385830307" lon="14.71872523245348"><ele>749.6</ele><time>2026-05-01T16:02:00.001Z</time></trkpt><trkpt lat="45.23294620260901" lon="14.718808263800666"><ele>750.2</ele><time>2026-05-01T16:02:01.001Z</time></trkpt><trkpt lat="45.23287667674888" lon="14.718917129996218"><ele>750.8000000000001</ele><time>2026-05-01T16:02:02.001Z</time></trkpt><trkpt lat="45.23281564775368" lon="14.719015656315163"><ele>751.4000000000001</ele><time>2026-05-01T16:02:03.001Z</time></trkpt><trkpt lat="45.232755048939495" lon="14.71911348805635"><ele>752.0</ele><time>2026-05-01T16:02:04.001Z</time></trkpt><trkpt lat="45.23269706397733" lon="14.719205937105352"><ele>752.0</ele><time>2026-05-01T16:02:05.001Z</time></trkpt><trkpt lat="45.232635571810675" lon="14.71929660458762"><ele>752.0</ele><time>2026-05-01T16:02:06.001Z</time></trkpt><trkpt lat="45.23256926622061" lon="14.719392362805985"><ele>752.0</ele><time>2026-05-01T16:02:07.001Z</time></trkpt><trkpt lat="45.2325012951353" lon="14.719490069527094"><ele>752.0</ele><time>2026-05-01T16:02:08.001Z</time></trkpt><trkpt lat="45.23244345521612" lon="14.719573719029233"><ele>752.0</ele><time>2026-05-01T16:02:09.001Z</time></trkpt><trkpt lat="45.232370162625045" lon="14.719675981842363"><ele>752.4000000000001</ele><time>2026-05-01T16:02:10.001Z</time></trkpt><trkpt lat="45.23229142882318" lon="14.719784124720574"><ele>752.8000000000001</ele><time>2026-05-01T16:02:11.001Z</time></trkpt><trkpt lat="45.23221484319629" lon="14.719887396218002"><ele>753.2</ele><time>2026-05-01T16:02:12.001Z</time></trkpt><trkpt lat="45.23212007540042" lon="14.72000704395487"><ele>753.6</ele><time>2026-05-01T16:02:13.001Z</time></trkpt><trkpt lat="45.232037755797926" lon="14.720104993145808"><ele>754.0</ele><time>2026-05-01T16:02:14.001Z</time></trkpt><trkpt lat="45.23196316787137" lon="14.720187277600312"><ele>751.6</ele><time>2026-05-01T16:02:15.001Z</time></trkpt><trkpt lat="45.23187562319331" lon="14.720278276045068"><ele>749.2</ele><time>2026-05-01T16:02:16.001Z</time></trkpt><trkpt lat="45.23179076609933" lon="14.720362334587481"><ele>746.8000000000001</ele><time>2026-05-01T16:02:17.001Z</time></trkpt><trkpt lat="45.2317097264006" lon="14.720443717138128"><ele>744.4000000000001</ele><time>2026-05-01T16:02:18.001Z</time></trkpt><trkpt lat="45.23161476213267" lon="14.72053158117248"><ele>742.0</ele><time>2026-05-01T16:02:19.001Z</time></trkpt><trkpt lat="45.23150346661698" lon="14.720622568126693"><ele>743.4000000000001</ele><time>2026-05-01T16:02:20.001Z</time></trkpt><trkpt lat="45.2314080882813" lon="14.720696532845608"><ele>744.8000000000001</ele><time>2026-05-01T16:02:21.001Z</time></trkpt><trkpt lat="45.231330241387425" lon="14.720771767131286"><ele>746.2</ele><time>2026-05-01T16:02:22.001Z</time></trkpt><trkpt lat="45.231248602566346" lon="14.720880559042826"><ele>747.6</ele><time>2026-05-01T16:02:23.001Z</time></trkpt><trkpt lat="45.23118509415386" lon="14.721028763176557"><ele>749.0</ele><time>2026-05-01T16:02:24.001Z</time></trkpt><trkpt lat="45.231156146064386" lon="14.721163260149083"><ele>749.0</ele><time>2026-05-01T16:02:25.001Z</time></trkpt><trkpt lat="45.231130576997565" lon="14.721276283360595"><ele>749.0</ele><time>2026-05-01T16:02:26.001Z</time></trkpt><trkpt lat="45.23109826754" lon="14.721381272803411"><ele>749.0</ele><time>2026-05-01T16:02:27.001Z</time></trkpt><trkpt lat="45.23105424359583" lon="14.721484908801777"><ele>749.0</ele><time>2026-05-01T16:02:28.001Z</time></trkpt><trkpt lat="45.23100898242904" lon="14.721557032643913"><ele>749.0</ele><time>2026-05-01T16:02:29.001Z</time></trkpt><trkpt lat="45.23095869463898" lon="14.721625174326276"><ele>749.0</ele><time>2026-05-01T16:02:30.001Z</time></trkpt><trkpt lat="45.23090678643623" lon="14.721692523177914"><ele>749.0</ele><time>2026-05-01T16:02:31.001Z</time></trkpt><trkpt lat="45.23084574901425" lon="14.721771718075974"><ele>749.0</ele><time>2026-05-01T16:02:32.001Z</time></trkpt><trkpt lat="45.230761724537984" lon="14.721880738247236"><ele>749.0</ele><time>2026-05-01T16:02:33.001Z</time></trkpt><trkpt lat="45.23069172353707" lon="14.721978130911552"><ele>749.0</ele><time>2026-05-01T16:02:34.001Z</time></trkpt><trkpt lat="45.23062978134096" lon="14.722080869886625"><ele>749.0</ele><time>2026-05-01T16:02:35.001Z</time></trkpt><trkpt lat="45.23056163897906" lon="14.722137240870543"><ele>750.8000000000001</ele><time>2026-05-01T16:02:36.001Z</time></trkpt><trkpt lat="45.23045337241488" lon="14.722182199042289"><ele>752.6</ele><time>2026-05-01T16:02:37.001Z</time></trkpt><trkpt lat="45.23035705214125" lon="14.722233432640495"><ele>754.4</ele><time>2026-05-01T16:02:38.001Z</time></trkpt><trkpt lat="45.23026569886565" lon="14.722325734892767"><ele>756.2</ele><time>2026-05-01T16:02:39.001Z</time></trkpt><trkpt lat="45.23016923311773" lon="14.722419686236307"><ele>758.0</ele><time>2026-05-01T16:02:40.001Z</time></trkpt><trkpt lat="45.230067147111185" lon="14.722512407188226"><ele>758.0</ele><time>2026-05-01T16:02:41.001Z</time></trkpt><trkpt lat="45.22996867502125" lon="14.722594678611248"><ele>758.0</ele><time>2026-05-01T16:02:42.001Z</time></trkpt><trkpt lat="45.22988809242451" lon="14.722673572216392"><ele>758.0</ele><time>2026-05-01T16:02:43.001Z</time></trkpt><trkpt lat="45.22982599074349" lon="14.722752808794459"><ele>758.0</ele><time>2026-05-01T16:02:44.001Z</time></trkpt><trkpt lat="45.229778756923665" lon="14.722836445751465"><ele>758.0</ele><time>2026-05-01T16:02:45.001Z</time></trkpt><trkpt lat="45.22970113166516" lon="14.722972334733065"><ele>757.8333333333333</ele><time>2026-05-01T16:02:46.001Z</time></trkpt><trkpt lat="45.229625312912404" lon="14.723075613879256"><ele>757.6666666666666</ele><time>2026-05-01T16:02:47.001Z</time></trkpt><trkpt lat="45.2295560088045" lon="14.723164006209341"><ele>757.5</ele><time>2026-05-01T16:02:48.001Z</time></trkpt><trkpt lat="45.22948765564088" lon="14.723242682122018"><ele>757.3333333333334</ele><time>2026-05-01T16:02:49.001Z</time></trkpt><trkpt lat="45.229421539618755" lon="14.72329193164833"><ele>757.1666666666667</ele><time>2026-05-01T16:02:50.001Z</time></trkpt><trkpt lat="45.229352527733134" lon="14.723329642787299"><ele>757.0</ele><time>2026-05-01T16:02:51.001Z</time></trkpt><trkpt lat="45.229286714699484" lon="14.723347510276229"><ele>757.0</ele><time>2026-05-01T16:02:52.001Z</time></trkpt><trkpt lat="45.229186264401655" lon="14.7233510351869"><ele>757.0</ele><time>2026-05-01T16:02:53.001Z</time></trkpt><trkpt lat="45.22909486881053" lon="14.723374005374058"><ele>757.0</ele><time>2026-05-01T16:02:54.001Z</time></trkpt><trkpt lat="45.2290054953567" lon="14.723411223116567"><ele>757.0</ele><time>2026-05-01T16:02:55.001Z</time></trkpt><trkpt lat="45.228907047253664" lon="14.723465794749107"><ele>757.0</ele><time>2026-05-01T16:02:56.002Z</time></trkpt><trkpt lat="45.228810008442245" lon="14.723515814158445"><ele>757.2</ele><time>2026-05-01T16:02:57.002Z</time></trkpt><trkpt lat="45.228730008008334" lon="14.723601660603407"><ele>757.4000000000001</ele><time>2026-05-01T16:02:58.002Z</time></trkpt><trkpt lat="45.22863479593042" lon="14.723711506536247"><ele>757.5999999999999</ele><time>2026-05-01T16:02:59.002Z</time></trkpt><trkpt lat="45.228535134885774" lon="14.723759940955564"><ele>757.8</ele><time>2026-05-01T16:03:00.002Z</time></trkpt><trkpt lat="45.2284410382637" lon="14.7238676123359"><ele>758.0</ele><time>2026-05-01T16:03:01.002Z</time></trkpt><trkpt lat="45.22832255340427" lon="14.724001115782364"><ele>758.0</ele><time>2026-05-01T16:03:02.002Z</time></trkpt><trkpt lat="45.22823313849063" lon="14.724123934320401"><ele>758.0</ele><time>2026-05-01T16:03:03.002Z</time></trkpt><trkpt lat="45.22814600675851" lon="14.7242286365274"><ele>758.0</ele><time>2026-05-01T16:03:04.002Z</time></trkpt><trkpt lat="45.228073872574335" lon="14.72432934976201"><ele>758.0</ele><time>2026-05-01T16:03:05.002Z</time></trkpt><trkpt lat="45.22800187033991" lon="14.724421892081418"><ele>758.0</ele><time>2026-05-01T16:03:06.002Z</time></trkpt><trkpt lat="45.22792316029348" lon="14.724512469000384"><ele>757.1666666666666</ele><time>2026-05-01T16:03:07.002Z</time></trkpt><trkpt lat="45.22788130998478" lon="14.724604227720151"><ele>756.3333333333333</ele><time>2026-05-01T16:03:08.002Z</time></trkpt><trkpt lat="45.22783249284593" lon="14.724665237952845"><ele>755.5</ele><time>2026-05-01T16:03:09.002Z</time></trkpt><trkpt lat="45.227718862411045" lon="14.724756378684104"><ele>754.6666666666666</ele><time>2026-05-01T16:03:11.002Z</time></trkpt><trkpt lat="45.227639981709174" lon="14.72478727434167"><ele>753.8333333333334</ele><time>2026-05-01T16:03:12.002Z</time></trkpt><trkpt lat="45.227554393540316" lon="14.724810243043176"><ele>753.0</ele><time>2026-05-01T16:03:13.002Z</time></trkpt><trkpt lat="45.227475453869225" lon="14.724845711979306"><ele>753.0</ele><time>2026-05-01T16:03:14.002Z</time></trkpt><trkpt lat="45.22740352232051" lon="14.724913920838631"><ele>753.0</ele><time>2026-05-01T16:03:15.002Z</time></trkpt><trkpt lat="45.22731853044632" lon="14.724981831533842"><ele>753.0</ele><time>2026-05-01T16:03:16.002Z</time></trkpt><trkpt lat="45.2272511588367" lon="14.72510939880517"><ele>753.0</ele><time>2026-05-01T16:03:17.002Z</time></trkpt><trkpt lat="45.22716597147057" lon="14.725209065568546"><ele>753.0</ele><time>2026-05-01T16:03:18.002Z</time></trkpt><trkpt lat="45.227073112362454" lon="14.725338237147161"><ele>751.5</ele><time>2026-05-01T16:03:19.002Z</time></trkpt><trkpt lat="45.22697382413007" lon="14.725435748801617"><ele>750.0</ele><time>2026-05-01T16:03:20.002Z</time></trkpt><trkpt lat="45.22687668081553" lon="14.725542497919598"><ele>748.5</ele><time>2026-05-01T16:03:21.002Z</time></trkpt><trkpt lat="45.22676936149156" lon="14.725657739258802"><ele>747.0</ele><time>2026-05-01T16:03:22.002Z</time></trkpt><trkpt lat="45.22668416682234" lon="14.725753960498059"><ele>747.0</ele><time>2026-05-01T16:03:23.002Z</time></trkpt><trkpt lat="45.22658443322591" lon="14.725848001074294"><ele>747.0</ele><time>2026-05-01T16:03:24.002Z</time></trkpt><trkpt lat="45.22648720561486" lon="14.725936437251518"><ele>747.0</ele><time>2026-05-01T16:03:25.002Z</time></trkpt><trkpt lat="45.22637285635475" lon="14.726023212816155"><ele>747.0</ele><time>2026-05-01T16:03:26.002Z</time></trkpt><trkpt lat="45.22627401444157" lon="14.726114506531703"><ele>747.0</ele><time>2026-05-01T16:03:27.002Z</time></trkpt><trkpt lat="45.22618001354649" lon="14.726177324256879"><ele>747.0</ele><time>2026-05-01T16:03:28.002Z</time></trkpt><trkpt lat="45.22608405927313" lon="14.726235938592394"><ele>747.0</ele><time>2026-05-01T16:03:29.002Z</time></trkpt><trkpt lat="45.22598146663444" lon="14.726303217059757"><ele>747.0</ele><time>2026-05-01T16:03:30.002Z</time></trkpt><trkpt lat="45.2258675078186" lon="14.726383083012552"><ele>747.0</ele><time>2026-05-01T16:03:31.002Z</time></trkpt><trkpt lat="45.225792932466234" lon="14.7264765432498"><ele>747.0</ele><time>2026-05-01T16:03:32.002Z</time></trkpt><trkpt lat="45.22567863864479" lon="14.726585284366513"><ele>747.0</ele><time>2026-05-01T16:03:33.002Z</time></trkpt><trkpt lat="45.22557209295905" lon="14.726682727784649"><ele>747.0</ele><time>2026-05-01T16:03:34.002Z</time></trkpt><trkpt lat="45.225442019674624" lon="14.726820925170502"><ele>747.0</ele><time>2026-05-01T16:03:35.002Z</time></trkpt><trkpt lat="45.22531082517831" lon="14.726942602919912"><ele>745.25</ele><time>2026-05-01T16:03:36.002Z</time></trkpt><trkpt lat="45.22520474525505" lon="14.727037414275486"><ele>743.5</ele><time>2026-05-01T16:03:37.002Z</time></trkpt><trkpt lat="45.225105941775645" lon="14.727134257369046"><ele>741.75</ele><time>2026-05-01T16:03:38.002Z</time></trkpt><trkpt lat="45.225006684348116" lon="14.727235448680256"><ele>740.0</ele><time>2026-05-01T16:03:39.002Z</time></trkpt><trkpt lat="45.224903818975115" lon="14.727336148434805"><ele>740.0</ele><time>2026-05-01T16:03:40.002Z</time></trkpt><trkpt lat="45.22481541354838" lon="14.727439276364507"><ele>740.0</ele><time>2026-05-01T16:03:41.002Z</time></trkpt><trkpt lat="45.224739661973224" lon="14.727514712277411"><ele>740.0</ele><time>2026-05-01T16:03:42.002Z</time></trkpt><trkpt lat="45.224692114360735" lon="14.727581828393086"><ele>740.0</ele><time>2026-05-01T16:03:43.002Z</time></trkpt><trkpt lat="45.22459225124408" lon="14.727676484397117"><ele>740.0</ele><time>2026-05-01T16:03:44.002Z</time></trkpt><trkpt lat="45.224526414364" lon="14.727760595867853"><ele>739.1666666666666</ele><time>2026-05-01T16:03:45.002Z</time></trkpt><trkpt lat="45.224481239086906" lon="14.727825447172668"><ele>738.3333333333333</ele><time>2026-05-01T16:03:46.002Z</time></trkpt><trkpt lat="45.224436654690905" lon="14.72792498422006"><ele>737.5</ele><time>2026-05-01T16:03:47.003Z</time></trkpt><trkpt lat="45.224414126134334" lon="14.728046446598988"><ele>736.6666666666666</ele><time>2026-05-01T16:03:48.003Z</time></trkpt><trkpt lat="45.224393815023475" lon="14.728138958916201"><ele>735.8333333333334</ele><time>2026-05-01T16:03:49.003Z</time></trkpt><trkpt lat="45.22433438101855" lon="14.72826659822611"><ele>735.0</ele><time>2026-05-01T16:03:51.003Z</time></trkpt><trkpt lat="45.22425890097499" lon="14.728327139043953"><ele>735.0</ele><time>2026-05-01T16:03:52.003Z</time></trkpt><trkpt lat="45.224184723629435" lon="14.728392102313123"><ele>735.0</ele><time>2026-05-01T16:03:53.003Z</time></trkpt><trkpt lat="45.22411126546394" lon="14.728443426441046"><ele>735.0</ele><time>2026-05-01T16:03:54.003Z</time></trkpt><trkpt lat="45.22402837777639" lon="14.728478810522358"><ele>735.0</ele><time>2026-05-01T16:03:55.003Z</time></trkpt><trkpt lat="45.22395483792815" lon="14.728512320187267"><ele>735.0</ele><time>2026-05-01T16:03:56.003Z</time></trkpt><trkpt lat="45.223856424878434" lon="14.728633851764915"><ele>735.6</ele><time>2026-05-01T16:03:58.002Z</time></trkpt><trkpt lat="45.22380172678608" lon="14.728711321663926"><ele>736.2</ele><time>2026-05-01T16:03:59.002Z</time></trkpt><trkpt lat="45.22372989951138" lon="14.728826400518537"><ele>736.8</ele><time>2026-05-01T16:04:00.002Z</time></trkpt><trkpt lat="45.22366997767543" lon="14.728947241382446"><ele>737.4</ele><time>2026-05-01T16:04:01.002Z</time></trkpt><trkpt lat="45.223608866087346" lon="14.72905623713574"><ele>738.0</ele><time>2026-05-01T16:04:02.002Z</time></trkpt><trkpt lat="45.22353443650733" lon="14.72914600527099"><ele>738.0</ele><time>2026-05-01T16:04:03.002Z</time></trkpt><trkpt lat="45.22345511367046" lon="14.729230713534468"><ele>738.0</ele><time>2026-05-01T16:04:04.002Z</time></trkpt><trkpt lat="45.223354668605715" lon="14.72929759894429"><ele>738.0</ele><time>2026-05-01T16:04:05.002Z</time></trkpt><trkpt lat="45.223245858533694" lon="14.72936055623145"><ele>738.0</ele><time>2026-05-01T16:04:06.002Z</time></trkpt><trkpt lat="45.223163426237974" lon="14.729440145162668"><ele>738.0</ele><time>2026-05-01T16:04:07.001Z</time></trkpt><trkpt lat="45.22307223406307" lon="14.729496429844986"><ele>739.0</ele><time>2026-05-01T16:04:08.001Z</time></trkpt><trkpt lat="45.22298496220916" lon="14.729557282103825"><ele>740.0</ele><time>2026-05-01T16:04:09.001Z</time></trkpt><trkpt lat="45.222920430756616" lon="14.729638477784409"><ele>741.0</ele><time>2026-05-01T16:04:10.001Z</time></trkpt><trkpt lat="45.222863524838345" lon="14.729743537181953"><ele>742.0</ele><time>2026-05-01T16:04:11.001Z</time></trkpt><trkpt lat="45.22279366583528" lon="14.729870896187018"><ele>743.0</ele><time>2026-05-01T16:04:12.001Z</time></trkpt><trkpt lat="45.22273872377661" lon="14.730048598663883"><ele>743.0</ele><time>2026-05-01T16:04:13.001Z</time></trkpt><trkpt lat="45.222674989185975" lon="14.730150898096493"><ele>743.0</ele><time>2026-05-01T16:04:14.001Z</time></trkpt><trkpt lat="45.22260728514159" lon="14.730277725060404"><ele>743.0</ele><time>2026-05-01T16:04:15.001Z</time></trkpt><trkpt lat="45.22256273524754" lon="14.730390795670669"><ele>743.0</ele><time>2026-05-01T16:04:16.001Z</time></trkpt><trkpt lat="45.22253088227228" lon="14.730491753864909"><ele>743.0</ele><time>2026-05-01T16:04:17.001Z</time></trkpt><trkpt lat="45.222498373451344" lon="14.730580499445692"><ele>743.0</ele><time>2026-05-01T16:04:18.001Z</time></trkpt><trkpt lat="45.22248008437573" lon="14.730680250051256"><ele>742.0</ele><time>2026-05-01T16:04:19.001Z</time></trkpt><trkpt lat="45.22247358702163" lon="14.730796535787697"><ele>741.0</ele><time>2026-05-01T16:04:20.001Z</time></trkpt><trkpt lat="45.22249798127288" lon="14.73090737900876"><ele>740.0</ele><time>2026-05-01T16:04:21.001Z</time></trkpt><trkpt lat="45.22253657682116" lon="14.731033096395997"><ele>739.0</ele><time>2026-05-01T16:04:22.001Z</time></trkpt><trkpt lat="45.22257871252706" lon="14.731193128406922"><ele>738.0</ele><time>2026-05-01T16:04:23.001Z</time></trkpt><trkpt lat="45.222620560015066" lon="14.731295297676283"><ele>738.0</ele><time>2026-05-01T16:04:24.001Z</time></trkpt><trkpt lat="45.222624907282885" lon="14.731387681847886"><ele>738.0</ele><time>2026-05-01T16:04:25.001Z</time></trkpt><trkpt lat="45.2226350773359" lon="14.731490273919285"><ele>738.0</ele><time>2026-05-01T16:04:27.001Z</time></trkpt><trkpt lat="45.222555944311935" lon="14.731620910497359"><ele>738.0</ele><time>2026-05-01T16:04:29.001Z</time></trkpt><trkpt lat="45.22249527190176" lon="14.731698701396818"><ele>738.0</ele><time>2026-05-01T16:04:30.001Z</time></trkpt><trkpt lat="45.222431868304305" lon="14.731795735220482"><ele>738.0</ele><time>2026-05-01T16:04:31.001Z</time></trkpt><trkpt lat="45.222358062140415" lon="14.731907838653292"><ele>737.6666666666666</ele><time>2026-05-01T16:04:33.001Z</time></trkpt><trkpt lat="45.22232376947749" lon="14.732060848730374"><ele>737.3333333333334</ele><time>2026-05-01T16:04:35.001Z</time></trkpt><trkpt lat="45.22232477616457" lon="14.732166101816402"><ele>737.0</ele><time>2026-05-01T16:04:36.001Z</time></trkpt><trkpt lat="45.22225525296728" lon="14.732294455403828"><ele>736.6666666666667</ele><time>2026-05-01T16:04:38.001Z</time></trkpt><trkpt lat="45.22218920150461" lon="14.732344336228623"><ele>736.3333333333334</ele><time>2026-05-01T16:04:40.001Z</time></trkpt><trkpt lat="45.22211856798126" lon="14.73234299100356"><ele>736.0</ele><time>2026-05-01T16:04:41.001Z</time></trkpt><trkpt lat="45.222011211334355" lon="14.73234559632439"><ele>736.0</ele><time>2026-05-01T16:04:43.001Z</time></trkpt><trkpt lat="45.22191456011308" lon="14.732477704018486"><ele>736.0</ele><time>2026-05-01T16:04:45.001Z</time></trkpt><trkpt lat="45.22185743242796" lon="14.732569062067254"><ele>736.0</ele><time>2026-05-01T16:04:46.001Z</time></trkpt><trkpt lat="45.22179745408726" lon="14.732665511513094"><ele>736.0</ele><time>2026-05-01T16:04:47.001Z</time></trkpt><trkpt lat="45.221753924002556" lon="14.732802004650901"><ele>736.0</ele><time>2026-05-01T16:04:48.001Z</time></trkpt><trkpt lat="45.221689690044556" lon="14.732872578394325"><ele>735.0</ele><time>2026-05-01T16:04:49.001Z</time></trkpt><trkpt lat="45.22162826265792" lon="14.732933145582887"><ele>734.0</ele><time>2026-05-01T16:04:50.001Z</time></trkpt><trkpt lat="45.22155626011755" lon="14.732995487892808"><ele>733.0</ele><time>2026-05-01T16:04:51.001Z</time></trkpt><trkpt lat="45.2214614176973" lon="14.733075968274543"><ele>732.0</ele><time>2026-05-01T16:04:52.001Z</time></trkpt><trkpt lat="45.22136242848571" lon="14.73315278368913"><ele>731.0</ele><time>2026-05-01T16:04:53.001Z</time></trkpt><trkpt lat="45.22127881057414" lon="14.733221685683796"><ele>731.0</ele><time>2026-05-01T16:04:54.001Z</time></trkpt><trkpt lat="45.22120765817528" lon="14.733298594741566"><ele>731.0</ele><time>2026-05-01T16:04:55.001Z</time></trkpt><trkpt lat="45.22114605695687" lon="14.733371310847396"><ele>731.0</ele><time>2026-05-01T16:04:56.001Z</time></trkpt><trkpt lat="45.221089239478225" lon="14.733424878757328"><ele>731.0</ele><time>2026-05-01T16:04:57.001Z</time></trkpt><trkpt lat="45.22101968361981" lon="14.73357108444695"><ele>731.0</ele><time>2026-05-01T16:04:59.001Z</time></trkpt><trkpt lat="45.22097496441715" lon="14.733716942921205"><ele>731.8</ele><time>2026-05-01T16:05:01.001Z</time></trkpt><trkpt lat="45.22097468495776" lon="14.733877089455955"><ele>732.5999999999999</ele><time>2026-05-01T16:05:03.001Z</time></trkpt><trkpt lat="45.220993651669616" lon="14.733999157598026"><ele>733.4</ele><time>2026-05-01T16:05:04.001Z</time></trkpt><trkpt lat="45.221001541737174" lon="14.734128867420687"><ele>734.2</ele><time>2026-05-01T16:05:05.001Z</time></trkpt><trkpt lat="45.22099845224304" lon="14.73424797206239"><ele>735.0</ele><time>2026-05-01T16:05:06.001Z</time></trkpt><trkpt lat="45.220978549224874" lon="14.734365764157614"><ele>735.0</ele><time>2026-05-01T16:05:07.001Z</time></trkpt><trkpt lat="45.22095101195024" lon="14.734476930708283"><ele>735.0</ele><time>2026-05-01T16:05:08.001Z</time></trkpt><trkpt lat="45.220911543679215" lon="14.734591716270959"><ele>735.0</ele><time>2026-05-01T16:05:09.001Z</time></trkpt><trkpt lat="45.22086871969388" lon="14.734686258897677"><ele>735.0</ele><time>2026-05-01T16:05:10.001Z</time></trkpt><trkpt lat="45.2208141955473" lon="14.734775512558416"><ele>735.0</ele><time>2026-05-01T16:05:11.001Z</time></trkpt><trkpt lat="45.220768540787475" lon="14.734854756178786"><ele>735.0</ele><time>2026-05-01T16:05:12.001Z</time></trkpt><trkpt lat="45.220699795324975" lon="14.734940184629094"><ele>731.4</ele><time>2026-05-01T16:05:13.001Z</time></trkpt><trkpt lat="45.22063080609112" lon="14.73504861347215"><ele>727.8</ele><time>2026-05-01T16:05:14.002Z</time></trkpt><trkpt lat="45.220578027114904" lon="14.73516033832398"><ele>724.2</ele><time>2026-05-01T16:05:15.002Z</time></trkpt><trkpt lat="45.2205328148983" lon="14.735245515853997"><ele>720.6</ele><time>2026-05-01T16:05:16.002Z</time></trkpt><trkpt lat="45.22049497025609" lon="14.735320876718177"><ele>717.0</ele><time>2026-05-01T16:05:17.002Z</time></trkpt><trkpt lat="45.22046967833345" lon="14.735483710129191"><ele>716.4000000000001</ele><time>2026-05-01T16:05:19.002Z</time></trkpt><trkpt lat="45.220463047524156" lon="14.735620474305234"><ele>715.8000000000001</ele><time>2026-05-01T16:05:20.002Z</time></trkpt><trkpt lat="45.22045581235104" lon="14.735781727221381"><ele>715.2</ele><time>2026-05-01T16:05:21.002Z</time></trkpt><trkpt lat="45.22042822801828" lon="14.735875883068633"><ele>714.6</ele><time>2026-05-01T16:05:22.002Z</time></trkpt><trkpt lat="45.22040528485617" lon="14.735987462518771"><ele>714.0</ele><time>2026-05-01T16:05:23.002Z</time></trkpt><trkpt lat="45.220374724043296" lon="14.736118575667314"><ele>713.8333333333334</ele><time>2026-05-01T16:05:24.002Z</time></trkpt><trkpt lat="45.22034499544134" lon="14.736244550750536"><ele>713.6666666666666</ele><time>2026-05-01T16:05:25.002Z</time></trkpt><trkpt lat="45.22034854560137" lon="14.73634487336089"><ele>713.5</ele><time>2026-05-01T16:05:26.002Z</time></trkpt><trkpt lat="45.220329874421424" lon="14.736475453497903"><ele>713.3333333333333</ele><time>2026-05-01T16:05:27.002Z</time></trkpt><trkpt lat="45.22032165048989" lon="14.736610156733976"><ele>713.1666666666666</ele><time>2026-05-01T16:05:28.002Z</time></trkpt><trkpt lat="45.22030609732846" lon="14.736730594958857"><ele>713.0</ele><time>2026-05-01T16:05:29.002Z</time></trkpt><trkpt lat="45.22029669389133" lon="14.736861049092461"><ele>713.8333333333333</ele><time>2026-05-01T16:05:30.002Z</time></trkpt><trkpt lat="45.22027922091177" lon="14.736989045701385"><ele>714.6666666666666</ele><time>2026-05-01T16:05:31.002Z</time></trkpt><trkpt lat="45.22025781344052" lon="14.737104326144378"><ele>715.5</ele><time>2026-05-01T16:05:32.002Z</time></trkpt><trkpt lat="45.220230313102086" lon="14.737215052291129"><ele>716.3333333333334</ele><time>2026-05-01T16:05:33.002Z</time></trkpt><trkpt lat="45.22018701985214" lon="14.737324355008832"><ele>717.1666666666667</ele><time>2026-05-01T16:05:34.002Z</time></trkpt><trkpt lat="45.22014712342572" lon="14.737431305389594"><ele>718.0</ele><time>2026-05-01T16:05:35.002Z</time></trkpt><trkpt lat="45.22012196520256" lon="14.73753604626263"><ele>718.0</ele><time>2026-05-01T16:05:36.002Z</time></trkpt><trkpt lat="45.22007565509208" lon="14.73768050808631"><ele>718.0</ele><time>2026-05-01T16:05:38.002Z</time></trkpt><trkpt lat="45.219996867288764" lon="14.737747133135878"><ele>718.0</ele><time>2026-05-01T16:05:40.002Z</time></trkpt><trkpt lat="45.21991155626267" lon="14.737807082702664"><ele>718.0</ele><time>2026-05-01T16:05:42.002Z</time></trkpt><trkpt lat="45.219796394889975" lon="14.737915395668793"><ele>718.0</ele><time>2026-05-01T16:05:44.002Z</time></trkpt><trkpt lat="45.219734422806475" lon="14.737990264610872"><ele>716.8571428571429</ele><time>2026-05-01T16:05:45.002Z</time></trkpt><trkpt lat="45.21967942986346" lon="14.738055052076836"><ele>715.7142857142858</ele><time>2026-05-01T16:05:46.002Z</time></trkpt><trkpt lat="45.219621121964536" lon="14.738116447988489"><ele>714.5714285714286</ele><time>2026-05-01T16:05:47.002Z</time></trkpt><trkpt lat="45.21956287578448" lon="14.738163375269929"><ele>713.4285714285714</ele><time>2026-05-01T16:05:48.002Z</time></trkpt><trkpt lat="45.219498877457745" lon="14.738181670152345"><ele>712.2857142857143</ele><time>2026-05-01T16:05:49.002Z</time></trkpt><trkpt lat="45.219425383589666" lon="14.73819931505372"><ele>711.1428571428571</ele><time>2026-05-01T16:05:50.002Z</time></trkpt><trkpt lat="45.21934809333755" lon="14.738228801316405"><ele>710.0</ele><time>2026-05-01T16:05:51.002Z</time></trkpt><trkpt lat="45.21924879473679" lon="14.738279456398969"><ele>710.0</ele><time>2026-05-01T16:05:53.002Z</time></trkpt><trkpt lat="45.21915032566227" lon="14.73840781360982"><ele>710.0</ele><time>2026-05-01T16:05:55.002Z</time></trkpt><trkpt lat="45.21909638282869" lon="14.738463239055699"><ele>710.0</ele><time>2026-05-01T16:05:56.002Z</time></trkpt><trkpt lat="45.21903824623373" lon="14.738528158634484"><ele>710.0</ele><time>2026-05-01T16:05:58.002Z</time></trkpt><trkpt lat="45.2189717496819" lon="14.73856143390352"><ele>710.0</ele><time>2026-05-01T16:06:01.002Z</time></trkpt><trkpt lat="45.21889766054484" lon="14.738558243183663"><ele>710.0</ele><time>2026-05-01T16:06:03.002Z</time></trkpt><trkpt lat="45.21882078385517" lon="14.738546415377478"><ele>710.0</ele><time>2026-05-01T16:06:03.998Z</time></trkpt><trkpt lat="45.218739581280246" lon="14.738523401917435"><ele>710.0</ele><time>2026-05-01T16:06:04.998Z</time></trkpt><trkpt lat="45.218620811200246" lon="14.738564810592665"><ele>710.0</ele><time>2026-05-01T16:06:06.998Z</time></trkpt><trkpt lat="45.2185731073371" lon="14.738633422285147"><ele>710.0</ele><time>2026-05-01T16:06:07.998Z</time></trkpt><trkpt lat="45.21851586449888" lon="14.738687032055664"><ele>710.0</ele><time>2026-05-01T16:06:08.998Z</time></trkpt><trkpt lat="45.218489498093625" lon="14.73878644108374"><ele>710.0</ele><time>2026-05-01T16:06:10.998Z</time></trkpt><trkpt lat="45.218490415365" lon="14.738920158437637"><ele>711.3333333333333</ele><time>2026-05-01T16:06:12.999Z</time></trkpt><trkpt lat="45.218517380837866" lon="14.73900983697115"><ele>712.6666666666666</ele><time>2026-05-01T16:06:13.999Z</time></trkpt><trkpt lat="45.218545113380394" lon="14.739112505414004"><ele>714.0</ele><time>2026-05-01T16:06:14.999Z</time></trkpt><trkpt lat="45.218562528031576" lon="14.739206318170227"><ele>715.3333333333334</ele><time>2026-05-01T16:06:15.999Z</time></trkpt><trkpt lat="45.218562765659826" lon="14.739303569612972"><ele>716.6666666666667</ele><time>2026-05-01T16:06:16.999Z</time></trkpt><trkpt lat="45.21854819772558" lon="14.739413045251768"><ele>718.0</ele><time>2026-05-01T16:06:17.999Z</time></trkpt><trkpt lat="45.218524225159285" lon="14.73953570374823"><ele>718.8</ele><time>2026-05-01T16:06:18.999Z</time></trkpt><trkpt lat="45.218510587286424" lon="14.739653732760427"><ele>719.5999999999999</ele><time>2026-05-01T16:06:19.999Z</time></trkpt><trkpt lat="45.218493251344995" lon="14.739793751853473"><ele>720.4000000000001</ele><time>2026-05-01T16:06:20.999Z</time></trkpt><trkpt lat="45.21846957940441" lon="14.739929761450192"><ele>721.2</ele><time>2026-05-01T16:06:21.999Z</time></trkpt><trkpt lat="45.2184424600205" lon="14.74007174933348"><ele>722.0</ele><time>2026-05-01T16:06:22.999Z</time></trkpt><trkpt lat="45.21840946226483" lon="14.740219396613789"><ele>722.0</ele><time>2026-05-01T16:06:23.999Z</time></trkpt><trkpt lat="45.218375069746784" lon="14.740357406811937"><ele>722.0</ele><time>2026-05-01T16:06:24.999Z</time></trkpt><trkpt lat="45.218345130655685" lon="14.740480401664438"><ele>722.0</ele><time>2026-05-01T16:06:25.999Z</time></trkpt><trkpt lat="45.21831197946768" lon="14.740610008175928"><ele>722.0</ele><time>2026-05-01T16:06:26.999Z</time></trkpt><trkpt lat="45.21827987775687" lon="14.740739999062693"><ele>722.0</ele><time>2026-05-01T16:06:27.999Z</time></trkpt><trkpt lat="45.21826397775187" lon="14.740862020550608"><ele>722.0</ele><time>2026-05-01T16:06:28.999Z</time></trkpt><trkpt lat="45.21823597655055" lon="14.74098818440993"><ele>722.0</ele><time>2026-05-01T16:06:29.999Z</time></trkpt><trkpt lat="45.21820698474948" lon="14.741110312026322"><ele>722.0</ele><time>2026-05-01T16:06:30.999Z</time></trkpt><trkpt lat="45.2181657041669" lon="14.741229298743477"><ele>722.0</ele><time>2026-05-01T16:06:31.999Z</time></trkpt><trkpt lat="45.21811507048217" lon="14.741350980453571"><ele>722.0</ele><time>2026-05-01T16:06:32.999Z</time></trkpt><trkpt lat="45.218067503874785" lon="14.741440509971037"><ele>722.6666666666666</ele><time>2026-05-01T16:06:33.999Z</time></trkpt><trkpt lat="45.21803625856214" lon="14.74152549312591"><ele>723.3333333333333</ele><time>2026-05-01T16:06:34.999Z</time></trkpt><trkpt lat="45.217980828838684" lon="14.74159898160131"><ele>724.0</ele><time>2026-05-01T16:06:36Z</time></trkpt><trkpt lat="45.217905140255255" lon="14.741656215721902"><ele>724.6666666666666</ele><time>2026-05-01T16:06:37Z</time></trkpt><trkpt lat="45.21781597505035" lon="14.741697033037097"><ele>725.3333333333334</ele><time>2026-05-01T16:06:38Z</time></trkpt><trkpt lat="45.21773777801579" lon="14.741750359056892"><ele>726.0</ele><time>2026-05-01T16:06:39Z</time></trkpt><trkpt lat="45.21764113019697" lon="14.741778582103537"><ele>726.0</ele><time>2026-05-01T16:06:40Z</time></trkpt><trkpt lat="45.21754276974211" lon="14.741790514572935"><ele>726.0</ele><time>2026-05-01T16:06:41Z</time></trkpt><trkpt lat="45.217462696186665" lon="14.741819222241348"><ele>726.0</ele><time>2026-05-01T16:06:42Z</time></trkpt><trkpt lat="45.217380004488895" lon="14.741845394371989"><ele>726.0</ele><time>2026-05-01T16:06:43Z</time></trkpt><trkpt lat="45.21729891563406" lon="14.74188367778887"><ele>726.0</ele><time>2026-05-01T16:06:44Z</time></trkpt><trkpt lat="45.217220611651285" lon="14.741939776879406"><ele>726.0</ele><time>2026-05-01T16:06:45Z</time></trkpt><trkpt lat="45.21715962506566" lon="14.741993933306938"><ele>726.5</ele><time>2026-05-01T16:06:46Z</time></trkpt><trkpt lat="45.21709906787045" lon="14.742140228051172"><ele>727.0</ele><time>2026-05-01T16:06:48Z</time></trkpt><trkpt lat="45.21709344136584" lon="14.742231643370614"><ele>727.5</ele><time>2026-05-01T16:06:49Z</time></trkpt><trkpt lat="45.21709173035397" lon="14.742336825159057"><ele>728.0</ele><time>2026-05-01T16:06:50Z</time></trkpt><trkpt lat="45.21709927233989" lon="14.742441580756106"><ele>728.5</ele><time>2026-05-01T16:06:51Z</time></trkpt><trkpt lat="45.217129613541424" lon="14.742545077759697"><ele>729.0</ele><time>2026-05-01T16:06:52Z</time></trkpt><trkpt lat="45.21718614016902" lon="14.742645459608793"><ele>729.6</ele><time>2026-05-01T16:06:53Z</time></trkpt><trkpt lat="45.21724664556886" lon="14.742772590103662"><ele>730.2</ele><time>2026-05-01T16:06:54Z</time></trkpt><trkpt lat="45.217302657408034" lon="14.742859156983226"><ele>730.8000000000001</ele><time>2026-05-01T16:06:55Z</time></trkpt><trkpt lat="45.217290848909045" lon="14.742950647916768"><ele>731.4000000000001</ele><time>2026-05-01T16:06:56Z</time></trkpt><trkpt lat="45.21725538808943" lon="14.743119420692793"><ele>732.0</ele><time>2026-05-01T16:06:58Z</time></trkpt><trkpt lat="45.21716005589245" lon="14.743304730619357"><ele>732.0</ele><time>2026-05-01T16:07:00Z</time></trkpt><trkpt lat="45.217093215396545" lon="14.743392192907043"><ele>732.0</ele><time>2026-05-01T16:07:01Z</time></trkpt><trkpt lat="45.21703083935431" lon="14.743491527835895"><ele>732.0</ele><time>2026-05-01T16:07:02Z</time></trkpt><trkpt lat="45.216974511756405" lon="14.74358686433281"><ele>732.0</ele><time>2026-05-01T16:07:03Z</time></trkpt><trkpt lat="45.216923354778615" lon="14.743703729784754"><ele>732.0</ele><time>2026-05-01T16:07:04Z</time></trkpt><trkpt lat="45.216887672338416" lon="14.743809813858347"><ele>731.8</ele><time>2026-05-01T16:07:05Z</time></trkpt><trkpt lat="45.216842064872814" lon="14.743942415309872"><ele>731.6</ele><time>2026-05-01T16:07:06Z</time></trkpt><trkpt lat="45.21680990608024" lon="14.74408043286019"><ele>731.4</ele><time>2026-05-01T16:07:07Z</time></trkpt><trkpt lat="45.21677191496026" lon="14.744206059977406"><ele>731.1999999999999</ele><time>2026-05-01T16:07:08Z</time></trkpt><trkpt lat="45.21672917806678" lon="14.744327131354686"><ele>731.0</ele><time>2026-05-01T16:07:09Z</time></trkpt><trkpt lat="45.2166773747622" lon="14.744464941540675"><ele>729.5999999999999</ele><time>2026-05-01T16:07:10Z</time></trkpt><trkpt lat="45.216634264766654" lon="14.74458285504764"><ele>728.2</ele><time>2026-05-01T16:07:11Z</time></trkpt><trkpt lat="45.216591313946594" lon="14.744690033330869"><ele>726.8</ele><time>2026-05-01T16:07:12Z</time></trkpt><trkpt lat="45.216526678460944" lon="14.744793120309653"><ele>725.4000000000001</ele><time>2026-05-01T16:07:13Z</time></trkpt><trkpt lat="45.216514526773665" lon="14.74490437888465"><ele>724.0</ele><time>2026-05-01T16:07:14Z</time></trkpt><trkpt lat="45.216436918325456" lon="14.745032407607997"><ele>723.8333333333334</ele><time>2026-05-01T16:07:15Z</time></trkpt><trkpt lat="45.216389654861025" lon="14.745160794111502"><ele>723.6666666666667</ele><time>2026-05-01T16:07:16.001Z</time></trkpt><trkpt lat="45.21634853284277" lon="14.745262492144349"><ele>723.5</ele><time>2026-05-01T16:07:17.001Z</time></trkpt><trkpt lat="45.21630285385123" lon="14.745358331825797"><ele>723.3333333333334</ele><time>2026-05-01T16:07:18.001Z</time></trkpt><trkpt lat="45.21624590696184" lon="14.745457840822745"><ele>723.1666666666666</ele><time>2026-05-01T16:07:19.001Z</time></trkpt><trkpt lat="45.21621213228727" lon="14.74555817381388"><ele>723.0</ele><time>2026-05-01T16:07:20.001Z</time></trkpt><trkpt lat="45.21618459822847" lon="14.745641901622879"><ele>723.0</ele><time>2026-05-01T16:07:21.001Z</time></trkpt><trkpt lat="45.21617666851618" lon="14.745776685264431"><ele>723.0</ele><time>2026-05-01T16:07:22.001Z</time></trkpt><trkpt lat="45.21618150781297" lon="14.745896674367849"><ele>723.0</ele><time>2026-05-01T16:07:23.001Z</time></trkpt><trkpt lat="45.21620121236898" lon="14.746027759329184"><ele>723.0</ele><time>2026-05-01T16:07:24.001Z</time></trkpt><trkpt lat="45.21621038024598" lon="14.746128693969853"><ele>723.0</ele><time>2026-05-01T16:07:25.001Z</time></trkpt><trkpt lat="45.21621712003475" lon="14.74629469230646"><ele>722.6666666666666</ele><time>2026-05-01T16:07:27.001Z</time></trkpt><trkpt lat="45.21620770030901" lon="14.746391652898463"><ele>722.3333333333334</ele><time>2026-05-01T16:07:28.001Z</time></trkpt><trkpt lat="45.216172049843024" lon="14.746485421353904"><ele>722.0</ele><time>2026-05-01T16:07:29.001Z</time></trkpt><trkpt lat="45.21611857462202" lon="14.746548009936568"><ele>721.6666666666667</ele><time>2026-05-01T16:07:30.001Z</time></trkpt><trkpt lat="45.21604419694517" lon="14.746645273512822"><ele>721.3333333333334</ele><time>2026-05-01T16:07:31.001Z</time></trkpt><trkpt lat="45.21595689351194" lon="14.746708585232144"><ele>721.0</ele><time>2026-05-01T16:07:32.001Z</time></trkpt><trkpt lat="45.215878058387034" lon="14.746784276214477"><ele>722.5999999999999</ele><time>2026-05-01T16:07:33.001Z</time></trkpt><trkpt lat="45.21582021006967" lon="14.746902775125186"><ele>724.2</ele><time>2026-05-01T16:07:34.001Z</time></trkpt><trkpt lat="45.215760360805085" lon="14.747039713474823"><ele>725.8</ele><time>2026-05-01T16:07:35.001Z</time></trkpt><trkpt lat="45.215706748068676" lon="14.747131005629164"><ele>727.4000000000001</ele><time>2026-05-01T16:07:36.001Z</time></trkpt><trkpt lat="45.215629708338675" lon="14.747183313798542"><ele>729.0</ele><time>2026-05-01T16:07:37.001Z</time></trkpt><trkpt lat="45.21553687613074" lon="14.747223813111484"><ele>729.2</ele><time>2026-05-01T16:07:38.001Z</time></trkpt><trkpt lat="45.21543767956849" lon="14.747299051057654"><ele>729.4000000000001</ele><time>2026-05-01T16:07:39.001Z</time></trkpt><trkpt lat="45.21536503076491" lon="14.7473791798452"><ele>729.6</ele><time>2026-05-01T16:07:40.001Z</time></trkpt><trkpt lat="45.215276745303385" lon="14.747446439050917"><ele>729.8</ele><time>2026-05-01T16:07:41.001Z</time></trkpt><trkpt lat="45.21518894720809" lon="14.747480311343905"><ele>730.0</ele><time>2026-05-01T16:07:42.001Z</time></trkpt><trkpt lat="45.215117872754504" lon="14.747532372646926"><ele>730.0</ele><time>2026-05-01T16:07:43.001Z</time></trkpt><trkpt lat="45.21504964979803" lon="14.747610178835371"><ele>730.0</ele><time>2026-05-01T16:07:44.001Z</time></trkpt><trkpt lat="45.214992791773476" lon="14.747710215777168"><ele>730.0</ele><time>2026-05-01T16:07:45.001Z</time></trkpt><trkpt lat="45.21494474205366" lon="14.747820259397015"><ele>730.0</ele><time>2026-05-01T16:07:46.001Z</time></trkpt><trkpt lat="45.21489587982439" lon="14.74794709200635"><ele>730.0</ele><time>2026-05-01T16:07:47.001Z</time></trkpt><trkpt lat="45.21485368682578" lon="14.748096095604199"><ele>730.6</ele><time>2026-05-01T16:07:48.001Z</time></trkpt><trkpt lat="45.214807988432234" lon="14.748189078552011"><ele>731.2</ele><time>2026-05-01T16:07:49.001Z</time></trkpt><trkpt lat="45.21477845365237" lon="14.748287947077289"><ele>731.8</ele><time>2026-05-01T16:07:50.001Z</time></trkpt><trkpt lat="45.214754175207425" lon="14.748395421577035"><ele>732.4</ele><time>2026-05-01T16:07:51.001Z</time></trkpt><trkpt lat="45.214739681349045" lon="14.748533166481446"><ele>733.0</ele><time>2026-05-01T16:07:52.001Z</time></trkpt><trkpt lat="45.21472897543592" lon="14.748706515767697"><ele>733.0</ele><time>2026-05-01T16:07:53.001Z</time></trkpt><trkpt lat="45.2147302684701" lon="14.748848436453507"><ele>733.0</ele><time>2026-05-01T16:07:54.001Z</time></trkpt><trkpt lat="45.214715524301035" lon="14.748986221355626"><ele>733.0</ele><time>2026-05-01T16:07:55.001Z</time></trkpt><trkpt lat="45.214672591098065" lon="14.749136070320091"><ele>733.0</ele><time>2026-05-01T16:07:56.001Z</time></trkpt><trkpt lat="45.214637484587115" lon="14.749280948017999"><ele>733.0</ele><time>2026-05-01T16:07:57.001Z</time></trkpt><trkpt lat="45.21461404517241" lon="14.74939261908042"><ele>733.0</ele><time>2026-05-01T16:07:58.001Z</time></trkpt><trkpt lat="45.214550089258836" lon="14.749518340110821"><ele>733.0</ele><time>2026-05-01T16:08:00.001Z</time></trkpt><trkpt lat="45.214422662326754" lon="14.749559111503165"><ele>733.0</ele><time>2026-05-01T16:08:02.001Z</time></trkpt><trkpt lat="45.21434099581292" lon="14.749533057122619"><ele>733.0</ele><time>2026-05-01T16:08:03.001Z</time></trkpt><trkpt lat="45.21423513826251" lon="14.749439543515226"><ele>733.0</ele><time>2026-05-01T16:08:05.001Z</time></trkpt><trkpt lat="45.21418186058114" lon="14.749362252788341"><ele>732.9999999999999</ele><time>2026-05-01T16:08:06.001Z</time></trkpt><trkpt lat="45.21411733112672" lon="14.749310161597892"><ele>733.0</ele><time>2026-05-01T16:08:07.002Z</time></trkpt><trkpt lat="45.21405330632766" lon="14.749287621096677"><ele>733.0</ele><time>2026-05-01T16:08:08.002Z</time></trkpt><trkpt lat="45.21399033027203" lon="14.7493049229664"><ele>733.0</ele><time>2026-05-01T16:08:09.002Z</time></trkpt><trkpt lat="45.21392457373751" lon="14.749343038806904"><ele>733.0</ele><time>2026-05-01T16:08:09.997Z</time></trkpt><trkpt lat="45.21385494972396" lon="14.749382776801669"><ele>732.9999999999999</ele><time>2026-05-01T16:08:10.997Z</time></trkpt><trkpt lat="45.21377621958116" lon="14.749443108345805"><ele>733.0</ele><time>2026-05-01T16:08:11.997Z</time></trkpt><trkpt lat="45.21367037498563" lon="14.749538366699266"><ele>734.25</ele><time>2026-05-01T16:08:12.997Z</time></trkpt><trkpt lat="45.213549092193986" lon="14.749639937156028"><ele>735.5</ele><time>2026-05-01T16:08:13.997Z</time></trkpt><trkpt lat="45.21343928564573" lon="14.749747585112262"><ele>736.75</ele><time>2026-05-01T16:08:14.997Z</time></trkpt><trkpt lat="45.21334252484918" lon="14.749856382144216"><ele>738.0</ele><time>2026-05-01T16:08:15.997Z</time></trkpt><trkpt lat="45.21326233083933" lon="14.74995063307528"><ele>738.0</ele><time>2026-05-01T16:08:16.997Z</time></trkpt><trkpt lat="45.213178255111124" lon="14.750031794900078"><ele>738.0</ele><time>2026-05-01T16:08:17.997Z</time></trkpt><trkpt lat="45.21308731200963" lon="14.750117579030444"><ele>738.0</ele><time>2026-05-01T16:08:18.997Z</time></trkpt><trkpt lat="45.212984310111544" lon="14.750185023280988"><ele>738.0</ele><time>2026-05-01T16:08:19.997Z</time></trkpt><trkpt lat="45.21289174376617" lon="14.75025252448168"><ele>738.0</ele><time>2026-05-01T16:08:20.997Z</time></trkpt><trkpt lat="45.21279649159494" lon="14.750311157551922"><ele>740.2</ele><time>2026-05-01T16:08:21.997Z</time></trkpt><trkpt lat="45.21270220314154" lon="14.750366389669196"><ele>742.4</ele><time>2026-05-01T16:08:22.997Z</time></trkpt><trkpt lat="45.21261415056043" lon="14.75044007777193"><ele>744.6</ele><time>2026-05-01T16:08:23.998Z</time></trkpt><trkpt lat="45.21252797423917" lon="14.750528539014292"><ele>746.8000000000001</ele><time>2026-05-01T16:08:24.998Z</time></trkpt><trkpt lat="45.21241912328151" lon="14.750597890526889"><ele>749.0</ele><time>2026-05-01T16:08:25.998Z</time></trkpt><trkpt lat="45.212378506816385" lon="14.750672170976253"><ele>749.6</ele><time>2026-05-01T16:08:26.998Z</time></trkpt><trkpt lat="45.21228418198245" lon="14.750720628506134"><ele>750.2</ele><time>2026-05-01T16:08:27.998Z</time></trkpt><trkpt lat="45.212223952022505" lon="14.750804684185567"><ele>750.8000000000001</ele><time>2026-05-01T16:08:28.998Z</time></trkpt><trkpt lat="45.21212576957344" lon="14.750895751034426"><ele>751.4000000000001</ele><time>2026-05-01T16:08:29.998Z</time></trkpt><trkpt lat="45.212052043064034" lon="14.75096561229946"><ele>752.0</ele><time>2026-05-01T16:08:30.998Z</time></trkpt><trkpt lat="45.21197236558775" lon="14.751029241335731"><ele>752.8333333333333</ele><time>2026-05-01T16:08:31.998Z</time></trkpt><trkpt lat="45.211886834363796" lon="14.751088050644357"><ele>753.6666666666666</ele><time>2026-05-01T16:08:32.998Z</time></trkpt><trkpt lat="45.2117947144266" lon="14.751134752557062"><ele>754.5</ele><time>2026-05-01T16:08:33.998Z</time></trkpt><trkpt lat="45.211691019223316" lon="14.751159061559681"><ele>755.3333333333334</ele><time>2026-05-01T16:08:34.998Z</time></trkpt><trkpt lat="45.21162106600519" lon="14.751182917876807"><ele>756.1666666666667</ele><time>2026-05-01T16:08:35.999Z</time></trkpt><trkpt lat="45.21154262046999" lon="14.751170915950208"><ele>757.0</ele><time>2026-05-01T16:08:36.999Z</time></trkpt><trkpt lat="45.21143722243597" lon="14.751205028498843"><ele>757.0</ele><time>2026-05-01T16:08:38.999Z</time></trkpt><trkpt lat="45.211354439768506" lon="14.751321662397352"><ele>757.0</ele><time>2026-05-01T16:08:40.999Z</time></trkpt><trkpt lat="45.21132156400544" lon="14.751423029639358"><ele>757.0</ele><time>2026-05-01T16:08:41.999Z</time></trkpt><trkpt lat="45.21127717888541" lon="14.751539258391093"><ele>757.0</ele><time>2026-05-01T16:08:42.999Z</time></trkpt><trkpt lat="45.211208681214885" lon="14.7516476295672"><ele>757.0</ele><time>2026-05-01T16:08:43.999Z</time></trkpt><trkpt lat="45.21115120245939" lon="14.75176288153874"><ele>760.8</ele><time>2026-05-01T16:08:44.999Z</time></trkpt><trkpt lat="45.21110009056039" lon="14.751908548264511"><ele>764.6</ele><time>2026-05-01T16:08:45.999Z</time></trkpt><trkpt lat="45.211044158180975" lon="14.752059436260666"><ele>768.4</ele><time>2026-05-01T16:08:46.999Z</time></trkpt><trkpt lat="45.21098826803173" lon="14.75219303270479"><ele>772.1999999999999</ele><time>2026-05-01T16:08:47.999Z</time></trkpt><trkpt lat="45.21092787099845" lon="14.752301605093637"><ele>776.0</ele><time>2026-05-01T16:08:48.999Z</time></trkpt><trkpt lat="45.210863194997245" lon="14.752383506340502"><ele>776.0000000000001</ele><time>2026-05-01T16:08:49.999Z</time></trkpt><trkpt lat="45.21078798273678" lon="14.752462816171848"><ele>776.0</ele><time>2026-05-01T16:08:50.999Z</time></trkpt><trkpt lat="45.21071283965703" lon="14.752510848173891"><ele>776.0</ele><time>2026-05-01T16:08:51.999Z</time></trkpt><trkpt lat="45.21065583128051" lon="14.752551008173297"><ele>776.0</ele><time>2026-05-01T16:08:52.999Z</time></trkpt><trkpt lat="45.21052890621666" lon="14.752546235948802"><ele>776.0000000000001</ele><time>2026-05-01T16:08:54.999Z</time></trkpt><trkpt lat="45.21046367054112" lon="14.752503669611084"><ele>776.0</ele><time>2026-05-01T16:08:55.999Z</time></trkpt><trkpt lat="45.21039158541059" lon="14.752439320939247"><ele>777.4</ele><time>2026-05-01T16:08:57Z</time></trkpt><trkpt lat="45.21031887799718" lon="14.752368588861797"><ele>778.8</ele><time>2026-05-01T16:08:58Z</time></trkpt><trkpt lat="45.21023706574066" lon="14.752285224329173"><ele>780.1999999999999</ele><time>2026-05-01T16:08:59Z</time></trkpt><trkpt lat="45.210179003813046" lon="14.752241262885832"><ele>781.5999999999999</ele><time>2026-05-01T16:09:00Z</time></trkpt><trkpt lat="45.21008191185423" lon="14.752237090091583"><ele>783.0</ele><time>2026-05-01T16:09:01Z</time></trkpt><trkpt lat="45.20996704843869" lon="14.752207111448412"><ele>783.0</ele><time>2026-05-01T16:09:02Z</time></trkpt><trkpt lat="45.20983839487707" lon="14.75218290337181"><ele>783.0</ele><time>2026-05-01T16:09:03Z</time></trkpt><trkpt lat="45.20973124256557" lon="14.75216349659959"><ele>783.0</ele><time>2026-05-01T16:09:04Z</time></trkpt><trkpt lat="45.209628288855185" lon="14.752164112279228"><ele>783.0</ele><time>2026-05-01T16:09:05Z</time></trkpt><trkpt lat="45.209539271833385" lon="14.752164455034967"><ele>783.0</ele><time>2026-05-01T16:09:06Z</time></trkpt><trkpt lat="45.20947199077379" lon="14.752133421879327"><ele>781.4</ele><time>2026-05-01T16:09:07Z</time></trkpt><trkpt lat="45.20934063932912" lon="14.751973384100854"><ele>779.8</ele><time>2026-05-01T16:09:09Z</time></trkpt><trkpt lat="45.20925262183611" lon="14.751871272172133"><ele>778.2</ele><time>2026-05-01T16:09:10Z</time></trkpt><trkpt lat="45.209175287414276" lon="14.751814010252012"><ele>776.6</ele><time>2026-05-01T16:09:11Z</time></trkpt><trkpt lat="45.209110340658626" lon="14.75178333110871"><ele>775.0</ele><time>2026-05-01T16:09:12Z</time></trkpt><trkpt lat="45.20902035392572" lon="14.75174515370645"><ele>777.0</ele><time>2026-05-01T16:09:13Z</time></trkpt><trkpt lat="45.20894178095643" lon="14.751718891605053"><ele>779.0</ele><time>2026-05-01T16:09:14Z</time></trkpt><trkpt lat="45.208848791768645" lon="14.75171466631929"><ele>781.0</ele><time>2026-05-01T16:09:15Z</time></trkpt><trkpt lat="45.2087360067792" lon="14.751722505447434"><ele>783.0</ele><time>2026-05-01T16:09:16Z</time></trkpt><trkpt lat="45.20862336254418" lon="14.751741839974914"><ele>785.0</ele><time>2026-05-01T16:09:17Z</time></trkpt><trkpt lat="45.20852410311102" lon="14.751770886179955"><ele>785.0</ele><time>2026-05-01T16:09:18Z</time></trkpt><trkpt lat="45.208440304209525" lon="14.751834680284345"><ele>785.0</ele><time>2026-05-01T16:09:19Z</time></trkpt><trkpt lat="45.208354386064556" lon="14.751888355763704"><ele>785.0</ele><time>2026-05-01T16:09:20Z</time></trkpt><trkpt lat="45.20826259545305" lon="14.751952096060892"><ele>785.0</ele><time>2026-05-01T16:09:21Z</time></trkpt><trkpt lat="45.20813681842526" lon="14.752032067689937"><ele>785.0</ele><time>2026-05-01T16:09:23Z</time></trkpt><trkpt lat="45.20804429454108" lon="14.75201527398871"><ele>787.5000000000001</ele><time>2026-05-01T16:09:25Z</time></trkpt><trkpt lat="45.20795522998174" lon="14.751970143689102"><ele>790.0</ele><time>2026-05-01T16:09:27Z</time></trkpt><trkpt lat="45.207891417699784" lon="14.751953211423745"><ele>792.5</ele><time>2026-05-01T16:09:28.001Z</time></trkpt><trkpt lat="45.20781971776763" lon="14.751965249334935"><ele>795.0</ele><time>2026-05-01T16:09:29.001Z</time></trkpt><trkpt lat="45.207739156658036" lon="14.752003189438113"><ele>797.5000000000001</ele><time>2026-05-01T16:09:30.001Z</time></trkpt><trkpt lat="45.20764400343225" lon="14.752040481766324"><ele>800.0</ele><time>2026-05-01T16:09:31.001Z</time></trkpt><trkpt lat="45.20755022585149" lon="14.752096651322045"><ele>800.0000000000001</ele><time>2026-05-01T16:09:32.001Z</time></trkpt><trkpt lat="45.207466257501665" lon="14.752125559673471"><ele>800.0</ele><time>2026-05-01T16:09:33.001Z</time></trkpt><trkpt lat="45.20739963586293" lon="14.75212820243273"><ele>800.0</ele><time>2026-05-01T16:09:34.001Z</time></trkpt><trkpt lat="45.207317336000976" lon="14.752110906355522"><ele>800.0</ele><time>2026-05-01T16:09:35.001Z</time></trkpt><trkpt lat="45.20721747825203" lon="14.75208886892482"><ele>800.0000000000001</ele><time>2026-05-01T16:09:36.001Z</time></trkpt><trkpt lat="45.207129243208534" lon="14.752067432407886"><ele>800.0</ele><time>2026-05-01T16:09:37.001Z</time></trkpt><trkpt lat="45.2070592566537" lon="14.75204531595988"><ele>798.6666666666667</ele><time>2026-05-01T16:09:38.001Z</time></trkpt><trkpt lat="45.20693586474817" lon="14.752098403473017"><ele>797.3333333333334</ele><time>2026-05-01T16:09:40.001Z</time></trkpt><trkpt lat="45.206855469229" lon="14.752155387832543"><ele>796.0</ele><time>2026-05-01T16:09:41.001Z</time></trkpt><trkpt lat="45.206796667731346" lon="14.7522254349783"><ele>794.6666666666667</ele><time>2026-05-01T16:09:42.001Z</time></trkpt><trkpt lat="45.2067570718541" lon="14.752296767328037"><ele>793.3333333333334</ele><time>2026-05-01T16:09:43.001Z</time></trkpt><trkpt lat="45.20672070467846" lon="14.752389259667225"><ele>792.0</ele><time>2026-05-01T16:09:44.001Z</time></trkpt><trkpt lat="45.20670054613251" lon="14.752493963901763"><ele>792.0</ele><time>2026-05-01T16:09:45.001Z</time></trkpt><trkpt lat="45.20668565176516" lon="14.752619596216492"><ele>792.0</ele><time>2026-05-01T16:09:46.001Z</time></trkpt><trkpt lat="45.20667782272827" lon="14.752747193358099"><ele>792.0</ele><time>2026-05-01T16:09:47.001Z</time></trkpt><trkpt lat="45.20666219605064" lon="14.752868778458769"><ele>792.0</ele><time>2026-05-01T16:09:48.001Z</time></trkpt><trkpt lat="45.20662523633252" lon="14.752998592347234"><ele>792.0</ele><time>2026-05-01T16:09:49.001Z</time></trkpt><trkpt lat="45.206575877566436" lon="14.753135502435178"><ele>792.3333333333334</ele><time>2026-05-01T16:09:50.001Z</time></trkpt><trkpt lat="45.20652581912235" lon="14.753255463547296"><ele>792.6666666666667</ele><time>2026-05-01T16:09:51.001Z</time></trkpt><trkpt lat="45.206486675544575" lon="14.753370596614376"><ele>793.0</ele><time>2026-05-01T16:09:52.001Z</time></trkpt><trkpt lat="45.206453443130414" lon="14.75348558837564"><ele>793.3333333333334</ele><time>2026-05-01T16:09:53.001Z</time></trkpt><trkpt lat="45.206414719314395" lon="14.753571511799286"><ele>793.6666666666667</ele><time>2026-05-01T16:09:54.001Z</time></trkpt><trkpt lat="45.20636159235367" lon="14.753655272912502"><ele>794.0</ele><time>2026-05-01T16:09:55.001Z</time></trkpt><trkpt lat="45.206304442648104" lon="14.753701438756238"><ele>794.3333333333334</ele><time>2026-05-01T16:09:56.001Z</time></trkpt><trkpt lat="45.206239967104935" lon="14.75372433145392"><ele>794.6666666666667</ele><time>2026-05-01T16:09:57.001Z</time></trkpt><trkpt lat="45.20617756968935" lon="14.75370669270514"><ele>795.0</ele><time>2026-05-01T16:09:58.001Z</time></trkpt><trkpt lat="45.20611433184528" lon="14.753667965183691"><ele>795.3333333333333</ele><time>2026-05-01T16:09:59.001Z</time></trkpt><trkpt lat="45.206025124660414" lon="14.753586672634288"><ele>795.6666666666666</ele><time>2026-05-01T16:10:00.001Z</time></trkpt><trkpt lat="45.20595524819666" lon="14.753527755265623"><ele>796.0</ele><time>2026-05-01T16:10:01.001Z</time></trkpt><trkpt lat="45.20585932785595" lon="14.753480151373003"><ele>794.3333333333333</ele><time>2026-05-01T16:10:02.001Z</time></trkpt><trkpt lat="45.20578577035751" lon="14.753394778667436"><ele>792.6666666666666</ele><time>2026-05-01T16:10:03.001Z</time></trkpt><trkpt lat="45.20572879647289" lon="14.753302114603128"><ele>791.0</ele><time>2026-05-01T16:10:04.002Z</time></trkpt><trkpt lat="45.205671832361745" lon="14.753250940706083"><ele>789.3333333333333</ele><time>2026-05-01T16:10:05.002Z</time></trkpt><trkpt lat="45.205572191363395" lon="14.753272745914174"><ele>787.6666666666666</ele><time>2026-05-01T16:10:07.002Z</time></trkpt><trkpt lat="45.2055035001304" lon="14.753336443757282"><ele>786.0</ele><time>2026-05-01T16:10:08.002Z</time></trkpt><trkpt lat="45.2054318618248" lon="14.753452822314175"><ele>787.1666666666666</ele><time>2026-05-01T16:10:09.002Z</time></trkpt><trkpt lat="45.20535206880516" lon="14.75356133882265"><ele>788.3333333333333</ele><time>2026-05-01T16:10:10.002Z</time></trkpt><trkpt lat="45.20527287810026" lon="14.753648327554842"><ele>789.5</ele><time>2026-05-01T16:10:11.002Z</time></trkpt><trkpt lat="45.205217990448425" lon="14.753720604804593"><ele>790.6666666666666</ele><time>2026-05-01T16:10:12.002Z</time></trkpt><trkpt lat="45.20517638805577" lon="14.753799120003325"><ele>791.8333333333333</ele><time>2026-05-01T16:10:13.002Z</time></trkpt><trkpt lat="45.205149988607175" lon="14.753908596463617"><ele>793.0</ele><time>2026-05-01T16:10:14.002Z</time></trkpt><trkpt lat="45.20513069686687" lon="14.754043903061904"><ele>793.0</ele><time>2026-05-01T16:10:15.002Z</time></trkpt><trkpt lat="45.20511034444769" lon="14.754191031430281"><ele>793.0</ele><time>2026-05-01T16:10:15.997Z</time></trkpt><trkpt lat="45.205078157271686" lon="14.75430699747293"><ele>793.0</ele><time>2026-05-01T16:10:16.997Z</time></trkpt><trkpt lat="45.2050373103746" lon="14.754421164005759"><ele>793.0</ele><time>2026-05-01T16:10:17.997Z</time></trkpt><trkpt lat="45.204980269984574" lon="14.754539658464102"><ele>793.0</ele><time>2026-05-01T16:10:18.997Z</time></trkpt><trkpt lat="45.20492016812845" lon="14.754643860336156"><ele>793.3333333333333</ele><time>2026-05-01T16:10:19.997Z</time></trkpt><trkpt lat="45.20485323980079" lon="14.754739059345678"><ele>793.6666666666666</ele><time>2026-05-01T16:10:20.997Z</time></trkpt><trkpt lat="45.204764257114796" lon="14.754839881575455"><ele>794.0</ele><time>2026-05-01T16:10:21.997Z</time></trkpt><trkpt lat="45.20468593176133" lon="14.754921690837278"><ele>794.3333333333333</ele><time>2026-05-01T16:10:22.997Z</time></trkpt><trkpt lat="45.20462824838986" lon="14.754981125391131"><ele>794.6666666666666</ele><time>2026-05-01T16:10:23.997Z</time></trkpt><trkpt lat="45.20459133073731" lon="14.75506449811782"><ele>795.0</ele><time>2026-05-01T16:10:24.997Z</time></trkpt><trkpt lat="45.20455135048153" lon="14.755159376914705"><ele>793.1666666666666</ele><time>2026-05-01T16:10:25.997Z</time></trkpt><trkpt lat="45.20452081496675" lon="14.755263907148533"><ele>791.3333333333333</ele><time>2026-05-01T16:10:26.997Z</time></trkpt><trkpt lat="45.204503880108184" lon="14.755371726821172"><ele>789.5</ele><time>2026-05-01T16:10:27.997Z</time></trkpt><trkpt lat="45.20450709921204" lon="14.75547965978705"><ele>787.6666666666666</ele><time>2026-05-01T16:10:28.997Z</time></trkpt><trkpt lat="45.20452594530871" lon="14.755598374761163"><ele>785.8333333333333</ele><time>2026-05-01T16:10:29.998Z</time></trkpt><trkpt lat="45.20456038715089" lon="14.755710288575143"><ele>784.0</ele><time>2026-05-01T16:10:30.998Z</time></trkpt><trkpt lat="45.20461908687102" lon="14.755828923521491"><ele>784.0</ele><time>2026-05-01T16:10:31.998Z</time></trkpt><trkpt lat="45.204694916572535" lon="14.755964202273876"><ele>784.0</ele><time>2026-05-01T16:10:32.998Z</time></trkpt><trkpt lat="45.2047418389043" lon="14.756072663842028"><ele>784.0</ele><time>2026-05-01T16:10:33.998Z</time></trkpt><trkpt lat="45.20477470179445" lon="14.756159348379828"><ele>784.0</ele><time>2026-05-01T16:10:34.998Z</time></trkpt><trkpt lat="45.20479566931767" lon="14.756302101543229"><ele>784.0</ele><time>2026-05-01T16:10:36.998Z</time></trkpt><trkpt lat="45.20473497758023" lon="14.756464026707322"><ele>782.8333333333333</ele><time>2026-05-01T16:10:38.998Z</time></trkpt><trkpt lat="45.204662402349996" lon="14.756583509939837"><ele>781.6666666666666</ele><time>2026-05-01T16:10:39.998Z</time></trkpt><trkpt lat="45.204628236609906" lon="14.756692579958692"><ele>780.5</ele><time>2026-05-01T16:10:40.999Z</time></trkpt><trkpt lat="45.20462327452812" lon="14.75679037120141"><ele>779.3333333333333</ele><time>2026-05-01T16:10:41.999Z</time></trkpt><trkpt lat="45.204644310964696" lon="14.756875164776817"><ele>778.1666666666666</ele><time>2026-05-01T16:10:42.999Z</time></trkpt><trkpt lat="45.2046845606228" lon="14.756976650122418"><ele>777.0</ele><time>2026-05-01T16:10:43.999Z</time></trkpt><trkpt lat="45.20473996764662" lon="14.757090128237238"><ele>777.0</ele><time>2026-05-01T16:10:44.999Z</time></trkpt><trkpt lat="45.20481827888227" lon="14.757218075748446"><ele>777.0</ele><time>2026-05-01T16:10:45.999Z</time></trkpt><trkpt lat="45.20490839695106" lon="14.757354738571863"><ele>777.0</ele><time>2026-05-01T16:10:46.999Z</time></trkpt><trkpt lat="45.20500317942482" lon="14.757511450774341"><ele>777.0</ele><time>2026-05-01T16:10:47.999Z</time></trkpt><trkpt lat="45.20507090179803" lon="14.757653878263719"><ele>780.0</ele><time>2026-05-01T16:10:48.999Z</time></trkpt><trkpt lat="45.2051149899652" lon="14.757798791128648"><ele>783.0</ele><time>2026-05-01T16:10:49.999Z</time></trkpt><trkpt lat="45.205145011255084" lon="14.757913148941313"><ele>786.0</ele><time>2026-05-01T16:10:50.999Z</time></trkpt><trkpt lat="45.20516405706472" lon="14.758018933122607"><ele>789.0</ele><time>2026-05-01T16:10:51.999Z</time></trkpt><trkpt lat="45.20515752561471" lon="14.75812146689317"><ele>792.0</ele><time>2026-05-01T16:10:52.999Z</time></trkpt><trkpt lat="45.205132040856746" lon="14.75822250423917"><ele>795.0</ele><time>2026-05-01T16:10:53.999Z</time></trkpt><trkpt lat="45.205093233311494" lon="14.758371509293886"><ele>793.4</ele><time>2026-05-01T16:10:54.999Z</time></trkpt><trkpt lat="45.20504431403142" lon="14.75855138921335"><ele>791.8</ele><time>2026-05-01T16:10:55.999Z</time></trkpt><trkpt lat="45.20500917979808" lon="14.758664265902944"><ele>790.2</ele><time>2026-05-01T16:10:56.999Z</time></trkpt><trkpt lat="45.2049634274198" lon="14.758766731401035"><ele>788.6</ele><time>2026-05-01T16:10:58Z</time></trkpt><trkpt lat="45.20489070613482" lon="14.758891986245668"><ele>787.0</ele><time>2026-05-01T16:10:59Z</time></trkpt><trkpt lat="45.204799217926144" lon="14.759030212659662"><ele>787.0</ele><time>2026-05-01T16:11:00Z</time></trkpt><trkpt lat="45.20472487296475" lon="14.759168989471481"><ele>787.0</ele><time>2026-05-01T16:11:01Z</time></trkpt><trkpt lat="45.20465872320402" lon="14.7593420841258"><ele>787.0</ele><time>2026-05-01T16:11:02Z</time></trkpt><trkpt lat="45.20460340819714" lon="14.759512103639986"><ele>787.0</ele><time>2026-05-01T16:11:03Z</time></trkpt><trkpt lat="45.20456192201105" lon="14.759647605884387"><ele>789.75</ele><time>2026-05-01T16:11:04Z</time></trkpt><trkpt lat="45.20450899567437" lon="14.759758553646057"><ele>792.5</ele><time>2026-05-01T16:11:05Z</time></trkpt><trkpt lat="45.204433437874535" lon="14.759859520536033"><ele>795.25</ele><time>2026-05-01T16:11:06Z</time></trkpt><trkpt lat="45.20433227655883" lon="14.759971021913422"><ele>798.0</ele><time>2026-05-01T16:11:07Z</time></trkpt><trkpt lat="45.20418493632824" lon="14.760096065209783"><ele>798.0</ele><time>2026-05-01T16:11:08Z</time></trkpt><trkpt lat="45.20408206400106" lon="14.760198911563808"><ele>798.0</ele><time>2026-05-01T16:11:09Z</time></trkpt><trkpt lat="45.20400407183724" lon="14.760276182807518"><ele>798.0</ele><time>2026-05-01T16:11:10Z</time></trkpt><trkpt lat="45.20393557001512" lon="14.760323614625605"><ele>798.0</ele><time>2026-05-01T16:11:11Z</time></trkpt><trkpt lat="45.203841690521315" lon="14.760355307245264"><ele>798.0</ele><time>2026-05-01T16:11:12Z</time></trkpt><trkpt lat="45.20372941036024" lon="14.760379276141725"><ele>797.6666666666666</ele><time>2026-05-01T16:11:13Z</time></trkpt><trkpt lat="45.20363235694724" lon="14.760423976181425"><ele>797.3333333333333</ele><time>2026-05-01T16:11:14Z</time></trkpt><trkpt lat="45.20354349281827" lon="14.760470247986692"><ele>797.0</ele><time>2026-05-01T16:11:15Z</time></trkpt><trkpt lat="45.20347401018331" lon="14.760525049517035"><ele>796.6666666666666</ele><time>2026-05-01T16:11:16Z</time></trkpt><trkpt lat="45.20342358754989" lon="14.760602316486343"><ele>796.3333333333333</ele><time>2026-05-01T16:11:17Z</time></trkpt><trkpt lat="45.203381268725124" lon="14.760712507936239"><ele>796.0</ele><time>2026-05-01T16:11:18Z</time></trkpt><trkpt lat="45.20335763877682" lon="14.760835553414907"><ele>796.0</ele><time>2026-05-01T16:11:19Z</time></trkpt><trkpt lat="45.20334904330553" lon="14.761007736378708"><ele>796.0</ele><time>2026-05-01T16:11:20Z</time></trkpt><trkpt lat="45.20332583188011" lon="14.761172484494697"><ele>796.0</ele><time>2026-05-01T16:11:21Z</time></trkpt><trkpt lat="45.20329461956097" lon="14.761298116588655"><ele>796.0</ele><time>2026-05-01T16:11:22Z</time></trkpt><trkpt lat="45.203247759237996" lon="14.76142322480034"><ele>796.0</ele><time>2026-05-01T16:11:23Z</time></trkpt><trkpt lat="45.20318997013316" lon="14.76153628944706"><ele>796.6666666666666</ele><time>2026-05-01T16:11:24Z</time></trkpt><trkpt lat="45.203124290542995" lon="14.76162995660723"><ele>797.3333333333333</ele><time>2026-05-01T16:11:25.001Z</time></trkpt><trkpt lat="45.203062571634355" lon="14.761707405055182"><ele>798.0</ele><time>2026-05-01T16:11:27.001Z</time></trkpt><trkpt lat="45.202980464558756" lon="14.761772033185657"><ele>798.6666666666667</ele><time>2026-05-01T16:11:30.001Z</time></trkpt><trkpt lat="45.20295001005813" lon="14.761868093717046"><ele>799.3333333333334</ele><time>2026-05-01T16:11:32.001Z</time></trkpt><trkpt lat="45.202874249889675" lon="14.761945516492426"><ele>800.0</ele><time>2026-05-01T16:12:23.999Z</time></trkpt><trkpt lat="45.20278816229949" lon="14.762051748522893"><ele>801.3333333333334</ele><time>2026-05-01T16:12:26Z</time></trkpt><trkpt lat="45.20274838333377" lon="14.76213284031356"><ele>802.6666666666667</ele><time>2026-05-01T16:12:27Z</time></trkpt><trkpt lat="45.20270065919104" lon="14.762209713511513"><ele>804.0</ele><time>2026-05-01T16:12:28Z</time></trkpt><trkpt lat="45.20266023120354" lon="14.76228280236451"><ele>805.3333333333333</ele><time>2026-05-01T16:12:29Z</time></trkpt><trkpt lat="45.20256956225267" lon="14.762413701971798"><ele>806.6666666666666</ele><time>2026-05-01T16:12:31Z</time></trkpt><trkpt lat="45.20252022809328" lon="14.76247366998247"><ele>808.0</ele><time>2026-05-01T16:12:32Z</time></trkpt><trkpt lat="45.20244708944537" lon="14.762518624892172"><ele>808.0</ele><time>2026-05-01T16:12:33Z</time></trkpt><trkpt lat="45.2023661333654" lon="14.76256021845106"><ele>808.0</ele><time>2026-05-01T16:12:34Z</time></trkpt><trkpt lat="45.20229154519188" lon="14.762607041905635"><ele>808.0</ele><time>2026-05-01T16:12:35Z</time></trkpt><trkpt lat="45.20222203458671" lon="14.762651035110283"><ele>808.0</ele><time>2026-05-01T16:12:36Z</time></trkpt><trkpt lat="45.20210788759183" lon="14.762708394442505"><ele>808.0</ele><time>2026-05-01T16:12:37Z</time></trkpt><trkpt lat="45.20201056548214" lon="14.76278535722351"><ele>808.8333333333333</ele><time>2026-05-01T16:12:38Z</time></trkpt><trkpt lat="45.2019226346067" lon="14.762848093644175"><ele>809.6666666666666</ele><time>2026-05-01T16:12:39Z</time></trkpt><trkpt lat="45.201837581767094" lon="14.76288791768787"><ele>810.5</ele><time>2026-05-01T16:12:40Z</time></trkpt><trkpt lat="45.20176028500759" lon="14.762923497467865"><ele>811.3333333333333</ele><time>2026-05-01T16:12:41Z</time></trkpt><trkpt lat="45.201689291334674" lon="14.762965085119419"><ele>812.1666666666666</ele><time>2026-05-01T16:12:42Z</time></trkpt><trkpt lat="45.20164041517417" lon="14.763051853729603"><ele>813.0</ele><time>2026-05-01T16:12:43Z</time></trkpt><trkpt lat="45.20161336823308" lon="14.763132678958605"><ele>813.0</ele><time>2026-05-01T16:12:44Z</time></trkpt><trkpt lat="45.20161846428173" lon="14.763282646527923"><ele>813.0</ele><time>2026-05-01T16:12:46Z</time></trkpt><trkpt lat="45.20164375502216" lon="14.763374347086705"><ele>813.0</ele><time>2026-05-01T16:12:47Z</time></trkpt><trkpt lat="45.20168345068072" lon="14.763478408968087"><ele>813.0</ele><time>2026-05-01T16:12:48Z</time></trkpt><trkpt lat="45.20168227059253" lon="14.763622939087217"><ele>813.0</ele><time>2026-05-01T16:12:50.001Z</time></trkpt><trkpt lat="45.20164406649341" lon="14.763731853766332"><ele>813.0</ele><time>2026-05-01T16:12:51.001Z</time></trkpt><trkpt lat="45.201569594568056" lon="14.763860647349041"><ele>810.25</ele><time>2026-05-01T16:12:52.001Z</time></trkpt><trkpt lat="45.201489426639554" lon="14.763996391499443"><ele>807.5</ele><time>2026-05-01T16:12:53.001Z</time></trkpt><trkpt lat="45.201391332455174" lon="14.764124020037155"><ele>804.75</ele><time>2026-05-01T16:12:54.001Z</time></trkpt><trkpt lat="45.201308410832596" lon="14.764231492292375"><ele>802.0</ele><time>2026-05-01T16:12:55.001Z</time></trkpt><trkpt lat="45.20125449588863" lon="14.764315544632156"><ele>803.2</ele><time>2026-05-01T16:12:56.001Z</time></trkpt><trkpt lat="45.20120891530263" lon="14.764402904397185"><ele>804.4000000000001</ele><time>2026-05-01T16:12:57.001Z</time></trkpt><trkpt lat="45.20117920213777" lon="14.76450792030498"><ele>805.5999999999999</ele><time>2026-05-01T16:12:58.001Z</time></trkpt><trkpt lat="45.20115941266317" lon="14.764640358904947"><ele>806.8</ele><time>2026-05-01T16:12:59.001Z</time></trkpt><trkpt lat="45.201137823497994" lon="14.76480622777305"><ele>808.0</ele><time>2026-05-01T16:13:00.001Z</time></trkpt><trkpt lat="45.20111166403235" lon="14.765014060049415"><ele>808.0</ele><time>2026-05-01T16:13:01.001Z</time></trkpt><trkpt lat="45.201088576341405" lon="14.765171937292248"><ele>808.0</ele><time>2026-05-01T16:13:02.001Z</time></trkpt><trkpt lat="45.20107742396597" lon="14.765289870219705"><ele>808.0</ele><time>2026-05-01T16:13:03.001Z</time></trkpt><trkpt lat="45.20107791838026" lon="14.765406091827266"><ele>808.0</ele><time>2026-05-01T16:13:04.001Z</time></trkpt><trkpt lat="45.20109565179314" lon="14.765549784799408"><ele>808.0</ele><time>2026-05-01T16:13:05.001Z</time></trkpt><trkpt lat="45.20111010153964" lon="14.765685009184974"><ele>809.0</ele><time>2026-05-01T16:13:06.001Z</time></trkpt><trkpt lat="45.20109163065173" lon="14.765802217312515"><ele>810.0</ele><time>2026-05-01T16:13:07.001Z</time></trkpt><trkpt lat="45.20105463151432" lon="14.76593141797361"><ele>811.0</ele><time>2026-05-01T16:13:08.001Z</time></trkpt><trkpt lat="45.20099558064779" lon="14.766073621909731"><ele>812.0</ele><time>2026-05-01T16:13:09.001Z</time></trkpt><trkpt lat="45.20096009349105" lon="14.766182694511135"><ele>813.0</ele><time>2026-05-01T16:13:10.001Z</time></trkpt><trkpt lat="45.20091769318067" lon="14.766303926074706"><ele>812.8333333333334</ele><time>2026-05-01T16:13:11.001Z</time></trkpt><trkpt lat="45.20089974163248" lon="14.766435175765086"><ele>812.6666666666667</ele><time>2026-05-01T16:13:12.001Z</time></trkpt><trkpt lat="45.2009105856741" lon="14.76656958236874"><ele>812.5</ele><time>2026-05-01T16:13:13.001Z</time></trkpt><trkpt lat="45.20091751063943" lon="14.76670537290603"><ele>812.3333333333334</ele><time>2026-05-01T16:13:14.001Z</time></trkpt><trkpt lat="45.20093833687515" lon="14.766806577835936"><ele>812.1666666666667</ele><time>2026-05-01T16:13:15.001Z</time></trkpt><trkpt lat="45.20097070155597" lon="14.766884287907812"><ele>812.0</ele><time>2026-05-01T16:13:16.001Z</time></trkpt><trkpt lat="45.201024255463615" lon="14.76693467648848"><ele>812.0</ele><time>2026-05-01T16:13:17.001Z</time></trkpt><trkpt lat="45.20109212802409" lon="14.766982100691473"><ele>812.0</ele><time>2026-05-01T16:13:18.001Z</time></trkpt><trkpt lat="45.20119039754436" lon="14.767045868317208"><ele>812.0</ele><time>2026-05-01T16:13:19.001Z</time></trkpt><trkpt lat="45.201298727745574" lon="14.767128827578025"><ele>812.0</ele><time>2026-05-01T16:13:20.001Z</time></trkpt><trkpt lat="45.2013894507223" lon="14.767255120136781"><ele>812.0</ele><time>2026-05-01T16:13:21.001Z</time></trkpt><trkpt lat="45.201483309054204" lon="14.767387862564062"><ele>812.5000000000001</ele><time>2026-05-01T16:13:22.002Z</time></trkpt><trkpt lat="45.20154494236511" lon="14.767488084741412"><ele>813.0</ele><time>2026-05-01T16:13:23.002Z</time></trkpt><trkpt lat="45.20158507016618" lon="14.767582223657316"><ele>813.5</ele><time>2026-05-01T16:13:24.002Z</time></trkpt><trkpt lat="45.201603332511965" lon="14.767680069088305"><ele>814.0</ele><time>2026-05-01T16:13:25.002Z</time></trkpt><trkpt lat="45.20159229980051" lon="14.767787135724191"><ele>814.5000000000001</ele><time>2026-05-01T16:13:26.002Z</time></trkpt><trkpt lat="45.20156644643319" lon="14.767902904386828"><ele>815.0</ele><time>2026-05-01T16:13:27.002Z</time></trkpt><trkpt lat="45.20151571101717" lon="14.768020827304847"><ele>815.0000000000001</ele><time>2026-05-01T16:13:28.002Z</time></trkpt><trkpt lat="45.201456903972016" lon="14.768101194733358"><ele>815.0</ele><time>2026-05-01T16:13:29.002Z</time></trkpt><trkpt lat="45.20140097752733" lon="14.76816319032386"><ele>815.0</ele><time>2026-05-01T16:13:30.002Z</time></trkpt><trkpt lat="45.2013272609751" lon="14.768217407168976"><ele>815.0</ele><time>2026-05-01T16:13:31.002Z</time></trkpt><trkpt lat="45.201262088924835" lon="14.768284408167098"><ele>815.0000000000001</ele><time>2026-05-01T16:13:32.002Z</time></trkpt><trkpt lat="45.20121292752797" lon="14.768387946653247"><ele>815.0</ele><time>2026-05-01T16:13:33.002Z</time></trkpt><trkpt lat="45.20112992733822" lon="14.768482049688958"><ele>816.25</ele><time>2026-05-01T16:13:34.002Z</time></trkpt><trkpt lat="45.20107563880748" lon="14.768637484380283"><ele>817.5</ele><time>2026-05-01T16:13:35.002Z</time></trkpt><trkpt lat="45.201018353566326" lon="14.768774102702935"><ele>818.75</ele><time>2026-05-01T16:13:36.002Z</time></trkpt><trkpt lat="45.20093488617206" lon="14.768926749028571"><ele>820.0</ele><time>2026-05-01T16:13:37.002Z</time></trkpt><trkpt lat="45.20083027203086" lon="14.769093051144493"><ele>820.0</ele><time>2026-05-01T16:13:38.002Z</time></trkpt><trkpt lat="45.200741866755514" lon="14.769230632566893"><ele>820.0</ele><time>2026-05-01T16:13:39.002Z</time></trkpt><trkpt lat="45.20065840574071" lon="14.769364487848703"><ele>820.0</ele><time>2026-05-01T16:13:40.002Z</time></trkpt><trkpt lat="45.20058542303782" lon="14.769498564047424"><ele>820.0</ele><time>2026-05-01T16:13:41.002Z</time></trkpt><trkpt lat="45.20052929420083" lon="14.769613071077092"><ele>820.8</ele><time>2026-05-01T16:13:42.002Z</time></trkpt><trkpt lat="45.20047359003331" lon="14.769728543087075"><ele>821.6</ele><time>2026-05-01T16:13:43.002Z</time></trkpt><trkpt lat="45.200428017809905" lon="14.769866908524003"><ele>822.4000000000001</ele><time>2026-05-01T16:13:44.002Z</time></trkpt><trkpt lat="45.200384133930434" lon="14.77000770629436"><ele>823.2</ele><time>2026-05-01T16:13:45.002Z</time></trkpt><trkpt lat="45.20034148666578" lon="14.770143188999278"><ele>824.0</ele><time>2026-05-01T16:13:46.002Z</time></trkpt><trkpt lat="45.20031279832526" lon="14.77027005260695"><ele>825.25</ele><time>2026-05-01T16:13:47.002Z</time></trkpt><trkpt lat="45.20030219380566" lon="14.770417260269644"><ele>826.5</ele><time>2026-05-01T16:13:48.002Z</time></trkpt><trkpt lat="45.20028881135844" lon="14.770600050073686"><ele>827.75</ele><time>2026-05-01T16:13:49.002Z</time></trkpt><trkpt lat="45.200267914720335" lon="14.77077799379278"><ele>829.0</ele><time>2026-05-01T16:13:50.002Z</time></trkpt><trkpt lat="45.2002297182658" lon="14.770917305721124"><ele>828.4000000000001</ele><time>2026-05-01T16:13:51.002Z</time></trkpt><trkpt lat="45.200218746115965" lon="14.771036844105238"><ele>827.8</ele><time>2026-05-01T16:13:52.002Z</time></trkpt><trkpt lat="45.2001762859854" lon="14.771126228582625"><ele>827.2</ele><time>2026-05-01T16:13:53.002Z</time></trkpt><trkpt lat="45.20015893261659" lon="14.771241665077428"><ele>826.5999999999999</ele><time>2026-05-01T16:13:54.002Z</time></trkpt><trkpt lat="45.20010425903922" lon="14.771360309522231"><ele>826.0</ele><time>2026-05-01T16:13:55.003Z</time></trkpt><trkpt lat="45.200049618982455" lon="14.77152293442651"><ele>826.0</ele><time>2026-05-01T16:13:56.003Z</time></trkpt><trkpt lat="45.199980103747656" lon="14.771716741097679"><ele>826.0</ele><time>2026-05-01T16:13:57.003Z</time></trkpt><trkpt lat="45.19993566914276" lon="14.771869234859471"><ele>826.0</ele><time>2026-05-01T16:13:58.003Z</time></trkpt><trkpt lat="45.19988325567232" lon="14.772017001326077"><ele>826.0</ele><time>2026-05-01T16:13:59.003Z</time></trkpt><trkpt lat="45.19980204537044" lon="14.77216169911402"><ele>825.0</ele><time>2026-05-01T16:14:00.003Z</time></trkpt><trkpt lat="45.19972863747981" lon="14.772297545373222"><ele>824.0</ele><time>2026-05-01T16:14:01.003Z</time></trkpt><trkpt lat="45.19966569759784" lon="14.772402866355975"><ele>823.0</ele><time>2026-05-01T16:14:02.003Z</time></trkpt><trkpt lat="45.19959386557267" lon="14.772504187321863"><ele>822.0</ele><time>2026-05-01T16:14:03.003Z</time></trkpt><trkpt lat="45.19952071038615" lon="14.772596769605546"><ele>821.0</ele><time>2026-05-01T16:14:04.003Z</time></trkpt><trkpt lat="45.19945554738363" lon="14.772697946048103"><ele>821.0</ele><time>2026-05-01T16:14:05.003Z</time></trkpt><trkpt lat="45.1993956618313" lon="14.772773075439432"><ele>821.0</ele><time>2026-05-01T16:14:06.003Z</time></trkpt><trkpt lat="45.199320570162804" lon="14.772838740504312"><ele>821.0</ele><time>2026-05-01T16:14:08.003Z</time></trkpt><trkpt lat="45.19936539600461" lon="14.773033220088372"><ele>821.0</ele><time>2026-05-01T16:14:14.003Z</time></trkpt><trkpt lat="45.199391623579366" lon="14.773172657858096"><ele>821.0</ele><time>2026-05-01T16:14:15.003Z</time></trkpt><trkpt lat="45.1994426068685" lon="14.77331348749418"><ele>821.0</ele><time>2026-05-01T16:14:16.003Z</time></trkpt><trkpt lat="45.19951605584811" lon="14.773462135457699"><ele>821.0</ele><time>2026-05-01T16:14:17.003Z</time></trkpt><trkpt lat="45.199613513447005" lon="14.773598451839318"><ele>821.0</ele><time>2026-05-01T16:14:18.003Z</time></trkpt><trkpt lat="45.199727791328044" lon="14.77369931786616"><ele>821.0</ele><time>2026-05-01T16:14:19.003Z</time></trkpt><trkpt lat="45.19983598798279" lon="14.773794580339356"><ele>822.5</ele><time>2026-05-01T16:14:20.003Z</time></trkpt><trkpt lat="45.199940696582345" lon="14.77388612594909"><ele>824.0</ele><time>2026-05-01T16:14:21.003Z</time></trkpt><trkpt lat="45.2000436758514" lon="14.773979101904104"><ele>825.5</ele><time>2026-05-01T16:14:22.003Z</time></trkpt><trkpt lat="45.20015250730529" lon="14.774051320767521"><ele>827.0</ele><time>2026-05-01T16:14:23.003Z</time></trkpt><trkpt lat="45.200252195354395" lon="14.774149901508801"><ele>827.0</ele><time>2026-05-01T16:14:24.003Z</time></trkpt><trkpt lat="45.200344624555356" lon="14.77423705616724"><ele>827.0</ele><time>2026-05-01T16:14:25.003Z</time></trkpt><trkpt lat="45.20042565433521" lon="14.77433530071911"><ele>827.0</ele><time>2026-05-01T16:14:26.003Z</time></trkpt><trkpt lat="45.20053285127433" lon="14.774382520508576"><ele>827.0</ele><time>2026-05-01T16:14:27.003Z</time></trkpt><trkpt lat="45.20065376151032" lon="14.774368087530746"><ele>829.0</ele><time>2026-05-01T16:14:28Z</time></trkpt><trkpt lat="45.200770282088406" lon="14.774407218577476"><ele>831.0</ele><time>2026-05-01T16:14:29Z</time></trkpt><trkpt lat="45.20087538090869" lon="14.774436135028537"><ele>833.0</ele><time>2026-05-01T16:14:30Z</time></trkpt><trkpt lat="45.200985330274705" lon="14.774473736048943"><ele>835.0</ele><time>2026-05-01T16:14:31Z</time></trkpt><trkpt lat="45.201085861515956" lon="14.774543205897418"><ele>835.0</ele><time>2026-05-01T16:14:32Z</time></trkpt><trkpt lat="45.20120057597442" lon="14.77463567950952"><ele>835.0</ele><time>2026-05-01T16:14:33Z</time></trkpt><trkpt lat="45.201317406471624" lon="14.774719355473282"><ele>835.0</ele><time>2026-05-01T16:14:34Z</time></trkpt><trkpt lat="45.201435850645346" lon="14.774782745084151"><ele>835.0</ele><time>2026-05-01T16:14:35Z</time></trkpt><trkpt lat="45.201546536707646" lon="14.774836342419059"><ele>832.6</ele><time>2026-05-01T16:14:36Z</time></trkpt><trkpt lat="45.2016517838825" lon="14.774879810255435"><ele>830.2</ele><time>2026-05-01T16:14:37Z</time></trkpt><trkpt lat="45.201730330702866" lon="14.774987772458447"><ele>827.8</ele><time>2026-05-01T16:14:38Z</time></trkpt><trkpt lat="45.20180749017109" lon="14.775095592843012"><ele>825.4</ele><time>2026-05-01T16:14:39Z</time></trkpt><trkpt lat="45.201888162040795" lon="14.775198183237103"><ele>823.0</ele><time>2026-05-01T16:14:40Z</time></trkpt><trkpt lat="45.20201633173654" lon="14.775247755866365"><ele>822.75</ele><time>2026-05-01T16:14:41Z</time></trkpt><trkpt lat="45.20215285671342" lon="14.775252525788973"><ele>822.5</ele><time>2026-05-01T16:14:42Z</time></trkpt><trkpt lat="45.20227228166659" lon="14.775250598197651"><ele>822.25</ele><time>2026-05-01T16:14:43Z</time></trkpt><trkpt lat="45.202362964707206" lon="14.77526213362549"><ele>822.0</ele><time>2026-05-01T16:14:44Z</time></trkpt><trkpt lat="45.202468917182614" lon="14.77529960671207"><ele>822.6</ele><time>2026-05-01T16:14:45Z</time></trkpt><trkpt lat="45.202580210919734" lon="14.775367685546724"><ele>823.2</ele><time>2026-05-01T16:14:46Z</time></trkpt><trkpt lat="45.202676680372264" lon="14.775427374134878"><ele>823.8</ele><time>2026-05-01T16:14:47Z</time></trkpt><trkpt lat="45.202741331600784" lon="14.775501203804337"><ele>824.4</ele><time>2026-05-01T16:14:48Z</time></trkpt><trkpt lat="45.202804151294316" lon="14.775583793873915"><ele>825.0</ele><time>2026-05-01T16:14:49Z</time></trkpt><trkpt lat="45.202821760996564" lon="14.775704489569568"><ele>825.0</ele><time>2026-05-01T16:14:50Z</time></trkpt><trkpt lat="45.2028074617281" lon="14.775856858324232"><ele>825.0</ele><time>2026-05-01T16:14:51Z</time></trkpt><trkpt lat="45.20278756490141" lon="14.776006915790433"><ele>825.0</ele><time>2026-05-01T16:14:52Z</time></trkpt><trkpt lat="45.20278991967471" lon="14.776109299489466"><ele>825.0</ele><time>2026-05-01T16:14:53Z</time></trkpt><trkpt lat="45.20277574232078" lon="14.776208936047409"><ele>825.0</ele><time>2026-05-01T16:14:54Z</time></trkpt><trkpt lat="45.20276994194582" lon="14.776336923421926"><ele>825.0</ele><time>2026-05-01T16:14:56Z</time></trkpt><trkpt lat="45.20275584527725" lon="14.776425268117123"><ele>825.0</ele><time>2026-05-01T16:14:58Z</time></trkpt><trkpt lat="45.202724990630514" lon="14.77650396722097"><ele>825.0</ele><time>2026-05-01T16:15:15.001Z</time></trkpt><trkpt lat="45.20274777677003" lon="14.776391777103385"><ele>825.0</ele><time>2026-05-01T16:15:22.001Z</time></trkpt><trkpt lat="45.202760171118385" lon="14.776301039505597"><ele>825.0</ele><time>2026-05-01T16:15:23.001Z</time></trkpt><trkpt lat="45.20279805235704" lon="14.776109080814955"><ele>825.0</ele><time>2026-05-01T16:15:24.001Z</time></trkpt><trkpt lat="45.202822789792016" lon="14.776000531388725"><ele>825.0</ele><time>2026-05-01T16:15:25.001Z</time></trkpt><trkpt lat="45.20284947608914" lon="14.775904502796692"><ele>825.0</ele><time>2026-05-01T16:15:26.001Z</time></trkpt><trkpt lat="45.20285527334908" lon="14.775756584803942"><ele>825.0</ele><time>2026-05-01T16:15:28.001Z</time></trkpt><trkpt lat="45.20278870050295" lon="14.775770010111792"><ele>825.0</ele><time>2026-05-01T16:24:59.001Z</time></trkpt><trkpt lat="45.2027396210223" lon="14.775873251599418"><ele>825.0</ele><time>2026-05-01T16:25:19Z</time></trkpt><trkpt lat="45.20281875389176" lon="14.775883504153104"><ele>825.0</ele><time>2026-05-01T16:25:33Z</time></trkpt><trkpt lat="45.20286006769286" lon="14.775811314438211"><ele>825.0</ele><time>2026-05-01T16:26:08Z</time></trkpt><trkpt lat="45.20284855625468" lon="14.775912943554127"><ele>825.0</ele><time>2026-05-01T16:26:36.999Z</time></trkpt><trkpt lat="45.202800711790985" lon="14.776031652667138"><ele>825.0</ele><time>2026-05-01T16:26:54.999Z</time></trkpt><trkpt lat="45.20275136207845" lon="14.77596112337736"><ele>825.0</ele><time>2026-05-01T16:26:59.999Z</time></trkpt><trkpt lat="45.20281608814067" lon="14.775955510734256"><ele>825.0</ele><time>2026-05-01T16:27:48.999Z</time></trkpt><trkpt lat="45.20279678908252" lon="14.775869719120262"><ele>825.0</ele><time>2026-05-01T16:28:19.999Z</time></trkpt><trkpt lat="45.202810178477094" lon="14.775780939818581"><ele>825.0</ele><time>2026-05-01T16:29:04.999Z</time></trkpt><trkpt lat="45.202844875765614" lon="14.775700703643814"><ele>825.0</ele><time>2026-05-01T16:29:13.999Z</time></trkpt><trkpt lat="45.20281922154368" lon="14.775574327908219"><ele>825.0</ele><time>2026-05-01T16:29:37.999Z</time></trkpt><trkpt lat="45.20276451532911" lon="14.77542558495079"><ele>825.0</ele><time>2026-05-01T16:29:39.999Z</time></trkpt><trkpt lat="45.20266613893572" lon="14.775326173390546"><ele>825.0</ele><time>2026-05-01T16:29:41.999Z</time></trkpt><trkpt lat="45.202562936122476" lon="14.775271084104554"><ele>825.0</ele><time>2026-05-01T16:29:43.999Z</time></trkpt><trkpt lat="45.202483222202034" lon="14.775233643163867"><ele>825.0</ele><time>2026-05-01T16:29:45.999Z</time></trkpt><trkpt lat="45.202423784433826" lon="14.775189910745631"><ele>825.0</ele><time>2026-05-01T16:29:47.999Z</time></trkpt><trkpt lat="45.20235918550708" lon="14.775163429266513"><ele>825.0</ele><time>2026-05-01T16:29:50.999Z</time></trkpt><trkpt lat="45.202353577860855" lon="14.77526379406663"><ele>825.0</ele><time>2026-05-01T16:29:55.999Z</time></trkpt><trkpt lat="45.202399641521836" lon="14.775337233371866"><ele>825.0</ele><time>2026-05-01T16:29:57.999Z</time></trkpt><trkpt lat="45.20247966487124" lon="14.775379458885732"><ele>825.0</ele><time>2026-05-01T16:29:58.999Z</time></trkpt><trkpt lat="45.20261879273782" lon="14.77540147803244"><ele>825.0</ele><time>2026-05-01T16:30:00.999Z</time></trkpt><trkpt lat="45.20269280304946" lon="14.775420679359785"><ele>825.0</ele><time>2026-05-01T16:30:01.999Z</time></trkpt><trkpt lat="45.2027580617033" lon="14.775439160757395"><ele>825.0</ele><time>2026-05-01T16:30:02.999Z</time></trkpt><trkpt lat="45.20281571489102" lon="14.775505695370503"><ele>825.0</ele><time>2026-05-01T16:30:03.999Z</time></trkpt><trkpt lat="45.20286783384496" lon="14.775609551377487"><ele>825.0</ele><time>2026-05-01T16:30:06.999Z</time></trkpt><trkpt lat="45.20284345341287" lon="14.775783233942606"><ele>825.0</ele><time>2026-05-01T16:30:08.999Z</time></trkpt><trkpt lat="45.20282050092173" lon="14.775902707582292"><ele>825.0</ele><time>2026-05-01T16:30:10.999Z</time></trkpt><trkpt lat="45.20275699039431" lon="14.775994001721974"><ele>825.0</ele><time>2026-05-01T16:31:25.999Z</time></trkpt><trkpt lat="45.2027539141442" lon="14.776186341312284"><ele>825.0</ele><time>2026-05-01T16:31:27.999Z</time></trkpt><trkpt lat="45.202741688671125" lon="14.776303408534586"><ele>825.0</ele><time>2026-05-01T16:31:28.999Z</time></trkpt><trkpt lat="45.20271470566551" lon="14.776416132952566"><ele>825.0</ele><time>2026-05-01T16:31:29.999Z</time></trkpt><trkpt lat="45.20269585032908" lon="14.77655582435524"><ele>825.0</ele><time>2026-05-01T16:31:30.999Z</time></trkpt><trkpt lat="45.20265595619245" lon="14.776701421456591"><ele>825.0</ele><time>2026-05-01T16:31:31.999Z</time></trkpt><trkpt lat="45.20260805105791" lon="14.776860420714605"><ele>825.0</ele><time>2026-05-01T16:31:32.999Z</time></trkpt><trkpt lat="45.20255309612304" lon="14.77701754515327"><ele>825.0</ele><time>2026-05-01T16:31:33.999Z</time></trkpt><trkpt lat="45.20248847409878" lon="14.777174815602239"><ele>827.0</ele><time>2026-05-01T16:31:34.999Z</time></trkpt><trkpt lat="45.20242817107401" lon="14.777291414754872"><ele>829.0</ele><time>2026-05-01T16:31:35.999Z</time></trkpt><trkpt lat="45.2023737916263" lon="14.777410761241127"><ele>831.0</ele><time>2026-05-01T16:31:36.999Z</time></trkpt><trkpt lat="45.202319374612905" lon="14.777550391697755"><ele>833.0</ele><time>2026-05-01T16:31:37.999Z</time></trkpt><trkpt lat="45.20226494113016" lon="14.777684680267699"><ele>835.0</ele><time>2026-05-01T16:31:38.999Z</time></trkpt><trkpt lat="45.202207463102475" lon="14.777815094375052"><ele>830.4</ele><time>2026-05-01T16:31:39.999Z</time></trkpt><trkpt lat="45.202166139584286" lon="14.777958056456379"><ele>825.8</ele><time>2026-05-01T16:31:40.999Z</time></trkpt><trkpt lat="45.20212690495817" lon="14.778099189217949"><ele>821.2</ele><time>2026-05-01T16:31:41.999Z</time></trkpt><trkpt lat="45.20210033321054" lon="14.778255233969288"><ele>816.6</ele><time>2026-05-01T16:31:42.999Z</time></trkpt><trkpt lat="45.20204984462418" lon="14.778404382383414"><ele>812.0</ele><time>2026-05-01T16:31:43.999Z</time></trkpt><trkpt lat="45.20203502386331" lon="14.778540819709832"><ele>812.0</ele><time>2026-05-01T16:31:44.999Z</time></trkpt><trkpt lat="45.20201805845534" lon="14.778700084791115"><ele>812.0</ele><time>2026-05-01T16:31:45.999Z</time></trkpt><trkpt lat="45.20200771458328" lon="14.778864916055543"><ele>812.0</ele><time>2026-05-01T16:31:46.999Z</time></trkpt><trkpt lat="45.20200701787484" lon="14.779027976261684"><ele>812.0</ele><time>2026-05-01T16:31:47.999Z</time></trkpt><trkpt lat="45.20201860870461" lon="14.779198325130116"><ele>810.4000000000001</ele><time>2026-05-01T16:31:48.999Z</time></trkpt><trkpt lat="45.20203018994402" lon="14.779364614580253"><ele>808.8000000000001</ele><time>2026-05-01T16:31:49.999Z</time></trkpt><trkpt lat="45.20204188462351" lon="14.779519441693953"><ele>807.2</ele><time>2026-05-01T16:31:50.999Z</time></trkpt><trkpt lat="45.202056511803114" lon="14.779659387203283"><ele>805.6</ele><time>2026-05-01T16:31:51.999Z</time></trkpt><trkpt lat="45.202073916448235" lon="14.779780343363534"><ele>804.0</ele><time>2026-05-01T16:31:52.999Z</time></trkpt><trkpt lat="45.20210724507922" lon="14.779886963027074"><ele>804.0</ele><time>2026-05-01T16:31:53.999Z</time></trkpt><trkpt lat="45.2021497992878" lon="14.779985416587584"><ele>804.0</ele><time>2026-05-01T16:31:54.999Z</time></trkpt><trkpt lat="45.202200262147166" lon="14.780079740138802"><ele>804.0</ele><time>2026-05-01T16:31:55.999Z</time></trkpt><trkpt lat="45.20224531600835" lon="14.780189007395032"><ele>804.0</ele><time>2026-05-01T16:31:56.999Z</time></trkpt><trkpt lat="45.20230684969752" lon="14.780280087529412"><ele>804.0</ele><time>2026-05-01T16:31:57.999Z</time></trkpt><trkpt lat="45.20238559698426" lon="14.780359703455476"><ele>804.0</ele><time>2026-05-01T16:31:58.999Z</time></trkpt><trkpt lat="45.20248311670005" lon="14.780404850637014"><ele>808.1666666666666</ele><time>2026-05-01T16:31:59.999Z</time></trkpt><trkpt lat="45.2025709948896" lon="14.780446773121428"><ele>812.3333333333333</ele><time>2026-05-01T16:32:00.999Z</time></trkpt><trkpt lat="45.20264688398555" lon="14.780491727590865"><ele>816.5</ele><time>2026-05-01T16:32:01.999Z</time></trkpt><trkpt lat="45.20270963551755" lon="14.780542586558019"><ele>820.6666666666666</ele><time>2026-05-01T16:32:02.999Z</time></trkpt><trkpt lat="45.20276664725346" lon="14.780605748981214"><ele>824.8333333333333</ele><time>2026-05-01T16:32:03.999Z</time></trkpt><trkpt lat="45.202789606552294" lon="14.780711195072374"><ele>829.0</ele><time>2026-05-01T16:32:04.999Z</time></trkpt><trkpt lat="45.202788607673995" lon="14.780821212617159"><ele>829.0</ele><time>2026-05-01T16:32:05.999Z</time></trkpt><trkpt lat="45.20276953805877" lon="14.780933025598134"><ele>829.0</ele><time>2026-05-01T16:32:06.999Z</time></trkpt><trkpt lat="45.20272411070049" lon="14.781052569601448"><ele>829.0</ele><time>2026-05-01T16:32:07.999Z</time></trkpt><trkpt lat="45.20266707708718" lon="14.781161598782267"><ele>829.0</ele><time>2026-05-01T16:32:08.999Z</time></trkpt><trkpt lat="45.20260248856781" lon="14.781266116658779"><ele>829.0</ele><time>2026-05-01T16:32:09.999Z</time></trkpt><trkpt lat="45.20254299030373" lon="14.781368867400534"><ele>828.8000000000001</ele><time>2026-05-01T16:32:10.999Z</time></trkpt><trkpt lat="45.202462497701134" lon="14.78150085073044"><ele>828.6</ele><time>2026-05-01T16:32:11.999Z</time></trkpt><trkpt lat="45.20238039397828" lon="14.781606730798591"><ele>828.4</ele><time>2026-05-01T16:32:12.999Z</time></trkpt><trkpt lat="45.20232208242193" lon="14.781712822333445"><ele>828.2</ele><time>2026-05-01T16:32:13.999Z</time></trkpt><trkpt lat="45.20226043169063" lon="14.781804529084168"><ele>828.0</ele><time>2026-05-01T16:32:14.999Z</time></trkpt><trkpt lat="45.202223995288406" lon="14.781916902370952"><ele>828.0</ele><time>2026-05-01T16:32:15.999Z</time></trkpt><trkpt lat="45.20221861368728" lon="14.782025217171757"><ele>828.0</ele><time>2026-05-01T16:32:16.999Z</time></trkpt><trkpt lat="45.20223581543826" lon="14.782135990859143"><ele>828.0</ele><time>2026-05-01T16:32:17.999Z</time></trkpt><trkpt lat="45.2022857418823" lon="14.782234353845181"><ele>828.0</ele><time>2026-05-01T16:32:18.999Z</time></trkpt><trkpt lat="45.20236292655466" lon="14.782314350646292"><ele>828.0</ele><time>2026-05-01T16:32:19.999Z</time></trkpt><trkpt lat="45.2024610506187" lon="14.782360181412484"><ele>828.0</ele><time>2026-05-01T16:32:20.999Z</time></trkpt><trkpt lat="45.20255650149045" lon="14.782388256425486"><ele>828.4</ele><time>2026-05-01T16:32:21.999Z</time></trkpt><trkpt lat="45.202619181523474" lon="14.782472366581821"><ele>828.8</ele><time>2026-05-01T16:32:22.999Z</time></trkpt><trkpt lat="45.202672428410004" lon="14.782566349176772"><ele>829.2</ele><time>2026-05-01T16:32:23.999Z</time></trkpt><trkpt lat="45.20272083378576" lon="14.782690080836582"><ele>829.6</ele><time>2026-05-01T16:32:24.999Z</time></trkpt><trkpt lat="45.20277196248784" lon="14.782818849486743"><ele>830.0</ele><time>2026-05-01T16:32:25.999Z</time></trkpt><trkpt lat="45.20282342256206" lon="14.782931009092298"><ele>830.4</ele><time>2026-05-01T16:32:26.999Z</time></trkpt><trkpt lat="45.20289677183204" lon="14.783036379250014"><ele>830.8</ele><time>2026-05-01T16:32:27.999Z</time></trkpt><trkpt lat="45.20299466650484" lon="14.783114107603126"><ele>831.2</ele><time>2026-05-01T16:32:28.999Z</time></trkpt><trkpt lat="45.20309945853992" lon="14.783147108575696"><ele>831.6</ele><time>2026-05-01T16:32:29.999Z</time></trkpt><trkpt lat="45.20321293381449" lon="14.783157442715032"><ele>832.0</ele><time>2026-05-01T16:32:30.999Z</time></trkpt><trkpt lat="45.203324210749024" lon="14.78311197979967"><ele>831.0</ele><time>2026-05-01T16:32:31.999Z</time></trkpt><trkpt lat="45.203443745236605" lon="14.783081238915212"><ele>830.0</ele><time>2026-05-01T16:32:32.999Z</time></trkpt><trkpt lat="45.20354933335323" lon="14.782982788869132"><ele>829.0</ele><time>2026-05-01T16:32:33.999Z</time></trkpt><trkpt lat="45.20365883913813" lon="14.782921346805908"><ele>828.0</ele><time>2026-05-01T16:32:34.999Z</time></trkpt><trkpt lat="45.203765604392224" lon="14.782876201323509"><ele>828.0</ele><time>2026-05-01T16:32:35.999Z</time></trkpt><trkpt lat="45.203873619347576" lon="14.782855849602228"><ele>828.0</ele><time>2026-05-01T16:32:36.999Z</time></trkpt><trkpt lat="45.20398917849256" lon="14.78285170307053"><ele>828.0</ele><time>2026-05-01T16:32:37.999Z</time></trkpt><trkpt lat="45.20410381788012" lon="14.782852185578793"><ele>828.0</ele><time>2026-05-01T16:32:38.999Z</time></trkpt><trkpt lat="45.20421598364746" lon="14.782850490490507"><ele>831.0</ele><time>2026-05-01T16:32:39.999Z</time></trkpt><trkpt lat="45.20433301831652" lon="14.782861556354122"><ele>834.0</ele><time>2026-05-01T16:32:40.999Z</time></trkpt><trkpt lat="45.20444870647304" lon="14.782897172156492"><ele>837.0</ele><time>2026-05-01T16:32:41.999Z</time></trkpt><trkpt lat="45.20455440552041" lon="14.782941755941808"><ele>840.0</ele><time>2026-05-01T16:32:42.999Z</time></trkpt><trkpt lat="45.204653716350194" lon="14.78299199078261"><ele>840.0</ele><time>2026-05-01T16:32:43.999Z</time></trkpt><trkpt lat="45.204731581001106" lon="14.783019639090442"><ele>840.0</ele><time>2026-05-01T16:32:44.999Z</time></trkpt><trkpt lat="45.20482024384197" lon="14.783006210927866"><ele>840.0</ele><time>2026-05-01T16:32:45.999Z</time></trkpt><trkpt lat="45.20491408874852" lon="14.782969021139744"><ele>840.0</ele><time>2026-05-01T16:32:46.999Z</time></trkpt><trkpt lat="45.20500263655695" lon="14.782959269940768"><ele>840.0</ele><time>2026-05-01T16:32:47.999Z</time></trkpt><trkpt lat="45.20508545286152" lon="14.782953216026163"><ele>840.0</ele><time>2026-05-01T16:32:48.999Z</time></trkpt><trkpt lat="45.20516774425992" lon="14.782979589562316"><ele>841.6</ele><time>2026-05-01T16:32:49.999Z</time></trkpt><trkpt lat="45.2052439332606" lon="14.783005942735143"><ele>843.2</ele><time>2026-05-01T16:32:50.999Z</time></trkpt><trkpt lat="45.2053083339695" lon="14.783081862970814"><ele>844.8</ele><time>2026-05-01T16:32:51.999Z</time></trkpt><trkpt lat="45.20539773170662" lon="14.783131172270538"><ele>846.4</ele><time>2026-05-01T16:32:52.999Z</time></trkpt><trkpt lat="45.20548485140197" lon="14.783205515242074"><ele>848.0</ele><time>2026-05-01T16:32:53.999Z</time></trkpt><trkpt lat="45.20556243785149" lon="14.783294452590383"><ele>848.0000000000001</ele><time>2026-05-01T16:32:54.999Z</time></trkpt><trkpt lat="45.205647016563034" lon="14.783358219076884"><ele>848.0</ele><time>2026-05-01T16:32:55.999Z</time></trkpt><trkpt lat="45.205715769188124" lon="14.78343689272979"><ele>848.0</ele><time>2026-05-01T16:32:56.999Z</time></trkpt><trkpt lat="45.20575156935619" lon="14.783535454350412"><ele>848.0</ele><time>2026-05-01T16:32:57.999Z</time></trkpt><trkpt lat="45.205767060531386" lon="14.783646976265858"><ele>848.0000000000001</ele><time>2026-05-01T16:32:58.999Z</time></trkpt><trkpt lat="45.20574712063927" lon="14.78376752518795"><ele>848.0</ele><time>2026-05-01T16:32:59.999Z</time></trkpt><trkpt lat="45.205711273120315" lon="14.783908378103138"><ele>847.5</ele><time>2026-05-01T16:33:00.999Z</time></trkpt><trkpt lat="45.20568315341064" lon="14.784060277875312"><ele>847.0</ele><time>2026-05-01T16:33:01.999Z</time></trkpt><trkpt lat="45.20566241209428" lon="14.784222621014365"><ele>846.5</ele><time>2026-05-01T16:33:02.999Z</time></trkpt><trkpt lat="45.20565464453137" lon="14.784397863855386"><ele>846.0</ele><time>2026-05-01T16:33:03.999Z</time></trkpt><trkpt lat="45.20564509939067" lon="14.784560879020866"><ele>846.0</ele><time>2026-05-01T16:33:04.999Z</time></trkpt><trkpt lat="45.205636343703326" lon="14.784714708284435"><ele>846.0</ele><time>2026-05-01T16:33:05.999Z</time></trkpt><trkpt lat="45.205639188254" lon="14.784872948343342"><ele>846.0</ele><time>2026-05-01T16:33:06.999Z</time></trkpt><trkpt lat="45.20566634197964" lon="14.785024084810113"><ele>846.0</ele><time>2026-05-01T16:33:07.999Z</time></trkpt><trkpt lat="45.20572015786637" lon="14.785162882810935"><ele>846.0</ele><time>2026-05-01T16:33:08.999Z</time></trkpt><trkpt lat="45.20580515029566" lon="14.785292187605078"><ele>846.5</ele><time>2026-05-01T16:33:09.999Z</time></trkpt><trkpt lat="45.20590254715437" lon="14.785434944338956"><ele>847.0</ele><time>2026-05-01T16:33:10.999Z</time></trkpt><trkpt lat="45.20599434325711" lon="14.785579468161796"><ele>847.5</ele><time>2026-05-01T16:33:11.999Z</time></trkpt><trkpt lat="45.206067047184284" lon="14.785704187375647"><ele>848.0</ele><time>2026-05-01T16:33:12.999Z</time></trkpt><trkpt lat="45.20614541200847" lon="14.785795427382228"><ele>848.0</ele><time>2026-05-01T16:33:13.999Z</time></trkpt><trkpt lat="45.20622735110763" lon="14.785849543531056"><ele>848.0</ele><time>2026-05-01T16:33:14.999Z</time></trkpt><trkpt lat="45.206316978217586" lon="14.785872975075456"><ele>848.0</ele><time>2026-05-01T16:33:15.999Z</time></trkpt><trkpt lat="45.206426023995874" lon="14.78588519879362"><ele>848.0</ele><time>2026-05-01T16:33:16.999Z</time></trkpt><trkpt lat="45.20654415688299" lon="14.785832554372316"><ele>848.0</ele><time>2026-05-01T16:33:17.999Z</time></trkpt><trkpt lat="45.20665456447285" lon="14.785731875288352"><ele>843.75</ele><time>2026-05-01T16:33:18.999Z</time></trkpt><trkpt lat="45.206755106604476" lon="14.78560400875334"><ele>839.5</ele><time>2026-05-01T16:33:19.999Z</time></trkpt><trkpt lat="45.20684674575811" lon="14.785476425001868"><ele>835.25</ele><time>2026-05-01T16:33:20.999Z</time></trkpt><trkpt lat="45.20694531191445" lon="14.78533963536248"><ele>831.0</ele><time>2026-05-01T16:33:21.999Z</time></trkpt><trkpt lat="45.20704177372462" lon="14.785218271503759"><ele>828.25</ele><time>2026-05-01T16:33:22.999Z</time></trkpt><trkpt lat="45.20714350126898" lon="14.785091321765991"><ele>825.5</ele><time>2026-05-01T16:33:23.999Z</time></trkpt><trkpt lat="45.207231597906016" lon="14.78497503107912"><ele>822.75</ele><time>2026-05-01T16:33:24.999Z</time></trkpt><trkpt lat="45.207319033718576" lon="14.784864638634904"><ele>820.0</ele><time>2026-05-01T16:33:25.999Z</time></trkpt><trkpt lat="45.20740289566766" lon="14.784802004921666"><ele>819.4999999999999</ele><time>2026-05-01T16:33:26.999Z</time></trkpt><trkpt lat="45.2074843317923" lon="14.784795219687497"><ele>819.0</ele><time>2026-05-01T16:33:27.999Z</time></trkpt><trkpt lat="45.207559196620416" lon="14.78481106149874"><ele>818.5</ele><time>2026-05-01T16:33:28.999Z</time></trkpt><trkpt lat="45.207627718917195" lon="14.784843856932833"><ele>818.0</ele><time>2026-05-01T16:33:29.999Z</time></trkpt><trkpt lat="45.207676042272254" lon="14.784943050403946"><ele>817.4999999999999</ele><time>2026-05-01T16:33:30.999Z</time></trkpt><trkpt lat="45.20769038018568" lon="14.785061134696807"><ele>817.0</ele><time>2026-05-01T16:33:31.999Z</time></trkpt><trkpt lat="45.207668044847985" lon="14.785197380411791"><ele>816.25</ele><time>2026-05-01T16:33:32.999Z</time></trkpt><trkpt lat="45.207624979780476" lon="14.785324375288203"><ele>815.5</ele><time>2026-05-01T16:33:33.999Z</time></trkpt><trkpt lat="45.20756369409602" lon="14.785460022506793"><ele>814.75</ele><time>2026-05-01T16:33:34.999Z</time></trkpt><trkpt lat="45.20748793464519" lon="14.785602264782511"><ele>814.0</ele><time>2026-05-01T16:33:35.999Z</time></trkpt><trkpt lat="45.207419693504505" lon="14.785751902802465"><ele>814.0</ele><time>2026-05-01T16:33:36.999Z</time></trkpt><trkpt lat="45.20737256852375" lon="14.78591086929732"><ele>814.0</ele><time>2026-05-01T16:33:37.999Z</time></trkpt><trkpt lat="45.20734477186972" lon="14.786065536339368"><ele>814.0</ele><time>2026-05-01T16:33:38.999Z</time></trkpt><trkpt lat="45.207350407713946" lon="14.78622478401699"><ele>814.0</ele><time>2026-05-01T16:33:39.999Z</time></trkpt><trkpt lat="45.20737811249588" lon="14.786379660980893"><ele>813.75</ele><time>2026-05-01T16:33:40.999Z</time></trkpt><trkpt lat="45.20742283230415" lon="14.78652976030595"><ele>813.5</ele><time>2026-05-01T16:33:41.999Z</time></trkpt><trkpt lat="45.207484423239436" lon="14.786671697264733"><ele>813.25</ele><time>2026-05-01T16:33:42.999Z</time></trkpt><trkpt lat="45.20755166451291" lon="14.786801228146487"><ele>813.0</ele><time>2026-05-01T16:33:43.999Z</time></trkpt><trkpt lat="45.207649036157186" lon="14.786883029310117"><ele>814.25</ele><time>2026-05-01T16:33:44.999Z</time></trkpt><trkpt lat="45.20775916213511" lon="14.786930865980798"><ele>815.5</ele><time>2026-05-01T16:33:45.999Z</time></trkpt><trkpt lat="45.20787275566216" lon="14.786939844827982"><ele>816.75</ele><time>2026-05-01T16:33:46.999Z</time></trkpt><trkpt lat="45.20799852252953" lon="14.786901431163347"><ele>818.0</ele><time>2026-05-01T16:33:47.999Z</time></trkpt><trkpt lat="45.208125618644495" lon="14.786850975261055"><ele>815.25</ele><time>2026-05-01T16:33:48.999Z</time></trkpt><trkpt lat="45.208254595834674" lon="14.786798722891763"><ele>812.5</ele><time>2026-05-01T16:33:49.999Z</time></trkpt><trkpt lat="45.208379939731635" lon="14.786747292853349"><ele>809.75</ele><time>2026-05-01T16:33:50.999Z</time></trkpt><trkpt lat="45.20849560668113" lon="14.786702630785957"><ele>807.0</ele><time>2026-05-01T16:33:51.999Z</time></trkpt><trkpt lat="45.208610329014725" lon="14.786666372029666"><ele>807.0</ele><time>2026-05-01T16:33:52.999Z</time></trkpt><trkpt lat="45.20871480890821" lon="14.786650596603222"><ele>807.0</ele><time>2026-05-01T16:33:53.999Z</time></trkpt><trkpt lat="45.20880516469574" lon="14.786667838991729"><ele>807.0</ele><time>2026-05-01T16:33:54.999Z</time></trkpt><trkpt lat="45.20890024665201" lon="14.786719589281947"><ele>807.0</ele><time>2026-05-01T16:33:55.999Z</time></trkpt><trkpt lat="45.2090049035905" lon="14.786804424706641"><ele>807.0</ele><time>2026-05-01T16:33:56.999Z</time></trkpt><trkpt lat="45.20912115312651" lon="14.786898482200193"><ele>806.0</ele><time>2026-05-01T16:33:57.999Z</time></trkpt><trkpt lat="45.20923426831556" lon="14.786957710912105"><ele>805.0</ele><time>2026-05-01T16:33:58.999Z</time></trkpt><trkpt lat="45.20930174800806" lon="14.787058344085512"><ele>804.0</ele><time>2026-05-01T16:33:59.999Z</time></trkpt><trkpt lat="45.209335273614" lon="14.787138272700227"><ele>803.0</ele><time>2026-05-01T16:34:00.999Z</time></trkpt><trkpt lat="45.209364910768834" lon="14.787232638934167"><ele>802.0</ele><time>2026-05-01T16:34:01.999Z</time></trkpt><trkpt lat="45.20936036699272" lon="14.787360721926284"><ele>801.0</ele><time>2026-05-01T16:34:02.999Z</time></trkpt><trkpt lat="45.20931809147972" lon="14.78750042789558"><ele>801.0</ele><time>2026-05-01T16:34:03.999Z</time></trkpt><trkpt lat="45.20926874580484" lon="14.787638247409879"><ele>801.0</ele><time>2026-05-01T16:34:04.999Z</time></trkpt><trkpt lat="45.20920223177294" lon="14.787773711786523"><ele>801.0</ele><time>2026-05-01T16:34:05.999Z</time></trkpt><trkpt lat="45.20912410027109" lon="14.787911627536042"><ele>801.0</ele><time>2026-05-01T16:34:06.999Z</time></trkpt><trkpt lat="45.20903001293009" lon="14.788050198945605"><ele>801.25</ele><time>2026-05-01T16:34:07.999Z</time></trkpt><trkpt lat="45.20893365712694" lon="14.788191309058016"><ele>801.5</ele><time>2026-05-01T16:34:08.999Z</time></trkpt><trkpt lat="45.20883188562793" lon="14.788331153608864"><ele>801.75</ele><time>2026-05-01T16:34:09.999Z</time></trkpt><trkpt lat="45.20872716603523" lon="14.788469043500896"><ele>802.0</ele><time>2026-05-01T16:34:10.999Z</time></trkpt><trkpt lat="45.20862418502349" lon="14.788589645296126"><ele>795.75</ele><time>2026-05-01T16:34:11.999Z</time></trkpt><trkpt lat="45.20854215179333" lon="14.78872416195426"><ele>789.5</ele><time>2026-05-01T16:34:12.999Z</time></trkpt><trkpt lat="45.20844400047176" lon="14.78883487970672"><ele>783.25</ele><time>2026-05-01T16:34:13.999Z</time></trkpt><trkpt lat="45.208319023201575" lon="14.788925934531214"><ele>777.0</ele><time>2026-05-01T16:34:14.999Z</time></trkpt><trkpt lat="45.20817435106937" lon="14.78896172325164"><ele>778.0</ele><time>2026-05-01T16:34:15.999Z</time></trkpt><trkpt lat="45.20805939008931" lon="14.78898552018479"><ele>779.0</ele><time>2026-05-01T16:34:16.999Z</time></trkpt><trkpt lat="45.20796714868915" lon="14.789092929928774"><ele>780.0</ele><time>2026-05-01T16:34:19.999Z</time></trkpt><trkpt lat="45.207979371375714" lon="14.789196523718681"><ele>781.0</ele><time>2026-05-01T16:34:20.999Z</time></trkpt><trkpt lat="45.20802394107875" lon="14.789271487941146"><ele>782.0</ele><time>2026-05-01T16:34:21.999Z</time></trkpt><trkpt lat="45.20810939608156" lon="14.789276457621092"><ele>780.75</ele><time>2026-05-01T16:34:22.999Z</time></trkpt><trkpt lat="45.208209903823274" lon="14.789242891814029"><ele>779.5</ele><time>2026-05-01T16:34:23.999Z</time></trkpt><trkpt lat="45.20831407469182" lon="14.789183537255882"><ele>778.25</ele><time>2026-05-01T16:34:24.999Z</time></trkpt><trkpt lat="45.2084212953837" lon="14.78911258022991"><ele>777.0</ele><time>2026-05-01T16:34:25.999Z</time></trkpt><trkpt lat="45.20852794268624" lon="14.789045479038421"><ele>777.0</ele><time>2026-05-01T16:34:26.999Z</time></trkpt><trkpt lat="45.20863985599983" lon="14.788958763282555"><ele>777.0</ele><time>2026-05-01T16:34:27.999Z</time></trkpt><trkpt lat="45.20875517329048" lon="14.788872238289517"><ele>777.0</ele><time>2026-05-01T16:34:28.999Z</time></trkpt><trkpt lat="45.208875231080555" lon="14.788784208583406"><ele>777.0</ele><time>2026-05-01T16:34:29.999Z</time></trkpt><trkpt lat="45.20899266959032" lon="14.788695905414103"><ele>775.0</ele><time>2026-05-01T16:34:30.999Z</time></trkpt><trkpt lat="45.20911286725548" lon="14.7886089772788"><ele>773.0</ele><time>2026-05-01T16:34:31.999Z</time></trkpt><trkpt lat="45.20921735282661" lon="14.788531058415847"><ele>771.0</ele><time>2026-05-01T16:34:32.999Z</time></trkpt><trkpt lat="45.20932678467419" lon="14.78850413001995"><ele>769.0</ele><time>2026-05-01T16:34:33.999Z</time></trkpt><trkpt lat="45.20942878154673" lon="14.788522541138157"><ele>769.0</ele><time>2026-05-01T16:34:34.999Z</time></trkpt><trkpt lat="45.20952746269666" lon="14.788571525421663"><ele>769.0</ele><time>2026-05-01T16:34:35.999Z</time></trkpt><trkpt lat="45.20961081591156" lon="14.788654036870634"><ele>769.0</ele><time>2026-05-01T16:34:36.999Z</time></trkpt><trkpt lat="45.20968207485943" lon="14.788761026994962"><ele>769.0</ele><time>2026-05-01T16:34:37.999Z</time></trkpt><trkpt lat="45.20974129139513" lon="14.788889745669577"><ele>769.0</ele><time>2026-05-01T16:34:38.999Z</time></trkpt><trkpt lat="45.209811245102685" lon="14.789049235774925"><ele>770.3333333333333</ele><time>2026-05-01T16:34:39.999Z</time></trkpt><trkpt lat="45.209890583774026" lon="14.78925073001844"><ele>771.6666666666667</ele><time>2026-05-01T16:34:40.999Z</time></trkpt><trkpt lat="45.209945568313856" lon="14.789444122659978"><ele>773.0</ele><time>2026-05-01T16:34:41.999Z</time></trkpt><trkpt lat="45.21000333941255" lon="14.789653111943005"><ele>771.25</ele><time>2026-05-01T16:34:42.999Z</time></trkpt><trkpt lat="45.21007325044814" lon="14.789834200964547"><ele>769.5</ele><time>2026-05-01T16:34:43.999Z</time></trkpt><trkpt lat="45.21011993447609" lon="14.790007291227822"><ele>767.75</ele><time>2026-05-01T16:34:44.999Z</time></trkpt><trkpt lat="45.210159406129435" lon="14.790159873747712"><ele>766.0</ele><time>2026-05-01T16:34:45.999Z</time></trkpt><trkpt lat="45.210180688671215" lon="14.79030729064058"><ele>766.0</ele><time>2026-05-01T16:34:46.999Z</time></trkpt><trkpt lat="45.210163656641726" lon="14.790453658711492"><ele>766.0</ele><time>2026-05-01T16:34:47.999Z</time></trkpt><trkpt lat="45.21012091458744" lon="14.790567080714794"><ele>766.0</ele><time>2026-05-01T16:34:48.999Z</time></trkpt><trkpt lat="45.21004993638688" lon="14.790673595525"><ele>766.0</ele><time>2026-05-01T16:34:49.999Z</time></trkpt><trkpt lat="45.20997859392958" lon="14.790826086289607"><ele>766.0</ele><time>2026-05-01T16:34:50.999Z</time></trkpt><trkpt lat="45.209883901924385" lon="14.790969471911062"><ele>763.0</ele><time>2026-05-01T16:34:51.999Z</time></trkpt><trkpt lat="45.20979023433119" lon="14.791127508594204"><ele>760.0</ele><time>2026-05-01T16:34:52.999Z</time></trkpt><trkpt lat="45.20970231555612" lon="14.791299686687031"><ele>757.0</ele><time>2026-05-01T16:34:53.999Z</time></trkpt><trkpt lat="45.209611094610224" lon="14.791452232636946"><ele>754.0</ele><time>2026-05-01T16:34:54.999Z</time></trkpt><trkpt lat="45.20953458477791" lon="14.791616999008525"><ele>754.0</ele><time>2026-05-01T16:34:55.999Z</time></trkpt><trkpt lat="45.2094616441223" lon="14.791764292552063"><ele>754.0</ele><time>2026-05-01T16:34:56.999Z</time></trkpt><trkpt lat="45.20939611596807" lon="14.791895063594296"><ele>754.0</ele><time>2026-05-01T16:34:57.999Z</time></trkpt><trkpt lat="45.20934451915372" lon="14.792032682977297"><ele>754.0</ele><time>2026-05-01T16:34:58.999Z</time></trkpt><trkpt lat="45.209324035369335" lon="14.792184518976352"><ele>755.0</ele><time>2026-05-01T16:34:59.999Z</time></trkpt><trkpt lat="45.209320731259396" lon="14.792325219324713"><ele>756.0</ele><time>2026-05-01T16:35:00.999Z</time></trkpt><trkpt lat="45.20933700838015" lon="14.792458981401149"><ele>757.0</ele><time>2026-05-01T16:35:01.999Z</time></trkpt><trkpt lat="45.20936211276687" lon="14.792603132481949"><ele>758.0</ele><time>2026-05-01T16:35:02.999Z</time></trkpt><trkpt lat="45.2094128737538" lon="14.792741551005893"><ele>759.0</ele><time>2026-05-01T16:35:03.999Z</time></trkpt><trkpt lat="45.209454517697345" lon="14.792887732512586"><ele>759.2</ele><time>2026-05-01T16:35:04.999Z</time></trkpt><trkpt lat="45.209489282523165" lon="14.793013278235337"><ele>759.4000000000001</ele><time>2026-05-01T16:35:05.999Z</time></trkpt><trkpt lat="45.20952707591455" lon="14.793138808535776"><ele>759.6</ele><time>2026-05-01T16:35:06.999Z</time></trkpt><trkpt lat="45.20956151935374" lon="14.793257509416886"><ele>759.8</ele><time>2026-05-01T16:35:07.999Z</time></trkpt><trkpt lat="45.20959769236207" lon="14.793372432744542"><ele>760.0</ele><time>2026-05-01T16:35:08.999Z</time></trkpt><trkpt lat="45.2096436736149" lon="14.793480671584334"><ele>759.8</ele><time>2026-05-01T16:35:09.999Z</time></trkpt><trkpt lat="45.20968392326732" lon="14.793593590802098"><ele>759.6</ele><time>2026-05-01T16:35:10.999Z</time></trkpt><trkpt lat="45.209734528486344" lon="14.793721476896723"><ele>759.4000000000001</ele><time>2026-05-01T16:35:11.999Z</time></trkpt><trkpt lat="45.2097880510944" lon="14.793858060228233"><ele>759.2</ele><time>2026-05-01T16:35:12.999Z</time></trkpt><trkpt lat="45.20984235567759" lon="14.793990553667113"><ele>759.0</ele><time>2026-05-01T16:35:13.999Z</time></trkpt><trkpt lat="45.20988967382815" lon="14.794131676670268"><ele>758.8000000000001</ele><time>2026-05-01T16:35:14.999Z</time></trkpt><trkpt lat="45.20994176211983" lon="14.794271523270458"><ele>758.6</ele><time>2026-05-01T16:35:15.999Z</time></trkpt><trkpt lat="45.20999315205449" lon="14.794411245319129"><ele>758.4</ele><time>2026-05-01T16:35:16.999Z</time></trkpt><trkpt lat="45.21004337357359" lon="14.794541198835928"><ele>758.2</ele><time>2026-05-01T16:35:17.999Z</time></trkpt><trkpt lat="45.210088371459776" lon="14.794657606301405"><ele>758.0</ele><time>2026-05-01T16:35:18.999Z</time></trkpt><trkpt lat="45.21012075142056" lon="14.794750492185312"><ele>758.0</ele><time>2026-05-01T16:35:19.999Z</time></trkpt><trkpt lat="45.21018009775651" lon="14.794903241068587"><ele>758.0</ele><time>2026-05-01T16:35:21.999Z</time></trkpt><trkpt lat="45.21021374441676" lon="14.794993606855783"><ele>758.0</ele><time>2026-05-01T16:35:22.999Z</time></trkpt><trkpt lat="45.21025329326163" lon="14.79508968165419"><ele>758.0</ele><time>2026-05-01T16:35:23.999Z</time></trkpt><trkpt lat="45.21028674488192" lon="14.795176665922137"><ele>758.0</ele><time>2026-05-01T16:35:24.999Z</time></trkpt><trkpt lat="45.21032327342051" lon="14.795256316499184"><ele>758.0</ele><time>2026-05-01T16:35:25.999Z</time></trkpt><trkpt lat="45.210344098678995" lon="14.795369403334107"><ele>758.5</ele><time>2026-05-01T16:35:26.999Z</time></trkpt><trkpt lat="45.21038251394064" lon="14.795504773686297"><ele>759.0</ele><time>2026-05-01T16:35:28Z</time></trkpt><trkpt lat="45.21042575872438" lon="14.795654262407382"><ele>759.5</ele><time>2026-05-01T16:35:29Z</time></trkpt><trkpt lat="45.21045707799009" lon="14.795819950215481"><ele>760.0</ele><time>2026-05-01T16:35:30Z</time></trkpt><trkpt lat="45.21049049821758" lon="14.79598359003327"><ele>760.75</ele><time>2026-05-01T16:35:31Z</time></trkpt><trkpt lat="45.21052905182545" lon="14.796149345417682"><ele>761.5</ele><time>2026-05-01T16:35:32Z</time></trkpt><trkpt lat="45.21056789598954" lon="14.796327700683118"><ele>762.25</ele><time>2026-05-01T16:35:33Z</time></trkpt><trkpt lat="45.21061213340834" lon="14.796511338126253"><ele>763.0</ele><time>2026-05-01T16:35:34Z</time></trkpt><trkpt lat="45.210662066587" lon="14.796686949014095"><ele>764.25</ele><time>2026-05-01T16:35:35Z</time></trkpt><trkpt lat="45.2107179881672" lon="14.796862951517147"><ele>765.5</ele><time>2026-05-01T16:35:36Z</time></trkpt><trkpt lat="45.210766477796575" lon="14.797009873166914"><ele>766.75</ele><time>2026-05-01T16:35:37Z</time></trkpt><trkpt lat="45.21081611572408" lon="14.797143270959642"><ele>768.0</ele><time>2026-05-01T16:35:38Z</time></trkpt><trkpt lat="45.21086048445479" lon="14.797273575791536"><ele>768.0</ele><time>2026-05-01T16:35:39Z</time></trkpt><trkpt lat="45.210894912145385" lon="14.79738648730621"><ele>768.0</ele><time>2026-05-01T16:35:40Z</time></trkpt><trkpt lat="45.21094154115867" lon="14.797518035486721"><ele>768.0</ele><time>2026-05-01T16:35:42Z</time></trkpt><trkpt lat="45.21086380083323" lon="14.797526393098078"><ele>768.0</ele><time>2026-05-01T16:35:47Z</time></trkpt><trkpt lat="45.210792039170954" lon="14.797423576017337"><ele>768.0</ele><time>2026-05-01T16:35:49Z</time></trkpt><trkpt lat="45.21071314667588" lon="14.797311204122195"><ele>767.4</ele><time>2026-05-01T16:35:51Z</time></trkpt><trkpt lat="45.21061321535351" lon="14.797228997949288"><ele>766.8</ele><time>2026-05-01T16:35:53Z</time></trkpt><trkpt lat="45.21052607571681" lon="14.797145188073689"><ele>766.2</ele><time>2026-05-01T16:35:55Z</time></trkpt><trkpt lat="45.210431192033376" lon="14.79707411476052"><ele>765.6</ele><time>2026-05-01T16:35:57Z</time></trkpt><trkpt lat="45.21033106051525" lon="14.79699679192701"><ele>765.0</ele><time>2026-05-01T16:35:59Z</time></trkpt><trkpt lat="45.21023609329027" lon="14.796886479001198"><ele>764.8</ele><time>2026-05-01T16:36:01Z</time></trkpt><trkpt lat="45.210153656619454" lon="14.796788188757318"><ele>764.6</ele><time>2026-05-01T16:36:03Z</time></trkpt><trkpt lat="45.21010235952228" lon="14.79666859844709"><ele>764.4000000000001</ele><time>2026-05-01T16:36:05Z</time></trkpt><trkpt lat="45.21003919073358" lon="14.79656496792802"><ele>764.2</ele><time>2026-05-01T16:36:07Z</time></trkpt><trkpt lat="45.20996215726314" lon="14.796468575569541"><ele>764.0</ele><time>2026-05-01T16:36:09Z</time></trkpt><trkpt lat="45.209877932851704" lon="14.79635679722077"><ele>763.8333333333333</ele><time>2026-05-01T16:36:11Z</time></trkpt><trkpt lat="45.209783906331616" lon="14.796232880422487"><ele>763.6666666666666</ele><time>2026-05-01T16:36:13Z</time></trkpt><trkpt lat="45.20973357278175" lon="14.796165432768454"><ele>763.5</ele><time>2026-05-01T16:36:14Z</time></trkpt><trkpt lat="45.209692390264834" lon="14.796071836813969"><ele>763.3333333333334</ele><time>2026-05-01T16:36:15Z</time></trkpt><trkpt lat="45.20963600129562" lon="14.795989627152524"><ele>763.1666666666667</ele><time>2026-05-01T16:36:16Z</time></trkpt><trkpt lat="45.20957667979357" lon="14.795901503890708"><ele>763.0</ele><time>2026-05-01T16:36:17Z</time></trkpt><trkpt lat="45.20951185790419" lon="14.795807748454727"><ele>763.0</ele><time>2026-05-01T16:36:18Z</time></trkpt><trkpt lat="45.20943323837723" lon="14.795722121117933"><ele>763.0</ele><time>2026-05-01T16:36:19Z</time></trkpt><trkpt lat="45.20936387223973" lon="14.795619187026052"><ele>763.0</ele><time>2026-05-01T16:36:20Z</time></trkpt><trkpt lat="45.20929601764622" lon="14.795526318643132"><ele>763.0</ele><time>2026-05-01T16:36:21Z</time></trkpt><trkpt lat="45.20922545302459" lon="14.795440373732792"><ele>763.0</ele><time>2026-05-01T16:36:22Z</time></trkpt><trkpt lat="45.20915106606216" lon="14.795360610523689"><ele>763.0</ele><time>2026-05-01T16:36:23Z</time></trkpt><trkpt lat="45.209075978691295" lon="14.795288834221013"><ele>763.0</ele><time>2026-05-01T16:36:24Z</time></trkpt><trkpt lat="45.208993831049256" lon="14.795231379823262"><ele>763.0</ele><time>2026-05-01T16:36:25Z</time></trkpt><trkpt lat="45.20891374592017" lon="14.79518053634468"><ele>763.0</ele><time>2026-05-01T16:36:26Z</time></trkpt><trkpt lat="45.20884925684092" lon="14.795110040384614"><ele>763.0</ele><time>2026-05-01T16:36:27Z</time></trkpt><trkpt lat="45.208780013858046" lon="14.795061931444183"><ele>763.0</ele><time>2026-05-01T16:36:28Z</time></trkpt><trkpt lat="45.20870547442661" lon="14.795034768815922"><ele>762.1666666666667</ele><time>2026-05-01T16:36:29Z</time></trkpt><trkpt lat="45.20864269562268" lon="14.79497118483523"><ele>761.3333333333334</ele><time>2026-05-01T16:36:30Z</time></trkpt><trkpt lat="45.20857642252753" lon="14.794950410752122"><ele>760.5</ele><time>2026-05-01T16:36:31Z</time></trkpt><trkpt lat="45.20851642012574" lon="14.794904941198107"><ele>759.6666666666666</ele><time>2026-05-01T16:36:32Z</time></trkpt><trkpt lat="45.20845609050133" lon="14.794869477361274"><ele>758.8333333333333</ele><time>2026-05-01T16:36:33Z</time></trkpt><trkpt lat="45.20834271996697" lon="14.794807112847208"><ele>758.0</ele><time>2026-05-01T16:36:35Z</time></trkpt><trkpt lat="45.20823748449735" lon="14.79474375865777"><ele>759.3333333333333</ele><time>2026-05-01T16:36:37Z</time></trkpt><trkpt lat="45.20812960680635" lon="14.79468203731566"><ele>760.6666666666666</ele><time>2026-05-01T16:36:39Z</time></trkpt><trkpt lat="45.20806758297592" lon="14.79465983379772"><ele>762.0</ele><time>2026-05-01T16:36:40Z</time></trkpt><trkpt lat="45.20800527364326" lon="14.794640174702991"><ele>763.3333333333334</ele><time>2026-05-01T16:36:41Z</time></trkpt><trkpt lat="45.207933413070805" lon="14.794619375099204"><ele>764.6666666666667</ele><time>2026-05-01T16:36:42Z</time></trkpt><trkpt lat="45.20785278446393" lon="14.794617669810979"><ele>766.0</ele><time>2026-05-01T16:36:43Z</time></trkpt><trkpt lat="45.20777834329226" lon="14.79457203159278"><ele>766.0</ele><time>2026-05-01T16:36:44Z</time></trkpt><trkpt lat="45.207694602852854" lon="14.794561705061392"><ele>766.0</ele><time>2026-05-01T16:36:45Z</time></trkpt><trkpt lat="45.20761181989723" lon="14.794526997386289"><ele>766.0</ele><time>2026-05-01T16:36:46Z</time></trkpt><trkpt lat="45.207535439903495" lon="14.794468473965084"><ele>766.0</ele><time>2026-05-01T16:36:47Z</time></trkpt><trkpt lat="45.207459785633645" lon="14.794431163721415"><ele>766.0</ele><time>2026-05-01T16:36:48Z</time></trkpt><trkpt lat="45.20738881564012" lon="14.794396006978548"><ele>766.0</ele><time>2026-05-01T16:36:49Z</time></trkpt><trkpt lat="45.207316700956916" lon="14.794364289004394"><ele>764.8571428571429</ele><time>2026-05-01T16:36:50Z</time></trkpt><trkpt lat="45.20724857721895" lon="14.79433551787803"><ele>763.7142857142857</ele><time>2026-05-01T16:36:51Z</time></trkpt><trkpt lat="45.20718367412372" lon="14.794309210490376"><ele>762.5714285714287</ele><time>2026-05-01T16:36:52Z</time></trkpt><trkpt lat="45.20711625627395" lon="14.794305471686874"><ele>761.4285714285714</ele><time>2026-05-01T16:36:53Z</time></trkpt><trkpt lat="45.20705287974529" lon="14.794272948376662"><ele>760.2857142857143</ele><time>2026-05-01T16:36:54Z</time></trkpt><trkpt lat="45.20698246091453" lon="14.794245586048227"><ele>759.1428571428572</ele><time>2026-05-01T16:36:55Z</time></trkpt><trkpt lat="45.20690175259313" lon="14.794233414386179"><ele>758.0</ele><time>2026-05-01T16:36:56Z</time></trkpt><trkpt lat="45.206818327975206" lon="14.794224837387011"><ele>758.0</ele><time>2026-05-01T16:36:57Z</time></trkpt><trkpt lat="45.20673450974308" lon="14.794222915647987"><ele>758.0</ele><time>2026-05-01T16:36:58Z</time></trkpt><trkpt lat="45.20665146333383" lon="14.794225869294346"><ele>758.0</ele><time>2026-05-01T16:36:59Z</time></trkpt><trkpt lat="45.20656370306787" lon="14.794229672895957"><ele>758.0</ele><time>2026-05-01T16:37:00Z</time></trkpt><trkpt lat="45.20647923937082" lon="14.794218568028745"><ele>758.0</ele><time>2026-05-01T16:37:01Z</time></trkpt><trkpt lat="45.206393024147935" lon="14.79423967149084"><ele>758.0</ele><time>2026-05-01T16:37:02Z</time></trkpt><trkpt lat="45.20631037010456" lon="14.794240322908282"><ele>756.8333333333333</ele><time>2026-05-01T16:37:03Z</time></trkpt><trkpt lat="45.206224830976815" lon="14.794218066281806"><ele>755.6666666666666</ele><time>2026-05-01T16:37:04Z</time></trkpt><trkpt lat="45.206140206984806" lon="14.794215143172533"><ele>754.5</ele><time>2026-05-01T16:37:05Z</time></trkpt><trkpt lat="45.206056923266004" lon="14.794235450604125"><ele>753.3333333333334</ele><time>2026-05-01T16:37:06Z</time></trkpt><trkpt lat="45.20597521853333" lon="14.794222238570885"><ele>752.1666666666667</ele><time>2026-05-01T16:37:07Z</time></trkpt><trkpt lat="45.20589707671082" lon="14.794222696765203"><ele>751.0</ele><time>2026-05-01T16:37:08Z</time></trkpt><trkpt lat="45.20582041316692" lon="14.794218562630059"><ele>751.0</ele><time>2026-05-01T16:37:09Z</time></trkpt><trkpt lat="45.20574781123963" lon="14.794217641873635"><ele>751.0</ele><time>2026-05-01T16:37:10Z</time></trkpt><trkpt lat="45.2056782142081" lon="14.794190219070133"><ele>751.0</ele><time>2026-05-01T16:37:11Z</time></trkpt><trkpt lat="45.20560732217799" lon="14.794199954983782"><ele>751.0</ele><time>2026-05-01T16:37:12Z</time></trkpt><trkpt lat="45.20553048669325" lon="14.794186333278635"><ele>751.0</ele><time>2026-05-01T16:37:13Z</time></trkpt><trkpt lat="45.20545114911821" lon="14.794187481844471"><ele>751.0</ele><time>2026-05-01T16:37:14Z</time></trkpt><trkpt lat="45.205368920807295" lon="14.794192040366404"><ele>750.8333333333334</ele><time>2026-05-01T16:37:15Z</time></trkpt><trkpt lat="45.2052858397426" lon="14.794203591305575"><ele>750.6666666666667</ele><time>2026-05-01T16:37:16Z</time></trkpt><trkpt lat="45.20520256253372" lon="14.794218562654912"><ele>750.5</ele><time>2026-05-01T16:37:17Z</time></trkpt><trkpt lat="45.205124147163055" lon="14.794245667849523"><ele>750.3333333333334</ele><time>2026-05-01T16:37:18Z</time></trkpt><trkpt lat="45.20503999748248" lon="14.794274458944562"><ele>750.1666666666666</ele><time>2026-05-01T16:37:19Z</time></trkpt><trkpt lat="45.20495401463682" lon="14.794295470778936"><ele>750.0</ele><time>2026-05-01T16:37:20Z</time></trkpt><trkpt lat="45.204868925308766" lon="14.794324888308036"><ele>750.6666666666666</ele><time>2026-05-01T16:37:21Z</time></trkpt><trkpt lat="45.20478826467792" lon="14.794351232764084"><ele>751.3333333333334</ele><time>2026-05-01T16:37:22Z</time></trkpt><trkpt lat="45.2047017744892" lon="14.794372823608539"><ele>752.0</ele><time>2026-05-01T16:37:23Z</time></trkpt><trkpt lat="45.204627734826424" lon="14.794402091353579"><ele>752.6666666666667</ele><time>2026-05-01T16:37:24Z</time></trkpt><trkpt lat="45.204554503610055" lon="14.794424872110996"><ele>753.3333333333334</ele><time>2026-05-01T16:37:25Z</time></trkpt><trkpt lat="45.20448373433147" lon="14.794442687872836"><ele>754.0</ele><time>2026-05-01T16:37:26Z</time></trkpt><trkpt lat="45.20441455994078" lon="14.794457221491742"><ele>753.9999999999999</ele><time>2026-05-01T16:37:27Z</time></trkpt><trkpt lat="45.20435445169664" lon="14.794492858539858"><ele>754.0</ele><time>2026-05-01T16:37:28Z</time></trkpt><trkpt lat="45.204276570567224" lon="14.794506816729784"><ele>754.0</ele><time>2026-05-01T16:37:29Z</time></trkpt><trkpt lat="45.20419615498223" lon="14.794503401790537"><ele>754.0</ele><time>2026-05-01T16:37:30Z</time></trkpt><trkpt lat="45.2041267332041" lon="14.794521151330065"><ele>754.0</ele><time>2026-05-01T16:37:31Z</time></trkpt><trkpt lat="45.204056219812365" lon="14.794535844608635"><ele>753.9999999999999</ele><time>2026-05-01T16:37:32Z</time></trkpt><trkpt lat="45.20397674820066" lon="14.79455706988975"><ele>754.0</ele><time>2026-05-01T16:37:33Z</time></trkpt><trkpt lat="45.20389506277443" lon="14.794577504399978"><ele>753.8000000000001</ele><time>2026-05-01T16:37:34.001Z</time></trkpt><trkpt lat="45.203791539891974" lon="14.794574507803386"><ele>753.6</ele><time>2026-05-01T16:37:35.001Z</time></trkpt><trkpt lat="45.20368832476521" lon="14.794593550162535"><ele>753.4</ele><time>2026-05-01T16:37:36.001Z</time></trkpt><trkpt lat="45.203583242789506" lon="14.79463661581747"><ele>753.2</ele><time>2026-05-01T16:37:37.001Z</time></trkpt><trkpt lat="45.20348236568496" lon="14.794651885311307"><ele>753.0</ele><time>2026-05-01T16:37:38.001Z</time></trkpt><trkpt lat="45.20338288146619" lon="14.79467122715385"><ele>753.0</ele><time>2026-05-01T16:37:39.001Z</time></trkpt><trkpt lat="45.203271746575666" lon="14.794669635460174"><ele>753.0</ele><time>2026-05-01T16:37:40.001Z</time></trkpt><trkpt lat="45.20317890176019" lon="14.79468617894651"><ele>753.0</ele><time>2026-05-01T16:37:41.001Z</time></trkpt><trkpt lat="45.2030887715499" lon="14.794701368025487"><ele>753.0</ele><time>2026-05-01T16:37:42.001Z</time></trkpt><trkpt lat="45.20300087482616" lon="14.794714045996866"><ele>753.0</ele><time>2026-05-01T16:37:43.001Z</time></trkpt><trkpt lat="45.20292660667577" lon="14.794715202857292"><ele>752.3333333333334</ele><time>2026-05-01T16:37:44.001Z</time></trkpt><trkpt lat="45.20283696319556" lon="14.79470314796616"><ele>751.6666666666666</ele><time>2026-05-01T16:37:45.001Z</time></trkpt><trkpt lat="45.20275027395978" lon="14.794671759618668"><ele>751.0</ele><time>2026-05-01T16:37:46.001Z</time></trkpt><trkpt lat="45.20267161061162" lon="14.794658438196754"><ele>750.3333333333333</ele><time>2026-05-01T16:37:47.001Z</time></trkpt><trkpt lat="45.20259222742907" lon="14.794677291710235"><ele>749.6666666666666</ele><time>2026-05-01T16:37:48.001Z</time></trkpt><trkpt lat="45.20251671942376" lon="14.794676882241092"><ele>749.0</ele><time>2026-05-01T16:37:49.001Z</time></trkpt><trkpt lat="45.20243982056185" lon="14.794668419963541"><ele>749.0</ele><time>2026-05-01T16:37:50.001Z</time></trkpt><trkpt lat="45.20237053914709" lon="14.79472461141839"><ele>749.0</ele><time>2026-05-01T16:37:51.001Z</time></trkpt><trkpt lat="45.20229828376598" lon="14.794761484180656"><ele>749.0</ele><time>2026-05-01T16:37:52.001Z</time></trkpt><trkpt lat="45.20224203054821" lon="14.794843205659161"><ele>749.0</ele><time>2026-05-01T16:37:53.001Z</time></trkpt><trkpt lat="45.2021853037018" lon="14.79492295290758"><ele>749.0</ele><time>2026-05-01T16:37:54.001Z</time></trkpt><trkpt lat="45.20212356860194" lon="14.795014169596687"><ele>749.0</ele><time>2026-05-01T16:37:55.001Z</time></trkpt><trkpt lat="45.20206644235172" lon="14.795102599169034"><ele>749.1666666666666</ele><time>2026-05-01T16:37:56.001Z</time></trkpt><trkpt lat="45.202010215130294" lon="14.79519175994707"><ele>749.3333333333333</ele><time>2026-05-01T16:37:57.001Z</time></trkpt><trkpt lat="45.201968417265974" lon="14.795259172792155"><ele>749.5</ele><time>2026-05-01T16:37:58Z</time></trkpt><trkpt lat="45.20192000332203" lon="14.795338555656683"><ele>749.6666666666666</ele><time>2026-05-01T16:37:59Z</time></trkpt><trkpt lat="45.20187592447968" lon="14.795410966868145"><ele>749.8333333333334</ele><time>2026-05-01T16:38:00Z</time></trkpt><trkpt lat="45.20181312912204" lon="14.795514241409448"><ele>750.0</ele><time>2026-05-01T16:38:01Z</time></trkpt><trkpt lat="45.20173805353203" lon="14.79563765159214"><ele>750.0</ele><time>2026-05-01T16:38:02Z</time></trkpt><trkpt lat="45.20167249168562" lon="14.795741767561436"><ele>750.0</ele><time>2026-05-01T16:38:03Z</time></trkpt><trkpt lat="45.201625459211066" lon="14.795815474060374"><ele>750.0</ele><time>2026-05-01T16:38:04Z</time></trkpt><trkpt lat="45.201566943837626" lon="14.79590443558112"><ele>750.0</ele><time>2026-05-01T16:38:05Z</time></trkpt><trkpt lat="45.20151302476327" lon="14.79601259344831"><ele>750.0</ele><time>2026-05-01T16:38:06Z</time></trkpt><trkpt lat="45.201442007418954" lon="14.79610490983465"><ele>750.0</ele><time>2026-05-01T16:38:07Z</time></trkpt><trkpt lat="45.2013730601717" lon="14.796209573722551"><ele>749.6</ele><time>2026-05-01T16:38:08Z</time></trkpt><trkpt lat="45.20130333100839" lon="14.796310086487523"><ele>749.2</ele><time>2026-05-01T16:38:09Z</time></trkpt><trkpt lat="45.20124289370127" lon="14.796391152485418"><ele>748.8</ele><time>2026-05-01T16:38:10Z</time></trkpt><trkpt lat="45.20117341033248" lon="14.796489883633559"><ele>748.4</ele><time>2026-05-01T16:38:11Z</time></trkpt><trkpt lat="45.20111021450127" lon="14.79658719674068"><ele>748.0</ele><time>2026-05-01T16:38:12Z</time></trkpt><trkpt lat="45.20104265679453" lon="14.796686403282628"><ele>748.0</ele><time>2026-05-01T16:38:13Z</time></trkpt><trkpt lat="45.200974068429794" lon="14.79678466305392"><ele>748.0</ele><time>2026-05-01T16:38:14Z</time></trkpt><trkpt lat="45.20091671190722" lon="14.79687648298615"><ele>748.0</ele><time>2026-05-01T16:38:15Z</time></trkpt><trkpt lat="45.20086174725254" lon="14.79698690287835"><ele>748.0</ele><time>2026-05-01T16:38:16Z</time></trkpt><trkpt lat="45.200807144028666" lon="14.79707763569019"><ele>748.0</ele><time>2026-05-01T16:38:17Z</time></trkpt><trkpt lat="45.20075791257215" lon="14.797189445123268"><ele>748.0</ele><time>2026-05-01T16:38:18Z</time></trkpt><trkpt lat="45.20070388370939" lon="14.79725720105854"><ele>748.0</ele><time>2026-05-01T16:38:19Z</time></trkpt><trkpt lat="45.200662249880445" lon="14.797345139152473"><ele>748.0</ele><time>2026-05-01T16:38:20Z</time></trkpt><trkpt lat="45.20061055676593" lon="14.797463528462265"><ele>748.0</ele><time>2026-05-01T16:38:21Z</time></trkpt><trkpt lat="45.200567351217806" lon="14.79757533959925"><ele>748.0</ele><time>2026-05-01T16:38:22Z</time></trkpt><trkpt lat="45.20053269479641" lon="14.797690320998383"><ele>748.0</ele><time>2026-05-01T16:38:23Z</time></trkpt><trkpt lat="45.200508794852276" lon="14.797795414962508"><ele>746.8</ele><time>2026-05-01T16:38:24Z</time></trkpt><trkpt lat="45.2004854035473" lon="14.797951610798895"><ele>745.5999999999999</ele><time>2026-05-01T16:38:26Z</time></trkpt><trkpt lat="45.20048513390409" lon="14.798128233391369"><ele>744.4000000000001</ele><time>2026-05-01T16:38:28Z</time></trkpt><trkpt lat="45.20049432225947" lon="14.798219195177639"><ele>743.2</ele><time>2026-05-01T16:38:29Z</time></trkpt><trkpt lat="45.200513252052886" lon="14.798340877965668"><ele>742.0</ele><time>2026-05-01T16:38:30Z</time></trkpt><trkpt lat="45.20053822201435" lon="14.79846330036065"><ele>741.1428571428571</ele><time>2026-05-01T16:38:31Z</time></trkpt><trkpt lat="45.20056011410972" lon="14.798561439505166"><ele>740.2857142857142</ele><time>2026-05-01T16:38:32Z</time></trkpt><trkpt lat="45.20057887057897" lon="14.798650353343627"><ele>739.4285714285714</ele><time>2026-05-01T16:38:33Z</time></trkpt><trkpt lat="45.20059697177157" lon="14.798736853976848"><ele>738.5714285714286</ele><time>2026-05-01T16:38:34Z</time></trkpt><trkpt lat="45.20061323107455" lon="14.798854788558291"><ele>737.7142857142857</ele><time>2026-05-01T16:38:35Z</time></trkpt><trkpt lat="45.20062857654869" lon="14.798955450207082"><ele>736.8571428571429</ele><time>2026-05-01T16:38:36Z</time></trkpt><trkpt lat="45.20064159549683" lon="14.799050274146202"><ele>736.0</ele><time>2026-05-01T16:38:37Z</time></trkpt><trkpt lat="45.20063012524977" lon="14.799177427292145"><ele>736.0</ele><time>2026-05-01T16:38:39Z</time></trkpt><trkpt lat="45.20058320502869" lon="14.799306874233883"><ele>736.0</ele><time>2026-05-01T16:38:41Z</time></trkpt><trkpt lat="45.20051984551582" lon="14.79940797467224"><ele>736.0</ele><time>2026-05-01T16:38:43Z</time></trkpt><trkpt lat="45.200445038813726" lon="14.799457244742209"><ele>736.0</ele><time>2026-05-01T16:38:44Z</time></trkpt><trkpt lat="45.20036139276403" lon="14.79950561857505"><ele>736.0</ele><time>2026-05-01T16:38:45Z</time></trkpt><trkpt lat="45.20029857101898" lon="14.799574239462407"><ele>735.0</ele><time>2026-05-01T16:38:46Z</time></trkpt><trkpt lat="45.20022880340258" lon="14.799647234309907"><ele>734.0</ele><time>2026-05-01T16:38:47Z</time></trkpt><trkpt lat="45.2001854566594" lon="14.799740316870192"><ele>733.0</ele><time>2026-05-01T16:38:48Z</time></trkpt><trkpt lat="45.20013474902192" lon="14.7998139118217"><ele>732.0</ele><time>2026-05-01T16:38:49Z</time></trkpt><trkpt lat="45.200076828976684" lon="14.799895074576382"><ele>731.0</ele><time>2026-05-01T16:38:50Z</time></trkpt><trkpt lat="45.200008619879625" lon="14.79998332683545"><ele>730.0</ele><time>2026-05-01T16:38:51Z</time></trkpt><trkpt lat="45.19994704410503" lon="14.800055238340844"><ele>730.0</ele><time>2026-05-01T16:38:52Z</time></trkpt><trkpt lat="45.1998875808314" lon="14.800120783940775"><ele>730.0</ele><time>2026-05-01T16:38:53Z</time></trkpt><trkpt lat="45.19979477631432" lon="14.800215909792117"><ele>730.0</ele><time>2026-05-01T16:38:55Z</time></trkpt><trkpt lat="45.19968520756602" lon="14.800328525555111"><ele>730.0</ele><time>2026-05-01T16:38:57Z</time></trkpt><trkpt lat="45.1996177562159" lon="14.800400017978106"><ele>730.0</ele><time>2026-05-01T16:38:58Z</time></trkpt><trkpt lat="45.199544539069706" lon="14.800477621620779"><ele>730.2</ele><time>2026-05-01T16:38:59Z</time></trkpt><trkpt lat="45.19947052505702" lon="14.800551333860929"><ele>730.4</ele><time>2026-05-01T16:39:00Z</time></trkpt><trkpt lat="45.19940702382309" lon="14.800639036451422"><ele>730.5999999999999</ele><time>2026-05-01T16:39:01Z</time></trkpt><trkpt lat="45.19933848213634" lon="14.800713738309756"><ele>730.8</ele><time>2026-05-01T16:39:02Z</time></trkpt><trkpt lat="45.199267226144414" lon="14.800796148017737"><ele>731.0</ele><time>2026-05-01T16:39:03Z</time></trkpt><trkpt lat="45.19921963497254" lon="14.800909706544768"><ele>730.5</ele><time>2026-05-01T16:39:04Z</time></trkpt><trkpt lat="45.19918539498358" lon="14.801011609945187"><ele>730.0</ele><time>2026-05-01T16:39:05Z</time></trkpt><trkpt lat="45.199160878153826" lon="14.801119480054837"><ele>729.5</ele><time>2026-05-01T16:39:06Z</time></trkpt><trkpt lat="45.199143259492864" lon="14.801246632296735"><ele>729.0</ele><time>2026-05-01T16:39:07Z</time></trkpt><trkpt lat="45.19912319645355" lon="14.801374363341159"><ele>728.5</ele><time>2026-05-01T16:39:08Z</time></trkpt><trkpt lat="45.199084620124864" lon="14.801494345245642"><ele>728.0</ele><time>2026-05-01T16:39:09Z</time></trkpt><trkpt lat="45.1990663679511" lon="14.801618546229896"><ele>728.0</ele><time>2026-05-01T16:39:10Z</time></trkpt><trkpt lat="45.19905624700568" lon="14.801755726523783"><ele>728.0</ele><time>2026-05-01T16:39:11Z</time></trkpt><trkpt lat="45.19904250297486" lon="14.801870285829926"><ele>728.0</ele><time>2026-05-01T16:39:12Z</time></trkpt><trkpt lat="45.199002183793425" lon="14.801994554532708"><ele>728.0</ele><time>2026-05-01T16:39:13Z</time></trkpt><trkpt lat="45.19898084193429" lon="14.802084248332886"><ele>728.0</ele><time>2026-05-01T16:39:14Z</time></trkpt><trkpt lat="45.198929894250654" lon="14.802259620977217"><ele>730.3333333333333</ele><time>2026-05-01T16:39:16Z</time></trkpt><trkpt lat="45.19888487601433" lon="14.802366175819072"><ele>732.6666666666666</ele><time>2026-05-01T16:39:17Z</time></trkpt><trkpt lat="45.198843847045154" lon="14.802451005409909"><ele>735.0</ele><time>2026-05-01T16:39:18Z</time></trkpt><trkpt lat="45.19877490582721" lon="14.802548310905697"><ele>737.3333333333334</ele><time>2026-05-01T16:39:20Z</time></trkpt><trkpt lat="45.19867372156568" lon="14.802569390352168"><ele>739.6666666666667</ele><time>2026-05-01T16:39:23Z</time></trkpt><trkpt lat="45.19858787594411" lon="14.802537324962016"><ele>742.0</ele><time>2026-05-01T16:39:25Z</time></trkpt><trkpt lat="45.198499703988645" lon="14.802508131550487"><ele>742.0</ele><time>2026-05-01T16:39:27Z</time></trkpt><trkpt lat="45.19842711575084" lon="14.802531676780731"><ele>742.0</ele><time>2026-05-01T16:39:29Z</time></trkpt><trkpt lat="45.19834904555263" lon="14.80257003065598"><ele>742.0</ele><time>2026-05-01T16:39:32Z</time></trkpt><trkpt lat="45.198272017676764" lon="14.802677913002109"><ele>742.0</ele><time>2026-05-01T16:40:03.001Z</time></trkpt><trkpt lat="45.19819659455377" lon="14.802815921854599"><ele>742.0</ele><time>2026-05-01T16:40:05Z</time></trkpt><trkpt lat="45.198156885619156" lon="14.802887862698999"><ele>743.0</ele><time>2026-05-01T16:40:06Z</time></trkpt><trkpt lat="45.19806377643214" lon="14.802991495275975"><ele>744.0</ele><time>2026-05-01T16:40:08Z</time></trkpt><trkpt lat="45.198000185383606" lon="14.803014847373287"><ele>745.0</ele><time>2026-05-01T16:40:09Z</time></trkpt><trkpt lat="45.19794099645819" lon="14.80305072928909"><ele>746.0</ele><time>2026-05-01T16:40:10Z</time></trkpt><trkpt lat="45.19787305219591" lon="14.803050624737619"><ele>747.0</ele><time>2026-05-01T16:40:11Z</time></trkpt><trkpt lat="45.197806340438945" lon="14.803031644292249"><ele>748.0</ele><time>2026-05-01T16:40:12Z</time></trkpt><trkpt lat="45.19774686498946" lon="14.802978563066562"><ele>748.0</ele><time>2026-05-01T16:40:13Z</time></trkpt><trkpt lat="45.19761716025884" lon="14.80298304633641"><ele>748.0</ele><time>2026-05-01T16:40:15Z</time></trkpt><trkpt lat="45.19754576073717" lon="14.803004263003649"><ele>748.0</ele><time>2026-05-01T16:40:16Z</time></trkpt><trkpt lat="45.197461932250775" lon="14.80302484979208"><ele>748.0</ele><time>2026-05-01T16:40:17Z</time></trkpt><trkpt lat="45.19737871725248" lon="14.803059213673192"><ele>748.0</ele><time>2026-05-01T16:40:18Z</time></trkpt><trkpt lat="45.19729532078251" lon="14.803114644586204"><ele>748.4</ele><time>2026-05-01T16:40:19Z</time></trkpt><trkpt lat="45.197232808770295" lon="14.803179028800937"><ele>748.8</ele><time>2026-05-01T16:40:20Z</time></trkpt><trkpt lat="45.19716727447155" lon="14.803260459772739"><ele>749.2</ele><time>2026-05-01T16:40:21Z</time></trkpt><trkpt lat="45.197117493839464" lon="14.803369776433977"><ele>749.6</ele><time>2026-05-01T16:40:22Z</time></trkpt><trkpt lat="45.197040890202516" lon="14.803448475962057"><ele>750.0</ele><time>2026-05-01T16:40:23Z</time></trkpt><trkpt lat="45.196966852609094" lon="14.803549404508631"><ele>750.0</ele><time>2026-05-01T16:40:24Z</time></trkpt><trkpt lat="45.19690730506721" lon="14.803661892705705"><ele>750.0</ele><time>2026-05-01T16:40:25Z</time></trkpt><trkpt lat="45.19684431790109" lon="14.803748016710017"><ele>750.0</ele><time>2026-05-01T16:40:26Z</time></trkpt><trkpt lat="45.1967885279566" lon="14.803795702435865"><ele>750.0</ele><time>2026-05-01T16:40:27Z</time></trkpt><trkpt lat="45.196702061695404" lon="14.803898715200017"><ele>750.0</ele><time>2026-05-01T16:40:29Z</time></trkpt><trkpt lat="45.19660285372071" lon="14.803988133957322"><ele>750.0</ele><time>2026-05-01T16:40:31Z</time></trkpt><trkpt lat="45.196518494373784" lon="14.804065983194471"><ele>750.0</ele><time>2026-05-01T16:40:32Z</time></trkpt><trkpt lat="45.1964242290036" lon="14.80411887307516"><ele>750.0</ele><time>2026-05-01T16:40:33Z</time></trkpt><trkpt lat="45.19633717239568" lon="14.804200991069967"><ele>750.0</ele><time>2026-05-01T16:40:34Z</time></trkpt><trkpt lat="45.196241325968586" lon="14.804271761857185"><ele>750.0</ele><time>2026-05-01T16:40:35Z</time></trkpt><trkpt lat="45.1961470787452" lon="14.804356404103698"><ele>749.25</ele><time>2026-05-01T16:40:36Z</time></trkpt><trkpt lat="45.1960555669131" lon="14.80447257023803"><ele>748.5</ele><time>2026-05-01T16:40:37Z</time></trkpt><trkpt lat="45.19595342402748" lon="14.80458574261563"><ele>747.75</ele><time>2026-05-01T16:40:38Z</time></trkpt><trkpt lat="45.195852856177346" lon="14.804704864091592"><ele>747.0</ele><time>2026-05-01T16:40:39Z</time></trkpt><trkpt lat="45.19576029717802" lon="14.804813655451456"><ele>747.0</ele><time>2026-05-01T16:40:40Z</time></trkpt><trkpt lat="45.19567876470121" lon="14.80492865393822"><ele>747.0</ele><time>2026-05-01T16:40:41Z</time></trkpt><trkpt lat="45.195589871080664" lon="14.805022449960463"><ele>747.0</ele><time>2026-05-01T16:40:42Z</time></trkpt><trkpt lat="45.19551385808029" lon="14.805160362840965"><ele>747.0</ele><time>2026-05-01T16:40:43Z</time></trkpt><trkpt lat="45.195431262079424" lon="14.805261661833818"><ele>750.25</ele><time>2026-05-01T16:40:44Z</time></trkpt><trkpt lat="45.19534912303174" lon="14.805396965131214"><ele>753.5</ele><time>2026-05-01T16:40:45Z</time></trkpt><trkpt lat="45.19526294384553" lon="14.805550086745848"><ele>756.75</ele><time>2026-05-01T16:40:46Z</time></trkpt><trkpt lat="45.19518465565119" lon="14.805691195071798"><ele>760.0</ele><time>2026-05-01T16:40:47Z</time></trkpt><trkpt lat="45.195104242049716" lon="14.805811457597244"><ele>760.0</ele><time>2026-05-01T16:40:48Z</time></trkpt><trkpt lat="45.19505348939022" lon="14.805944301490815"><ele>760.0</ele><time>2026-05-01T16:40:49Z</time></trkpt><trkpt lat="45.195002840516416" lon="14.806052766505823"><ele>760.0</ele><time>2026-05-01T16:40:50Z</time></trkpt><trkpt lat="45.19494636880535" lon="14.806156080834814"><ele>760.0</ele><time>2026-05-01T16:40:51Z</time></trkpt><trkpt lat="45.19491075230595" lon="14.806271467050765"><ele>760.0</ele><time>2026-05-01T16:40:52Z</time></trkpt><trkpt lat="45.19489663142177" lon="14.806414565868504"><ele>758.4</ele><time>2026-05-01T16:40:53Z</time></trkpt><trkpt lat="45.19489109244205" lon="14.806548665954104"><ele>756.8</ele><time>2026-05-01T16:40:54Z</time></trkpt><trkpt lat="45.19490360112019" lon="14.806687010704367"><ele>755.2</ele><time>2026-05-01T16:40:55Z</time></trkpt><trkpt lat="45.19492882195731" lon="14.806807817935773"><ele>753.6</ele><time>2026-05-01T16:40:56Z</time></trkpt><trkpt lat="45.194983113058946" lon="14.806948267442648"><ele>752.0</ele><time>2026-05-01T16:40:57Z</time></trkpt><trkpt lat="45.195044475816175" lon="14.807083629825856"><ele>752.0</ele><time>2026-05-01T16:40:58Z</time></trkpt><trkpt lat="45.19509297071491" lon="14.807199096203414"><ele>752.0</ele><time>2026-05-01T16:40:59Z</time></trkpt><trkpt lat="45.195118974457245" lon="14.807301670361953"><ele>752.0</ele><time>2026-05-01T16:41:00Z</time></trkpt><trkpt lat="45.195101912563054" lon="14.807463180515342"><ele>752.0</ele><time>2026-05-01T16:41:02Z</time></trkpt><trkpt lat="45.195061040928024" lon="14.807600774087623"><ele>752.0</ele><time>2026-05-01T16:41:04Z</time></trkpt><trkpt lat="45.19506238387505" lon="14.807725237091244"><ele>753.3333333333333</ele><time>2026-05-01T16:41:06Z</time></trkpt><trkpt lat="45.19507986784179" lon="14.807832462388514"><ele>754.6666666666666</ele><time>2026-05-01T16:41:09Z</time></trkpt><trkpt lat="45.19510676882889" lon="14.807919321962464"><ele>756.0</ele><time>2026-05-01T16:41:11Z</time></trkpt><trkpt lat="45.195161533280505" lon="14.807984885133685"><ele>757.3333333333334</ele><time>2026-05-01T16:41:12Z</time></trkpt><trkpt lat="45.195265136068194" lon="14.80808493987318"><ele>758.6666666666667</ele><time>2026-05-01T16:41:14Z</time></trkpt><trkpt lat="45.195343958578945" lon="14.808131030140087"><ele>760.0</ele><time>2026-05-01T16:41:15Z</time></trkpt><trkpt lat="45.19542528057693" lon="14.808196685615709"><ele>760.0</ele><time>2026-05-01T16:41:16Z</time></trkpt><trkpt lat="45.19550335104436" lon="14.808265973084941"><ele>760.0</ele><time>2026-05-01T16:41:17Z</time></trkpt><trkpt lat="45.195569214261226" lon="14.808341872583403"><ele>760.0</ele><time>2026-05-01T16:41:18Z</time></trkpt><trkpt lat="45.19563638549835" lon="14.808433596189694"><ele>760.0</ele><time>2026-05-01T16:41:19Z</time></trkpt><trkpt lat="45.19571478361485" lon="14.808531052464591"><ele>760.0</ele><time>2026-05-01T16:41:20Z</time></trkpt><trkpt lat="45.19579724893118" lon="14.808616659698641"><ele>762.0</ele><time>2026-05-01T16:41:21Z</time></trkpt><trkpt lat="45.19588710234836" lon="14.808702139765616"><ele>764.0</ele><time>2026-05-01T16:41:22Z</time></trkpt><trkpt lat="45.195980456854265" lon="14.808781371164452"><ele>766.0</ele><time>2026-05-01T16:41:23Z</time></trkpt><trkpt lat="45.19608310493928" lon="14.808851294176664"><ele>768.0</ele><time>2026-05-01T16:41:24Z</time></trkpt><trkpt lat="45.19619353403445" lon="14.808899654947886"><ele>770.0</ele><time>2026-05-01T16:41:25Z</time></trkpt><trkpt lat="45.19629289876925" lon="14.808928497469523"><ele>770.0000000000001</ele><time>2026-05-01T16:41:26Z</time></trkpt><trkpt lat="45.196390854385356" lon="14.808954213143839"><ele>770.0</ele><time>2026-05-01T16:41:27Z</time></trkpt><trkpt lat="45.1964810266487" lon="14.808954739005912"><ele>770.0</ele><time>2026-05-01T16:41:28Z</time></trkpt><trkpt lat="45.19656327605965" lon="14.808976935095332"><ele>770.0</ele><time>2026-05-01T16:41:29Z</time></trkpt><trkpt lat="45.19664567483389" lon="14.808982205257685"><ele>770.0000000000001</ele><time>2026-05-01T16:41:30Z</time></trkpt><trkpt lat="45.196732495033096" lon="14.809013173919844"><ele>770.0</ele><time>2026-05-01T16:41:31Z</time></trkpt><trkpt lat="45.19682671670947" lon="14.809025527605465"><ele>769.3333333333334</ele><time>2026-05-01T16:41:32Z</time></trkpt><trkpt lat="45.19692318887986" lon="14.809038149789595"><ele>768.6666666666667</ele><time>2026-05-01T16:41:33Z</time></trkpt><trkpt lat="45.197021623908945" lon="14.809048530532163"><ele>768.0</ele><time>2026-05-01T16:41:34Z</time></trkpt><trkpt lat="45.197105609766446" lon="14.809052564020604"><ele>767.3333333333334</ele><time>2026-05-01T16:41:35Z</time></trkpt><trkpt lat="45.19717921256266" lon="14.809034632001365"><ele>766.6666666666667</ele><time>2026-05-01T16:41:36Z</time></trkpt><trkpt lat="45.19724501784642" lon="14.809009002234296"><ele>766.0</ele><time>2026-05-01T16:41:37Z</time></trkpt><trkpt lat="45.19730685740149" lon="14.80897058005265"><ele>766.3333333333334</ele><time>2026-05-01T16:41:38Z</time></trkpt><trkpt lat="45.1973712602686" lon="14.808930295500112"><ele>766.6666666666667</ele><time>2026-05-01T16:41:39Z</time></trkpt><trkpt lat="45.19744249613866" lon="14.808885785454036"><ele>767.0</ele><time>2026-05-01T16:41:40Z</time></trkpt><trkpt lat="45.1975184580222" lon="14.808840676601296"><ele>767.3333333333334</ele><time>2026-05-01T16:41:41Z</time></trkpt><trkpt lat="45.19759466641707" lon="14.808817780978881"><ele>767.6666666666666</ele><time>2026-05-01T16:41:42Z</time></trkpt><trkpt lat="45.19769270881526" lon="14.80881428199802"><ele>768.0</ele><time>2026-05-01T16:41:44Z</time></trkpt><trkpt lat="45.19771583589727" lon="14.808905050278868"><ele>768.0</ele><time>2026-05-01T16:41:45Z</time></trkpt><trkpt lat="45.19778103828855" lon="14.809054694994002"><ele>768.0</ele><time>2026-05-01T16:41:47.001Z</time></trkpt><trkpt lat="45.19781190544249" lon="14.809145826945045"><ele>768.0</ele><time>2026-05-01T16:41:48.001Z</time></trkpt><trkpt lat="45.19783372534245" lon="14.809304142537634"><ele>768.0</ele><time>2026-05-01T16:41:50.001Z</time></trkpt><trkpt lat="45.197835320302055" lon="14.809457573631814"><ele>768.0</ele><time>2026-05-01T16:41:52.001Z</time></trkpt><trkpt lat="45.19780504026014" lon="14.809625583305474"><ele>769.6666666666666</ele><time>2026-05-01T16:41:54.001Z</time></trkpt><trkpt lat="45.19777056085805" lon="14.809719376502617"><ele>771.3333333333333</ele><time>2026-05-01T16:41:55.001Z</time></trkpt><trkpt lat="45.19773006688081" lon="14.809828147669098"><ele>773.0</ele><time>2026-05-01T16:41:56.001Z</time></trkpt><trkpt lat="45.19769495690827" lon="14.80993316024268"><ele>774.6666666666666</ele><time>2026-05-01T16:41:57.001Z</time></trkpt><trkpt lat="45.19766911289045" lon="14.810056739922853"><ele>776.3333333333333</ele><time>2026-05-01T16:41:58.001Z</time></trkpt><trkpt lat="45.19764957256316" lon="14.810167620857364"><ele>778.0</ele><time>2026-05-01T16:41:59.001Z</time></trkpt><trkpt lat="45.197631265987766" lon="14.810297828939404"><ele>779.1666666666666</ele><time>2026-05-01T16:42:00.001Z</time></trkpt><trkpt lat="45.19761821012409" lon="14.810424404603129"><ele>780.3333333333333</ele><time>2026-05-01T16:42:01Z</time></trkpt><trkpt lat="45.19761480248079" lon="14.810548425762052"><ele>781.5</ele><time>2026-05-01T16:42:02Z</time></trkpt><trkpt lat="45.19761184197639" lon="14.810661893142633"><ele>782.6666666666667</ele><time>2026-05-01T16:42:03Z</time></trkpt><trkpt lat="45.19760002771109" lon="14.810754866997636"><ele>783.8333333333334</ele><time>2026-05-01T16:42:04Z</time></trkpt><trkpt lat="45.19754025189363" lon="14.810903944056292"><ele>785.0</ele><time>2026-05-01T16:42:06Z</time></trkpt><trkpt lat="45.197495795054344" lon="14.810988929714203"><ele>785.1666666666667</ele><time>2026-05-01T16:42:07Z</time></trkpt><trkpt lat="45.197456488914526" lon="14.811094661460649"><ele>785.3333333333334</ele><time>2026-05-01T16:42:08Z</time></trkpt><trkpt lat="45.197417459760324" lon="14.81119322264116"><ele>785.5</ele><time>2026-05-01T16:42:09Z</time></trkpt><trkpt lat="45.197363752494404" lon="14.81128907479265"><ele>785.6666666666667</ele><time>2026-05-01T16:42:10Z</time></trkpt><trkpt lat="45.19731798827369" lon="14.811398492478187"><ele>785.8333333333334</ele><time>2026-05-01T16:42:11Z</time></trkpt><trkpt lat="45.19728930108625" lon="14.81151556639884"><ele>786.0</ele><time>2026-05-01T16:42:12Z</time></trkpt><trkpt lat="45.19724730332304" lon="14.81161620130737"><ele>786.0</ele><time>2026-05-01T16:42:13Z</time></trkpt><trkpt lat="45.197207781152315" lon="14.811707994531012"><ele>786.0</ele><time>2026-05-01T16:42:14Z</time></trkpt><trkpt lat="45.19717383799985" lon="14.811857810979497"><ele>786.0</ele><time>2026-05-01T16:42:16Z</time></trkpt><trkpt lat="45.197198966652046" lon="14.811985915925332"><ele>786.0</ele><time>2026-05-01T16:42:18Z</time></trkpt><trkpt lat="45.19722436167156" lon="14.812073346934435"><ele>786.0</ele><time>2026-05-01T16:42:19Z</time></trkpt><trkpt lat="45.19728175638894" lon="14.812201530303803"><ele>784.1999999999999</ele><time>2026-05-01T16:42:21Z</time></trkpt><trkpt lat="45.19732640528889" lon="14.812339777517524"><ele>782.4</ele><time>2026-05-01T16:42:23Z</time></trkpt><trkpt lat="45.19732419767523" lon="14.812502929775947"><ele>780.6</ele><time>2026-05-01T16:42:25Z</time></trkpt><trkpt lat="45.19726269126875" lon="14.812661712614442"><ele>778.8</ele><time>2026-05-01T16:42:27Z</time></trkpt><trkpt lat="45.19722329082442" lon="14.812732999245274"><ele>777.0</ele><time>2026-05-01T16:42:28Z</time></trkpt><trkpt lat="45.19722702193152" lon="14.812892339411103"><ele>778.3333333333334</ele><time>2026-05-01T16:42:30Z</time></trkpt><trkpt lat="45.197244575083836" lon="14.812981811642896"><ele>779.6666666666667</ele><time>2026-05-01T16:42:31Z</time></trkpt><trkpt lat="45.19727458008765" lon="14.813074160456434"><ele>781.0</ele><time>2026-05-01T16:42:32Z</time></trkpt><trkpt lat="45.19731691788485" lon="14.81314887088499"><ele>782.3333333333334</ele><time>2026-05-01T16:42:33Z</time></trkpt><trkpt lat="45.19736877151757" lon="14.813212774435689"><ele>783.6666666666667</ele><time>2026-05-01T16:42:34Z</time></trkpt><trkpt lat="45.19742957319438" lon="14.813285913751102"><ele>785.0</ele><time>2026-05-01T16:42:35Z</time></trkpt><trkpt lat="45.19751536135043" lon="14.813377377073977"><ele>785.0</ele><time>2026-05-01T16:42:36Z</time></trkpt><trkpt lat="45.19760610064301" lon="14.813464799238941"><ele>785.0</ele><time>2026-05-01T16:42:37Z</time></trkpt><trkpt lat="45.197695083875445" lon="14.813541979087756"><ele>785.0</ele><time>2026-05-01T16:42:38Z</time></trkpt><trkpt lat="45.197792978295034" lon="14.813594736387987"><ele>785.0</ele><time>2026-05-01T16:42:39Z</time></trkpt><trkpt lat="45.197894437102576" lon="14.813667759771564"><ele>785.0</ele><time>2026-05-01T16:42:40Z</time></trkpt><trkpt lat="45.19799285477211" lon="14.81375367470923"><ele>785.2</ele><time>2026-05-01T16:42:41Z</time></trkpt><trkpt lat="45.19809757172522" lon="14.813825573055711"><ele>785.4</ele><time>2026-05-01T16:42:42Z</time></trkpt><trkpt lat="45.19819474544441" lon="14.813899945499918"><ele>785.5999999999999</ele><time>2026-05-01T16:42:43Z</time></trkpt><trkpt lat="45.19829276770497" lon="14.813985195706197"><ele>785.8</ele><time>2026-05-01T16:42:44Z</time></trkpt><trkpt lat="45.198380912291775" lon="14.814070741305587"><ele>786.0</ele><time>2026-05-01T16:42:45Z</time></trkpt><trkpt lat="45.198460608263765" lon="14.8141555105876"><ele>786.0</ele><time>2026-05-01T16:42:46Z</time></trkpt><trkpt lat="45.19853369526997" lon="14.814242818982432"><ele>786.0</ele><time>2026-05-01T16:42:47Z</time></trkpt><trkpt lat="45.19859332850917" lon="14.814338042383572"><ele>786.0</ele><time>2026-05-01T16:42:48Z</time></trkpt><trkpt lat="45.19864195523665" lon="14.814438098800851"><ele>786.0</ele><time>2026-05-01T16:42:49Z</time></trkpt><trkpt lat="45.19869660131164" lon="14.814544776439112"><ele>786.0</ele><time>2026-05-01T16:42:50Z</time></trkpt><trkpt lat="45.19874274177855" lon="14.81464755504122"><ele>784.1666666666666</ele><time>2026-05-01T16:42:51Z</time></trkpt><trkpt lat="45.19877730261303" lon="14.814756157374308"><ele>782.3333333333333</ele><time>2026-05-01T16:42:52Z</time></trkpt><trkpt lat="45.19879834050212" lon="14.814854186192868"><ele>780.5</ele><time>2026-05-01T16:42:53Z</time></trkpt><trkpt lat="45.19881629056592" lon="14.814949171938409"><ele>778.6666666666666</ele><time>2026-05-01T16:42:54Z</time></trkpt><trkpt lat="45.1988393541441" lon="14.815041052478263"><ele>776.8333333333333</ele><time>2026-05-01T16:42:55Z</time></trkpt><trkpt lat="45.19887595766039" lon="14.815184169666953"><ele>775.0</ele><time>2026-05-01T16:42:57Z</time></trkpt><trkpt lat="45.19897595928128" lon="14.815257672552155"><ele>775.0</ele><time>2026-05-01T16:42:59Z</time></trkpt><trkpt lat="45.19905791870953" lon="14.815215140279932"><ele>775.0</ele><time>2026-05-01T16:43:00Z</time></trkpt><trkpt lat="45.199143502730486" lon="14.815136861958834"><ele>775.0</ele><time>2026-05-01T16:43:01Z</time></trkpt><trkpt lat="45.19923024732088" lon="14.81506697272023"><ele>775.0</ele><time>2026-05-01T16:43:02Z</time></trkpt><trkpt lat="45.19932212852944" lon="14.815012519623817"><ele>775.0</ele><time>2026-05-01T16:43:03Z</time></trkpt><trkpt lat="45.19942746945957" lon="14.814951046108908"><ele>776.75</ele><time>2026-05-01T16:43:04Z</time></trkpt><trkpt lat="45.19953314773793" lon="14.81489528619472"><ele>778.5</ele><time>2026-05-01T16:43:05Z</time></trkpt><trkpt lat="45.199642425061434" lon="14.814849317593072"><ele>780.25</ele><time>2026-05-01T16:43:06Z</time></trkpt><trkpt lat="45.199750389956336" lon="14.814817014842825"><ele>782.0</ele><time>2026-05-01T16:43:07Z</time></trkpt><trkpt lat="45.199861588954576" lon="14.814792292722629"><ele>782.0</ele><time>2026-05-01T16:43:08Z</time></trkpt><trkpt lat="45.199981468636054" lon="14.814775346717141"><ele>782.0</ele><time>2026-05-01T16:43:09Z</time></trkpt><trkpt lat="45.20009825980337" lon="14.814764157419022"><ele>782.0</ele><time>2026-05-01T16:43:10Z</time></trkpt><trkpt lat="45.20021232371575" lon="14.814759553033294"><ele>782.0</ele><time>2026-05-01T16:43:11Z</time></trkpt><trkpt lat="45.20031845255991" lon="14.81476113293508"><ele>782.0</ele><time>2026-05-01T16:43:12Z</time></trkpt><trkpt lat="45.20043848833177" lon="14.814767575896335"><ele>782.0</ele><time>2026-05-01T16:43:13Z</time></trkpt><trkpt lat="45.200544121897494" lon="14.814776514499025"><ele>782.0</ele><time>2026-05-01T16:43:14Z</time></trkpt><trkpt lat="45.200651589795754" lon="14.814790590240968"><ele>782.0</ele><time>2026-05-01T16:43:15Z</time></trkpt><trkpt lat="45.200740562194284" lon="14.814811196942722"><ele>782.0</ele><time>2026-05-01T16:43:16Z</time></trkpt><trkpt lat="45.200841460942016" lon="14.814838187262708"><ele>781.6</ele><time>2026-05-01T16:43:17Z</time></trkpt><trkpt lat="45.20095380411043" lon="14.814851640951078"><ele>781.2</ele><time>2026-05-01T16:43:18Z</time></trkpt><trkpt lat="45.201037740445585" lon="14.814835919635739"><ele>780.8</ele><time>2026-05-01T16:43:19Z</time></trkpt><trkpt lat="45.20111435533172" lon="14.814817668498609"><ele>780.4</ele><time>2026-05-01T16:43:20Z</time></trkpt><trkpt lat="45.20118686323981" lon="14.814813157792695"><ele>780.0</ele><time>2026-05-01T16:43:21Z</time></trkpt><trkpt lat="45.201287140753415" lon="14.814863219434677"><ele>780.0</ele><time>2026-05-01T16:43:23Z</time></trkpt><trkpt lat="45.201324077298665" lon="14.815016305500503"><ele>780.0</ele><time>2026-05-01T16:43:25Z</time></trkpt><trkpt lat="45.20134841756707" lon="14.815125143270894"><ele>780.0</ele><time>2026-05-01T16:43:26Z</time></trkpt><trkpt lat="45.20138905037646" lon="14.815297009883576"><ele>780.0</ele><time>2026-05-01T16:43:27Z</time></trkpt><trkpt lat="45.20140862252566" lon="14.815416686150517"><ele>780.0</ele><time>2026-05-01T16:43:28Z</time></trkpt><trkpt lat="45.20142410141372" lon="14.815526014959861"><ele>778.8</ele><time>2026-05-01T16:43:29Z</time></trkpt><trkpt lat="45.20143621745582" lon="14.815642295555074"><ele>777.6</ele><time>2026-05-01T16:43:30Z</time></trkpt><trkpt lat="45.20144064303726" lon="14.815795289693165"><ele>776.4000000000001</ele><time>2026-05-01T16:43:31Z</time></trkpt><trkpt lat="45.201432248006896" lon="14.815959126300804"><ele>775.2</ele><time>2026-05-01T16:43:32Z</time></trkpt><trkpt lat="45.201412726612816" lon="14.816078967955304"><ele>774.0</ele><time>2026-05-01T16:43:33Z</time></trkpt><trkpt lat="45.20136403936309" lon="14.816217051647994"><ele>774.0</ele><time>2026-05-01T16:43:35Z</time></trkpt><trkpt lat="45.20125955702184" lon="14.816336970265352"><ele>774.0</ele><time>2026-05-01T16:43:37Z</time></trkpt><trkpt lat="45.201178911811155" lon="14.816361284004888"><ele>774.0</ele><time>2026-05-01T16:43:38Z</time></trkpt><trkpt lat="45.20107604842136" lon="14.816504138931103"><ele>774.0</ele><time>2026-05-01T16:43:40Z</time></trkpt><trkpt lat="45.20102835063123" lon="14.816623436998004"><ele>774.0</ele><time>2026-05-01T16:43:41Z</time></trkpt><trkpt lat="45.2009741380807" lon="14.816764581324271"><ele>774.0</ele><time>2026-05-01T16:43:42Z</time></trkpt><trkpt lat="45.200906683240426" lon="14.816941829609595"><ele>774.0</ele><time>2026-05-01T16:43:43Z</time></trkpt><trkpt lat="45.200842760429765" lon="14.81709997228246"><ele>774.0</ele><time>2026-05-01T16:43:44Z</time></trkpt><trkpt lat="45.20078162677864" lon="14.81724249458429"><ele>775.2</ele><time>2026-05-01T16:43:45Z</time></trkpt><trkpt lat="45.20072868757872" lon="14.817362338084328"><ele>776.4000000000001</ele><time>2026-05-01T16:43:46Z</time></trkpt><trkpt lat="45.200671020520154" lon="14.8174788023421"><ele>777.6</ele><time>2026-05-01T16:43:47Z</time></trkpt><trkpt lat="45.20061059878168" lon="14.817577006620542"><ele>778.8</ele><time>2026-05-01T16:43:48Z</time></trkpt><trkpt lat="45.20054296417135" lon="14.817667229712393"><ele>780.0</ele><time>2026-05-01T16:43:49Z</time></trkpt><trkpt lat="45.20047606119764" lon="14.817767191590736"><ele>780.0</ele><time>2026-05-01T16:43:50Z</time></trkpt><trkpt lat="45.20039497224692" lon="14.81782963156755"><ele>780.0</ele><time>2026-05-01T16:43:51Z</time></trkpt><trkpt lat="45.200309913103645" lon="14.817877280548103"><ele>780.0</ele><time>2026-05-01T16:43:52Z</time></trkpt><trkpt lat="45.200245749784195" lon="14.817909108140633"><ele>780.0</ele><time>2026-05-01T16:43:53Z</time></trkpt><trkpt lat="45.200171634344045" lon="14.8179093599922"><ele>780.0</ele><time>2026-05-01T16:43:54Z</time></trkpt><trkpt lat="45.20007110457663" lon="14.817887207954962"><ele>780.0</ele><time>2026-05-01T16:43:55Z</time></trkpt><trkpt lat="45.19996907109064" lon="14.817900811574704"><ele>780.0</ele><time>2026-05-01T16:43:56Z</time></trkpt><trkpt lat="45.199885717640235" lon="14.817921210780197"><ele>780.0</ele><time>2026-05-01T16:43:57Z</time></trkpt><trkpt lat="45.19977871456399" lon="14.817948861354312"><ele>780.0</ele><time>2026-05-01T16:43:58Z</time></trkpt><trkpt lat="45.19968768105564" lon="14.817949607018589"><ele>780.0</ele><time>2026-05-01T16:43:59Z</time></trkpt><trkpt lat="45.199575965656514" lon="14.817974801132877"><ele>780.0</ele><time>2026-05-01T16:44:01Z</time></trkpt><trkpt lat="45.19950934044316" lon="14.818171335815794"><ele>778.4</ele><time>2026-05-01T16:44:03Z</time></trkpt><trkpt lat="45.199449264602485" lon="14.818273173985899"><ele>776.8</ele><time>2026-05-01T16:44:04Z</time></trkpt><trkpt lat="45.199389266301765" lon="14.818358094750815"><ele>775.2</ele><time>2026-05-01T16:44:05Z</time></trkpt><trkpt lat="45.19932513656273" lon="14.818460578466974"><ele>773.6</ele><time>2026-05-01T16:44:06Z</time></trkpt><trkpt lat="45.199258296881844" lon="14.818585732167278"><ele>772.0</ele><time>2026-05-01T16:44:07Z</time></trkpt><trkpt lat="45.19920716420574" lon="14.81871818535012"><ele>772.0</ele><time>2026-05-01T16:44:08Z</time></trkpt><trkpt lat="45.19916697064149" lon="14.818857711641158"><ele>772.0</ele><time>2026-05-01T16:44:09Z</time></trkpt><trkpt lat="45.19913089191292" lon="14.819005234021235"><ele>772.0</ele><time>2026-05-01T16:44:10Z</time></trkpt><trkpt lat="45.19910868867165" lon="14.819149375647935"><ele>772.0</ele><time>2026-05-01T16:44:11Z</time></trkpt><trkpt lat="45.199087837728676" lon="14.819293735486195"><ele>772.0</ele><time>2026-05-01T16:44:12Z</time></trkpt><trkpt lat="45.19906026173114" lon="14.819444446931783"><ele>773.2</ele><time>2026-05-01T16:44:13Z</time></trkpt><trkpt lat="45.19904490152872" lon="14.81959762710774"><ele>774.4000000000001</ele><time>2026-05-01T16:44:14Z</time></trkpt><trkpt lat="45.19902199287641" lon="14.819749475758364"><ele>775.5999999999999</ele><time>2026-05-01T16:44:15Z</time></trkpt><trkpt lat="45.199000781177574" lon="14.819902450808804"><ele>776.8</ele><time>2026-05-01T16:44:16Z</time></trkpt><trkpt lat="45.19900610129437" lon="14.820061683832469"><ele>778.0</ele><time>2026-05-01T16:44:17Z</time></trkpt><trkpt lat="45.19899536507152" lon="14.820205114056698"><ele>777.4</ele><time>2026-05-01T16:44:18Z</time></trkpt><trkpt lat="45.19899376687372" lon="14.820325381273936"><ele>776.8</ele><time>2026-05-01T16:44:19Z</time></trkpt><trkpt lat="45.1989995906439" lon="14.820448303162616"><ele>776.2</ele><time>2026-05-01T16:44:20Z</time></trkpt><trkpt lat="45.19901292943518" lon="14.820588120668369"><ele>775.6</ele><time>2026-05-01T16:44:21Z</time></trkpt><trkpt lat="45.1990434866937" lon="14.820730183484443"><ele>775.0</ele><time>2026-05-01T16:44:22Z</time></trkpt><trkpt lat="45.19905422469802" lon="14.820877470793285"><ele>775.2</ele><time>2026-05-01T16:44:23Z</time></trkpt><trkpt lat="45.19906203030294" lon="14.821023686018187"><ele>775.4</ele><time>2026-05-01T16:44:24Z</time></trkpt><trkpt lat="45.19907723207742" lon="14.821177297257734"><ele>775.5999999999999</ele><time>2026-05-01T16:44:25Z</time></trkpt><trkpt lat="45.19907045362702" lon="14.821344708603933"><ele>775.8</ele><time>2026-05-01T16:44:26Z</time></trkpt><trkpt lat="45.19905209420765" lon="14.821503633073819"><ele>776.0</ele><time>2026-05-01T16:44:27Z</time></trkpt><trkpt lat="45.19903957897372" lon="14.82166710221387"><ele>777.5</ele><time>2026-05-01T16:44:28Z</time></trkpt><trkpt lat="45.19901831053588" lon="14.821833144399394"><ele>779.0</ele><time>2026-05-01T16:44:29Z</time></trkpt><trkpt lat="45.198994457473766" lon="14.822004394189017"><ele>780.5</ele><time>2026-05-01T16:44:30Z</time></trkpt><trkpt lat="45.198987151779676" lon="14.82217968266804"><ele>782.0</ele><time>2026-05-01T16:44:31Z</time></trkpt><trkpt lat="45.19897179014661" lon="14.822348319292926"><ele>769.75</ele><time>2026-05-01T16:44:32Z</time></trkpt><trkpt lat="45.19897367977128" lon="14.822524751938829"><ele>757.5</ele><time>2026-05-01T16:44:33Z</time></trkpt><trkpt lat="45.19898525936782" lon="14.822699641914912"><ele>745.25</ele><time>2026-05-01T16:44:34Z</time></trkpt><trkpt lat="45.19897841094055" lon="14.822871634104828"><ele>733.0</ele><time>2026-05-01T16:44:35Z</time></trkpt><trkpt lat="45.19897071385494" lon="14.82302590829159"><ele>733.0</ele><time>2026-05-01T16:44:36Z</time></trkpt><trkpt lat="45.19895042000785" lon="14.82316946607289"><ele>733.0</ele><time>2026-05-01T16:44:37Z</time></trkpt><trkpt lat="45.19893994660764" lon="14.823316472249655"><ele>733.0</ele><time>2026-05-01T16:44:38Z</time></trkpt><trkpt lat="45.19893586551574" lon="14.823469916898734"><ele>733.0</ele><time>2026-05-01T16:44:39Z</time></trkpt><trkpt lat="45.19893918620357" lon="14.823605612990399"><ele>733.0</ele><time>2026-05-01T16:44:40Z</time></trkpt><trkpt lat="45.19894144981493" lon="14.823800582438993"><ele>735.0</ele><time>2026-05-01T16:44:41Z</time></trkpt><trkpt lat="45.198943513931404" lon="14.82399591444473"><ele>737.0</ele><time>2026-05-01T16:44:42Z</time></trkpt><trkpt lat="45.19895244757208" lon="14.824198153411276"><ele>739.0</ele><time>2026-05-01T16:44:43Z</time></trkpt><trkpt lat="45.19895281623504" lon="14.824407686396771"><ele>741.0</ele><time>2026-05-01T16:44:44Z</time></trkpt><trkpt lat="45.19895430864793" lon="14.82460765585226"><ele>743.25</ele><time>2026-05-01T16:44:45Z</time></trkpt><trkpt lat="45.19895922967015" lon="14.824782135540385"><ele>745.5</ele><time>2026-05-01T16:44:46Z</time></trkpt><trkpt lat="45.19897266086192" lon="14.824951016788413"><ele>747.75</ele><time>2026-05-01T16:44:47Z</time></trkpt><trkpt lat="45.19897669076685" lon="14.82511676445822"><ele>750.0</ele><time>2026-05-01T16:44:48Z</time></trkpt><trkpt lat="45.19898535388137" lon="14.825275447649886"><ele>754.8333333333334</ele><time>2026-05-01T16:44:49Z</time></trkpt><trkpt lat="45.19900790881494" lon="14.825405181549094"><ele>759.6666666666667</ele><time>2026-05-01T16:44:50Z</time></trkpt><trkpt lat="45.19900841718073" lon="14.825517435484068"><ele>764.5</ele><time>2026-05-01T16:44:51Z</time></trkpt><trkpt lat="45.199021160095015" lon="14.825616903220094"><ele>769.3333333333334</ele><time>2026-05-01T16:44:52Z</time></trkpt><trkpt lat="45.19903007561744" lon="14.82571865854179"><ele>774.1666666666667</ele><time>2026-05-01T16:44:53Z</time></trkpt><trkpt lat="45.19908057876963" lon="14.825811576425691"><ele>779.0</ele><time>2026-05-01T16:44:54Z</time></trkpt><trkpt lat="45.199140140471606" lon="14.825886747836083"><ele>779.0</ele><time>2026-05-01T16:44:55Z</time></trkpt><trkpt lat="45.199212891586185" lon="14.82595969770927"><ele>779.0</ele><time>2026-05-01T16:44:56Z</time></trkpt><trkpt lat="45.19931069317863" lon="14.826020036241616"><ele>779.0</ele><time>2026-05-01T16:44:57Z</time></trkpt><trkpt lat="45.19939381190391" lon="14.826107078822751"><ele>779.0</ele><time>2026-05-01T16:44:58Z</time></trkpt><trkpt lat="45.19946391524877" lon="14.826179990667784"><ele>779.0</ele><time>2026-05-01T16:44:59Z</time></trkpt><trkpt lat="45.19953280092867" lon="14.826251887983894"><ele>779.1666666666667</ele><time>2026-05-01T16:45:00Z</time></trkpt><trkpt lat="45.19959914330753" lon="14.826333005899583"><ele>779.3333333333334</ele><time>2026-05-01T16:45:01Z</time></trkpt><trkpt lat="45.19966304861065" lon="14.826416510482336"><ele>779.5</ele><time>2026-05-01T16:45:02Z</time></trkpt><trkpt lat="45.199719226963516" lon="14.82649747101609"><ele>779.6666666666667</ele><time>2026-05-01T16:45:03Z</time></trkpt><trkpt lat="45.19978947075496" lon="14.826567685518278"><ele>779.8333333333334</ele><time>2026-05-01T16:45:04Z</time></trkpt><trkpt lat="45.199841068383456" lon="14.826660968468586"><ele>780.0</ele><time>2026-05-01T16:45:05Z</time></trkpt><trkpt lat="45.19989984652283" lon="14.826723479389734"><ele>780.0</ele><time>2026-05-01T16:45:06Z</time></trkpt><trkpt lat="45.19994452742385" lon="14.826789602318023"><ele>780.0</ele><time>2026-05-01T16:45:07Z</time></trkpt><trkpt lat="45.19999395340995" lon="14.826857603872321"><ele>780.0</ele><time>2026-05-01T16:45:08Z</time></trkpt><trkpt lat="45.20005892050193" lon="14.826936864585683"><ele>780.0</ele><time>2026-05-01T16:45:10Z</time></trkpt><trkpt lat="45.200022452818764" lon="14.82708979497992"><ele>780.0</ele><time>2026-05-01T16:45:11Z</time></trkpt><trkpt lat="45.20003698770012" lon="14.82725855292209"><ele>780.5</ele><time>2026-05-01T16:45:13Z</time></trkpt><trkpt lat="45.200045689468965" lon="14.827401380745044"><ele>781.0</ele><time>2026-05-01T16:45:15Z</time></trkpt><trkpt lat="45.2000642229128" lon="14.827486792936497"><ele>781.5</ele><time>2026-05-01T16:45:17Z</time></trkpt><trkpt lat="45.200088614608504" lon="14.827605310223376"><ele>782.0</ele><time>2026-05-01T16:45:20Z</time></trkpt><trkpt lat="45.200094436400725" lon="14.8276945509553"><ele>782.5</ele><time>2026-05-01T16:45:23Z</time></trkpt><trkpt lat="45.20009712007062" lon="14.82778560703163"><ele>783.0</ele><time>2026-05-01T16:45:27Z</time></trkpt><trkpt lat="45.20012268637636" lon="14.827903734690011"><ele>783.3333333333334</ele><time>2026-05-01T16:45:32Z</time></trkpt><trkpt lat="45.20011493652415" lon="14.827992443581795"><ele>783.6666666666667</ele><time>2026-05-01T16:45:36Z</time></trkpt><trkpt lat="45.200140131965" lon="14.8281014844418"><ele>784.0</ele><time>2026-05-01T16:45:43.999Z</time></trkpt><trkpt lat="45.200130987304576" lon="14.828219412960982"><ele>784.3333333333334</ele><time>2026-05-01T16:45:45.999Z</time></trkpt><trkpt lat="45.20014397935933" lon="14.8284063439507"><ele>784.6666666666667</ele><time>2026-05-01T16:45:47.999Z</time></trkpt><trkpt lat="45.20014301796316" lon="14.8285104190985"><ele>785.0</ele><time>2026-05-01T16:45:48.999Z</time></trkpt><trkpt lat="45.20013941581372" lon="14.82860188226277"><ele>785.0000000000001</ele><time>2026-05-01T16:45:49.999Z</time></trkpt><trkpt lat="45.20013593467157" lon="14.828692513209374"><ele>785.0</ele><time>2026-05-01T16:45:50.999Z</time></trkpt><trkpt lat="45.200126571210944" lon="14.828798979698615"><ele>785.0</ele><time>2026-05-01T16:45:51.999Z</time></trkpt><trkpt lat="45.20011342212306" lon="14.828915505150446"><ele>785.0</ele><time>2026-05-01T16:45:52.999Z</time></trkpt><trkpt lat="45.200098651309105" lon="14.829037393043595"><ele>785.0000000000001</ele><time>2026-05-01T16:45:53.999Z</time></trkpt><trkpt lat="45.20007637557138" lon="14.829159217300138"><ele>785.0</ele><time>2026-05-01T16:45:54.999Z</time></trkpt><trkpt lat="45.20005287923712" lon="14.829287273155497"><ele>783.8</ele><time>2026-05-01T16:45:55.999Z</time></trkpt><trkpt lat="45.200024009653355" lon="14.829413550736513"><ele>782.6</ele><time>2026-05-01T16:45:56.999Z</time></trkpt><trkpt lat="45.1999949391675" lon="14.829533610936329"><ele>781.4000000000001</ele><time>2026-05-01T16:45:58Z</time></trkpt><trkpt lat="45.19996119965822" lon="14.829649441560152"><ele>780.2</ele><time>2026-05-01T16:45:59Z</time></trkpt><trkpt lat="45.19991595691766" lon="14.829761045227688"><ele>779.0</ele><time>2026-05-01T16:46:00Z</time></trkpt><trkpt lat="45.199846248025814" lon="14.829871919128774"><ele>780.5</ele><time>2026-05-01T16:46:01Z</time></trkpt><trkpt lat="45.19975973778147" lon="14.829980744198862"><ele>782.0</ele><time>2026-05-01T16:46:02Z</time></trkpt><trkpt lat="45.19964204930415" lon="14.830063113356179"><ele>783.5</ele><time>2026-05-01T16:46:03Z</time></trkpt><trkpt lat="45.1995237037082" lon="14.830165732847869"><ele>785.0</ele><time>2026-05-01T16:46:04Z</time></trkpt><trkpt lat="45.19939693818264" lon="14.830268456169506"><ele>784.25</ele><time>2026-05-01T16:46:05Z</time></trkpt><trkpt lat="45.19926655424238" lon="14.830366030812105"><ele>783.5</ele><time>2026-05-01T16:46:06Z</time></trkpt><trkpt lat="45.199136723260054" lon="14.830464821759158"><ele>782.75</ele><time>2026-05-01T16:46:07Z</time></trkpt><trkpt lat="45.199010495428745" lon="14.83057009782693"><ele>782.0</ele><time>2026-05-01T16:46:08Z</time></trkpt><trkpt lat="45.198882580112894" lon="14.830676248804227"><ele>782.0</ele><time>2026-05-01T16:46:09Z</time></trkpt><trkpt lat="45.19875470933" lon="14.8307803327971"><ele>782.0</ele><time>2026-05-01T16:46:10Z</time></trkpt><trkpt lat="45.198628047585416" lon="14.830883528266867"><ele>782.0</ele><time>2026-05-01T16:46:11Z</time></trkpt><trkpt lat="45.19849551045655" lon="14.830984937403837"><ele>782.0</ele><time>2026-05-01T16:46:12Z</time></trkpt><trkpt lat="45.19835998032962" lon="14.831079699720062"><ele>780.25</ele><time>2026-05-01T16:46:13Z</time></trkpt><trkpt lat="45.198218466409216" lon="14.831169621962976"><ele>778.5</ele><time>2026-05-01T16:46:14Z</time></trkpt><trkpt lat="45.19808608517043" lon="14.831253311850297"><ele>776.75</ele><time>2026-05-01T16:46:15Z</time></trkpt><trkpt lat="45.19795986876451" lon="14.831318965686082"><ele>775.0</ele><time>2026-05-01T16:46:16Z</time></trkpt><trkpt lat="45.19781845116541" lon="14.831377818202695"><ele>775.0</ele><time>2026-05-01T16:46:17Z</time></trkpt><trkpt lat="45.19767125594787" lon="14.831427266575218"><ele>775.0</ele><time>2026-05-01T16:46:18Z</time></trkpt><trkpt lat="45.19754031865363" lon="14.831465208639676"><ele>775.0</ele><time>2026-05-01T16:46:19Z</time></trkpt><trkpt lat="45.19741763152102" lon="14.831483395076361"><ele>775.0</ele><time>2026-05-01T16:46:20Z</time></trkpt><trkpt lat="45.19728675231084" lon="14.83150036314617"><ele>774.5</ele><time>2026-05-01T16:46:21Z</time></trkpt><trkpt lat="45.19714821692848" lon="14.831481141797823"><ele>774.0</ele><time>2026-05-01T16:46:22Z</time></trkpt><trkpt lat="45.197005590093134" lon="14.831458737906264"><ele>773.5</ele><time>2026-05-01T16:46:23Z</time></trkpt><trkpt lat="45.196860974152614" lon="14.831437687334747"><ele>773.0</ele><time>2026-05-01T16:46:24Z</time></trkpt><trkpt lat="45.19671891022597" lon="14.831402272077435"><ele>773.0</ele><time>2026-05-01T16:46:25Z</time></trkpt><trkpt lat="45.19658938672886" lon="14.831440213136759"><ele>773.0</ele><time>2026-05-01T16:46:26Z</time></trkpt><trkpt lat="45.19644745261496" lon="14.83147097866054"><ele>773.0</ele><time>2026-05-01T16:46:27Z</time></trkpt><trkpt lat="45.196294951917274" lon="14.83148736769094"><ele>773.0</ele><time>2026-05-01T16:46:28Z</time></trkpt><trkpt lat="45.19614363132738" lon="14.831483321357487"><ele>773.25</ele><time>2026-05-01T16:46:29Z</time></trkpt><trkpt lat="45.19599990027294" lon="14.831462932596931"><ele>773.5</ele><time>2026-05-01T16:46:30Z</time></trkpt><trkpt lat="45.19585717700978" lon="14.831436702029825"><ele>773.75</ele><time>2026-05-01T16:46:31Z</time></trkpt><trkpt lat="45.19571010043076" lon="14.831415336574734"><ele>774.0</ele><time>2026-05-01T16:46:32Z</time></trkpt><trkpt lat="45.19555983613191" lon="14.831400395425385"><ele>771.0</ele><time>2026-05-01T16:46:33Z</time></trkpt><trkpt lat="45.195409621058516" lon="14.831387287154907"><ele>768.0</ele><time>2026-05-01T16:46:34Z</time></trkpt><trkpt lat="45.195257330716075" lon="14.831376918644594"><ele>765.0</ele><time>2026-05-01T16:46:35Z</time></trkpt><trkpt lat="45.195100840893765" lon="14.831339934117528"><ele>765.0</ele><time>2026-05-01T16:46:36Z</time></trkpt><trkpt lat="45.19494127849842" lon="14.831318350871943"><ele>765.0</ele><time>2026-05-01T16:46:37Z</time></trkpt><trkpt lat="45.19477595260906" lon="14.831273572367184"><ele>765.0</ele><time>2026-05-01T16:46:38Z</time></trkpt><trkpt lat="45.194617969928814" lon="14.831220380785227"><ele>759.3333333333334</ele><time>2026-05-01T16:46:39Z</time></trkpt><trkpt lat="45.19446882296084" lon="14.831165336790194"><ele>753.6666666666667</ele><time>2026-05-01T16:46:40Z</time></trkpt><trkpt lat="45.19431056602128" lon="14.831144490349306"><ele>748.0</ele><time>2026-05-01T16:46:41Z</time></trkpt><trkpt lat="45.194167854700396" lon="14.831108693673011"><ele>748.0</ele><time>2026-05-01T16:46:42Z</time></trkpt><trkpt lat="45.19403714669503" lon="14.83106480541908"><ele>748.0</ele><time>2026-05-01T16:46:43Z</time></trkpt><trkpt lat="45.19391177440685" lon="14.830981011225509"><ele>748.0</ele><time>2026-05-01T16:46:44Z</time></trkpt><trkpt lat="45.19377459299771" lon="14.830874750969237"><ele>748.0</ele><time>2026-05-01T16:46:45Z</time></trkpt><trkpt lat="45.19363496872847" lon="14.83076824204244"><ele>750.5</ele><time>2026-05-01T16:46:46Z</time></trkpt><trkpt lat="45.19351637338408" lon="14.830650159633697"><ele>753.0</ele><time>2026-05-01T16:46:47Z</time></trkpt><trkpt lat="45.193406205517306" lon="14.83054650435854"><ele>755.5</ele><time>2026-05-01T16:46:48Z</time></trkpt><trkpt lat="45.19329192174992" lon="14.830422222665652"><ele>758.0</ele><time>2026-05-01T16:46:49Z</time></trkpt><trkpt lat="45.19318769159874" lon="14.830318807774955"><ele>757.8</ele><time>2026-05-01T16:46:50Z</time></trkpt><trkpt lat="45.19309066713879" lon="14.8302492757892"><ele>757.5999999999999</ele><time>2026-05-01T16:46:51Z</time></trkpt><trkpt lat="45.19301347329095" lon="14.830203063524635"><ele>757.4000000000001</ele><time>2026-05-01T16:46:52Z</time></trkpt><trkpt lat="45.19293786466117" lon="14.830182487107097"><ele>757.2</ele><time>2026-05-01T16:46:53Z</time></trkpt><trkpt lat="45.19286063747945" lon="14.83022620666306"><ele>757.0</ele><time>2026-05-01T16:46:54Z</time></trkpt><trkpt lat="45.19266737097864" lon="14.830352241625812"><ele>757.0</ele><time>2026-05-01T16:46:55Z</time></trkpt><trkpt lat="45.19255062110267" lon="14.830453189491818"><ele>757.0</ele><time>2026-05-01T16:46:56Z</time></trkpt><trkpt lat="45.192428438175234" lon="14.830575821036218"><ele>757.0</ele><time>2026-05-01T16:46:57Z</time></trkpt><trkpt lat="45.192308767953186" lon="14.8307236190944"><ele>757.0</ele><time>2026-05-01T16:46:58Z</time></trkpt><trkpt lat="45.192194712350236" lon="14.830895000354445"><ele>759.25</ele><time>2026-05-01T16:46:59Z</time></trkpt><trkpt lat="45.19206909936631" lon="14.831048384335386"><ele>761.5</ele><time>2026-05-01T16:47:00Z</time></trkpt><trkpt lat="45.19196750853373" lon="14.831198500072686"><ele>763.75</ele><time>2026-05-01T16:47:01Z</time></trkpt><trkpt lat="45.1918824499113" lon="14.831347446647591"><ele>766.0</ele><time>2026-05-01T16:47:02Z</time></trkpt><trkpt lat="45.191809712360325" lon="14.83150731048906"><ele>766.0</ele><time>2026-05-01T16:47:03Z</time></trkpt><trkpt lat="45.19174870396334" lon="14.831706112647705"><ele>766.0</ele><time>2026-05-01T16:47:04Z</time></trkpt><trkpt lat="45.19170678998162" lon="14.83191125325479"><ele>766.0</ele><time>2026-05-01T16:47:05Z</time></trkpt><trkpt lat="45.19165563440841" lon="14.832083060022036"><ele>766.0</ele><time>2026-05-01T16:47:06Z</time></trkpt><trkpt lat="45.191602751356456" lon="14.832254187685807"><ele>766.0</ele><time>2026-05-01T16:47:06.999Z</time></trkpt><trkpt lat="45.19152438021951" lon="14.832403502293262"><ele>766.0</ele><time>2026-05-01T16:47:07.999Z</time></trkpt><trkpt lat="45.19146345039502" lon="14.832570229078271"><ele>766.0</ele><time>2026-05-01T16:47:08.999Z</time></trkpt><trkpt lat="45.19138824127836" lon="14.832714092675909"><ele>766.0</ele><time>2026-05-01T16:47:09.999Z</time></trkpt><trkpt lat="45.191320092792715" lon="14.832857477945122"><ele>766.0</ele><time>2026-05-01T16:47:10.999Z</time></trkpt><trkpt lat="45.19124202148765" lon="14.832994481219071"><ele>766.0</ele><time>2026-05-01T16:47:11.999Z</time></trkpt><trkpt lat="45.191145094601055" lon="14.833119676197672"><ele>766.0</ele><time>2026-05-01T16:47:12.999Z</time></trkpt><trkpt lat="45.19103427458168" lon="14.833238871213622"><ele>766.0</ele><time>2026-05-01T16:47:13.999Z</time></trkpt><trkpt lat="45.19091673577336" lon="14.833361312026394"><ele>765.3333333333334</ele><time>2026-05-01T16:47:14.999Z</time></trkpt><trkpt lat="45.19079228809924" lon="14.83349811160106"><ele>764.6666666666666</ele><time>2026-05-01T16:47:15.999Z</time></trkpt><trkpt lat="45.19066049048274" lon="14.83364357314153"><ele>764.0</ele><time>2026-05-01T16:47:16.999Z</time></trkpt><trkpt lat="45.1905225380323" lon="14.833794725416016"><ele>764.0</ele><time>2026-05-01T16:47:17.999Z</time></trkpt><trkpt lat="45.19038341112579" lon="14.833955453785766"><ele>764.0</ele><time>2026-05-01T16:47:18.999Z</time></trkpt><trkpt lat="45.1902531197312" lon="14.834112145211716"><ele>764.0</ele><time>2026-05-01T16:47:19.999Z</time></trkpt><trkpt lat="45.19013327062136" lon="14.834265444157642"><ele>764.0</ele><time>2026-05-01T16:47:20.999Z</time></trkpt><trkpt lat="45.19002313845463" lon="14.834410319143903"><ele>764.0</ele><time>2026-05-01T16:47:21.999Z</time></trkpt><trkpt lat="45.18992071635613" lon="14.834548588744006"><ele>764.0</ele><time>2026-05-01T16:47:22.999Z</time></trkpt><trkpt lat="45.189831802050385" lon="14.834673869782575"><ele>764.0</ele><time>2026-05-01T16:47:23.999Z</time></trkpt><trkpt lat="45.189741015406454" lon="14.834767893320375"><ele>763.8000000000001</ele><time>2026-05-01T16:47:24.999Z</time></trkpt><trkpt lat="45.18968785332282" lon="14.834895384086254"><ele>763.6</ele><time>2026-05-01T16:47:25.999Z</time></trkpt><trkpt lat="45.18965108408372" lon="14.835025750363844"><ele>763.4</ele><time>2026-05-01T16:47:26.999Z</time></trkpt><trkpt lat="45.189649959653586" lon="14.835179705365697"><ele>763.2</ele><time>2026-05-01T16:47:27.999Z</time></trkpt><trkpt lat="45.18964798735141" lon="14.83530634819264"><ele>763.0</ele><time>2026-05-01T16:47:28.999Z</time></trkpt><trkpt lat="45.18962965224759" lon="14.83543685667631"><ele>763.0</ele><time>2026-05-01T16:47:29.999Z</time></trkpt><trkpt lat="45.189583385994176" lon="14.835532744640226"><ele>763.0</ele><time>2026-05-01T16:47:30.999Z</time></trkpt><trkpt lat="45.189509969166764" lon="14.835624882334768"><ele>763.0</ele><time>2026-05-01T16:47:31.999Z</time></trkpt><trkpt lat="45.189412800303415" lon="14.835718184462978"><ele>763.0</ele><time>2026-05-01T16:47:32.999Z</time></trkpt><trkpt lat="45.18929927412685" lon="14.83581144103529"><ele>763.0</ele><time>2026-05-01T16:47:33.999Z</time></trkpt><trkpt lat="45.18917793049903" lon="14.835894640155942"><ele>763.5</ele><time>2026-05-01T16:47:34.999Z</time></trkpt><trkpt lat="45.189051194874196" lon="14.83597175230465"><ele>764.0</ele><time>2026-05-01T16:47:35.999Z</time></trkpt><trkpt lat="45.18893236585057" lon="14.836068988290892"><ele>764.5</ele><time>2026-05-01T16:47:36.999Z</time></trkpt><trkpt lat="45.18880838781167" lon="14.836145912267076"><ele>765.0</ele><time>2026-05-01T16:47:37.999Z</time></trkpt><trkpt lat="45.18868331614362" lon="14.836240832851148"><ele>765.0</ele><time>2026-05-01T16:47:38.999Z</time></trkpt><trkpt lat="45.18855941026005" lon="14.836358017700508"><ele>765.0</ele><time>2026-05-01T16:47:39.999Z</time></trkpt><trkpt lat="45.188434428229954" lon="14.83648643786262"><ele>765.0</ele><time>2026-05-01T16:47:40.999Z</time></trkpt><trkpt lat="45.18830829637692" lon="14.83662400883333"><ele>765.0</ele><time>2026-05-01T16:47:41.999Z</time></trkpt><trkpt lat="45.18817876025521" lon="14.836768175035452"><ele>765.0</ele><time>2026-05-01T16:47:42.999Z</time></trkpt><trkpt lat="45.18804551151437" lon="14.836925220495859"><ele>765.0</ele><time>2026-05-01T16:47:43.999Z</time></trkpt><trkpt lat="45.1878944265386" lon="14.837073176235092"><ele>764.0</ele><time>2026-05-01T16:47:44.999Z</time></trkpt><trkpt lat="45.18774900567905" lon="14.83724942032893"><ele>763.0</ele><time>2026-05-01T16:47:45.999Z</time></trkpt><trkpt lat="45.1876171737931" lon="14.837443189448003"><ele>762.0</ele><time>2026-05-01T16:47:46.999Z</time></trkpt><trkpt lat="45.187473339571035" lon="14.837611254507861"><ele>762.3333333333334</ele><time>2026-05-01T16:47:47.999Z</time></trkpt><trkpt lat="45.187328653711845" lon="14.837775892681263"><ele>762.6666666666667</ele><time>2026-05-01T16:47:48.999Z</time></trkpt><trkpt lat="45.18718113889263" lon="14.837939732950062"><ele>763.0</ele><time>2026-05-01T16:47:49.999Z</time></trkpt><trkpt lat="45.187027251900744" lon="14.838102694587798"><ele>763.0</ele><time>2026-05-01T16:47:50.999Z</time></trkpt><trkpt lat="45.18687390734604" lon="14.838253468153702"><ele>763.0</ele><time>2026-05-01T16:47:51.999Z</time></trkpt><trkpt lat="45.186720610931246" lon="14.838389581976003"><ele>763.0</ele><time>2026-05-01T16:47:52.999Z</time></trkpt><trkpt lat="45.18656268545059" lon="14.838520127951373"><ele>764.3333333333334</ele><time>2026-05-01T16:47:53.999Z</time></trkpt><trkpt lat="45.18640953106808" lon="14.838632764370008"><ele>765.6666666666666</ele><time>2026-05-01T16:47:54.999Z</time></trkpt><trkpt lat="45.186253594463714" lon="14.838724443164477"><ele>767.0</ele><time>2026-05-01T16:47:55.999Z</time></trkpt><trkpt lat="45.186100166129826" lon="14.838814532049556"><ele>767.0</ele><time>2026-05-01T16:47:56.999Z</time></trkpt><trkpt lat="45.185951245587695" lon="14.838915398490188"><ele>767.0</ele><time>2026-05-01T16:47:57.999Z</time></trkpt><trkpt lat="45.185805741483655" lon="14.839033237289712"><ele>767.0</ele><time>2026-05-01T16:47:58.999Z</time></trkpt><trkpt lat="45.18566975373578" lon="14.839157234351067"><ele>766.0</ele><time>2026-05-01T16:47:59.999Z</time></trkpt><trkpt lat="45.18554964424116" lon="14.839273860919125"><ele>765.0</ele><time>2026-05-01T16:48:00.999Z</time></trkpt><trkpt lat="45.18543959386351" lon="14.839388737803418"><ele>764.0</ele><time>2026-05-01T16:48:01.999Z</time></trkpt><trkpt lat="45.18533248736634" lon="14.839522982683036"><ele>763.0</ele><time>2026-05-01T16:48:02.999Z</time></trkpt><trkpt lat="45.18523750918747" lon="14.839673187868314"><ele>763.0</ele><time>2026-05-01T16:48:04Z</time></trkpt><trkpt lat="45.18515910572021" lon="14.839842208007607"><ele>763.0</ele><time>2026-05-01T16:48:05Z</time></trkpt><trkpt lat="45.18510093006963" lon="14.840026821206395"><ele>763.0</ele><time>2026-05-01T16:48:06Z</time></trkpt><trkpt lat="45.185053604227534" lon="14.840234214408664"><ele>763.0</ele><time>2026-05-01T16:48:07Z</time></trkpt><trkpt lat="45.18501754345983" lon="14.840449406306048"><ele>764.0</ele><time>2026-05-01T16:48:08Z</time></trkpt><trkpt lat="45.18496882752992" lon="14.840658464768724"><ele>765.0</ele><time>2026-05-01T16:48:09Z</time></trkpt><trkpt lat="45.184946234992324" lon="14.840867869592694"><ele>766.0</ele><time>2026-05-01T16:48:10Z</time></trkpt><trkpt lat="45.18493665564802" lon="14.841081607100394"><ele>766.25</ele><time>2026-05-01T16:48:11Z</time></trkpt><trkpt lat="45.1849517263261" lon="14.841289751337365"><ele>766.5</ele><time>2026-05-01T16:48:12Z</time></trkpt><trkpt lat="45.184975416314636" lon="14.841475841125185"><ele>766.75</ele><time>2026-05-01T16:48:13Z</time></trkpt><trkpt lat="45.185009413103515" lon="14.841652417295021"><ele>767.0</ele><time>2026-05-01T16:48:14Z</time></trkpt><trkpt lat="45.18506142694665" lon="14.841838793539365"><ele>767.0</ele><time>2026-05-01T16:48:15Z</time></trkpt><trkpt lat="45.18513000325721" lon="14.842027242165871"><ele>767.0</ele><time>2026-05-01T16:48:16Z</time></trkpt><trkpt lat="45.18520604695347" lon="14.842209485368137"><ele>767.0</ele><time>2026-05-01T16:48:17Z</time></trkpt><trkpt lat="45.18527932367863" lon="14.842389911439822"><ele>767.0</ele><time>2026-05-01T16:48:18Z</time></trkpt><trkpt lat="45.18534105458067" lon="14.842549645770054"><ele>766.8</ele><time>2026-05-01T16:48:19Z</time></trkpt><trkpt lat="45.18539803064021" lon="14.842690023115148"><ele>766.6</ele><time>2026-05-01T16:48:20Z</time></trkpt><trkpt lat="45.18542535867004" lon="14.842831576514884"><ele>766.4</ele><time>2026-05-01T16:48:21Z</time></trkpt><trkpt lat="45.185434632726164" lon="14.84298345824944"><ele>766.1999999999999</ele><time>2026-05-01T16:48:22Z</time></trkpt><trkpt lat="45.185435038010944" lon="14.843141973311075"><ele>766.0</ele><time>2026-05-01T16:48:23Z</time></trkpt><trkpt lat="45.18541942558249" lon="14.843295985660188"><ele>766.0</ele><time>2026-05-01T16:48:24Z</time></trkpt><trkpt lat="45.18539673974267" lon="14.843461313228834"><ele>766.0</ele><time>2026-05-01T16:48:25Z</time></trkpt><trkpt lat="45.18537085351444" lon="14.843632073881817"><ele>766.0</ele><time>2026-05-01T16:48:26Z</time></trkpt><trkpt lat="45.18534380110475" lon="14.843790365128807"><ele>766.0</ele><time>2026-05-01T16:48:27Z</time></trkpt><trkpt lat="45.18531854255111" lon="14.843935098280806"><ele>765.4</ele><time>2026-05-01T16:48:28Z</time></trkpt><trkpt lat="45.185288397080164" lon="14.84408726400201"><ele>764.8</ele><time>2026-05-01T16:48:29Z</time></trkpt><trkpt lat="45.18525003892096" lon="14.84422418482196"><ele>764.1999999999999</ele><time>2026-05-01T16:48:30Z</time></trkpt><trkpt lat="45.18519579736988" lon="14.844352272795863"><ele>763.5999999999999</ele><time>2026-05-01T16:48:31Z</time></trkpt><trkpt lat="45.185121084456156" lon="14.844475763542277"><ele>763.0</ele><time>2026-05-01T16:48:32Z</time></trkpt><trkpt lat="45.18503306391648" lon="14.844594691618495"><ele>763.0</ele><time>2026-05-01T16:48:33Z</time></trkpt><trkpt lat="45.18494507227532" lon="14.844699604674908"><ele>763.0</ele><time>2026-05-01T16:48:34Z</time></trkpt><trkpt lat="45.184865404174104" lon="14.84479371015328"><ele>763.0</ele><time>2026-05-01T16:48:35Z</time></trkpt><trkpt lat="45.184778254950274" lon="14.844889763741573"><ele>763.0</ele><time>2026-05-01T16:48:36Z</time></trkpt><trkpt lat="45.184682350413254" lon="14.844991727527878"><ele>763.0</ele><time>2026-05-01T16:48:37Z</time></trkpt><trkpt lat="45.184585897196285" lon="14.845081692533409"><ele>760.5</ele><time>2026-05-01T16:48:38Z</time></trkpt><trkpt lat="45.18447650791035" lon="14.845172414316586"><ele>758.0</ele><time>2026-05-01T16:48:39Z</time></trkpt><trkpt lat="45.18436836815359" lon="14.845255234049016"><ele>755.5</ele><time>2026-05-01T16:48:40Z</time></trkpt><trkpt lat="45.18425377423554" lon="14.845347226146236"><ele>753.0</ele><time>2026-05-01T16:48:41Z</time></trkpt><trkpt lat="45.18413787921657" lon="14.845439528052088"><ele>753.0</ele><time>2026-05-01T16:48:42Z</time></trkpt><trkpt lat="45.18401828080261" lon="14.8455229517477"><ele>753.0</ele><time>2026-05-01T16:48:43Z</time></trkpt><trkpt lat="45.18388625739634" lon="14.845606728743144"><ele>753.0</ele><time>2026-05-01T16:48:44Z</time></trkpt><trkpt lat="45.183741807950476" lon="14.845692650737067"><ele>753.0</ele><time>2026-05-01T16:48:45Z</time></trkpt><trkpt lat="45.183592342193066" lon="14.845774223224621"><ele>751.6666666666666</ele><time>2026-05-01T16:48:46Z</time></trkpt><trkpt lat="45.18342526458525" lon="14.845837106142525"><ele>750.3333333333333</ele><time>2026-05-01T16:48:47Z</time></trkpt><trkpt lat="45.183257217702796" lon="14.845922817211495"><ele>749.0</ele><time>2026-05-01T16:48:48Z</time></trkpt><trkpt lat="45.1830979369748" lon="14.846023992665284"><ele>749.0</ele><time>2026-05-01T16:48:49Z</time></trkpt><trkpt lat="45.18293081565507" lon="14.846106453468991"><ele>749.0</ele><time>2026-05-01T16:48:50Z</time></trkpt><trkpt lat="45.18276484582696" lon="14.84619954807984"><ele>749.0</ele><time>2026-05-01T16:48:51Z</time></trkpt><trkpt lat="45.18260254452233" lon="14.846307294303077"><ele>749.0</ele><time>2026-05-01T16:48:52Z</time></trkpt><trkpt lat="45.18244301419286" lon="14.846425638267032"><ele>749.0</ele><time>2026-05-01T16:48:53Z</time></trkpt><trkpt lat="45.18228558054094" lon="14.84655022592543"><ele>749.0</ele><time>2026-05-01T16:48:54Z</time></trkpt><trkpt lat="45.18213082258979" lon="14.846679962167366"><ele>746.0</ele><time>2026-05-01T16:48:55Z</time></trkpt><trkpt lat="45.181981699849736" lon="14.846804739692192"><ele>743.0</ele><time>2026-05-01T16:48:56Z</time></trkpt><trkpt lat="45.18183736297509" lon="14.846945749018582"><ele>740.0</ele><time>2026-05-01T16:48:57Z</time></trkpt><trkpt lat="45.181698658840986" lon="14.84709560304034"><ele>740.0</ele><time>2026-05-01T16:48:58Z</time></trkpt><trkpt lat="45.1815699967327" lon="14.847258934322284"><ele>740.0</ele><time>2026-05-01T16:48:59Z</time></trkpt><trkpt lat="45.181451419446205" lon="14.847430745280498"><ele>740.0</ele><time>2026-05-01T16:49:00Z</time></trkpt><trkpt lat="45.181347878449735" lon="14.847612971720785"><ele>740.6666666666666</ele><time>2026-05-01T16:49:01Z</time></trkpt><trkpt lat="45.1812259720335" lon="14.847779445434687"><ele>741.3333333333334</ele><time>2026-05-01T16:49:02Z</time></trkpt><trkpt lat="45.18114463518626" lon="14.847979617577343"><ele>742.0</ele><time>2026-05-01T16:49:03Z</time></trkpt><trkpt lat="45.18106553562648" lon="14.848163169314548"><ele>742.0</ele><time>2026-05-01T16:49:04Z</time></trkpt><trkpt lat="45.18099140082559" lon="14.848366810843162"><ele>742.0</ele><time>2026-05-01T16:49:05Z</time></trkpt><trkpt lat="45.18092452085976" lon="14.84858145289409"><ele>742.0</ele><time>2026-05-01T16:49:06Z</time></trkpt><trkpt lat="45.18086589633638" lon="14.848806776903718"><ele>738.3333333333334</ele><time>2026-05-01T16:49:07Z</time></trkpt><trkpt lat="45.18081426151938" lon="14.84903066174704"><ele>734.6666666666666</ele><time>2026-05-01T16:49:08Z</time></trkpt><trkpt lat="45.18076674773689" lon="14.849230056913298"><ele>731.0</ele><time>2026-05-01T16:49:09Z</time></trkpt><trkpt lat="45.18071111694448" lon="14.84940856459687"><ele>734.3333333333333</ele><time>2026-05-01T16:49:10Z</time></trkpt><trkpt lat="45.18062337827806" lon="14.849574366825223"><ele>737.6666666666666</ele><time>2026-05-01T16:49:11Z</time></trkpt><trkpt lat="45.180529236580405" lon="14.849779374494734"><ele>741.0</ele><time>2026-05-01T16:49:12Z</time></trkpt><trkpt lat="45.18044264806874" lon="14.850000180809994"><ele>736.6666666666666</ele><time>2026-05-01T16:49:13Z</time></trkpt><trkpt lat="45.18032398873782" lon="14.850203980128844"><ele>732.3333333333333</ele><time>2026-05-01T16:49:14Z</time></trkpt><trkpt lat="45.180211971977066" lon="14.850422495743798"><ele>728.0</ele><time>2026-05-01T16:49:15Z</time></trkpt><trkpt lat="45.180105559867314" lon="14.85065574996258"><ele>728.0</ele><time>2026-05-01T16:49:16Z</time></trkpt><trkpt lat="45.17998530669913" lon="14.850863820600498"><ele>728.0</ele><time>2026-05-01T16:49:17Z</time></trkpt><trkpt lat="45.17987163089458" lon="14.851059900568082"><ele>728.0</ele><time>2026-05-01T16:49:18Z</time></trkpt><trkpt lat="45.179763345144536" lon="14.851244144934356"><ele>726.6666666666666</ele><time>2026-05-01T16:49:19Z</time></trkpt><trkpt lat="45.17965615593391" lon="14.851408774486769"><ele>725.3333333333334</ele><time>2026-05-01T16:49:20Z</time></trkpt><trkpt lat="45.179541218898905" lon="14.851572467024697"><ele>724.0</ele><time>2026-05-01T16:49:21Z</time></trkpt><trkpt lat="45.17941585695172" lon="14.851732495860665"><ele>718.3333333333334</ele><time>2026-05-01T16:49:22Z</time></trkpt><trkpt lat="45.17929295538917" lon="14.851882526998434"><ele>712.6666666666666</ele><time>2026-05-01T16:49:23Z</time></trkpt><trkpt lat="45.17915907406896" lon="14.852016567008373"><ele>707.0</ele><time>2026-05-01T16:49:24Z</time></trkpt><trkpt lat="45.17902736164442" lon="14.852144529284011"><ele>708.75</ele><time>2026-05-01T16:49:25Z</time></trkpt><trkpt lat="45.17889930712426" lon="14.85226498376286"><ele>710.5</ele><time>2026-05-01T16:49:26Z</time></trkpt><trkpt lat="45.17877766908161" lon="14.852369564465388"><ele>712.25</ele><time>2026-05-01T16:49:27Z</time></trkpt><trkpt lat="45.17866327606677" lon="14.852456048173513"><ele>714.0</ele><time>2026-05-01T16:49:28Z</time></trkpt><trkpt lat="45.178555639217215" lon="14.852531979555765"><ele>714.0</ele><time>2026-05-01T16:49:29Z</time></trkpt><trkpt lat="45.178441522214904" lon="14.852612272305358"><ele>714.0</ele><time>2026-05-01T16:49:30Z</time></trkpt><trkpt lat="45.17831193211494" lon="14.85267814406617"><ele>714.0</ele><time>2026-05-01T16:49:31Z</time></trkpt><trkpt lat="45.17817092946077" lon="14.852727583085727"><ele>714.0</ele><time>2026-05-01T16:49:32Z</time></trkpt><trkpt lat="45.178040982237626" lon="14.852774378041264"><ele>708.75</ele><time>2026-05-01T16:49:33Z</time></trkpt><trkpt lat="45.17791486939216" lon="14.852820485456427"><ele>703.5</ele><time>2026-05-01T16:49:34Z</time></trkpt><trkpt lat="45.17778785593321" lon="14.852857974637887"><ele>698.25</ele><time>2026-05-01T16:49:35Z</time></trkpt><trkpt lat="45.17764643098238" lon="14.852878979206793"><ele>693.0</ele><time>2026-05-01T16:49:36Z</time></trkpt><trkpt lat="45.177490332391876" lon="14.85288550128936"><ele>690.3333333333334</ele><time>2026-05-01T16:49:37Z</time></trkpt><trkpt lat="45.177329004027904" lon="14.852889921093347"><ele>687.6666666666667</ele><time>2026-05-01T16:49:38Z</time></trkpt><trkpt lat="45.17717712476157" lon="14.852896778671564"><ele>685.0</ele><time>2026-05-01T16:49:39Z</time></trkpt><trkpt lat="45.177035460269884" lon="14.852904071674086"><ele>685.0</ele><time>2026-05-01T16:49:40Z</time></trkpt><trkpt lat="45.176900313909194" lon="14.852912378614736"><ele>685.0</ele><time>2026-05-01T16:49:40.999Z</time></trkpt><trkpt lat="45.17677297834405" lon="14.852915901370713"><ele>685.0</ele><time>2026-05-01T16:49:41.999Z</time></trkpt><trkpt lat="45.17665624426202" lon="14.85290786619493"><ele>685.0</ele><time>2026-05-01T16:49:42.999Z</time></trkpt><trkpt lat="45.17654697199125" lon="14.852876896447988"><ele>686.25</ele><time>2026-05-01T16:49:43.999Z</time></trkpt><trkpt lat="45.17644592926727" lon="14.85278321945405"><ele>687.5</ele><time>2026-05-01T16:49:44.999Z</time></trkpt><trkpt lat="45.17631499633243" lon="14.85271426118151"><ele>688.75</ele><time>2026-05-01T16:49:45.999Z</time></trkpt><trkpt lat="45.17618237992661" lon="14.852624057044832"><ele>690.0</ele><time>2026-05-01T16:49:46.999Z</time></trkpt><trkpt lat="45.176060015731856" lon="14.852543327809428"><ele>690.0</ele><time>2026-05-01T16:49:47.999Z</time></trkpt><trkpt lat="45.17595070466957" lon="14.852458221029847"><ele>690.0</ele><time>2026-05-01T16:49:48.999Z</time></trkpt><trkpt lat="45.17585391319768" lon="14.8523662121076"><ele>690.0</ele><time>2026-05-01T16:49:49.999Z</time></trkpt><trkpt lat="45.175769530456314" lon="14.852237314758012"><ele>690.0</ele><time>2026-05-01T16:49:50.999Z</time></trkpt><trkpt lat="45.17567416884243" lon="14.852098183521282"><ele>686.0</ele><time>2026-05-01T16:49:51.999Z</time></trkpt><trkpt lat="45.1755721249612" lon="14.851953633776134"><ele>682.0</ele><time>2026-05-01T16:49:52.999Z</time></trkpt><trkpt lat="45.17548899175759" lon="14.85180703068324"><ele>678.0</ele><time>2026-05-01T16:49:53.999Z</time></trkpt><trkpt lat="45.175418778205675" lon="14.85165821999572"><ele>674.0</ele><time>2026-05-01T16:49:54.999Z</time></trkpt><trkpt lat="45.17535186257605" lon="14.85150183929271"><ele>674.0</ele><time>2026-05-01T16:49:55.999Z</time></trkpt><trkpt lat="45.175284455707036" lon="14.85131650459492"><ele>674.0</ele><time>2026-05-01T16:49:56.999Z</time></trkpt><trkpt lat="45.175222302584665" lon="14.851137730541883"><ele>674.0</ele><time>2026-05-01T16:49:57.999Z</time></trkpt><trkpt lat="45.17516703924986" lon="14.85096936518766"><ele>674.0</ele><time>2026-05-01T16:49:58.999Z</time></trkpt><trkpt lat="45.17511501485457" lon="14.850792464052795"><ele>676.25</ele><time>2026-05-01T16:49:59.999Z</time></trkpt><trkpt lat="45.175066060762255" lon="14.850609857431083"><ele>678.5</ele><time>2026-05-01T16:50:00.999Z</time></trkpt><trkpt lat="45.17502081352618" lon="14.85042717899416"><ele>680.75</ele><time>2026-05-01T16:50:01.999Z</time></trkpt><trkpt lat="45.17497948453635" lon="14.850254423845314"><ele>683.0</ele><time>2026-05-01T16:50:02.999Z</time></trkpt><trkpt lat="45.174940502736824" lon="14.85009287414636"><ele>683.4</ele><time>2026-05-01T16:50:03.999Z</time></trkpt><trkpt lat="45.174894991203274" lon="14.849957848599068"><ele>683.8</ele><time>2026-05-01T16:50:04.999Z</time></trkpt><trkpt lat="45.17482575817447" lon="14.849843733718503"><ele>684.2</ele><time>2026-05-01T16:50:05.999Z</time></trkpt><trkpt lat="45.17473275120346" lon="14.849751360543188"><ele>684.6</ele><time>2026-05-01T16:50:06.999Z</time></trkpt><trkpt lat="45.17462656011652" lon="14.84969361316785"><ele>685.0</ele><time>2026-05-01T16:50:07.999Z</time></trkpt><trkpt lat="45.17451107959626" lon="14.849673700525221"><ele>682.75</ele><time>2026-05-01T16:50:08.999Z</time></trkpt><trkpt lat="45.17439236256538" lon="14.849701748471212"><ele>680.5</ele><time>2026-05-01T16:50:10Z</time></trkpt><trkpt lat="45.17427415874213" lon="14.849756517502804"><ele>678.25</ele><time>2026-05-01T16:50:11Z</time></trkpt><trkpt lat="45.17416527498794" lon="14.84985771492045"><ele>676.0</ele><time>2026-05-01T16:50:12Z</time></trkpt><trkpt lat="45.17406093244638" lon="14.84998195414302"><ele>678.0</ele><time>2026-05-01T16:50:13Z</time></trkpt><trkpt lat="45.17395085729051" lon="14.850105252356373"><ele>680.0</ele><time>2026-05-01T16:50:14Z</time></trkpt><trkpt lat="45.17383168423764" lon="14.850225012227732"><ele>682.0</ele><time>2026-05-01T16:50:15Z</time></trkpt><trkpt lat="45.17370752943439" lon="14.850345170905946"><ele>684.0</ele><time>2026-05-01T16:50:16Z</time></trkpt><trkpt lat="45.17358273011948" lon="14.850463655757844"><ele>681.5</ele><time>2026-05-01T16:50:17Z</time></trkpt><trkpt lat="45.173464412984124" lon="14.85057008752205"><ele>679.0</ele><time>2026-05-01T16:50:18Z</time></trkpt><trkpt lat="45.17334071858012" lon="14.850672963000946"><ele>676.5</ele><time>2026-05-01T16:50:19Z</time></trkpt><trkpt lat="45.17321423184163" lon="14.85077241946746"><ele>674.0</ele><time>2026-05-01T16:50:20Z</time></trkpt><trkpt lat="45.17308272212605" lon="14.850853889242403"><ele>674.0</ele><time>2026-05-01T16:50:21Z</time></trkpt><trkpt lat="45.17293719869166" lon="14.85090158134319"><ele>674.0</ele><time>2026-05-01T16:50:22Z</time></trkpt><trkpt lat="45.172789577063305" lon="14.850984187232736"><ele>674.0</ele><time>2026-05-01T16:50:23Z</time></trkpt><trkpt lat="45.17263878071693" lon="14.851040987065835"><ele>670.75</ele><time>2026-05-01T16:50:24Z</time></trkpt><trkpt lat="45.17249357573706" lon="14.851122194258517"><ele>667.5</ele><time>2026-05-01T16:50:25Z</time></trkpt><trkpt lat="45.172360506773366" lon="14.85122168189265"><ele>664.25</ele><time>2026-05-01T16:50:26Z</time></trkpt><trkpt lat="45.1722443046589" lon="14.851326760454906"><ele>661.0</ele><time>2026-05-01T16:50:27Z</time></trkpt><trkpt lat="45.17213639321095" lon="14.851415743041493"><ele>661.0</ele><time>2026-05-01T16:50:28Z</time></trkpt><trkpt lat="45.17202933511652" lon="14.851481488246723"><ele>661.0</ele><time>2026-05-01T16:50:29Z</time></trkpt><trkpt lat="45.171905379904636" lon="14.851490347612234"><ele>661.0</ele><time>2026-05-01T16:50:30Z</time></trkpt><trkpt lat="45.17176173193986" lon="14.85152906335763"><ele>661.0</ele><time>2026-05-01T16:50:31Z</time></trkpt><trkpt lat="45.17160337674078" lon="14.851526443988327"><ele>660.5</ele><time>2026-05-01T16:50:32Z</time></trkpt><trkpt lat="45.17146044804206" lon="14.85151700914612"><ele>660.0</ele><time>2026-05-01T16:50:33Z</time></trkpt><trkpt lat="45.17133490979774" lon="14.851501773621777"><ele>659.5</ele><time>2026-05-01T16:50:34Z</time></trkpt><trkpt lat="45.17122173249736" lon="14.851502737198489"><ele>659.0</ele><time>2026-05-01T16:50:35Z</time></trkpt><trkpt lat="45.17111570444226" lon="14.851520450692563"><ele>659.0</ele><time>2026-05-01T16:50:36Z</time></trkpt><trkpt lat="45.171012869200304" lon="14.851557757820263"><ele>659.0</ele><time>2026-05-01T16:50:37Z</time></trkpt><trkpt lat="45.170914196975765" lon="14.851626693965732"><ele>659.0</ele><time>2026-05-01T16:50:38Z</time></trkpt><trkpt lat="45.17081874796096" lon="14.85172191465403"><ele>659.0</ele><time>2026-05-01T16:50:39Z</time></trkpt><trkpt lat="45.17072878584477" lon="14.851855767787015"><ele>657.75</ele><time>2026-05-01T16:50:40Z</time></trkpt><trkpt lat="45.170633681663446" lon="14.852011707148487"><ele>656.5</ele><time>2026-05-01T16:50:41Z</time></trkpt><trkpt lat="45.17053389214298" lon="14.852165450590642"><ele>655.25</ele><time>2026-05-01T16:50:42Z</time></trkpt><trkpt lat="45.17043320533343" lon="14.852315636047035"><ele>654.0</ele><time>2026-05-01T16:50:43Z</time></trkpt><trkpt lat="45.17033086220386" lon="14.852471309233893"><ele>655.3333333333334</ele><time>2026-05-01T16:50:44Z</time></trkpt><trkpt lat="45.17022331874382" lon="14.85262500761066"><ele>656.6666666666667</ele><time>2026-05-01T16:50:45Z</time></trkpt><trkpt lat="45.17013033042405" lon="14.852798912405188"><ele>658.0</ele><time>2026-05-01T16:50:46Z</time></trkpt><trkpt lat="45.17003868312229" lon="14.852977019182521"><ele>658.0</ele><time>2026-05-01T16:50:47Z</time></trkpt><trkpt lat="45.169958280400614" lon="14.853136404558335"><ele>658.0</ele><time>2026-05-01T16:50:48Z</time></trkpt><trkpt lat="45.16986273829332" lon="14.853247503045566"><ele>658.0</ele><time>2026-05-01T16:50:49Z</time></trkpt><trkpt lat="45.16978252852066" lon="14.853359141091836"><ele>658.0</ele><time>2026-05-01T16:50:50Z</time></trkpt><trkpt lat="45.16967002288033" lon="14.853382899316863"><ele>658.0</ele><time>2026-05-01T16:50:51Z</time></trkpt><trkpt lat="45.16955812603946" lon="14.853412363444406"><ele>658.0</ele><time>2026-05-01T16:50:52Z</time></trkpt><trkpt lat="45.1694386980508" lon="14.853437233237274"><ele>658.0</ele><time>2026-05-01T16:50:53Z</time></trkpt><trkpt lat="45.169321269501765" lon="14.85349138804941"><ele>658.0</ele><time>2026-05-01T16:50:54Z</time></trkpt><trkpt lat="45.169196813934384" lon="14.853565216059016"><ele>658.0</ele><time>2026-05-01T16:50:55Z</time></trkpt><trkpt lat="45.16908274442166" lon="14.853665519989196"><ele>658.0</ele><time>2026-05-01T16:50:56Z</time></trkpt><trkpt lat="45.16897901954986" lon="14.853779212431823"><ele>658.0</ele><time>2026-05-01T16:50:57Z</time></trkpt><trkpt lat="45.16889270455787" lon="14.853900874719622"><ele>658.0</ele><time>2026-05-01T16:50:58Z</time></trkpt><trkpt lat="45.16882730777881" lon="14.85403648076566"><ele>654.75</ele><time>2026-05-01T16:50:59Z</time></trkpt><trkpt lat="45.16878198466309" lon="14.85416893302266"><ele>651.5</ele><time>2026-05-01T16:51:00Z</time></trkpt><trkpt lat="45.168773353186424" lon="14.854327499333364"><ele>648.25</ele><time>2026-05-01T16:51:01Z</time></trkpt><trkpt lat="45.16878046301183" lon="14.854507483686856"><ele>645.0</ele><time>2026-05-01T16:51:02Z</time></trkpt><trkpt lat="45.16875798386581" lon="14.854669939005436"><ele>645.0</ele><time>2026-05-01T16:51:03Z</time></trkpt><trkpt lat="45.1687352012764" lon="14.854809756017922"><ele>645.0</ele><time>2026-05-01T16:51:04Z</time></trkpt><trkpt lat="45.16869210132017" lon="14.854934781946927"><ele>645.0</ele><time>2026-05-01T16:51:05Z</time></trkpt><trkpt lat="45.168576022866766" lon="14.855020108824519"><ele>645.0</ele><time>2026-05-01T16:51:06Z</time></trkpt><trkpt lat="45.168467079326334" lon="14.855139706735752"><ele>645.0</ele><time>2026-05-01T16:51:07Z</time></trkpt><trkpt lat="45.168365000437234" lon="14.855291873244548"><ele>645.0</ele><time>2026-05-01T16:51:08Z</time></trkpt><trkpt lat="45.16825881509594" lon="14.855432606040559"><ele>645.0</ele><time>2026-05-01T16:51:09Z</time></trkpt><trkpt lat="45.16815338231033" lon="14.855597826388612"><ele>643.6666666666666</ele><time>2026-05-01T16:51:10Z</time></trkpt><trkpt lat="45.16803556270157" lon="14.855770820440275"><ele>642.3333333333333</ele><time>2026-05-01T16:51:11Z</time></trkpt><trkpt lat="45.16795375421159" lon="14.855955393757128"><ele>641.0</ele><time>2026-05-01T16:51:12Z</time></trkpt><trkpt lat="45.167847602086844" lon="14.856096016378205"><ele>640.5</ele><time>2026-05-01T16:51:13Z</time></trkpt><trkpt lat="45.16775535567697" lon="14.856241622664637"><ele>640.0</ele><time>2026-05-01T16:51:14Z</time></trkpt><trkpt lat="45.16765061486347" lon="14.856377453947202"><ele>639.5</ele><time>2026-05-01T16:51:15Z</time></trkpt><trkpt lat="45.167525781745454" lon="14.856495900401734"><ele>639.0</ele><time>2026-05-01T16:51:16Z</time></trkpt><trkpt lat="45.1673931682819" lon="14.856627014669177"><ele>639.0</ele><time>2026-05-01T16:51:17Z</time></trkpt><trkpt lat="45.1672533616047" lon="14.856741651519174"><ele>639.0</ele><time>2026-05-01T16:51:18Z</time></trkpt><trkpt lat="45.16712550197444" lon="14.856847004618079"><ele>639.0</ele><time>2026-05-01T16:51:19Z</time></trkpt><trkpt lat="45.16700373500263" lon="14.856941691351782"><ele>639.0</ele><time>2026-05-01T16:51:20Z</time></trkpt><trkpt lat="45.16688204021898" lon="14.857019661891265"><ele>638.0</ele><time>2026-05-01T16:51:21Z</time></trkpt><trkpt lat="45.1667455296765" lon="14.857058524115866"><ele>637.0</ele><time>2026-05-01T16:51:22Z</time></trkpt><trkpt lat="45.16662528811276" lon="14.85710628929371"><ele>636.0</ele><time>2026-05-01T16:51:23Z</time></trkpt><trkpt lat="45.166529537480145" lon="14.857185991308452"><ele>635.0</ele><time>2026-05-01T16:51:24Z</time></trkpt><trkpt lat="45.16645015691869" lon="14.857264226687054"><ele>634.5</ele><time>2026-05-01T16:51:25Z</time></trkpt><trkpt lat="45.166383574334525" lon="14.857379536860849"><ele>634.0</ele><time>2026-05-01T16:51:26Z</time></trkpt><trkpt lat="45.16632452121834" lon="14.857534927731697"><ele>633.5</ele><time>2026-05-01T16:51:27Z</time></trkpt><trkpt lat="45.16623964626395" lon="14.857688062689178"><ele>633.0</ele><time>2026-05-01T16:51:28Z</time></trkpt><trkpt lat="45.166159424657906" lon="14.857867472987058"><ele>632.25</ele><time>2026-05-01T16:51:29Z</time></trkpt><trkpt lat="45.16609079947989" lon="14.85804924900143"><ele>631.5</ele><time>2026-05-01T16:51:30Z</time></trkpt><trkpt lat="45.16601731390536" lon="14.858199138291264"><ele>630.75</ele><time>2026-05-01T16:51:31Z</time></trkpt><trkpt lat="45.16595087454137" lon="14.858329024565307"><ele>630.0</ele><time>2026-05-01T16:51:32Z</time></trkpt><trkpt lat="45.165878358633435" lon="14.858448158092772"><ele>630.0</ele><time>2026-05-01T16:51:32.999Z</time></trkpt><trkpt lat="45.16580404707903" lon="14.858566758960906"><ele>630.0</ele><time>2026-05-01T16:51:33.999Z</time></trkpt><trkpt lat="45.165737908069104" lon="14.858647170049677"><ele>630.0</ele><time>2026-05-01T16:51:34.999Z</time></trkpt><trkpt lat="45.16567596364592" lon="14.858678427864168"><ele>630.0</ele><time>2026-05-01T16:51:35.999Z</time></trkpt><trkpt lat="45.165614558052404" lon="14.858706022150539"><ele>630.0</ele><time>2026-05-01T16:51:36.999Z</time></trkpt><trkpt lat="45.165540912848705" lon="14.858730303893685"><ele>630.0</ele><time>2026-05-01T16:51:38.999Z</time></trkpt><trkpt lat="45.165448202596195" lon="14.858633391822877"><ele>630.0</ele><time>2026-05-01T16:51:40.999Z</time></trkpt><trkpt lat="45.16540234801389" lon="14.858552104847002"><ele>630.0</ele><time>2026-05-01T16:51:41.999Z</time></trkpt><trkpt lat="45.16535108672293" lon="14.858460212467445"><ele>630.0</ele><time>2026-05-01T16:51:42.999Z</time></trkpt><trkpt lat="45.16528806214821" lon="14.85836379067944"><ele>630.0</ele><time>2026-05-01T16:51:43.999Z</time></trkpt><trkpt lat="45.16521199805875" lon="14.858266347602944"><ele>630.0</ele><time>2026-05-01T16:51:44.999Z</time></trkpt><trkpt lat="45.16513136296663" lon="14.858182419491843"><ele>629.4</ele><time>2026-05-01T16:51:45.999Z</time></trkpt><trkpt lat="45.165044839558334" lon="14.858102694462321"><ele>628.8</ele><time>2026-05-01T16:51:46.999Z</time></trkpt><trkpt lat="45.164946237201" lon="14.858039683512978"><ele>628.2</ele><time>2026-05-01T16:51:47.999Z</time></trkpt><trkpt lat="45.16483511730136" lon="14.857992887225656"><ele>627.6</ele><time>2026-05-01T16:51:48.999Z</time></trkpt><trkpt lat="45.16472491500181" lon="14.857942957483749"><ele>627.0</ele><time>2026-05-01T16:51:49.999Z</time></trkpt><trkpt lat="45.164600096567106" lon="14.857943074031377"><ele>626.5</ele><time>2026-05-01T16:51:50.999Z</time></trkpt><trkpt lat="45.16446591592331" lon="14.85791778879215"><ele>626.0</ele><time>2026-05-01T16:51:51.999Z</time></trkpt><trkpt lat="45.16434155070268" lon="14.857884233897947"><ele>625.5</ele><time>2026-05-01T16:51:52.999Z</time></trkpt><trkpt lat="45.16423706351509" lon="14.857822190829996"><ele>625.0</ele><time>2026-05-01T16:51:53.999Z</time></trkpt><trkpt lat="45.16414133531632" lon="14.85774400838648"><ele>624.2</ele><time>2026-05-01T16:51:54.999Z</time></trkpt><trkpt lat="45.16407591219997" lon="14.8576011124892"><ele>623.4</ele><time>2026-05-01T16:51:55.999Z</time></trkpt><trkpt lat="45.16401381168127" lon="14.857474587909271"><ele>622.6</ele><time>2026-05-01T16:51:56.999Z</time></trkpt><trkpt lat="45.16397581168216" lon="14.85734538343806"><ele>621.8</ele><time>2026-05-01T16:51:57.999Z</time></trkpt><trkpt lat="45.163983533654225" lon="14.857217819779475"><ele>621.0</ele><time>2026-05-01T16:51:58.999Z</time></trkpt><trkpt lat="45.164012751660294" lon="14.857070299970426"><ele>621.0</ele><time>2026-05-01T16:51:59.999Z</time></trkpt><trkpt lat="45.16404441406109" lon="14.85688872057302"><ele>621.0</ele><time>2026-05-01T16:52:00.999Z</time></trkpt><trkpt lat="45.164067797664245" lon="14.856707042034875"><ele>621.0</ele><time>2026-05-01T16:52:01.999Z</time></trkpt><trkpt lat="45.16407668599749" lon="14.856516341940548"><ele>621.0</ele><time>2026-05-01T16:52:02.999Z</time></trkpt><trkpt lat="45.16406904244775" lon="14.856311994831938"><ele>621.0</ele><time>2026-05-01T16:52:03.999Z</time></trkpt><trkpt lat="45.164049115712736" lon="14.856109890098974"><ele>621.0</ele><time>2026-05-01T16:52:04.999Z</time></trkpt><trkpt lat="45.16398928221796" lon="14.855903942791548"><ele>621.0</ele><time>2026-05-01T16:52:05.999Z</time></trkpt><trkpt lat="45.16393186436683" lon="14.8556910635175"><ele>621.0</ele><time>2026-05-01T16:52:06.999Z</time></trkpt><trkpt lat="45.16386202552174" lon="14.85547514299758"><ele>621.0</ele><time>2026-05-01T16:52:07.999Z</time></trkpt><trkpt lat="45.16378728678975" lon="14.855261219068687"><ele>621.0</ele><time>2026-05-01T16:52:08.999Z</time></trkpt><trkpt lat="45.16373347797542" lon="14.855035174997067"><ele>618.6666666666666</ele><time>2026-05-01T16:52:09.999Z</time></trkpt><trkpt lat="45.16367363198522" lon="14.854820722402179"><ele>616.3333333333333</ele><time>2026-05-01T16:52:10.999Z</time></trkpt><trkpt lat="45.16358818376366" lon="14.854619342947137"><ele>614.0</ele><time>2026-05-01T16:52:11.999Z</time></trkpt><trkpt lat="45.16349317684519" lon="14.854420739556415"><ele>613.3333333333333</ele><time>2026-05-01T16:52:12.999Z</time></trkpt><trkpt lat="45.163378765038885" lon="14.854232302302284"><ele>612.6666666666666</ele><time>2026-05-01T16:52:13.999Z</time></trkpt><trkpt lat="45.163297799591575" lon="14.854035020792958"><ele>612.0</ele><time>2026-05-01T16:52:14.999Z</time></trkpt><trkpt lat="45.16320190820788" lon="14.853889224967059"><ele>609.0</ele><time>2026-05-01T16:52:16Z</time></trkpt><trkpt lat="45.16310928646134" lon="14.853754827189544"><ele>606.0</ele><time>2026-05-01T16:52:17Z</time></trkpt><trkpt lat="45.16299749190023" lon="14.853674221752659"><ele>603.0</ele><time>2026-05-01T16:52:18Z</time></trkpt><trkpt lat="45.16285878030523" lon="14.853629792064073"><ele>600.0</ele><time>2026-05-01T16:52:19Z</time></trkpt><trkpt lat="45.16268496830248" lon="14.853607572235093"><ele>600.0</ele><time>2026-05-01T16:52:20Z</time></trkpt><trkpt lat="45.16251404090399" lon="14.853595366445902"><ele>600.0</ele><time>2026-05-01T16:52:21Z</time></trkpt><trkpt lat="45.16235987439759" lon="14.853577483213744"><ele>600.0</ele><time>2026-05-01T16:52:22Z</time></trkpt><trkpt lat="45.16219891191631" lon="14.853517604083335"><ele>598.3333333333334</ele><time>2026-05-01T16:52:23Z</time></trkpt><trkpt lat="45.1620364174689" lon="14.853425655198137"><ele>596.6666666666667</ele><time>2026-05-01T16:52:24Z</time></trkpt><trkpt lat="45.161888695245075" lon="14.853338817572965"><ele>595.0</ele><time>2026-05-01T16:52:25Z</time></trkpt><trkpt lat="45.16174199975064" lon="14.853283477791416"><ele>595.0</ele><time>2026-05-01T16:52:26Z</time></trkpt><trkpt lat="45.16159992208618" lon="14.853259553004207"><ele>595.0</ele><time>2026-05-01T16:52:27Z</time></trkpt><trkpt lat="45.161476014688645" lon="14.853174464564214"><ele>595.0</ele><time>2026-05-01T16:52:28Z</time></trkpt><trkpt lat="45.16135094078356" lon="14.853048784877204"><ele>595.0</ele><time>2026-05-01T16:52:29Z</time></trkpt><trkpt lat="45.161209762030374" lon="14.852941697599363"><ele>590.0</ele><time>2026-05-01T16:52:30Z</time></trkpt><trkpt lat="45.16104930670445" lon="14.852853536656495"><ele>585.0</ele><time>2026-05-01T16:52:31Z</time></trkpt><trkpt lat="45.160886251723305" lon="14.852767827711316"><ele>580.0</ele><time>2026-05-01T16:52:32Z</time></trkpt><trkpt lat="45.16074214279507" lon="14.852659930943123"><ele>578.6666666666667</ele><time>2026-05-01T16:52:33Z</time></trkpt><trkpt lat="45.160603062582766" lon="14.852562621895974"><ele>577.3333333333334</ele><time>2026-05-01T16:52:34Z</time></trkpt><trkpt lat="45.160444477978906" lon="14.852505519527382"><ele>576.0</ele><time>2026-05-01T16:52:35Z</time></trkpt><trkpt lat="45.160263432905275" lon="14.852462156066114"><ele>576.0</ele><time>2026-05-01T16:52:36Z</time></trkpt><trkpt lat="45.16007364261713" lon="14.852415404696067"><ele>576.0</ele><time>2026-05-01T16:52:37Z</time></trkpt><trkpt lat="45.159902631795724" lon="14.852350192297129"><ele>576.0</ele><time>2026-05-01T16:52:38Z</time></trkpt><trkpt lat="45.159727446261954" lon="14.852277026833274"><ele>569.6666666666666</ele><time>2026-05-01T16:52:39Z</time></trkpt><trkpt lat="45.15953799421267" lon="14.85218481571353"><ele>563.3333333333333</ele><time>2026-05-01T16:52:40Z</time></trkpt><trkpt lat="45.159340169366416" lon="14.852085259332963"><ele>557.0</ele><time>2026-05-01T16:52:41Z</time></trkpt><trkpt lat="45.15913360561852" lon="14.852002933839112"><ele>558.6666666666666</ele><time>2026-05-01T16:52:42Z</time></trkpt><trkpt lat="45.15894888757073" lon="14.851904421824301"><ele>560.3333333333334</ele><time>2026-05-01T16:52:43Z</time></trkpt><trkpt lat="45.15877407344909" lon="14.851793007687979"><ele>562.0</ele><time>2026-05-01T16:52:44Z</time></trkpt><trkpt lat="45.158606739649855" lon="14.851706981736783"><ele>562.0</ele><time>2026-05-01T16:52:45Z</time></trkpt><trkpt lat="45.15844133294657" lon="14.851624621768156"><ele>562.0</ele><time>2026-05-01T16:52:46Z</time></trkpt><trkpt lat="45.15829162203637" lon="14.851540988878577"><ele>562.0</ele><time>2026-05-01T16:52:47Z</time></trkpt><trkpt lat="45.15815889944874" lon="14.851450106108777"><ele>559.75</ele><time>2026-05-01T16:52:48Z</time></trkpt><trkpt lat="45.15803866144104" lon="14.851341033789907"><ele>557.5</ele><time>2026-05-01T16:52:49Z</time></trkpt><trkpt lat="45.15792838936287" lon="14.85119827587219"><ele>555.25</ele><time>2026-05-01T16:52:50Z</time></trkpt><trkpt lat="45.15782240952889" lon="14.85103912685608"><ele>553.0</ele><time>2026-05-01T16:52:51Z</time></trkpt><trkpt lat="45.15773405753873" lon="14.850881773491507"><ele>553.0</ele><time>2026-05-01T16:52:52Z</time></trkpt><trkpt lat="45.157662554262096" lon="14.850717905743862"><ele>553.0</ele><time>2026-05-01T16:52:53Z</time></trkpt><trkpt lat="45.15760257618886" lon="14.850542265214523"><ele>553.0</ele><time>2026-05-01T16:52:54Z</time></trkpt><trkpt lat="45.15758184791858" lon="14.850363186252808"><ele>553.0</ele><time>2026-05-01T16:52:55Z</time></trkpt><trkpt lat="45.157545329086" lon="14.850198412915988"><ele>552.4</ele><time>2026-05-01T16:52:56Z</time></trkpt><trkpt lat="45.15752691374081" lon="14.850059488525902"><ele>551.8</ele><time>2026-05-01T16:52:57Z</time></trkpt><trkpt lat="45.15748331626942" lon="14.849965987936008"><ele>551.2</ele><time>2026-05-01T16:52:58Z</time></trkpt><trkpt lat="45.157405751112044" lon="14.849903577812613"><ele>550.6</ele><time>2026-05-01T16:52:59Z</time></trkpt><trkpt lat="45.1572997801296" lon="14.849866970221077"><ele>550.0</ele><time>2026-05-01T16:53:00Z</time></trkpt><trkpt lat="45.157178109471076" lon="14.849862066130745"><ele>550.0</ele><time>2026-05-01T16:53:01Z</time></trkpt><trkpt lat="45.157044448925134" lon="14.849866133243149"><ele>550.0</ele><time>2026-05-01T16:53:02Z</time></trkpt><trkpt lat="45.156900050526275" lon="14.849857766477378"><ele>550.0</ele><time>2026-05-01T16:53:03Z</time></trkpt><trkpt lat="45.15675336388351" lon="14.849804233574512"><ele>550.0</ele><time>2026-05-01T16:53:04Z</time></trkpt><trkpt lat="45.15659975613183" lon="14.849756407528268"><ele>545.6666666666667</ele><time>2026-05-01T16:53:05Z</time></trkpt><trkpt lat="45.15643379518273" lon="14.849729987858268"><ele>541.3333333333334</ele><time>2026-05-01T16:53:06Z</time></trkpt><trkpt lat="45.156267511749405" lon="14.849676065392035"><ele>537.0</ele><time>2026-05-01T16:53:07Z</time></trkpt><trkpt lat="45.15609189944203" lon="14.849625260928903"><ele>537.0</ele><time>2026-05-01T16:53:08Z</time></trkpt><trkpt lat="45.15591733814935" lon="14.84958040370844"><ele>537.0</ele><time>2026-05-01T16:53:09Z</time></trkpt><trkpt lat="45.15575132244107" lon="14.849540241466565"><ele>537.0</ele><time>2026-05-01T16:53:10Z</time></trkpt><trkpt lat="45.155590733666756" lon="14.849506338260605"><ele>533.3333333333334</ele><time>2026-05-01T16:53:11Z</time></trkpt><trkpt lat="45.15543833759285" lon="14.849467927277255"><ele>529.6666666666667</ele><time>2026-05-01T16:53:12Z</time></trkpt><trkpt lat="45.15528217100227" lon="14.849426955524324"><ele>526.0</ele><time>2026-05-01T16:53:13Z</time></trkpt><trkpt lat="45.15511831021767" lon="14.849391115890992"><ele>526.0</ele><time>2026-05-01T16:53:14Z</time></trkpt><trkpt lat="45.15495024772081" lon="14.849350478727903"><ele>526.0</ele><time>2026-05-01T16:53:15Z</time></trkpt><trkpt lat="45.15477796120703" lon="14.849305196738584"><ele>526.0</ele><time>2026-05-01T16:53:16Z</time></trkpt><trkpt lat="45.1545966140752" lon="14.849258714598067"><ele>528.6666666666667</ele><time>2026-05-01T16:53:17Z</time></trkpt><trkpt lat="45.15441560587656" lon="14.849212984934558"><ele>531.3333333333334</ele><time>2026-05-01T16:53:18Z</time></trkpt><trkpt lat="45.15424278088792" lon="14.849158758903396"><ele>534.0</ele><time>2026-05-01T16:53:19Z</time></trkpt><trkpt lat="45.15407691767181" lon="14.84906974297344"><ele>529.0</ele><time>2026-05-01T16:53:20Z</time></trkpt><trkpt lat="45.15390749155834" lon="14.848992190897421"><ele>524.0</ele><time>2026-05-01T16:53:21Z</time></trkpt><trkpt lat="45.15373953166519" lon="14.848922294733715"><ele>519.0</ele><time>2026-05-01T16:53:22Z</time></trkpt><trkpt lat="45.15359042717713" lon="14.848816411296449"><ele>519.0</ele><time>2026-05-01T16:53:23Z</time></trkpt><trkpt lat="45.1534456880547" lon="14.848690979534217"><ele>519.0</ele><time>2026-05-01T16:53:24Z</time></trkpt><trkpt lat="45.1533057725415" lon="14.848550065565592"><ele>519.0</ele><time>2026-05-01T16:53:25Z</time></trkpt><trkpt lat="45.15316746595805" lon="14.848391520869601"><ele>517.3333333333334</ele><time>2026-05-01T16:53:26Z</time></trkpt><trkpt lat="45.15304013036835" lon="14.84822906011166"><ele>515.6666666666667</ele><time>2026-05-01T16:53:27Z</time></trkpt><trkpt lat="45.15292429671571" lon="14.848068134267688"><ele>514.0</ele><time>2026-05-01T16:53:28Z</time></trkpt><trkpt lat="45.1528182573081" lon="14.84790694238128"><ele>514.0</ele><time>2026-05-01T16:53:29Z</time></trkpt><trkpt lat="45.15272512306915" lon="14.847741807823684"><ele>514.0</ele><time>2026-05-01T16:53:30Z</time></trkpt><trkpt lat="45.15264313895997" lon="14.847573355203728"><ele>514.0</ele><time>2026-05-01T16:53:30.999Z</time></trkpt><trkpt lat="45.152565976049644" lon="14.847389108028608"><ele>514.0</ele><time>2026-05-01T16:53:31.999Z</time></trkpt><trkpt lat="45.152484527036414" lon="14.847203125937986"><ele>515.5</ele><time>2026-05-01T16:53:32.999Z</time></trkpt><trkpt lat="45.152406748972965" lon="14.847023959090786"><ele>517.0</ele><time>2026-05-01T16:53:33.999Z</time></trkpt><trkpt lat="45.15233149479591" lon="14.846847805018307"><ele>518.5</ele><time>2026-05-01T16:53:34.999Z</time></trkpt><trkpt lat="45.15227985840887" lon="14.84665868051794"><ele>520.0</ele><time>2026-05-01T16:53:35.999Z</time></trkpt><trkpt lat="45.15220029405603" lon="14.846476271167761"><ele>518.5</ele><time>2026-05-01T16:53:36.999Z</time></trkpt><trkpt lat="45.15213053878639" lon="14.846281823263658"><ele>517.0</ele><time>2026-05-01T16:53:37.999Z</time></trkpt><trkpt lat="45.15206769823478" lon="14.846097313661327"><ele>515.5</ele><time>2026-05-01T16:53:38.999Z</time></trkpt><trkpt lat="45.152002462448074" lon="14.845933416442087"><ele>514.0</ele><time>2026-05-01T16:53:39.999Z</time></trkpt><trkpt lat="45.151944909157336" lon="14.845794165938445"><ele>514.0</ele><time>2026-05-01T16:53:40.999Z</time></trkpt><trkpt lat="45.151890882023885" lon="14.845679192755957"><ele>514.0</ele><time>2026-05-01T16:53:41.999Z</time></trkpt><trkpt lat="45.15181773388601" lon="14.845598266347915"><ele>514.0</ele><time>2026-05-01T16:53:42.999Z</time></trkpt><trkpt lat="45.15173261490403" lon="14.845553975594253"><ele>514.0</ele><time>2026-05-01T16:53:43.999Z</time></trkpt><trkpt lat="45.15163593773167" lon="14.845565875784224"><ele>514.0</ele><time>2026-05-01T16:53:44.999Z</time></trkpt><trkpt lat="45.15154372686447" lon="14.845621327116776"><ele>515.5</ele><time>2026-05-01T16:53:45.999Z</time></trkpt><trkpt lat="45.15144711098289" lon="14.84571240270658"><ele>517.0</ele><time>2026-05-01T16:53:46.999Z</time></trkpt><trkpt lat="45.151345253617734" lon="14.845816753547487"><ele>518.5</ele><time>2026-05-01T16:53:47.999Z</time></trkpt><trkpt lat="45.151232913312604" lon="14.8459273236405"><ele>520.0</ele><time>2026-05-01T16:53:48.999Z</time></trkpt><trkpt lat="45.151117788770755" lon="14.846031908195187"><ele>519.5</ele><time>2026-05-01T16:53:49.999Z</time></trkpt><trkpt lat="45.15100120791759" lon="14.846139632612106"><ele>519.0</ele><time>2026-05-01T16:53:50.999Z</time></trkpt><trkpt lat="45.15087823512424" lon="14.846250863440446"><ele>518.5</ele><time>2026-05-01T16:53:51.999Z</time></trkpt><trkpt lat="45.15075606939294" lon="14.846366294235162"><ele>518.0</ele><time>2026-05-01T16:53:52.999Z</time></trkpt><trkpt lat="45.150630409798495" lon="14.846492006163531"><ele>518.0</ele><time>2026-05-01T16:53:53.999Z</time></trkpt><trkpt lat="45.15051016153376" lon="14.846642452341845"><ele>518.0</ele><time>2026-05-01T16:53:54.999Z</time></trkpt><trkpt lat="45.15038991745605" lon="14.846821318110186"><ele>518.0</ele><time>2026-05-01T16:53:55.999Z</time></trkpt><trkpt lat="45.15027429086097" lon="14.847025920780172"><ele>513.3333333333333</ele><time>2026-05-01T16:53:56.999Z</time></trkpt><trkpt lat="45.15015940210573" lon="14.847226302674029"><ele>508.66666666666663</ele><time>2026-05-01T16:53:57.999Z</time></trkpt><trkpt lat="45.15005444060058" lon="14.847415350768891"><ele>504.0</ele><time>2026-05-01T16:53:58.999Z</time></trkpt><trkpt lat="45.14995557168139" lon="14.847594614394149"><ele>503.33333333333337</ele><time>2026-05-01T16:53:59.999Z</time></trkpt><trkpt lat="45.14985277238497" lon="14.847755714708173"><ele>502.6666666666667</ele><time>2026-05-01T16:54:00.999Z</time></trkpt><trkpt lat="45.14971410977871" lon="14.847879410068078"><ele>502.0</ele><time>2026-05-01T16:54:01.999Z</time></trkpt><trkpt lat="45.14957218775199" lon="14.848035084318692"><ele>502.0</ele><time>2026-05-01T16:54:02.999Z</time></trkpt><trkpt lat="45.14942443510079" lon="14.848186565509108"><ele>502.0</ele><time>2026-05-01T16:54:03.999Z</time></trkpt><trkpt lat="45.14928919331444" lon="14.848359505949666"><ele>502.0</ele><time>2026-05-01T16:54:04.999Z</time></trkpt><trkpt lat="45.1491726793668" lon="14.84853282493387"><ele>498.75</ele><time>2026-05-01T16:54:05.999Z</time></trkpt><trkpt lat="45.149071034059666" lon="14.848689375632741"><ele>495.5</ele><time>2026-05-01T16:54:06.999Z</time></trkpt><trkpt lat="45.14898110941236" lon="14.848833289434406"><ele>492.25</ele><time>2026-05-01T16:54:07.999Z</time></trkpt><trkpt lat="45.148872460534704" lon="14.848926590607746"><ele>489.0</ele><time>2026-05-01T16:54:08.999Z</time></trkpt><trkpt lat="45.14876618449186" lon="14.849027497239863"><ele>489.0</ele><time>2026-05-01T16:54:09.999Z</time></trkpt><trkpt lat="45.14863879607688" lon="14.849090596320591"><ele>489.0</ele><time>2026-05-01T16:54:10.999Z</time></trkpt><trkpt lat="45.148513035477045" lon="14.849150174582805"><ele>489.0</ele><time>2026-05-01T16:54:11.999Z</time></trkpt><trkpt lat="45.14837898150531" lon="14.849213195244959"><ele>489.0</ele><time>2026-05-01T16:54:12.999Z</time></trkpt><trkpt lat="45.14824361118319" lon="14.84926510135242"><ele>487.4</ele><time>2026-05-01T16:54:13.999Z</time></trkpt><trkpt lat="45.1481170046795" lon="14.84929903360257"><ele>485.79999999999995</ele><time>2026-05-01T16:54:14.999Z</time></trkpt><trkpt lat="45.14800205041123" lon="14.849301612215303"><ele>484.20000000000005</ele><time>2026-05-01T16:54:15.999Z</time></trkpt><trkpt lat="45.14789539555457" lon="14.849273383690017"><ele>482.6</ele><time>2026-05-01T16:54:16.999Z</time></trkpt><trkpt lat="45.14780817486736" lon="14.849243480512488"><ele>481.0</ele><time>2026-05-01T16:54:17.999Z</time></trkpt><trkpt lat="45.14774193870711" lon="14.849217945819872"><ele>481.00000000000006</ele><time>2026-05-01T16:54:18.999Z</time></trkpt><trkpt lat="45.14767818078331" lon="14.849197046062931"><ele>481.0</ele><time>2026-05-01T16:54:20.999Z</time></trkpt><trkpt lat="45.14773865777285" lon="14.849245684472509"><ele>481.0</ele><time>2026-05-01T16:54:24Z</time></trkpt><trkpt lat="45.14778657049074" lon="14.849392943054404"><ele>481.0</ele><time>2026-05-01T16:54:25Z</time></trkpt><trkpt lat="45.14787101428684" lon="14.849407956235225"><ele>481.00000000000006</ele><time>2026-05-01T16:54:26Z</time></trkpt><trkpt lat="45.14795990377637" lon="14.849427895461591"><ele>481.0</ele><time>2026-05-01T16:54:27Z</time></trkpt><trkpt lat="45.14804639184428" lon="14.84948664260733"><ele>480.6</ele><time>2026-05-01T16:54:28Z</time></trkpt><trkpt lat="45.1481446113886" lon="14.84952119903429"><ele>480.20000000000005</ele><time>2026-05-01T16:54:29Z</time></trkpt><trkpt lat="45.148247276866144" lon="14.849547600643664"><ele>479.79999999999995</ele><time>2026-05-01T16:54:30Z</time></trkpt><trkpt lat="45.148347625479865" lon="14.849560921279531"><ele>479.4</ele><time>2026-05-01T16:54:31Z</time></trkpt><trkpt lat="45.14844402993955" lon="14.849558908755089"><ele>479.0</ele><time>2026-05-01T16:54:32Z</time></trkpt><trkpt lat="45.14852687008899" lon="14.849553346665711"><ele>478.99999999999994</ele><time>2026-05-01T16:54:33Z</time></trkpt><trkpt lat="45.14859630545703" lon="14.849564442613604"><ele>479.0</ele><time>2026-05-01T16:54:34Z</time></trkpt><trkpt lat="45.14866482582334" lon="14.849632363438046"><ele>479.0</ele><time>2026-05-01T16:54:36Z</time></trkpt><trkpt lat="45.1486288830614" lon="14.84974177175781"><ele>479.0</ele><time>2026-05-01T16:54:38Z</time></trkpt><trkpt lat="45.14853045148095" lon="14.849806815939152"><ele>478.99999999999994</ele><time>2026-05-01T16:54:40Z</time></trkpt><trkpt lat="45.148477017500845" lon="14.849885108984665"><ele>479.0</ele><time>2026-05-01T16:54:41Z</time></trkpt><trkpt lat="45.14840459686204" lon="14.84997472460808"><ele>478.99999999999994</ele><time>2026-05-01T16:54:42Z</time></trkpt><trkpt lat="45.14833281837649" lon="14.850074983323811"><ele>479.0</ele><time>2026-05-01T16:54:43Z</time></trkpt><trkpt lat="45.14826526987925" lon="14.850149363053585"><ele>479.0</ele><time>2026-05-01T16:54:44Z</time></trkpt><trkpt lat="45.14819034497563" lon="14.850170362927054"><ele>479.0</ele><time>2026-05-01T16:54:45Z</time></trkpt><trkpt lat="45.1481247806061" lon="14.850223000882867"><ele>478.99999999999994</ele><time>2026-05-01T16:54:46Z</time></trkpt><trkpt lat="45.148070416657696" lon="14.850299668256335"><ele>479.0</ele><time>2026-05-01T16:54:47Z</time></trkpt><trkpt lat="45.14802369691845" lon="14.850372088547715"><ele>479.16666666666663</ele><time>2026-05-01T16:54:48Z</time></trkpt><trkpt lat="45.14796803217573" lon="14.850436424028613"><ele>479.3333333333333</ele><time>2026-05-01T16:54:49Z</time></trkpt><trkpt lat="45.14792332538863" lon="14.850513939443584"><ele>479.5</ele><time>2026-05-01T16:54:50Z</time></trkpt><trkpt lat="45.14787531294289" lon="14.850594344855825"><ele>479.66666666666663</ele><time>2026-05-01T16:54:51Z</time></trkpt><trkpt lat="45.14781604140426" lon="14.85068066807423"><ele>479.8333333333333</ele><time>2026-05-01T16:54:52Z</time></trkpt><trkpt lat="45.14777000766338" lon="14.850774942242756"><ele>480.0</ele><time>2026-05-01T16:54:53Z</time></trkpt><trkpt lat="45.14765421502671" lon="14.850594347955065"><ele>480.0</ele><time>2026-05-01T16:55:31.999Z</time></trkpt><trkpt lat="45.1475791455439" lon="14.850522726620973"><ele>480.0</ele><time>2026-05-01T16:55:32.999Z</time></trkpt><trkpt lat="45.14749130732625" lon="14.850462993780551"><ele>480.0</ele><time>2026-05-01T16:55:33.999Z</time></trkpt><trkpt lat="45.147402482078355" lon="14.85040287089799"><ele>480.0</ele><time>2026-05-01T16:55:34.999Z</time></trkpt><trkpt lat="45.14731123067018" lon="14.850351062192097"><ele>480.0</ele><time>2026-05-01T16:55:35.999Z</time></trkpt><trkpt lat="45.147211557109415" lon="14.850325211052553"><ele>480.6</ele><time>2026-05-01T16:55:36.999Z</time></trkpt><trkpt lat="45.147116084127575" lon="14.85028480791311"><ele>481.2</ele><time>2026-05-01T16:55:37.999Z</time></trkpt><trkpt lat="45.14702419904307" lon="14.850254640865186"><ele>481.79999999999995</ele><time>2026-05-01T16:55:38.999Z</time></trkpt><trkpt lat="45.14693541998376" lon="14.850213812611093"><ele>482.4</ele><time>2026-05-01T16:55:39.999Z</time></trkpt><trkpt lat="45.14685032908889" lon="14.850186218114057"><ele>483.0</ele><time>2026-05-01T16:55:40.999Z</time></trkpt><trkpt lat="45.14677056134991" lon="14.850154519676822"><ele>483.59999999999997</ele><time>2026-05-01T16:55:41.999Z</time></trkpt><trkpt lat="45.14669248333255" lon="14.850108801289402"><ele>484.19999999999993</ele><time>2026-05-01T16:55:42.999Z</time></trkpt><trkpt lat="45.14659942422384" lon="14.85004558303558"><ele>484.8</ele><time>2026-05-01T16:55:43.999Z</time></trkpt><trkpt lat="45.14649479266956" lon="14.849972082227369"><ele>485.4</ele><time>2026-05-01T16:55:44.999Z</time></trkpt><trkpt lat="45.146379351818915" lon="14.849920327937118"><ele>486.0</ele><time>2026-05-01T16:55:45.999Z</time></trkpt><trkpt lat="45.146277912205164" lon="14.849848798753952"><ele>486.0</ele><time>2026-05-01T16:55:46.999Z</time></trkpt><trkpt lat="45.146155336651304" lon="14.849826682662664"><ele>486.0</ele><time>2026-05-01T16:55:47.999Z</time></trkpt><trkpt lat="45.14604312751235" lon="14.84978337395492"><ele>486.0</ele><time>2026-05-01T16:55:48.999Z</time></trkpt><trkpt lat="45.14593136753299" lon="14.849743394150392"><ele>486.0</ele><time>2026-05-01T16:55:49.999Z</time></trkpt><trkpt lat="45.145820154519036" lon="14.849714898007251"><ele>485.75</ele><time>2026-05-01T16:55:50.999Z</time></trkpt><trkpt lat="45.14569044766581" lon="14.849693381442751"><ele>485.5</ele><time>2026-05-01T16:55:51.999Z</time></trkpt><trkpt lat="45.145553935722425" lon="14.849675817085625"><ele>485.25</ele><time>2026-05-01T16:55:52.999Z</time></trkpt><trkpt lat="45.14544518573774" lon="14.849664078701927"><ele>485.0</ele><time>2026-05-01T16:55:53.999Z</time></trkpt><trkpt lat="45.14535914227173" lon="14.849649982268565"><ele>484.99999999999994</ele><time>2026-05-01T16:55:54.999Z</time></trkpt><trkpt lat="45.145279364373074" lon="14.84964020572076"><ele>485.0</ele><time>2026-05-01T16:55:55.999Z</time></trkpt><trkpt lat="45.14520405781342" lon="14.84965394780486"><ele>485.0</ele><time>2026-05-01T16:55:56.999Z</time></trkpt><trkpt lat="45.1451247919672" lon="14.849686646998924"><ele>485.0</ele><time>2026-05-01T16:55:57.999Z</time></trkpt><trkpt lat="45.14504649502828" lon="14.84973430517745"><ele>484.99999999999994</ele><time>2026-05-01T16:55:58.999Z</time></trkpt><trkpt lat="45.144961226086004" lon="14.849800253106157"><ele>485.0</ele><time>2026-05-01T16:55:59.999Z</time></trkpt><trkpt lat="45.144873488871795" lon="14.849894911876184"><ele>484.4</ele><time>2026-05-01T16:56:00.999Z</time></trkpt><trkpt lat="45.14477848317707" lon="14.84998118985291"><ele>483.8</ele><time>2026-05-01T16:56:01.999Z</time></trkpt><trkpt lat="45.14469040507218" lon="14.85006484694429"><ele>483.20000000000005</ele><time>2026-05-01T16:56:02.999Z</time></trkpt><trkpt lat="45.14460222006401" lon="14.850147562143933"><ele>482.6</ele><time>2026-05-01T16:56:03.999Z</time></trkpt><trkpt lat="45.144523642073686" lon="14.850210970513656"><ele>482.0</ele><time>2026-05-01T16:56:04.999Z</time></trkpt><trkpt lat="45.14445997207242" lon="14.85030113232115"><ele>481.99999999999994</ele><time>2026-05-01T16:56:05.999Z</time></trkpt><trkpt lat="45.14439893982571" lon="14.850389532055264"><ele>482.0</ele><time>2026-05-01T16:56:06.999Z</time></trkpt><trkpt lat="45.144337688701505" lon="14.850476759281957"><ele>482.0</ele><time>2026-05-01T16:56:07.999Z</time></trkpt><trkpt lat="45.14426707121311" lon="14.850541108805789"><ele>482.0</ele><time>2026-05-01T16:56:08.999Z</time></trkpt><trkpt lat="45.14420637629935" lon="14.850611672397578"><ele>481.99999999999994</ele><time>2026-05-01T16:56:09.999Z</time></trkpt><trkpt lat="45.144152934603596" lon="14.850670302367474"><ele>482.0</ele><time>2026-05-01T16:56:10.999Z</time></trkpt><trkpt lat="45.144068276426154" lon="14.850763352121858"><ele>482.49999999999994</ele><time>2026-05-01T16:56:12.999Z</time></trkpt><trkpt lat="45.14401496265926" lon="14.850817087089474"><ele>483.0</ele><time>2026-05-01T16:56:13.999Z</time></trkpt><trkpt lat="45.143957669371105" lon="14.85086250147604"><ele>483.5</ele><time>2026-05-01T16:56:14.999Z</time></trkpt><trkpt lat="45.143894062160065" lon="14.85090270337333"><ele>484.0</ele><time>2026-05-01T16:56:15.999Z</time></trkpt><trkpt lat="45.1438223649566" lon="14.850942464212517"><ele>484.49999999999994</ele><time>2026-05-01T16:56:16.999Z</time></trkpt><trkpt lat="45.1437399831141" lon="14.85098227221461"><ele>485.0</ele><time>2026-05-01T16:56:17.999Z</time></trkpt><trkpt lat="45.14365187783051" lon="14.85101791845243"><ele>485.0</ele><time>2026-05-01T16:56:18.999Z</time></trkpt><trkpt lat="45.14356634537243" lon="14.851045334182073"><ele>485.0</ele><time>2026-05-01T16:56:19.999Z</time></trkpt><trkpt lat="45.14346957863973" lon="14.851065880925761"><ele>485.0</ele><time>2026-05-01T16:56:20.999Z</time></trkpt><trkpt lat="45.143369684499625" lon="14.851070302591658"><ele>485.0</ele><time>2026-05-01T16:56:21.999Z</time></trkpt><trkpt lat="45.14327571732314" lon="14.8510951778764"><ele>485.0</ele><time>2026-05-01T16:56:22.999Z</time></trkpt><trkpt lat="45.143183338046505" lon="14.851097142853392"><ele>484.66666666666663</ele><time>2026-05-01T16:56:23.999Z</time></trkpt><trkpt lat="45.14309632938904" lon="14.851113672912385"><ele>484.3333333333333</ele><time>2026-05-01T16:56:24.999Z</time></trkpt><trkpt lat="45.14301360827623" lon="14.85115062721755"><ele>484.0</ele><time>2026-05-01T16:56:25.999Z</time></trkpt><trkpt lat="45.14292849597361" lon="14.85117880553427"><ele>483.66666666666663</ele><time>2026-05-01T16:56:26.999Z</time></trkpt><trkpt lat="45.1428469957184" lon="14.851205179539939"><ele>483.3333333333333</ele><time>2026-05-01T16:56:28Z</time></trkpt><trkpt lat="45.1427684806698" lon="14.851206287787125"><ele>483.0</ele><time>2026-05-01T16:56:29Z</time></trkpt><trkpt lat="45.14268826229379" lon="14.851171639240675"><ele>483.0</ele><time>2026-05-01T16:56:30Z</time></trkpt><trkpt lat="45.142609994857885" lon="14.85114889895694"><ele>482.99999999999994</ele><time>2026-05-01T16:56:31Z</time></trkpt><trkpt lat="45.14252019026732" lon="14.851124564867668"><ele>482.99999999999994</ele><time>2026-05-01T16:56:32Z</time></trkpt><trkpt lat="45.14242849917082" lon="14.851096336957502"><ele>483.0</ele><time>2026-05-01T16:56:33Z</time></trkpt><trkpt lat="45.142336043655035" lon="14.851069829335636"><ele>483.0</ele><time>2026-05-01T16:56:34Z</time></trkpt><trkpt lat="45.14223557802026" lon="14.851053103420291"><ele>482.4</ele><time>2026-05-01T16:56:35Z</time></trkpt><trkpt lat="45.142127424778536" lon="14.851059583541858"><ele>481.79999999999995</ele><time>2026-05-01T16:56:36Z</time></trkpt><trkpt lat="45.14202410075531" lon="14.851079687842258"><ele>481.2</ele><time>2026-05-01T16:56:37Z</time></trkpt><trkpt lat="45.14191955121624" lon="14.851084178254222"><ele>480.6</ele><time>2026-05-01T16:56:38Z</time></trkpt><trkpt lat="45.14180913518401" lon="14.851075228716429"><ele>480.0</ele><time>2026-05-01T16:56:39Z</time></trkpt><trkpt lat="45.14169722721996" lon="14.85106114209719"><ele>480.0</ele><time>2026-05-01T16:56:40Z</time></trkpt><trkpt lat="45.14158302106711" lon="14.851077263462123"><ele>480.0</ele><time>2026-05-01T16:56:41Z</time></trkpt><trkpt lat="45.14147687818947" lon="14.851067105227678"><ele>480.0</ele><time>2026-05-01T16:56:42Z</time></trkpt><trkpt lat="45.141374919222294" lon="14.85103812204995"><ele>480.0</ele><time>2026-05-01T16:56:43Z</time></trkpt><trkpt lat="45.14127294290776" lon="14.8510482737767"><ele>480.0</ele><time>2026-05-01T16:56:44Z</time></trkpt><trkpt lat="45.14117525443668" lon="14.851053691024871"><ele>478.2</ele><time>2026-05-01T16:56:45Z</time></trkpt><trkpt lat="45.141072383722594" lon="14.851053825903902"><ele>476.4</ele><time>2026-05-01T16:56:46Z</time></trkpt><trkpt lat="45.14097398725126" lon="14.851060579828175"><ele>474.6</ele><time>2026-05-01T16:56:47Z</time></trkpt><trkpt lat="45.1408781088736" lon="14.8510667458855"><ele>472.8</ele><time>2026-05-01T16:56:48Z</time></trkpt><trkpt lat="45.14078904915064" lon="14.851075960573171"><ele>471.0</ele><time>2026-05-01T16:56:49Z</time></trkpt><trkpt lat="45.14070257019337" lon="14.851080022973564"><ele>467.6666666666667</ele><time>2026-05-01T16:56:50Z</time></trkpt><trkpt lat="45.14062446570118" lon="14.851094148958106"><ele>464.33333333333337</ele><time>2026-05-01T16:56:51Z</time></trkpt><trkpt lat="45.140554900463115" lon="14.851123049596465"><ele>461.0</ele><time>2026-05-01T16:56:52Z</time></trkpt><trkpt lat="45.14049014397148" lon="14.851159955516758"><ele>457.6666666666667</ele><time>2026-05-01T16:56:53Z</time></trkpt><trkpt lat="45.140423828955946" lon="14.85120836408267"><ele>454.33333333333337</ele><time>2026-05-01T16:56:54Z</time></trkpt><trkpt lat="45.140355449090045" lon="14.851263045576085"><ele>451.0</ele><time>2026-05-01T16:56:55Z</time></trkpt><trkpt lat="45.14027967727571" lon="14.851321222819148"><ele>451.00000000000006</ele><time>2026-05-01T16:56:56Z</time></trkpt><trkpt lat="45.140203701006996" lon="14.851376499164859"><ele>451.0</ele><time>2026-05-01T16:56:57Z</time></trkpt><trkpt lat="45.14014059079545" lon="14.851441201425292"><ele>451.0</ele><time>2026-05-01T16:56:58Z</time></trkpt><trkpt lat="45.14007595241996" lon="14.851512970553998"><ele>451.0</ele><time>2026-05-01T16:56:59Z</time></trkpt><trkpt lat="45.14001116762267" lon="14.85157821436399"><ele>451.00000000000006</ele><time>2026-05-01T16:57:00Z</time></trkpt><trkpt lat="45.139944187361806" lon="14.851646428988552"><ele>451.0</ele><time>2026-05-01T16:57:01Z</time></trkpt><trkpt lat="45.139885560877396" lon="14.85172523288341"><ele>447.6666666666667</ele><time>2026-05-01T16:57:02Z</time></trkpt><trkpt lat="45.13983142883635" lon="14.851812923974434"><ele>444.33333333333337</ele><time>2026-05-01T16:57:03Z</time></trkpt><trkpt lat="45.13978547489682" lon="14.851906143760983"><ele>441.0</ele><time>2026-05-01T16:57:04Z</time></trkpt><trkpt lat="45.13974463639031" lon="14.852006578636374"><ele>437.66666666666663</ele><time>2026-05-01T16:57:05Z</time></trkpt><trkpt lat="45.1397057692174" lon="14.852117310912853"><ele>434.3333333333333</ele><time>2026-05-01T16:57:06Z</time></trkpt><trkpt lat="45.13967341775057" lon="14.852233939714125"><ele>431.0</ele><time>2026-05-01T16:57:07Z</time></trkpt><trkpt lat="45.13962971444773" lon="14.85233514993852"><ele>430.99999999999994</ele><time>2026-05-01T16:57:08Z</time></trkpt><trkpt lat="45.1396010763795" lon="14.852450057561223"><ele>431.0</ele><time>2026-05-01T16:57:09Z</time></trkpt><trkpt lat="45.13958225834033" lon="14.852566612731625"><ele>431.0</ele><time>2026-05-01T16:57:10Z</time></trkpt><trkpt lat="45.13958705421169" lon="14.852692825728244"><ele>431.0</ele><time>2026-05-01T16:57:11Z</time></trkpt><trkpt lat="45.13957729160582" lon="14.852807717663238"><ele>430.99999999999994</ele><time>2026-05-01T16:57:12Z</time></trkpt><trkpt lat="45.13956949389053" lon="14.852930849996884"><ele>431.0</ele><time>2026-05-01T16:57:13Z</time></trkpt><trkpt lat="45.139565792933794" lon="14.853052676612917"><ele>430.3333333333333</ele><time>2026-05-01T16:57:14Z</time></trkpt><trkpt lat="45.139562589609724" lon="14.853167781576028"><ele>429.66666666666663</ele><time>2026-05-01T16:57:15Z</time></trkpt><trkpt lat="45.13956811231211" lon="14.85327631556026"><ele>429.0</ele><time>2026-05-01T16:57:16Z</time></trkpt><trkpt lat="45.13956848414752" lon="14.853403238429431"><ele>428.33333333333337</ele><time>2026-05-01T16:57:17Z</time></trkpt><trkpt lat="45.13960093281315" lon="14.853539185551147"><ele>427.6666666666667</ele><time>2026-05-01T16:57:18Z</time></trkpt><trkpt lat="45.13960586022662" lon="14.853680673193109"><ele>427.0</ele><time>2026-05-01T16:57:19Z</time></trkpt><trkpt lat="45.13964154246843" lon="14.853815154341438"><ele>426.6</ele><time>2026-05-01T16:57:20Z</time></trkpt><trkpt lat="45.13966026665428" lon="14.853935451780629"><ele>426.20000000000005</ele><time>2026-05-01T16:57:21Z</time></trkpt><trkpt lat="45.139666047858015" lon="14.854066424156263"><ele>425.8</ele><time>2026-05-01T16:57:22Z</time></trkpt><trkpt lat="45.13967907471716" lon="14.854208676980939"><ele>425.4</ele><time>2026-05-01T16:57:23Z</time></trkpt><trkpt lat="45.13969358122502" lon="14.854335637654923"><ele>425.0</ele><time>2026-05-01T16:57:24Z</time></trkpt><trkpt lat="45.13970135155658" lon="14.854450014517727"><ele>424.8333333333333</ele><time>2026-05-01T16:57:25Z</time></trkpt><trkpt lat="45.13968507317299" lon="14.854572013742851"><ele>424.66666666666663</ele><time>2026-05-01T16:57:26Z</time></trkpt><trkpt lat="45.139677577480484" lon="14.854688256276194"><ele>424.5</ele><time>2026-05-01T16:57:27Z</time></trkpt><trkpt lat="45.13968347149296" lon="14.854793682407504"><ele>424.33333333333337</ele><time>2026-05-01T16:57:28Z</time></trkpt><trkpt lat="45.13967787094723" lon="14.854906899964996"><ele>424.1666666666667</ele><time>2026-05-01T16:57:29Z</time></trkpt><trkpt lat="45.13965231257752" lon="14.855021578719493"><ele>424.0</ele><time>2026-05-01T16:57:30Z</time></trkpt><trkpt lat="45.13963946600974" lon="14.85515332483645"><ele>424.6</ele><time>2026-05-01T16:57:31Z</time></trkpt><trkpt lat="45.1396232633565" lon="14.855286956724049"><ele>425.2</ele><time>2026-05-01T16:57:32Z</time></trkpt><trkpt lat="45.13960184322627" lon="14.855425294824585"><ele>425.80000000000007</ele><time>2026-05-01T16:57:33Z</time></trkpt><trkpt lat="45.13957691437309" lon="14.855567325812379"><ele>426.40000000000003</ele><time>2026-05-01T16:57:34Z</time></trkpt><trkpt lat="45.13956172653721" lon="14.855718118571398"><ele>427.0</ele><time>2026-05-01T16:57:35Z</time></trkpt><trkpt lat="45.13952502501643" lon="14.855860131847173"><ele>430.0</ele><time>2026-05-01T16:57:36Z</time></trkpt><trkpt lat="45.13951317146648" lon="14.856003284274916"><ele>433.00000000000006</ele><time>2026-05-01T16:57:37Z</time></trkpt><trkpt lat="45.139464552904485" lon="14.856141987524042"><ele>436.00000000000006</ele><time>2026-05-01T16:57:38Z</time></trkpt><trkpt lat="45.13942055706582" lon="14.856282141914196"><ele>439.0</ele><time>2026-05-01T16:57:38.999Z</time></trkpt><trkpt lat="45.139375747405126" lon="14.856422725284583"><ele>442.0</ele><time>2026-05-01T16:57:39.999Z</time></trkpt><trkpt lat="45.13934317214695" lon="14.85657712046536"><ele>442.0</ele><time>2026-05-01T16:57:40.999Z</time></trkpt><trkpt lat="45.13927414656544" lon="14.856720034054195"><ele>442.0</ele><time>2026-05-01T16:57:41.999Z</time></trkpt><trkpt lat="45.13923068547387" lon="14.856887926525744"><ele>442.0</ele><time>2026-05-01T16:57:42.999Z</time></trkpt><trkpt lat="45.13917564603803" lon="14.857054175533156"><ele>442.0</ele><time>2026-05-01T16:57:43.999Z</time></trkpt><trkpt lat="45.13912252956112" lon="14.857216469670615"><ele>442.5</ele><time>2026-05-01T16:57:44.999Z</time></trkpt><trkpt lat="45.13906326607557" lon="14.857396139601068"><ele>443.0</ele><time>2026-05-01T16:57:45.999Z</time></trkpt><trkpt lat="45.13899394213637" lon="14.857589254630163"><ele>443.5</ele><time>2026-05-01T16:57:46.999Z</time></trkpt><trkpt lat="45.1389544692509" lon="14.857755592135252"><ele>444.0</ele><time>2026-05-01T16:57:47.999Z</time></trkpt><trkpt lat="45.138923992794" lon="14.857912474101209"><ele>444.0</ele><time>2026-05-01T16:57:48.999Z</time></trkpt><trkpt lat="45.138895328511985" lon="14.858065904854676"><ele>444.0</ele><time>2026-05-01T16:57:49.999Z</time></trkpt><trkpt lat="45.13884658898212" lon="14.85819321756716"><ele>444.0</ele><time>2026-05-01T16:57:50.999Z</time></trkpt><trkpt lat="45.13880233992604" lon="14.858297626854883"><ele>444.0</ele><time>2026-05-01T16:57:51.999Z</time></trkpt><trkpt lat="45.13874808279751" lon="14.858387182504925"><ele>444.0</ele><time>2026-05-01T16:57:52.999Z</time></trkpt><trkpt lat="45.1386838485263" lon="14.858476627176367"><ele>446.79999999999995</ele><time>2026-05-01T16:57:53.999Z</time></trkpt><trkpt lat="45.13860837366487" lon="14.85855029458104"><ele>449.59999999999997</ele><time>2026-05-01T16:57:54.999Z</time></trkpt><trkpt lat="45.13852175420285" lon="14.858599147427984"><ele>452.4</ele><time>2026-05-01T16:57:55.999Z</time></trkpt><trkpt lat="45.1384257937287" lon="14.858641151611831"><ele>455.2</ele><time>2026-05-01T16:57:56.999Z</time></trkpt><trkpt lat="45.13831515855533" lon="14.858714047925313"><ele>458.0</ele><time>2026-05-01T16:57:57.999Z</time></trkpt><trkpt lat="45.138191308691695" lon="14.858758253819094"><ele>458.59999999999997</ele><time>2026-05-01T16:57:58.999Z</time></trkpt><trkpt lat="45.1380737060758" lon="14.858776866969809"><ele>459.19999999999993</ele><time>2026-05-01T16:57:59.999Z</time></trkpt><trkpt lat="45.137967594998976" lon="14.858789848896969"><ele>459.8</ele><time>2026-05-01T16:58:00.999Z</time></trkpt><trkpt lat="45.13787263885211" lon="14.858779908457947"><ele>460.4</ele><time>2026-05-01T16:58:01.999Z</time></trkpt><trkpt lat="45.1377645708468" lon="14.858771159367645"><ele>461.0</ele><time>2026-05-01T16:58:02.999Z</time></trkpt><trkpt lat="45.13763068941837" lon="14.85878001173809"><ele>461.0</ele><time>2026-05-01T16:58:03.999Z</time></trkpt><trkpt lat="45.13749972602589" lon="14.858781881730785"><ele>461.0</ele><time>2026-05-01T16:58:04.999Z</time></trkpt><trkpt lat="45.13737144953188" lon="14.858759423703447"><ele>461.0</ele><time>2026-05-01T16:58:05.999Z</time></trkpt><trkpt lat="45.137244273332165" lon="14.858760107961663"><ele>461.0</ele><time>2026-05-01T16:58:06.999Z</time></trkpt><trkpt lat="45.13711590883502" lon="14.85877423214751"><ele>460.0</ele><time>2026-05-01T16:58:07.999Z</time></trkpt><trkpt lat="45.13699513476096" lon="14.858778176884066"><ele>459.0</ele><time>2026-05-01T16:58:08.999Z</time></trkpt><trkpt lat="45.13687955526932" lon="14.858799290315769"><ele>458.0</ele><time>2026-05-01T16:58:09.999Z</time></trkpt><trkpt lat="45.13676029963628" lon="14.858824811262684"><ele>457.0</ele><time>2026-05-01T16:58:10.999Z</time></trkpt><trkpt lat="45.13665177149023" lon="14.858862454229174"><ele>457.00000000000006</ele><time>2026-05-01T16:58:11.999Z</time></trkpt><trkpt lat="45.13655671931255" lon="14.858896223937315"><ele>457.0</ele><time>2026-05-01T16:58:12.999Z</time></trkpt><trkpt lat="45.13646951320241" lon="14.858935224625473"><ele>457.0</ele><time>2026-05-01T16:58:13.999Z</time></trkpt><trkpt lat="45.13639539586782" lon="14.85899261448216"><ele>457.0</ele><time>2026-05-01T16:58:14.999Z</time></trkpt><trkpt lat="45.13633525781203" lon="14.859063661443194"><ele>457.00000000000006</ele><time>2026-05-01T16:58:15.999Z</time></trkpt><trkpt lat="45.13625978530418" lon="14.8591343877797"><ele>457.0</ele><time>2026-05-01T16:58:16.999Z</time></trkpt><trkpt lat="45.136183671400445" lon="14.859268672115249"><ele>456.0</ele><time>2026-05-01T16:58:17.999Z</time></trkpt><trkpt lat="45.136088114483954" lon="14.859408026185603"><ele>455.0</ele><time>2026-05-01T16:58:18.999Z</time></trkpt><trkpt lat="45.13600956059631" lon="14.859530371904142"><ele>454.0</ele><time>2026-05-01T16:58:19.999Z</time></trkpt><trkpt lat="45.13594479054006" lon="14.859642080634867"><ele>453.0</ele><time>2026-05-01T16:58:20.999Z</time></trkpt><trkpt lat="45.135872244765046" lon="14.859762095438857"><ele>453.0</ele><time>2026-05-01T16:58:21.999Z</time></trkpt><trkpt lat="45.135819248988064" lon="14.859914538355344"><ele>452.99999999999994</ele><time>2026-05-01T16:58:22.999Z</time></trkpt><trkpt lat="45.1357659739239" lon="14.860069011722802"><ele>452.99999999999994</ele><time>2026-05-01T16:58:23.999Z</time></trkpt><trkpt lat="45.13571701047204" lon="14.860206953484385"><ele>453.0</ele><time>2026-05-01T16:58:24.999Z</time></trkpt><trkpt lat="45.135670562448546" lon="14.860321013941327"><ele>453.0</ele><time>2026-05-01T16:58:25.999Z</time></trkpt><trkpt lat="45.135619321076476" lon="14.860400928772632"><ele>453.6666666666667</ele><time>2026-05-01T16:58:26.999Z</time></trkpt><trkpt lat="45.135565441392984" lon="14.860468801013075"><ele>454.33333333333337</ele><time>2026-05-01T16:58:27.999Z</time></trkpt><trkpt lat="45.135512320307676" lon="14.86053597766414"><ele>455.0</ele><time>2026-05-01T16:58:28.999Z</time></trkpt><trkpt lat="45.13543449962696" lon="14.86057441774941"><ele>455.6666666666667</ele><time>2026-05-01T16:58:29.999Z</time></trkpt><trkpt lat="45.13534360701826" lon="14.860567778894918"><ele>456.33333333333337</ele><time>2026-05-01T16:58:30.999Z</time></trkpt><trkpt lat="45.13525084693987" lon="14.860564581883343"><ele>457.0</ele><time>2026-05-01T16:58:31.999Z</time></trkpt><trkpt lat="45.13515058558386" lon="14.860547469335835"><ele>457.0</ele><time>2026-05-01T16:58:32.999Z</time></trkpt><trkpt lat="45.135036302104254" lon="14.860524276038694"><ele>457.0</ele><time>2026-05-01T16:58:33.999Z</time></trkpt><trkpt lat="45.13490900276711" lon="14.860490866978372"><ele>457.0</ele><time>2026-05-01T16:58:34.999Z</time></trkpt><trkpt lat="45.13477432635409" lon="14.860472123787373"><ele>457.0</ele><time>2026-05-01T16:58:35.999Z</time></trkpt><trkpt lat="45.13465579335197" lon="14.860414575838373"><ele>458.33333333333337</ele><time>2026-05-01T16:58:36.999Z</time></trkpt><trkpt lat="45.134553259710685" lon="14.860383590096351"><ele>459.6666666666667</ele><time>2026-05-01T16:58:37.999Z</time></trkpt><trkpt lat="45.134463346995226" lon="14.860378931788093"><ele>461.0</ele><time>2026-05-01T16:58:38.999Z</time></trkpt><trkpt lat="45.13439223793718" lon="14.860339108116124"><ele>462.33333333333337</ele><time>2026-05-01T16:58:39.999Z</time></trkpt><trkpt lat="45.13430873613327" lon="14.860316805041444"><ele>463.6666666666667</ele><time>2026-05-01T16:58:40.999Z</time></trkpt><trkpt lat="45.13423083478276" lon="14.860295912255426"><ele>465.0</ele><time>2026-05-01T16:58:41.999Z</time></trkpt><trkpt lat="45.1341651643746" lon="14.860278298520829"><ele>465.0</ele><time>2026-05-01T16:58:42.999Z</time></trkpt><trkpt lat="45.13408329688147" lon="14.860204644224778"><ele>465.0</ele><time>2026-05-01T16:58:45Z</time></trkpt><trkpt lat="45.13397598298151" lon="14.860115027007796"><ele>465.0</ele><time>2026-05-01T16:58:47Z</time></trkpt><trkpt lat="45.133935271862676" lon="14.86004195594522"><ele>465.0</ele><time>2026-05-01T16:58:48Z</time></trkpt><trkpt lat="45.13389202332837" lon="14.859972784697725"><ele>465.0</ele><time>2026-05-01T16:58:49Z</time></trkpt><trkpt lat="45.13384558702369" lon="14.859902804685921"><ele>465.0</ele><time>2026-05-01T16:58:50Z</time></trkpt><trkpt lat="45.13382419215271" lon="14.859809983245054"><ele>465.6</ele><time>2026-05-01T16:58:51Z</time></trkpt><trkpt lat="45.13375685767456" lon="14.859660448903716"><ele>466.2</ele><time>2026-05-01T16:58:53Z</time></trkpt><trkpt lat="45.133692370467266" lon="14.859509542331198"><ele>466.79999999999995</ele><time>2026-05-01T16:58:55Z</time></trkpt><trkpt lat="45.133680716396206" lon="14.859355963934416"><ele>467.4</ele><time>2026-05-01T16:58:57Z</time></trkpt><trkpt lat="45.133675894882685" lon="14.859259636185667"><ele>468.0</ele><time>2026-05-01T16:58:58Z</time></trkpt><trkpt lat="45.13366952417421" lon="14.85916623085548"><ele>466.42857142857144</ele><time>2026-05-01T16:58:59Z</time></trkpt><trkpt lat="45.133662467896215" lon="14.85907158177372"><ele>464.8571428571429</ele><time>2026-05-01T16:59:00Z</time></trkpt><trkpt lat="45.13364464019571" lon="14.858975467156815"><ele>463.28571428571433</ele><time>2026-05-01T16:59:01Z</time></trkpt><trkpt lat="45.13365073492413" lon="14.858873344571215"><ele>461.7142857142858</ele><time>2026-05-01T16:59:02Z</time></trkpt><trkpt lat="45.13363088521191" lon="14.858772643797124"><ele>460.14285714285717</ele><time>2026-05-01T16:59:03Z</time></trkpt><trkpt lat="45.13362286357772" lon="14.858670206790379"><ele>458.57142857142867</ele><time>2026-05-01T16:59:04Z</time></trkpt><trkpt lat="45.133607045928706" lon="14.858569401595405"><ele>457.00000000000006</ele><time>2026-05-01T16:59:05Z</time></trkpt><trkpt lat="45.13357916197255" lon="14.858475327175933"><ele>455.6666666666667</ele><time>2026-05-01T16:59:06Z</time></trkpt><trkpt lat="45.13355777045517" lon="14.858362801992008"><ele>454.33333333333337</ele><time>2026-05-01T16:59:07Z</time></trkpt><trkpt lat="45.133545034987606" lon="14.858240298415923"><ele>453.0</ele><time>2026-05-01T16:59:08Z</time></trkpt><trkpt lat="45.13352262027409" lon="14.858116063899548"><ele>451.66666666666663</ele><time>2026-05-01T16:59:09Z</time></trkpt><trkpt lat="45.13349293994027" lon="14.857982698952334"><ele>450.3333333333333</ele><time>2026-05-01T16:59:10Z</time></trkpt><trkpt lat="45.13346928297916" lon="14.85785880337024"><ele>449.0</ele><time>2026-05-01T16:59:11Z</time></trkpt><trkpt lat="45.13344425817956" lon="14.857734396179268"><ele>449.99999999999994</ele><time>2026-05-01T16:59:12Z</time></trkpt><trkpt lat="45.13342316808467" lon="14.857617221499511"><ele>451.0</ele><time>2026-05-01T16:59:13Z</time></trkpt><trkpt lat="45.13338508736488" lon="14.857510788106564"><ele>452.0</ele><time>2026-05-01T16:59:14Z</time></trkpt><trkpt lat="45.13333621304175" lon="14.85741718560568"><ele>453.0</ele><time>2026-05-01T16:59:15Z</time></trkpt><trkpt lat="45.133283031834864" lon="14.857328486654769"><ele>453.99999999999994</ele><time>2026-05-01T16:59:16Z</time></trkpt><trkpt lat="45.13321639897226" lon="14.857250714157065"><ele>455.0</ele><time>2026-05-01T16:59:17Z</time></trkpt><trkpt lat="45.13313559652324" lon="14.857176455243827"><ele>455.0</ele><time>2026-05-01T16:59:18Z</time></trkpt><trkpt lat="45.13304084357501" lon="14.857119552698313"><ele>455.0</ele><time>2026-05-01T16:59:19Z</time></trkpt><trkpt lat="45.13295120119702" lon="14.857050743970866"><ele>455.0</ele><time>2026-05-01T16:59:20Z</time></trkpt><trkpt lat="45.132859690760675" lon="14.857007320800047"><ele>455.0</ele><time>2026-05-01T16:59:21Z</time></trkpt><trkpt lat="45.132776771951704" lon="14.85695865025075"><ele>455.0</ele><time>2026-05-01T16:59:22Z</time></trkpt><trkpt lat="45.132693013978184" lon="14.856908087771416"><ele>455.0</ele><time>2026-05-01T16:59:23Z</time></trkpt><trkpt lat="45.132607353728766" lon="14.856860541862627"><ele>455.0</ele><time>2026-05-01T16:59:23.999Z</time></trkpt><trkpt lat="45.132523742700116" lon="14.856784677123747"><ele>455.0</ele><time>2026-05-01T16:59:24.999Z</time></trkpt><trkpt lat="45.1324233621697" lon="14.856750148207528"><ele>455.0</ele><time>2026-05-01T16:59:25.999Z</time></trkpt><trkpt lat="45.13233380958313" lon="14.856694927942428"><ele>455.0</ele><time>2026-05-01T16:59:26.999Z</time></trkpt><trkpt lat="45.132233103812275" lon="14.856679189329759"><ele>451.2</ele><time>2026-05-01T16:59:27.999Z</time></trkpt><trkpt lat="45.132139527598085" lon="14.856651676515023"><ele>447.4</ele><time>2026-05-01T16:59:28.999Z</time></trkpt><trkpt lat="45.13204123310751" lon="14.856626474520922"><ele>443.6</ele><time>2026-05-01T16:59:29.999Z</time></trkpt><trkpt lat="45.131950219993804" lon="14.856617416726124"><ele>439.8</ele><time>2026-05-01T16:59:30.999Z</time></trkpt><trkpt lat="45.131858838742595" lon="14.856611679449413"><ele>436.0</ele><time>2026-05-01T16:59:31.999Z</time></trkpt><trkpt lat="45.131772173572124" lon="14.856615800628925"><ele>436.0</ele><time>2026-05-01T16:59:32.999Z</time></trkpt><trkpt lat="45.13168224941048" lon="14.856627419827385"><ele>436.0</ele><time>2026-05-01T16:59:33.999Z</time></trkpt><trkpt lat="45.13158459816715" lon="14.856658904930132"><ele>436.0</ele><time>2026-05-01T16:59:34.999Z</time></trkpt><trkpt lat="45.13148342948621" lon="14.856708675612328"><ele>436.0</ele><time>2026-05-01T16:59:35.999Z</time></trkpt><trkpt lat="45.13138478395573" lon="14.856777091295255"><ele>436.0</ele><time>2026-05-01T16:59:36.999Z</time></trkpt><trkpt lat="45.13127507720433" lon="14.856835797121564"><ele>439.75</ele><time>2026-05-01T16:59:37.999Z</time></trkpt><trkpt lat="45.13115973703934" lon="14.856899019868685"><ele>443.5</ele><time>2026-05-01T16:59:38.999Z</time></trkpt><trkpt lat="45.13103559828964" lon="14.856947126071221"><ele>447.25</ele><time>2026-05-01T16:59:39.999Z</time></trkpt><trkpt lat="45.130911018531" lon="14.857017258578521"><ele>451.0</ele><time>2026-05-01T16:59:40.999Z</time></trkpt><trkpt lat="45.130788574201105" lon="14.857111187746565"><ele>444.6666666666667</ele><time>2026-05-01T16:59:41.999Z</time></trkpt><trkpt lat="45.13065415755651" lon="14.857191161627416"><ele>438.33333333333337</ele><time>2026-05-01T16:59:42.999Z</time></trkpt><trkpt lat="45.1305161439929" lon="14.857272530836118"><ele>432.0</ele><time>2026-05-01T16:59:43.999Z</time></trkpt><trkpt lat="45.130372064243204" lon="14.85735626696154"><ele>432.0</ele><time>2026-05-01T16:59:44.999Z</time></trkpt><trkpt lat="45.13023524193362" lon="14.857442103648422"><ele>432.0</ele><time>2026-05-01T16:59:45.999Z</time></trkpt><trkpt lat="45.13009880271943" lon="14.857524980722287"><ele>432.0</ele><time>2026-05-01T16:59:46.999Z</time></trkpt><trkpt lat="45.12996347509636" lon="14.857616589209655"><ele>432.0</ele><time>2026-05-01T16:59:47.999Z</time></trkpt><trkpt lat="45.129826511539086" lon="14.857718567571482"><ele>435.33333333333337</ele><time>2026-05-01T16:59:48.999Z</time></trkpt><trkpt lat="45.1296875257564" lon="14.857823933858983"><ele>438.6666666666667</ele><time>2026-05-01T16:59:49.999Z</time></trkpt><trkpt lat="45.12955132104698" lon="14.857927975288822"><ele>442.0</ele><time>2026-05-01T16:59:50.999Z</time></trkpt><trkpt lat="45.12940471863571" lon="14.857999870804068"><ele>442.0</ele><time>2026-05-01T16:59:51.999Z</time></trkpt><trkpt lat="45.129268789933285" lon="14.858095754195798"><ele>442.0</ele><time>2026-05-01T16:59:52.999Z</time></trkpt><trkpt lat="45.12913065127598" lon="14.858203286186566"><ele>442.0</ele><time>2026-05-01T16:59:53.999Z</time></trkpt><trkpt lat="45.12899874236075" lon="14.858308497156354"><ele>442.5</ele><time>2026-05-01T16:59:54.999Z</time></trkpt><trkpt lat="45.12887450429003" lon="14.858408160418104"><ele>443.0</ele><time>2026-05-01T16:59:55.999Z</time></trkpt><trkpt lat="45.12877030370347" lon="14.858515181153315"><ele>443.5</ele><time>2026-05-01T16:59:56.999Z</time></trkpt><trkpt lat="45.128668322245986" lon="14.858596743692571"><ele>444.0</ele><time>2026-05-01T16:59:57.999Z</time></trkpt><trkpt lat="45.12856050982039" lon="14.858678605769331"><ele>444.0</ele><time>2026-05-01T16:59:58.999Z</time></trkpt><trkpt lat="45.12845259255101" lon="14.858772068801768"><ele>444.0</ele><time>2026-05-01T16:59:59.999Z</time></trkpt><trkpt lat="45.12834289388747" lon="14.858858814957937"><ele>444.0</ele><time>2026-05-01T17:00:00.999Z</time></trkpt><trkpt lat="45.1282328631146" lon="14.858950687768862"><ele>444.0</ele><time>2026-05-01T17:00:01.999Z</time></trkpt><trkpt lat="45.12812281879196" lon="14.859018138976323"><ele>445.75</ele><time>2026-05-01T17:00:02.999Z</time></trkpt><trkpt lat="45.12801690055632" lon="14.85910544099339"><ele>447.5</ele><time>2026-05-01T17:00:03.999Z</time></trkpt><trkpt lat="45.127925262453665" lon="14.85921067809712"><ele>449.25</ele><time>2026-05-01T17:00:04.999Z</time></trkpt><trkpt lat="45.12781532868937" lon="14.85926790132738"><ele>451.0</ele><time>2026-05-01T17:00:05.999Z</time></trkpt><trkpt lat="45.12770573345705" lon="14.85933209495058"><ele>451.0</ele><time>2026-05-01T17:00:06.999Z</time></trkpt><trkpt lat="45.127604316942985" lon="14.859396523656866"><ele>451.0</ele><time>2026-05-01T17:00:07.999Z</time></trkpt><trkpt lat="45.1275021349792" lon="14.859472368651268"><ele>451.0</ele><time>2026-05-01T17:00:08.999Z</time></trkpt><trkpt lat="45.12737787398846" lon="14.859525240611838"><ele>451.0</ele><time>2026-05-01T17:00:09.999Z</time></trkpt><trkpt lat="45.12724904064787" lon="14.859593344284233"><ele>447.75</ele><time>2026-05-01T17:00:10.999Z</time></trkpt><trkpt lat="45.127118710885696" lon="14.859659534104374"><ele>444.5</ele><time>2026-05-01T17:00:11.999Z</time></trkpt><trkpt lat="45.12699310128453" lon="14.859721473123134"><ele>441.25</ele><time>2026-05-01T17:00:12.999Z</time></trkpt><trkpt lat="45.126886291617375" lon="14.859788151085732"><ele>438.0</ele><time>2026-05-01T17:00:13.999Z</time></trkpt><trkpt lat="45.126786754704014" lon="14.85984297725122"><ele>438.0</ele><time>2026-05-01T17:00:14.999Z</time></trkpt><trkpt lat="45.126687733963266" lon="14.859866312288753"><ele>438.0</ele><time>2026-05-01T17:00:15.999Z</time></trkpt><trkpt lat="45.12660223748575" lon="14.859895284912072"><ele>438.0</ele><time>2026-05-01T17:00:16.999Z</time></trkpt><trkpt lat="45.12652957661732" lon="14.859924610377153"><ele>438.0</ele><time>2026-05-01T17:00:17.999Z</time></trkpt><trkpt lat="45.1264602105452" lon="14.859983492298525"><ele>438.0</ele><time>2026-05-01T17:00:18.999Z</time></trkpt><trkpt lat="45.12639132363588" lon="14.86006709989058"><ele>438.0</ele><time>2026-05-01T17:00:19.999Z</time></trkpt><trkpt lat="45.126300213391914" lon="14.860171880624813"><ele>439.5</ele><time>2026-05-01T17:00:20.999Z</time></trkpt><trkpt lat="45.126197642359884" lon="14.860261698690971"><ele>441.0</ele><time>2026-05-01T17:00:21.999Z</time></trkpt><trkpt lat="45.12609730091513" lon="14.860334230238639"><ele>442.5</ele><time>2026-05-01T17:00:22.999Z</time></trkpt><trkpt lat="45.12599508238918" lon="14.860409217130679"><ele>444.0</ele><time>2026-05-01T17:00:23.999Z</time></trkpt><trkpt lat="45.12589573432284" lon="14.860480952049029"><ele>444.0</ele><time>2026-05-01T17:00:24.999Z</time></trkpt><trkpt lat="45.12580496662562" lon="14.860570189153966"><ele>444.0</ele><time>2026-05-01T17:00:25.999Z</time></trkpt><trkpt lat="45.12570932444783" lon="14.860623808056735"><ele>444.0</ele><time>2026-05-01T17:00:26.999Z</time></trkpt><trkpt lat="45.125619071348055" lon="14.860693365828213"><ele>444.0</ele><time>2026-05-01T17:00:27.999Z</time></trkpt><trkpt lat="45.12552691914057" lon="14.860761677292444"><ele>444.0</ele><time>2026-05-01T17:00:28.999Z</time></trkpt><trkpt lat="45.125437281593186" lon="14.860822116892065"><ele>444.6</ele><time>2026-05-01T17:00:29.999Z</time></trkpt><trkpt lat="45.12533609229006" lon="14.860870672827241"><ele>445.2</ele><time>2026-05-01T17:00:30.999Z</time></trkpt><trkpt lat="45.125245868864624" lon="14.86095864540055"><ele>445.80000000000007</ele><time>2026-05-01T17:00:31.999Z</time></trkpt><trkpt lat="45.12514601211949" lon="14.861005860319343"><ele>446.40000000000003</ele><time>2026-05-01T17:00:32.999Z</time></trkpt><trkpt lat="45.12506207678149" lon="14.861090233734808"><ele>447.0</ele><time>2026-05-01T17:00:33.999Z</time></trkpt><trkpt lat="45.12496520461573" lon="14.861148439440322"><ele>443.6</ele><time>2026-05-01T17:00:34.999Z</time></trkpt><trkpt lat="45.12487871374639" lon="14.861248408095975"><ele>440.20000000000005</ele><time>2026-05-01T17:00:35.999Z</time></trkpt><trkpt lat="45.12479293777298" lon="14.861317835028311"><ele>436.8</ele><time>2026-05-01T17:00:36.999Z</time></trkpt><trkpt lat="45.12470590862081" lon="14.86138213933798"><ele>433.4</ele><time>2026-05-01T17:00:37.999Z</time></trkpt><trkpt lat="45.124624366260264" lon="14.861448267591632"><ele>430.0</ele><time>2026-05-01T17:00:38.999Z</time></trkpt><trkpt lat="45.124544736457594" lon="14.861510757141806"><ele>430.00000000000006</ele><time>2026-05-01T17:00:39.999Z</time></trkpt><trkpt lat="45.12446779079538" lon="14.861574357039247"><ele>430.0</ele><time>2026-05-01T17:00:40.999Z</time></trkpt><trkpt lat="45.124400080308156" lon="14.861629821470666"><ele>430.0</ele><time>2026-05-01T17:00:41.999Z</time></trkpt><trkpt lat="45.12434392072833" lon="14.861674346830874"><ele>430.0</ele><time>2026-05-01T17:00:42.999Z</time></trkpt><trkpt lat="45.124265690920545" lon="14.861740162811415"><ele>430.00000000000006</ele><time>2026-05-01T17:00:44.999Z</time></trkpt><trkpt lat="45.12419764050769" lon="14.861780342763776"><ele>430.0</ele><time>2026-05-01T17:00:46.999Z</time></trkpt><trkpt lat="45.12413593387923" lon="14.861862423223034"><ele>429.6666666666667</ele><time>2026-05-01T17:00:48.999Z</time></trkpt><trkpt lat="45.1240566771885" lon="14.861908626275438"><ele>429.33333333333337</ele><time>2026-05-01T17:00:50.999Z</time></trkpt><trkpt lat="45.124012315531836" lon="14.861978212389193"><ele>429.0</ele><time>2026-05-01T17:00:53Z</time></trkpt><trkpt lat="45.123958671390064" lon="14.862031993975977"><ele>428.66666666666663</ele><time>2026-05-01T17:00:55Z</time></trkpt><trkpt lat="45.123898130507754" lon="14.862100000524013"><ele>428.3333333333333</ele><time>2026-05-01T17:00:57Z</time></trkpt><trkpt lat="45.12384159092321" lon="14.862167755027547"><ele>428.0</ele><time>2026-05-01T17:00:59Z</time></trkpt><trkpt lat="45.123761937018436" lon="14.862272889207592"><ele>427.99999999999994</ele><time>2026-05-01T17:01:01Z</time></trkpt><trkpt lat="45.12367076176529" lon="14.862370711815286"><ele>428.0</ele><time>2026-05-01T17:01:03Z</time></trkpt><trkpt lat="45.123611620725995" lon="14.862426633992705"><ele>428.0</ele><time>2026-05-01T17:01:04Z</time></trkpt><trkpt lat="45.12355575874873" lon="14.8624702899137"><ele>428.0</ele><time>2026-05-01T17:01:05Z</time></trkpt><trkpt lat="45.1234701753447" lon="14.862519248631692"><ele>427.99999999999994</ele><time>2026-05-01T17:01:07Z</time></trkpt><trkpt lat="45.12340174781157" lon="14.862541686473175"><ele>428.0</ele><time>2026-05-01T17:01:10Z</time></trkpt><trkpt lat="45.12333279771575" lon="14.862652517547527"><ele>427.99999999999994</ele><time>2026-05-01T17:11:14Z</time></trkpt><trkpt lat="45.12325530471754" lon="14.862745713615421"><ele>428.0</ele><time>2026-05-01T17:11:16Z</time></trkpt><trkpt lat="45.12316359329249" lon="14.862838274521208"><ele>428.0</ele><time>2026-05-01T17:11:18Z</time></trkpt><trkpt lat="45.12311546469476" lon="14.862897272927494"><ele>428.0</ele><time>2026-05-01T17:11:19Z</time></trkpt><trkpt lat="45.12304442307436" lon="14.862925576970108"><ele>427.99999999999994</ele><time>2026-05-01T17:11:20Z</time></trkpt><trkpt lat="45.12298918691624" lon="14.862990985430677"><ele>428.0</ele><time>2026-05-01T17:11:21Z</time></trkpt><trkpt lat="45.122929138813795" lon="14.863063132663223"><ele>427.99999999999994</ele><time>2026-05-01T17:11:22Z</time></trkpt><trkpt lat="45.12286841902823" lon="14.863133241062979"><ele>428.0</ele><time>2026-05-01T17:11:23Z</time></trkpt><trkpt lat="45.12281099017813" lon="14.86319468420893"><ele>428.0</ele><time>2026-05-01T17:11:24Z</time></trkpt><trkpt lat="45.122758774748185" lon="14.863271714426165"><ele>428.0</ele><time>2026-05-01T17:11:25Z</time></trkpt><trkpt lat="45.122683205319866" lon="14.863327653518844"><ele>427.99999999999994</ele><time>2026-05-01T17:11:26Z</time></trkpt><trkpt lat="45.122615541147916" lon="14.863397008338223"><ele>428.0</ele><time>2026-05-01T17:11:27Z</time></trkpt><trkpt lat="45.122547613172124" lon="14.863466010026256"><ele>429.4</ele><time>2026-05-01T17:11:28Z</time></trkpt><trkpt lat="45.122472040269166" lon="14.863539106537424"><ele>430.79999999999995</ele><time>2026-05-01T17:11:29Z</time></trkpt><trkpt lat="45.12239104524851" lon="14.863606513634222"><ele>432.2</ele><time>2026-05-01T17:11:30Z</time></trkpt><trkpt lat="45.1223075203272" lon="14.86369453216009"><ele>433.6</ele><time>2026-05-01T17:11:31Z</time></trkpt><trkpt lat="45.12221402360436" lon="14.863755626748372"><ele>435.0</ele><time>2026-05-01T17:11:32Z</time></trkpt><trkpt lat="45.122117830145925" lon="14.863824454244748"><ele>435.0</ele><time>2026-05-01T17:11:33Z</time></trkpt><trkpt lat="45.12201274314828" lon="14.863868827417342"><ele>435.0</ele><time>2026-05-01T17:11:34Z</time></trkpt><trkpt lat="45.121910227229904" lon="14.863929881655453"><ele>435.0</ele><time>2026-05-01T17:11:35Z</time></trkpt><trkpt lat="45.121803668517614" lon="14.864001520429714"><ele>435.0</ele><time>2026-05-01T17:11:36Z</time></trkpt><trkpt lat="45.12170881889123" lon="14.864096784570844"><ele>435.0</ele><time>2026-05-01T17:11:37Z</time></trkpt><trkpt lat="45.12160428044765" lon="14.864159825620778"><ele>435.0</ele><time>2026-05-01T17:11:38Z</time></trkpt><trkpt lat="45.121509681328185" lon="14.864223951220279"><ele>435.0</ele><time>2026-05-01T17:11:39Z</time></trkpt><trkpt lat="45.12142704742492" lon="14.864272874176239"><ele>435.0</ele><time>2026-05-01T17:11:40Z</time></trkpt><trkpt lat="45.121342806441234" lon="14.864317593093048"><ele>435.0</ele><time>2026-05-01T17:11:41Z</time></trkpt><trkpt lat="45.121255229324426" lon="14.864361706664095"><ele>437.0</ele><time>2026-05-01T17:11:42Z</time></trkpt><trkpt lat="45.12116659531346" lon="14.86442354213121"><ele>439.0</ele><time>2026-05-01T17:11:43Z</time></trkpt><trkpt lat="45.121067771712724" lon="14.864456587074718"><ele>441.0</ele><time>2026-05-01T17:11:44Z</time></trkpt><trkpt lat="45.12096492919723" lon="14.864499846942493"><ele>443.0</ele><time>2026-05-01T17:11:45Z</time></trkpt><trkpt lat="45.12084788427738" lon="14.864532282273403"><ele>445.0</ele><time>2026-05-01T17:11:46Z</time></trkpt><trkpt lat="45.12072539764174" lon="14.864535824299919"><ele>445.0</ele><time>2026-05-01T17:11:47Z</time></trkpt><trkpt lat="45.12062574029268" lon="14.864551259290543"><ele>445.0</ele><time>2026-05-01T17:11:48Z</time></trkpt><trkpt lat="45.1205374455751" lon="14.864561815143405"><ele>445.0</ele><time>2026-05-01T17:11:49Z</time></trkpt><trkpt lat="45.120439070134054" lon="14.86459476728208"><ele>445.0</ele><time>2026-05-01T17:11:50Z</time></trkpt><trkpt lat="45.12032685209087" lon="14.86458217143763"><ele>445.0</ele><time>2026-05-01T17:11:51Z</time></trkpt><trkpt lat="45.120243895728905" lon="14.864616935000404"><ele>445.0</ele><time>2026-05-01T17:11:52Z</time></trkpt><trkpt lat="45.12016133699575" lon="14.864632302416064"><ele>445.0</ele><time>2026-05-01T17:11:53Z</time></trkpt><trkpt lat="45.12007271842143" lon="14.864652022824657"><ele>445.0</ele><time>2026-05-01T17:11:54Z</time></trkpt><trkpt lat="45.11997517476928" lon="14.864719644812434"><ele>445.0</ele><time>2026-05-01T17:11:55Z</time></trkpt><trkpt lat="45.11986396558265" lon="14.864791855885056"><ele>445.0</ele><time>2026-05-01T17:11:56Z</time></trkpt><trkpt lat="45.11974368531477" lon="14.864839874491262"><ele>447.0</ele><time>2026-05-01T17:11:57Z</time></trkpt><trkpt lat="45.1196359671062" lon="14.864913449905924"><ele>449.0</ele><time>2026-05-01T17:11:58Z</time></trkpt><trkpt lat="45.11953565292463" lon="14.865005207659527"><ele>451.0</ele><time>2026-05-01T17:11:59Z</time></trkpt><trkpt lat="45.11943649440133" lon="14.86510112376556"><ele>453.0</ele><time>2026-05-01T17:12:00Z</time></trkpt><trkpt lat="45.119334383140185" lon="14.865201808882242"><ele>453.0</ele><time>2026-05-01T17:12:01Z</time></trkpt><trkpt lat="45.11923128715964" lon="14.86529822724871"><ele>453.0</ele><time>2026-05-01T17:12:02Z</time></trkpt><trkpt lat="45.11911690676335" lon="14.865371584755584"><ele>453.0</ele><time>2026-05-01T17:12:03Z</time></trkpt><trkpt lat="45.119010585095424" lon="14.865481624223536"><ele>453.0</ele><time>2026-05-01T17:12:04Z</time></trkpt><trkpt lat="45.11891089489795" lon="14.865617564686913"><ele>453.5</ele><time>2026-05-01T17:12:05Z</time></trkpt><trkpt lat="45.1188088293588" lon="14.865734255303606"><ele>454.0</ele><time>2026-05-01T17:12:06Z</time></trkpt><trkpt lat="45.11870748365328" lon="14.865849380243215"><ele>454.5</ele><time>2026-05-01T17:12:07Z</time></trkpt><trkpt lat="45.11860147945323" lon="14.865961783392006"><ele>455.0</ele><time>2026-05-01T17:12:08Z</time></trkpt><trkpt lat="45.11849022895216" lon="14.866073316432807"><ele>455.0</ele><time>2026-05-01T17:12:09Z</time></trkpt><trkpt lat="45.11837399499502" lon="14.866180916923922"><ele>455.0</ele><time>2026-05-01T17:12:10Z</time></trkpt><trkpt lat="45.11826907919071" lon="14.866307487663272"><ele>455.0</ele><time>2026-05-01T17:12:11Z</time></trkpt><trkpt lat="45.1181552596258" lon="14.866413342055253"><ele>455.0</ele><time>2026-05-01T17:12:12Z</time></trkpt><trkpt lat="45.118032634640954" lon="14.866509041911483"><ele>455.5</ele><time>2026-05-01T17:12:13Z</time></trkpt><trkpt lat="45.117913610400976" lon="14.86662359253422"><ele>456.0</ele><time>2026-05-01T17:12:14Z</time></trkpt><trkpt lat="45.11779225249012" lon="14.866740105570951"><ele>456.5</ele><time>2026-05-01T17:12:15Z</time></trkpt><trkpt lat="45.117672748341526" lon="14.866850485809605"><ele>457.0</ele><time>2026-05-01T17:12:16Z</time></trkpt><trkpt lat="45.11755277389252" lon="14.866959575290139"><ele>457.0</ele><time>2026-05-01T17:12:17Z</time></trkpt><trkpt lat="45.117437497950206" lon="14.867065354166222"><ele>457.0</ele><time>2026-05-01T17:12:18Z</time></trkpt><trkpt lat="45.117326081183535" lon="14.867170127858849"><ele>457.0</ele><time>2026-05-01T17:12:18.999Z</time></trkpt><trkpt lat="45.11721354388186" lon="14.8672768112557"><ele>457.0</ele><time>2026-05-01T17:12:19.999Z</time></trkpt><trkpt lat="45.11711068860974" lon="14.867372365594505"><ele>458.0</ele><time>2026-05-01T17:12:20.999Z</time></trkpt><trkpt lat="45.117019950557" lon="14.867455101700553"><ele>459.00000000000006</ele><time>2026-05-01T17:12:21.999Z</time></trkpt><trkpt lat="45.11692976724546" lon="14.867527519319374"><ele>460.00000000000006</ele><time>2026-05-01T17:12:22.999Z</time></trkpt><trkpt lat="45.116833505331115" lon="14.867587773488623"><ele>461.0</ele><time>2026-05-01T17:12:23.999Z</time></trkpt><trkpt lat="45.11673476991163" lon="14.8676580480965"><ele>462.0</ele><time>2026-05-01T17:12:24.999Z</time></trkpt><trkpt lat="45.11663633949495" lon="14.867696094804078"><ele>460.0</ele><time>2026-05-01T17:12:25.999Z</time></trkpt><trkpt lat="45.116539228173174" lon="14.867702091598652"><ele>458.0</ele><time>2026-05-01T17:12:26.999Z</time></trkpt><trkpt lat="45.11645626518577" lon="14.867711876187087"><ele>456.0</ele><time>2026-05-01T17:12:27.999Z</time></trkpt><trkpt lat="45.11637489939684" lon="14.867715712061496"><ele>454.0</ele><time>2026-05-01T17:12:28.999Z</time></trkpt><trkpt lat="45.11629588475701" lon="14.867722975462561"><ele>452.0</ele><time>2026-05-01T17:12:29.999Z</time></trkpt><trkpt lat="45.11622477178289" lon="14.867766518387338"><ele>450.0</ele><time>2026-05-01T17:12:30.999Z</time></trkpt><trkpt lat="45.11615268925345" lon="14.86781214691631"><ele>450.0</ele><time>2026-05-01T17:12:31.999Z</time></trkpt><trkpt lat="45.116071982713926" lon="14.867883398608523"><ele>450.0</ele><time>2026-05-01T17:12:32.999Z</time></trkpt><trkpt lat="45.11597670370726" lon="14.867960263683749"><ele>450.0</ele><time>2026-05-01T17:12:33.999Z</time></trkpt><trkpt lat="45.11587719947192" lon="14.868040164027096"><ele>450.0</ele><time>2026-05-01T17:12:34.999Z</time></trkpt><trkpt lat="45.115761137780574" lon="14.868093437710248"><ele>450.0</ele><time>2026-05-01T17:12:35.999Z</time></trkpt><trkpt lat="45.11565019067141" lon="14.868160845905322"><ele>448.25</ele><time>2026-05-01T17:12:36.999Z</time></trkpt><trkpt lat="45.115537408336714" lon="14.868222081908547"><ele>446.5</ele><time>2026-05-01T17:12:37.999Z</time></trkpt><trkpt lat="45.11541865891672" lon="14.8682791596343"><ele>444.75</ele><time>2026-05-01T17:12:38.999Z</time></trkpt><trkpt lat="45.11529320171105" lon="14.868338801746086"><ele>443.0</ele><time>2026-05-01T17:12:39.999Z</time></trkpt><trkpt lat="45.11516831624265" lon="14.868397895123113"><ele>445.25</ele><time>2026-05-01T17:12:40.999Z</time></trkpt><trkpt lat="45.115038548525334" lon="14.868459045128612"><ele>447.5</ele><time>2026-05-01T17:12:41.999Z</time></trkpt><trkpt lat="45.11490770900072" lon="14.868542209974077"><ele>449.75</ele><time>2026-05-01T17:12:42.999Z</time></trkpt><trkpt lat="45.11477252196464" lon="14.868594678363216"><ele>452.0</ele><time>2026-05-01T17:12:43.999Z</time></trkpt><trkpt lat="45.11463719786031" lon="14.868659720200766"><ele>452.0</ele><time>2026-05-01T17:12:44.999Z</time></trkpt><trkpt lat="45.11449038354476" lon="14.868685450426923"><ele>452.0</ele><time>2026-05-01T17:12:45.999Z</time></trkpt><trkpt lat="45.11434987488639" lon="14.868727365285567"><ele>452.0</ele><time>2026-05-01T17:12:46.999Z</time></trkpt><trkpt lat="45.11420752999345" lon="14.868765102266014"><ele>452.0</ele><time>2026-05-01T17:12:47.999Z</time></trkpt><trkpt lat="45.11407326380146" lon="14.868822916967384"><ele>451.75</ele><time>2026-05-01T17:12:48.999Z</time></trkpt><trkpt lat="45.11394752330987" lon="14.868833150607685"><ele>451.5</ele><time>2026-05-01T17:12:49.999Z</time></trkpt><trkpt lat="45.11382212354324" lon="14.868889260042872"><ele>451.25</ele><time>2026-05-01T17:12:50.999Z</time></trkpt><trkpt lat="45.11369223432494" lon="14.868936501824185"><ele>451.0</ele><time>2026-05-01T17:12:51.999Z</time></trkpt><trkpt lat="45.11355249017956" lon="14.868962559719087"><ele>451.0</ele><time>2026-05-01T17:12:52.999Z</time></trkpt><trkpt lat="45.11341952375579" lon="14.869004043243825"><ele>451.0</ele><time>2026-05-01T17:12:53.999Z</time></trkpt><trkpt lat="45.11328812734309" lon="14.869028937742767"><ele>451.0</ele><time>2026-05-01T17:12:54.999Z</time></trkpt><trkpt lat="45.11315672273104" lon="14.869043451023002"><ele>451.0</ele><time>2026-05-01T17:12:55.999Z</time></trkpt><trkpt lat="45.11301832380852" lon="14.86906429097139"><ele>450.5</ele><time>2026-05-01T17:12:56.999Z</time></trkpt><trkpt lat="45.11287910004115" lon="14.869093995395597"><ele>450.0</ele><time>2026-05-01T17:12:57.999Z</time></trkpt><trkpt lat="45.11275552579703" lon="14.869123826428229"><ele>449.5</ele><time>2026-05-01T17:12:58.999Z</time></trkpt><trkpt lat="45.11263208815805" lon="14.86915392085881"><ele>449.0</ele><time>2026-05-01T17:12:59.999Z</time></trkpt><trkpt lat="45.1125187435562" lon="14.869180146073903"><ele>450.5</ele><time>2026-05-01T17:13:00.999Z</time></trkpt><trkpt lat="45.112401213725484" lon="14.869209496140224"><ele>452.0</ele><time>2026-05-01T17:13:01.999Z</time></trkpt><trkpt lat="45.11228934389477" lon="14.869243470554084"><ele>453.5</ele><time>2026-05-01T17:13:02.999Z</time></trkpt><trkpt lat="45.11219189982025" lon="14.869309371707795"><ele>455.0</ele><time>2026-05-01T17:13:03.999Z</time></trkpt><trkpt lat="45.11208940085444" lon="14.86938081597142"><ele>455.0</ele><time>2026-05-01T17:13:04.999Z</time></trkpt><trkpt lat="45.111982211080715" lon="14.869468607516328"><ele>455.0</ele><time>2026-05-01T17:13:05.999Z</time></trkpt><trkpt lat="45.11186582746571" lon="14.869532637395427"><ele>455.0</ele><time>2026-05-01T17:13:06.999Z</time></trkpt><trkpt lat="45.111755761296074" lon="14.869620043113956"><ele>455.0</ele><time>2026-05-01T17:13:07.999Z</time></trkpt><trkpt lat="45.11164332967668" lon="14.869705662579685"><ele>454.0</ele><time>2026-05-01T17:13:08.999Z</time></trkpt><trkpt lat="45.11152722686764" lon="14.869791887689539"><ele>453.0</ele><time>2026-05-01T17:13:09.999Z</time></trkpt><trkpt lat="45.11140809992816" lon="14.869871420457011"><ele>452.0</ele><time>2026-05-01T17:13:10.999Z</time></trkpt><trkpt lat="45.11128565667455" lon="14.869947865558489"><ele>451.0</ele><time>2026-05-01T17:13:11.999Z</time></trkpt><trkpt lat="45.11116057221139" lon="14.870022757482264"><ele>451.0</ele><time>2026-05-01T17:13:12.999Z</time></trkpt><trkpt lat="45.11103296738659" lon="14.870096663712413"><ele>451.0</ele><time>2026-05-01T17:13:13.999Z</time></trkpt><trkpt lat="45.11092530164725" lon="14.870155723387802"><ele>451.0</ele><time>2026-05-01T17:13:14.999Z</time></trkpt><trkpt lat="45.11080436686756" lon="14.870216832984397"><ele>451.0</ele><time>2026-05-01T17:13:15.999Z</time></trkpt><trkpt lat="45.11069668354034" lon="14.870263059644229"><ele>452.5</ele><time>2026-05-01T17:13:16.999Z</time></trkpt><trkpt lat="45.11058245429889" lon="14.870298137657548"><ele>454.0</ele><time>2026-05-01T17:13:17.999Z</time></trkpt><trkpt lat="45.1104613080851" lon="14.870330463934696"><ele>455.5</ele><time>2026-05-01T17:13:18.999Z</time></trkpt><trkpt lat="45.110338535410854" lon="14.870361418189194"><ele>457.0</ele><time>2026-05-01T17:13:19.999Z</time></trkpt><trkpt lat="45.11021609107877" lon="14.870401725730302"><ele>457.0</ele><time>2026-05-01T17:13:20.999Z</time></trkpt><trkpt lat="45.11009657540216" lon="14.87043592569392"><ele>457.0</ele><time>2026-05-01T17:13:21.999Z</time></trkpt><trkpt lat="45.109981396558496" lon="14.87049454151822"><ele>457.0</ele><time>2026-05-01T17:13:22.999Z</time></trkpt><trkpt lat="45.10986443315754" lon="14.870550737456092"><ele>457.0</ele><time>2026-05-01T17:13:23.999Z</time></trkpt><trkpt lat="45.109747235675336" lon="14.870574089214339"><ele>458.25</ele><time>2026-05-01T17:13:24.999Z</time></trkpt><trkpt lat="45.109637646379916" lon="14.87059961538875"><ele>459.5</ele><time>2026-05-01T17:13:25.999Z</time></trkpt><trkpt lat="45.10952423457108" lon="14.870638914035077"><ele>460.75</ele><time>2026-05-01T17:13:26.999Z</time></trkpt><trkpt lat="45.10941228222019" lon="14.870661315188164"><ele>462.0</ele><time>2026-05-01T17:13:27.999Z</time></trkpt><trkpt lat="45.10929374362852" lon="14.870659620175223"><ele>462.0</ele><time>2026-05-01T17:13:28.999Z</time></trkpt><trkpt lat="45.1091804907944" lon="14.870676455909338"><ele>462.0</ele><time>2026-05-01T17:13:29.999Z</time></trkpt><trkpt lat="45.10906709430115" lon="14.870698270515879"><ele>462.0</ele><time>2026-05-01T17:13:30.999Z</time></trkpt><trkpt lat="45.10895553799705" lon="14.870719731168835"><ele>462.0</ele><time>2026-05-01T17:13:31.999Z</time></trkpt><trkpt lat="45.10884705241828" lon="14.870738347328604"><ele>462.6</ele><time>2026-05-01T17:13:32.999Z</time></trkpt><trkpt lat="45.10873609528971" lon="14.870755039488698"><ele>463.20000000000005</ele><time>2026-05-01T17:13:33.999Z</time></trkpt><trkpt lat="45.10863757562767" lon="14.870770682255497"><ele>463.8</ele><time>2026-05-01T17:13:34.999Z</time></trkpt><trkpt lat="45.108535560274376" lon="14.870809690256763"><ele>464.4</ele><time>2026-05-01T17:13:35.999Z</time></trkpt><trkpt lat="45.1084301890961" lon="14.870823397404319"><ele>465.0</ele><time>2026-05-01T17:13:36.999Z</time></trkpt><trkpt lat="45.10833225435874" lon="14.8708768427712"><ele>465.75</ele><time>2026-05-01T17:13:37.999Z</time></trkpt><trkpt lat="45.108225421301626" lon="14.870920356321625"><ele>466.5</ele><time>2026-05-01T17:13:38.999Z</time></trkpt><trkpt lat="45.1081176708267" lon="14.870966806686193"><ele>467.25</ele><time>2026-05-01T17:13:39.999Z</time></trkpt><trkpt lat="45.10800985873959" lon="14.871016072946158"><ele>468.0</ele><time>2026-05-01T17:13:40.999Z</time></trkpt><trkpt lat="45.10790218804123" lon="14.87107233932979"><ele>468.0</ele><time>2026-05-01T17:13:41.999Z</time></trkpt><trkpt lat="45.107795729097695" lon="14.871116291120622"><ele>468.0</ele><time>2026-05-01T17:13:42.999Z</time></trkpt><trkpt lat="45.10769391872837" lon="14.871176626406129"><ele>468.0</ele><time>2026-05-01T17:13:43.999Z</time></trkpt><trkpt lat="45.107591477049056" lon="14.87124090087038"><ele>468.0</ele><time>2026-05-01T17:13:44.999Z</time></trkpt><trkpt lat="45.10748576950213" lon="14.871315940694277"><ele>468.75</ele><time>2026-05-01T17:13:45.999Z</time></trkpt><trkpt lat="45.107378227288166" lon="14.871396901845557"><ele>469.5</ele><time>2026-05-01T17:13:46.999Z</time></trkpt><trkpt lat="45.10727623310413" lon="14.871479461859204"><ele>470.25</ele><time>2026-05-01T17:13:47.999Z</time></trkpt><trkpt lat="45.107174046840164" lon="14.871564384309519"><ele>471.0</ele><time>2026-05-01T17:13:48.999Z</time></trkpt><trkpt lat="45.10707613696067" lon="14.871630587077993"><ele>471.0</ele><time>2026-05-01T17:13:49.999Z</time></trkpt><trkpt lat="45.106997007443134" lon="14.871697355745486"><ele>471.0</ele><time>2026-05-01T17:13:50.999Z</time></trkpt><trkpt lat="45.10692249175567" lon="14.871756482434444"><ele>471.0</ele><time>2026-05-01T17:13:51.999Z</time></trkpt><trkpt lat="45.10684360171386" lon="14.871814609510018"><ele>471.0</ele><time>2026-05-01T17:13:52.999Z</time></trkpt><trkpt lat="45.10676031281476" lon="14.87186518553323"><ele>471.0</ele><time>2026-05-01T17:13:53.999Z</time></trkpt><trkpt lat="45.10667435242285" lon="14.871899336234556"><ele>471.0</ele><time>2026-05-01T17:13:54.999Z</time></trkpt><trkpt lat="45.10657686774327" lon="14.8719135858997"><ele>471.0</ele><time>2026-05-01T17:13:55.999Z</time></trkpt><trkpt lat="45.10647613381978" lon="14.871923268042378"><ele>471.0</ele><time>2026-05-01T17:13:56.999Z</time></trkpt><trkpt lat="45.10638963604673" lon="14.87192458912687"><ele>471.0</ele><time>2026-05-01T17:13:57.999Z</time></trkpt><trkpt lat="45.10630839629439" lon="14.871936849364447"><ele>471.0</ele><time>2026-05-01T17:13:58.999Z</time></trkpt><trkpt lat="45.106235237547196" lon="14.871962364875715"><ele>471.0</ele><time>2026-05-01T17:13:59.999Z</time></trkpt><trkpt lat="45.10616174518237" lon="14.871998950444652"><ele>471.0</ele><time>2026-05-01T17:14:00.999Z</time></trkpt><trkpt lat="45.10609061832403" lon="14.87204601581552"><ele>471.0</ele><time>2026-05-01T17:14:01.999Z</time></trkpt><trkpt lat="45.106015597100466" lon="14.872108242601051"><ele>471.0</ele><time>2026-05-01T17:14:02.999Z</time></trkpt><trkpt lat="45.10594184193074" lon="14.872186967822396"><ele>471.0</ele><time>2026-05-01T17:14:03.999Z</time></trkpt><trkpt lat="45.10588353836996" lon="14.872287672196435"><ele>471.0</ele><time>2026-05-01T17:14:04.999Z</time></trkpt><trkpt lat="45.105816900826994" lon="14.872365428525303"><ele>471.0</ele><time>2026-05-01T17:14:05.999Z</time></trkpt><trkpt lat="45.105756060415935" lon="14.872455705878084"><ele>471.0</ele><time>2026-05-01T17:14:06.999Z</time></trkpt><trkpt lat="45.10568624876401" lon="14.872522431169315"><ele>469.8333333333333</ele><time>2026-05-01T17:14:07.999Z</time></trkpt><trkpt lat="45.10563222069625" lon="14.87259290547514"><ele>468.66666666666663</ele><time>2026-05-01T17:14:08.999Z</time></trkpt><trkpt lat="45.10557679018103" lon="14.872655806453498"><ele>467.5</ele><time>2026-05-01T17:14:09.999Z</time></trkpt><trkpt lat="45.1055171058589" lon="14.872699722392412"><ele>466.3333333333333</ele><time>2026-05-01T17:14:10.999Z</time></trkpt><trkpt lat="45.1053805904136" lon="14.872695598108418"><ele>465.16666666666663</ele><time>2026-05-01T17:14:12.999Z</time></trkpt><trkpt lat="45.10531101026328" lon="14.872654956284443"><ele>464.0</ele><time>2026-05-01T17:14:13.999Z</time></trkpt><trkpt lat="45.105241918251934" lon="14.872596871320455"><ele>464.0</ele><time>2026-05-01T17:14:14.999Z</time></trkpt><trkpt lat="45.10517187011109" lon="14.872545312381796"><ele>464.0</ele><time>2026-05-01T17:14:15.999Z</time></trkpt><trkpt lat="45.10509446122908" lon="14.872506105344746"><ele>464.0</ele><time>2026-05-01T17:14:16.999Z</time></trkpt><trkpt lat="45.10499457818605" lon="14.872516934854984"><ele>464.0</ele><time>2026-05-01T17:14:17.999Z</time></trkpt><trkpt lat="45.10489305762495" lon="14.872493967690007"><ele>464.0</ele><time>2026-05-01T17:14:18.999Z</time></trkpt><trkpt lat="45.10477501727369" lon="14.872512617235088"><ele>462.25</ele><time>2026-05-01T17:14:19.999Z</time></trkpt><trkpt lat="45.10465276239465" lon="14.872517290675482"><ele>460.5</ele><time>2026-05-01T17:14:20.999Z</time></trkpt><trkpt lat="45.10451793561169" lon="14.872528187051788"><ele>458.75</ele><time>2026-05-01T17:14:21.999Z</time></trkpt><trkpt lat="45.10438553363813" lon="14.87254858908551"><ele>457.0</ele><time>2026-05-01T17:14:22.999Z</time></trkpt><trkpt lat="45.10426610627463" lon="14.872570738285244"><ele>457.0</ele><time>2026-05-01T17:14:23.999Z</time></trkpt><trkpt lat="45.10414375468815" lon="14.872586581443747"><ele>457.0</ele><time>2026-05-01T17:14:24.999Z</time></trkpt><trkpt lat="45.10402123959717" lon="14.87258035078885"><ele>457.0</ele><time>2026-05-01T17:14:25.999Z</time></trkpt><trkpt lat="45.10390645183988" lon="14.872616963518292"><ele>457.0</ele><time>2026-05-01T17:14:26.999Z</time></trkpt><trkpt lat="45.103796090219106" lon="14.872636946437222"><ele>459.8</ele><time>2026-05-01T17:14:27.999Z</time></trkpt><trkpt lat="45.10368551938454" lon="14.872656997959414"><ele>462.6</ele><time>2026-05-01T17:14:28.999Z</time></trkpt><trkpt lat="45.103579185385094" lon="14.872664786143291"><ele>465.40000000000003</ele><time>2026-05-01T17:14:29.999Z</time></trkpt><trkpt lat="45.103478890176895" lon="14.8726864336863"><ele>468.20000000000005</ele><time>2026-05-01T17:14:30.999Z</time></trkpt><trkpt lat="45.10336813690956" lon="14.87270204215645"><ele>471.0</ele><time>2026-05-01T17:14:31.999Z</time></trkpt><trkpt lat="45.10325193856606" lon="14.872737069576328"><ele>470.5</ele><time>2026-05-01T17:14:32.999Z</time></trkpt><trkpt lat="45.10314338958553" lon="14.872789482548253"><ele>470.0</ele><time>2026-05-01T17:14:33.999Z</time></trkpt><trkpt lat="45.10303444607939" lon="14.87280408595586"><ele>469.5</ele><time>2026-05-01T17:14:34.999Z</time></trkpt><trkpt lat="45.10292385258061" lon="14.872819483145616"><ele>469.0</ele><time>2026-05-01T17:14:35.999Z</time></trkpt><trkpt lat="45.102807233319986" lon="14.872823938217506"><ele>469.0</ele><time>2026-05-01T17:14:36.999Z</time></trkpt><trkpt lat="45.10267861416907" lon="14.872826557045418"><ele>469.0</ele><time>2026-05-01T17:14:37.999Z</time></trkpt><trkpt lat="45.10254670241245" lon="14.872850602123266"><ele>469.0</ele><time>2026-05-01T17:14:38.999Z</time></trkpt><trkpt lat="45.102407939067454" lon="14.87283507999394"><ele>469.0</ele><time>2026-05-01T17:14:39.999Z</time></trkpt><trkpt lat="45.102273481114686" lon="14.872835362545988"><ele>468.25</ele><time>2026-05-01T17:14:40.999Z</time></trkpt><trkpt lat="45.102150308849545" lon="14.872827593268823"><ele>467.5</ele><time>2026-05-01T17:14:41.999Z</time></trkpt><trkpt lat="45.10201667820662" lon="14.87281040833383"><ele>466.75</ele><time>2026-05-01T17:14:42.999Z</time></trkpt><trkpt lat="45.10187634277207" lon="14.872790070171831"><ele>466.0</ele><time>2026-05-01T17:14:43.999Z</time></trkpt><trkpt lat="45.10173095698139" lon="14.872793185360973"><ele>466.0</ele><time>2026-05-01T17:14:44.999Z</time></trkpt><trkpt lat="45.10158808967403" lon="14.87277160771614"><ele>466.0</ele><time>2026-05-01T17:14:45.999Z</time></trkpt><trkpt lat="45.10145315418197" lon="14.872744826770633"><ele>466.0</ele><time>2026-05-01T17:14:46.999Z</time></trkpt><trkpt lat="45.101329999144" lon="14.872699128899797"><ele>466.0</ele><time>2026-05-01T17:14:47.999Z</time></trkpt><trkpt lat="45.10120951143724" lon="14.872696239809287"><ele>466.0</ele><time>2026-05-01T17:14:48.999Z</time></trkpt><trkpt lat="45.101088277083285" lon="14.872673941232282"><ele>466.0</ele><time>2026-05-01T17:14:49.999Z</time></trkpt><trkpt lat="45.10095481380852" lon="14.872654056933346"><ele>466.0</ele><time>2026-05-01T17:14:50.999Z</time></trkpt><trkpt lat="45.10082004732682" lon="14.872628096405691"><ele>466.0</ele><time>2026-05-01T17:14:51.999Z</time></trkpt><trkpt lat="45.10068871706958" lon="14.872620471041161"><ele>464.0</ele><time>2026-05-01T17:14:52.999Z</time></trkpt><trkpt lat="45.10054898804874" lon="14.872621288002222"><ele>462.0</ele><time>2026-05-01T17:14:53.999Z</time></trkpt><trkpt lat="45.10041302880924" lon="14.872631361686585"><ele>460.0</ele><time>2026-05-01T17:14:54.999Z</time></trkpt><trkpt lat="45.10027125817749" lon="14.872649448207813"><ele>458.0</ele><time>2026-05-01T17:14:55.999Z</time></trkpt><trkpt lat="45.100132095345685" lon="14.872662790240678"><ele>458.0</ele><time>2026-05-01T17:14:56.999Z</time></trkpt><trkpt lat="45.100000154754895" lon="14.872680245528862"><ele>458.0</ele><time>2026-05-01T17:14:57.999Z</time></trkpt><trkpt lat="45.09987208856761" lon="14.872703404778866"><ele>458.0</ele><time>2026-05-01T17:14:58.999Z</time></trkpt><trkpt lat="45.099732447186625" lon="14.872739502051388"><ele>458.0</ele><time>2026-05-01T17:14:59.999Z</time></trkpt><trkpt lat="45.099591469806704" lon="14.87277621694775"><ele>455.75</ele><time>2026-05-01T17:15:00.999Z</time></trkpt><trkpt lat="45.09944409314156" lon="14.872810241029834"><ele>453.5</ele><time>2026-05-01T17:15:01.999Z</time></trkpt><trkpt lat="45.09930463950573" lon="14.87284206541693"><ele>451.25</ele><time>2026-05-01T17:15:02.999Z</time></trkpt><trkpt lat="45.09916984803695" lon="14.87288342903996"><ele>449.0</ele><time>2026-05-01T17:15:03.999Z</time></trkpt><trkpt lat="45.09903822679818" lon="14.872954397159706"><ele>446.0</ele><time>2026-05-01T17:15:04.999Z</time></trkpt><trkpt lat="45.098905229493084" lon="14.873002152144382"><ele>443.0</ele><time>2026-05-01T17:15:05.999Z</time></trkpt><trkpt lat="45.09878003187514" lon="14.873055926102612"><ele>440.0</ele><time>2026-05-01T17:15:06.999Z</time></trkpt><trkpt lat="45.09865401734531" lon="14.873108219770412"><ele>437.0</ele><time>2026-05-01T17:15:07.999Z</time></trkpt><trkpt lat="45.09853429587742" lon="14.873174677932813"><ele>437.0</ele><time>2026-05-01T17:15:08.999Z</time></trkpt><trkpt lat="45.098406931437786" lon="14.873233515760479"><ele>437.0</ele><time>2026-05-01T17:15:09.999Z</time></trkpt><trkpt lat="45.09828145699902" lon="14.873279306805294"><ele>437.0</ele><time>2026-05-01T17:15:10.999Z</time></trkpt><trkpt lat="45.0981642771236" lon="14.873333749025074"><ele>437.0</ele><time>2026-05-01T17:15:11.999Z</time></trkpt><trkpt lat="45.098046854865515" lon="14.87338683998697"><ele>438.75</ele><time>2026-05-01T17:15:12.999Z</time></trkpt><trkpt lat="45.097927541575764" lon="14.87344096824755"><ele>440.5</ele><time>2026-05-01T17:15:13.999Z</time></trkpt><trkpt lat="45.09780380781238" lon="14.873504407329126"><ele>442.25</ele><time>2026-05-01T17:15:14.999Z</time></trkpt><trkpt lat="45.097683728943466" lon="14.873562923970324"><ele>444.0</ele><time>2026-05-01T17:15:15.999Z</time></trkpt><trkpt lat="45.09756873642618" lon="14.873634497827211"><ele>444.0</ele><time>2026-05-01T17:15:16.999Z</time></trkpt><trkpt lat="45.0974586581924" lon="14.873700641159965"><ele>444.0</ele><time>2026-05-01T17:15:17.999Z</time></trkpt><trkpt lat="45.09733801746181" lon="14.873736701719473"><ele>444.0</ele><time>2026-05-01T17:15:18.999Z</time></trkpt><trkpt lat="45.097226495335065" lon="14.873811862636233"><ele>444.0</ele><time>2026-05-01T17:15:19.999Z</time></trkpt><trkpt lat="45.0971135795076" lon="14.873857047287895"><ele>439.75</ele><time>2026-05-01T17:15:20.999Z</time></trkpt><trkpt lat="45.09700046472657" lon="14.873909496429997"><ele>435.5</ele><time>2026-05-01T17:15:21.999Z</time></trkpt><trkpt lat="45.096889914296426" lon="14.873970804021628"><ele>431.25</ele><time>2026-05-01T17:15:22.999Z</time></trkpt><trkpt lat="45.09677002034987" lon="14.874025395458833"><ele>427.0</ele><time>2026-05-01T17:15:23.999Z</time></trkpt><trkpt lat="45.09665470826035" lon="14.874108090454934"><ele>428.0</ele><time>2026-05-01T17:15:24.999Z</time></trkpt><trkpt lat="45.09653564357258" lon="14.874184610446683"><ele>429.0</ele><time>2026-05-01T17:15:25.999Z</time></trkpt><trkpt lat="45.09641196521299" lon="14.874268862385838"><ele>430.0</ele><time>2026-05-01T17:15:26.999Z</time></trkpt><trkpt lat="45.096286832631314" lon="14.874346027393297"><ele>431.0</ele><time>2026-05-01T17:15:27.999Z</time></trkpt><trkpt lat="45.09616636861837" lon="14.874417576352498"><ele>431.0</ele><time>2026-05-01T17:15:28.999Z</time></trkpt><trkpt lat="45.0960416526569" lon="14.874466305485996"><ele>431.0</ele><time>2026-05-01T17:15:29.999Z</time></trkpt><trkpt lat="45.095924779248385" lon="14.874532783169977"><ele>431.0</ele><time>2026-05-01T17:15:30.999Z</time></trkpt><trkpt lat="45.09580175018371" lon="14.874611249461834"><ele>431.0</ele><time>2026-05-01T17:15:31.999Z</time></trkpt><trkpt lat="45.095689344731326" lon="14.87470003962844"><ele>427.0</ele><time>2026-05-01T17:15:32.999Z</time></trkpt><trkpt lat="45.09557105190163" lon="14.874778769024411"><ele>423.0</ele><time>2026-05-01T17:15:33.999Z</time></trkpt><trkpt lat="45.09545430269405" lon="14.874858340474955"><ele>419.0</ele><time>2026-05-01T17:15:34.999Z</time></trkpt><trkpt lat="45.095346513299496" lon="14.874937284852251"><ele>415.0</ele><time>2026-05-01T17:15:35.999Z</time></trkpt><trkpt lat="45.09524114889031" lon="14.875017727736694"><ele>414.5</ele><time>2026-05-01T17:15:36.999Z</time></trkpt><trkpt lat="45.09513855183965" lon="14.875108305455921"><ele>414.0</ele><time>2026-05-01T17:15:37.999Z</time></trkpt><trkpt lat="45.095029747300096" lon="14.875192148329186"><ele>413.5</ele><time>2026-05-01T17:15:38.999Z</time></trkpt><trkpt lat="45.09492823360595" lon="14.875310380857456"><ele>413.0</ele><time>2026-05-01T17:15:39.999Z</time></trkpt><trkpt lat="45.094815503407844" lon="14.87540531646984"><ele>413.0</ele><time>2026-05-01T17:15:40.999Z</time></trkpt><trkpt lat="45.09471645744148" lon="14.875510181325499"><ele>413.0</ele><time>2026-05-01T17:15:41.999Z</time></trkpt><trkpt lat="45.094623318692506" lon="14.875623564709429"><ele>413.0</ele><time>2026-05-01T17:15:42.999Z</time></trkpt><trkpt lat="45.094516874999954" lon="14.875738382518641"><ele>413.0</ele><time>2026-05-01T17:15:43.999Z</time></trkpt><trkpt lat="45.094408070002224" lon="14.875848595553386"><ele>413.0</ele><time>2026-05-01T17:15:44.999Z</time></trkpt><trkpt lat="45.0942852087839" lon="14.875935947011051"><ele>413.0</ele><time>2026-05-01T17:15:45.999Z</time></trkpt><trkpt lat="45.09417539226793" lon="14.876028696013698"><ele>413.0</ele><time>2026-05-01T17:15:46.999Z</time></trkpt><trkpt lat="45.0940572319806" lon="14.87612026723737"><ele>413.0</ele><time>2026-05-01T17:15:47.999Z</time></trkpt><trkpt lat="45.09394008870419" lon="14.876234019834833"><ele>411.75</ele><time>2026-05-01T17:15:48.999Z</time></trkpt><trkpt lat="45.09382111088498" lon="14.876320639417772"><ele>410.5</ele><time>2026-05-01T17:15:49.999Z</time></trkpt><trkpt lat="45.09370552839606" lon="14.876418316454513"><ele>409.25</ele><time>2026-05-01T17:15:50.999Z</time></trkpt><trkpt lat="45.09357643807891" lon="14.876522806031186"><ele>408.0</ele><time>2026-05-01T17:15:51.999Z</time></trkpt><trkpt lat="45.09345394850321" lon="14.876628093549748"><ele>408.0</ele><time>2026-05-01T17:15:52.999Z</time></trkpt><trkpt lat="45.09334091950319" lon="14.876724811625563"><ele>408.0</ele><time>2026-05-01T17:15:53.999Z</time></trkpt><trkpt lat="45.093241229102794" lon="14.87681898771458"><ele>408.0</ele><time>2026-05-01T17:15:54.999Z</time></trkpt><trkpt lat="45.093135464039605" lon="14.876892415937911"><ele>408.0</ele><time>2026-05-01T17:15:55.999Z</time></trkpt><trkpt lat="45.09304345131724" lon="14.876986527029523"><ele>407.59999999999997</ele><time>2026-05-01T17:15:56.999Z</time></trkpt><trkpt lat="45.09293964058025" lon="14.877052806135442"><ele>407.2</ele><time>2026-05-01T17:15:57.999Z</time></trkpt><trkpt lat="45.092850321383885" lon="14.87712596338337"><ele>406.8</ele><time>2026-05-01T17:15:58.999Z</time></trkpt><trkpt lat="45.09275796169893" lon="14.877201915090234"><ele>406.4</ele><time>2026-05-01T17:15:59.999Z</time></trkpt><trkpt lat="45.09267887062702" lon="14.877295650626957"><ele>406.0</ele><time>2026-05-01T17:16:00.999Z</time></trkpt><trkpt lat="45.092594655279385" lon="14.87736260576279"><ele>406.0</ele><time>2026-05-01T17:16:01.999Z</time></trkpt><trkpt lat="45.0925205063824" lon="14.877443507329973"><ele>406.0</ele><time>2026-05-01T17:16:02.999Z</time></trkpt><trkpt lat="45.092461576950214" lon="14.877558161528507"><ele>406.0</ele><time>2026-05-01T17:16:03.999Z</time></trkpt><trkpt lat="45.092398644376026" lon="14.877652760314287"><ele>406.0</ele><time>2026-05-01T17:16:04.999Z</time></trkpt><trkpt lat="45.09234054505592" lon="14.877747776911576"><ele>406.0</ele><time>2026-05-01T17:16:05.999Z</time></trkpt><trkpt lat="45.09229119172113" lon="14.877843144255637"><ele>404.4</ele><time>2026-05-01T17:16:06.999Z</time></trkpt><trkpt lat="45.09224941536848" lon="14.877958690898673"><ele>402.8</ele><time>2026-05-01T17:16:07.999Z</time></trkpt><trkpt lat="45.092210377447216" lon="14.87808826277932"><ele>401.2</ele><time>2026-05-01T17:16:08.999Z</time></trkpt><trkpt lat="45.092166356254374" lon="14.878225293062112"><ele>399.59999999999997</ele><time>2026-05-01T17:16:09.999Z</time></trkpt><trkpt lat="45.0921408001561" lon="14.878347308879905"><ele>398.0</ele><time>2026-05-01T17:16:10.999Z</time></trkpt><trkpt lat="45.09209538771374" lon="14.878435297987945"><ele>397.99999999999994</ele><time>2026-05-01T17:16:11.999Z</time></trkpt><trkpt lat="45.09204416022437" lon="14.878568606861402"><ele>398.0</ele><time>2026-05-01T17:16:13.999Z</time></trkpt><trkpt lat="45.092008469865156" lon="14.878651607720535"><ele>398.0</ele><time>2026-05-01T17:16:15.999Z</time></trkpt><trkpt lat="45.09196819545036" lon="14.878740039924208"><ele>398.0</ele><time>2026-05-01T17:16:18.999Z</time></trkpt><trkpt lat="45.09192174772499" lon="14.878831092740334"><ele>397.99999999999994</ele><time>2026-05-01T17:16:22.999Z</time></trkpt><trkpt lat="45.09189377494519" lon="14.878925708879905"><ele>398.0</ele><time>2026-05-01T17:16:26.999Z</time></trkpt><trkpt lat="45.091829779966915" lon="14.87900675418398"><ele>397.99999999999994</ele><time>2026-05-01T17:16:30.999Z</time></trkpt><trkpt lat="45.09178745962106" lon="14.879097121596843"><ele>398.0</ele><time>2026-05-01T17:16:33.999Z</time></trkpt><trkpt lat="45.09173890325396" lon="14.879189199310757"><ele>398.0</ele><time>2026-05-01T17:16:36.999Z</time></trkpt><trkpt lat="45.09170668373264" lon="14.879266366330723"><ele>398.0</ele><time>2026-05-01T17:16:38.999Z</time></trkpt><trkpt lat="45.09167343589621" lon="14.879369570825018"><ele>397.99999999999994</ele><time>2026-05-01T17:16:41.999Z</time></trkpt><trkpt lat="45.09162630426169" lon="14.879496213543337"><ele>398.0</ele><time>2026-05-01T17:16:43.999Z</time></trkpt><trkpt lat="45.09158737490622" lon="14.879647530886958"><ele>398.49999999999994</ele><time>2026-05-01T17:16:45.999Z</time></trkpt><trkpt lat="45.09151038126944" lon="14.879790307832472"><ele>399.0</ele><time>2026-05-01T17:16:47.999Z</time></trkpt><trkpt lat="45.09147603081592" lon="14.879876894158109"><ele>399.5</ele><time>2026-05-01T17:16:48.999Z</time></trkpt><trkpt lat="45.09141585469643" lon="14.879949616734226"><ele>400.0</ele><time>2026-05-01T17:16:49.999Z</time></trkpt><trkpt lat="45.091337323709794" lon="14.879979356623041"><ele>400.49999999999994</ele><time>2026-05-01T17:16:50.999Z</time></trkpt><trkpt lat="45.091301224373225" lon="14.880098949342928"><ele>401.0</ele><time>2026-05-01T17:16:51.999Z</time></trkpt><trkpt lat="45.09124999610418" lon="14.880166729510254"><ele>400.99999999999994</ele><time>2026-05-01T17:16:52.999Z</time></trkpt><trkpt lat="45.09119833925059" lon="14.880235879060857"><ele>401.0</ele><time>2026-05-01T17:16:53.999Z</time></trkpt><trkpt lat="45.091148633043986" lon="14.880303425883312"><ele>401.0</ele><time>2026-05-01T17:16:54.999Z</time></trkpt><trkpt lat="45.09105645067162" lon="14.880425173852332"><ele>401.0</ele><time>2026-05-01T17:16:56.999Z</time></trkpt><trkpt lat="45.090996715730405" lon="14.880494119241897"><ele>400.99999999999994</ele><time>2026-05-01T17:16:57.999Z</time></trkpt><trkpt lat="45.090936840638456" lon="14.880561697165165"><ele>401.0</ele><time>2026-05-01T17:16:58.999Z</time></trkpt><trkpt lat="45.090857551982516" lon="14.880652268029998"><ele>401.0</ele><time>2026-05-01T17:16:59.999Z</time></trkpt><trkpt lat="45.09078273257692" lon="14.880744437490833"><ele>401.0</ele><time>2026-05-01T17:17:00.999Z</time></trkpt><trkpt lat="45.09070799402754" lon="14.880851321296664"><ele>401.0</ele><time>2026-05-01T17:17:01.999Z</time></trkpt><trkpt lat="45.09062919141595" lon="14.880960699709401"><ele>401.0</ele><time>2026-05-01T17:17:02.999Z</time></trkpt><trkpt lat="45.09055054098803" lon="14.881061344550961"><ele>401.0</ele><time>2026-05-01T17:17:03.999Z</time></trkpt><trkpt lat="45.09048745618127" lon="14.881141810040381"><ele>402.14285714285717</ele><time>2026-05-01T17:17:04.999Z</time></trkpt><trkpt lat="45.09043987836053" lon="14.881223015639335"><ele>403.28571428571433</ele><time>2026-05-01T17:17:05.999Z</time></trkpt><trkpt lat="45.0903935074629" lon="14.88129513134818"><ele>404.42857142857144</ele><time>2026-05-01T17:17:06.999Z</time></trkpt><trkpt lat="45.090349018090336" lon="14.881360137765732"><ele>405.57142857142856</ele><time>2026-05-01T17:17:07.999Z</time></trkpt><trkpt lat="45.090299538259146" lon="14.881437562072218"><ele>406.7142857142857</ele><time>2026-05-01T17:17:08.999Z</time></trkpt><trkpt lat="45.09024861670432" lon="14.88151625250934"><ele>407.85714285714283</ele><time>2026-05-01T17:17:09.999Z</time></trkpt><trkpt lat="45.09018543264979" lon="14.881595801097122"><ele>409.0</ele><time>2026-05-01T17:17:10.999Z</time></trkpt><trkpt lat="45.09011209697425" lon="14.881680355781915"><ele>411.2</ele><time>2026-05-01T17:17:11.999Z</time></trkpt><trkpt lat="45.09003417012267" lon="14.881768659051298"><ele>413.4</ele><time>2026-05-01T17:17:12.999Z</time></trkpt><trkpt lat="45.08994422574734" lon="14.88183423623469"><ele>415.6</ele><time>2026-05-01T17:17:13.999Z</time></trkpt><trkpt lat="45.08984809817375" lon="14.881943515859257"><ele>417.8</ele><time>2026-05-01T17:17:14.999Z</time></trkpt><trkpt lat="45.08975574708191" lon="14.882039955070054"><ele>420.0</ele><time>2026-05-01T17:17:15.999Z</time></trkpt><trkpt lat="45.08965536630021" lon="14.882121517045684"><ele>420.25</ele><time>2026-05-01T17:17:16.999Z</time></trkpt><trkpt lat="45.089559554614496" lon="14.882196757089018"><ele>420.5</ele><time>2026-05-01T17:17:17.999Z</time></trkpt><trkpt lat="45.08945126388316" lon="14.882241134681218"><ele>420.75</ele><time>2026-05-01T17:17:18.999Z</time></trkpt><trkpt lat="45.08933703548052" lon="14.882272858903411"><ele>421.0</ele><time>2026-05-01T17:17:19.999Z</time></trkpt><trkpt lat="45.089214653501585" lon="14.882303327577104"><ele>421.0</ele><time>2026-05-01T17:17:20.999Z</time></trkpt><trkpt lat="45.089100267060076" lon="14.882331157082115"><ele>421.0</ele><time>2026-05-01T17:17:21.999Z</time></trkpt><trkpt lat="45.08898841676345" lon="14.882379895148341"><ele>421.0</ele><time>2026-05-01T17:17:22.999Z</time></trkpt><trkpt lat="45.088880035738164" lon="14.882459912556216"><ele>421.0</ele><time>2026-05-01T17:17:23.999Z</time></trkpt><trkpt lat="45.08876197816267" lon="14.882547328957088"><ele>422.25</ele><time>2026-05-01T17:17:24.999Z</time></trkpt><trkpt lat="45.08864456877033" lon="14.88264740823314"><ele>423.5</ele><time>2026-05-01T17:17:25.999Z</time></trkpt><trkpt lat="45.08852843669596" lon="14.882750458769769"><ele>424.75</ele><time>2026-05-01T17:17:26.999Z</time></trkpt><trkpt lat="45.08840041007387" lon="14.882855616802267"><ele>426.0</ele><time>2026-05-01T17:17:27.999Z</time></trkpt><trkpt lat="45.08827342739169" lon="14.88297078519937"><ele>424.0</ele><time>2026-05-01T17:17:28.999Z</time></trkpt><trkpt lat="45.088136804377065" lon="14.883067296200576"><ele>422.0</ele><time>2026-05-01T17:17:29.999Z</time></trkpt><trkpt lat="45.08801430634705" lon="14.883212023838363"><ele>420.0</ele><time>2026-05-01T17:17:30.999Z</time></trkpt><trkpt lat="45.08787869322675" lon="14.883337409449393"><ele>423.0</ele><time>2026-05-01T17:17:31.999Z</time></trkpt><trkpt lat="45.08774859819718" lon="14.883459625591309"><ele>426.0</ele><time>2026-05-01T17:17:32.999Z</time></trkpt><trkpt lat="45.0876277229057" lon="14.883560969591331"><ele>429.0</ele><time>2026-05-01T17:17:33.999Z</time></trkpt><trkpt lat="45.08749715417952" lon="14.883652700296151"><ele>432.0</ele><time>2026-05-01T17:17:34.999Z</time></trkpt><trkpt lat="45.08735937083433" lon="14.883739751966791"><ele>432.0</ele><time>2026-05-01T17:17:35.999Z</time></trkpt><trkpt lat="45.0872182774045" lon="14.883828113427237"><ele>432.0</ele><time>2026-05-01T17:17:36.999Z</time></trkpt><trkpt lat="45.087079123847964" lon="14.883920097199628"><ele>432.0</ele><time>2026-05-01T17:17:37.999Z</time></trkpt><trkpt lat="45.08694023124176" lon="14.884011857695832"><ele>432.0</ele><time>2026-05-01T17:17:38.999Z</time></trkpt><trkpt lat="45.086803068056646" lon="14.884096403979985"><ele>432.0</ele><time>2026-05-01T17:17:39.999Z</time></trkpt><trkpt lat="45.08666303352456" lon="14.88418001213153"><ele>432.0</ele><time>2026-05-01T17:17:40.999Z</time></trkpt><trkpt lat="45.08652582860131" lon="14.88426498987585"><ele>435.33333333333337</ele><time>2026-05-01T17:17:41.999Z</time></trkpt><trkpt lat="45.08638841251166" lon="14.884353834066298"><ele>438.6666666666667</ele><time>2026-05-01T17:17:42.999Z</time></trkpt><trkpt lat="45.08625048878357" lon="14.88445096183866"><ele>442.0</ele><time>2026-05-01T17:17:43.999Z</time></trkpt><trkpt lat="45.086112986399996" lon="14.884555117134637"><ele>442.0</ele><time>2026-05-01T17:17:44.999Z</time></trkpt><trkpt lat="45.085977444134215" lon="14.884668277848963"><ele>442.0</ele><time>2026-05-01T17:17:45.999Z</time></trkpt><trkpt lat="45.08584137709436" lon="14.884786690175712"><ele>442.0</ele><time>2026-05-01T17:17:46.999Z</time></trkpt><trkpt lat="45.08570349272502" lon="14.8849020080609"><ele>441.75</ele><time>2026-05-01T17:17:47.999Z</time></trkpt><trkpt lat="45.085576295985646" lon="14.8850009861705"><ele>441.5</ele><time>2026-05-01T17:17:48.999Z</time></trkpt><trkpt lat="45.08546245716946" lon="14.885086364171748"><ele>441.25</ele><time>2026-05-01T17:17:49.999Z</time></trkpt><trkpt lat="45.08535907183538" lon="14.885159166941348"><ele>441.0</ele><time>2026-05-01T17:17:50.999Z</time></trkpt><trkpt lat="45.08525861468912" lon="14.885217439812816"><ele>442.4</ele><time>2026-05-01T17:17:51.999Z</time></trkpt><trkpt lat="45.0851596584927" lon="14.885239229301943"><ele>443.8</ele><time>2026-05-01T17:17:52.999Z</time></trkpt><trkpt lat="45.08505744463852" lon="14.885225901382684"><ele>445.19999999999993</ele><time>2026-05-01T17:17:53.999Z</time></trkpt><trkpt lat="45.08494681660142" lon="14.88519397777528"><ele>446.59999999999997</ele><time>2026-05-01T17:17:54.999Z</time></trkpt><trkpt lat="45.08482848698519" lon="14.88516813737857"><ele>448.0</ele><time>2026-05-01T17:17:55.999Z</time></trkpt><trkpt lat="45.08470177180245" lon="14.885143779007157"><ele>448.0</ele><time>2026-05-01T17:17:56.999Z</time></trkpt><trkpt lat="45.08457425990774" lon="14.885114487898019"><ele>448.0</ele><time>2026-05-01T17:17:57.999Z</time></trkpt><trkpt lat="45.08444401887595" lon="14.885088844413552"><ele>448.0</ele><time>2026-05-01T17:17:58.999Z</time></trkpt><trkpt lat="45.08430689398019" lon="14.885073070176569"><ele>448.0</ele><time>2026-05-01T17:17:59.999Z</time></trkpt><trkpt lat="45.08416437537004" lon="14.885047980630537"><ele>447.75</ele><time>2026-05-01T17:18:00.999Z</time></trkpt><trkpt lat="45.084019190912485" lon="14.885058169365587"><ele>447.5</ele><time>2026-05-01T17:18:01.999Z</time></trkpt><trkpt lat="45.08387424649651" lon="14.885070867741803"><ele>447.25</ele><time>2026-05-01T17:18:02.999Z</time></trkpt><trkpt lat="45.083729163924744" lon="14.885108070725362"><ele>447.0</ele><time>2026-05-01T17:18:03.999Z</time></trkpt><trkpt lat="45.083579335036" lon="14.885121209011487"><ele>446.75</ele><time>2026-05-01T17:18:04.999Z</time></trkpt><trkpt lat="45.08342930878567" lon="14.88510733534392"><ele>446.5</ele><time>2026-05-01T17:18:05.999Z</time></trkpt><trkpt lat="45.08327971943666" lon="14.885114249468252"><ele>446.25</ele><time>2026-05-01T17:18:06.999Z</time></trkpt><trkpt lat="45.08313109087123" lon="14.885119655599022"><ele>446.0</ele><time>2026-05-01T17:18:07.999Z</time></trkpt><trkpt lat="45.082982711678056" lon="14.885136884968746"><ele>445.75</ele><time>2026-05-01T17:18:08.999Z</time></trkpt><trkpt lat="45.082837181980146" lon="14.885124464977213"><ele>445.5</ele><time>2026-05-01T17:18:10Z</time></trkpt><trkpt lat="45.08269139498257" lon="14.885112199800568"><ele>445.25</ele><time>2026-05-01T17:18:11Z</time></trkpt><trkpt lat="45.08254913492143" lon="14.885102409907775"><ele>445.0</ele><time>2026-05-01T17:18:12Z</time></trkpt><trkpt lat="45.08241842403139" lon="14.885093460459233"><ele>445.0</ele><time>2026-05-01T17:18:13Z</time></trkpt><trkpt lat="45.08228898005779" lon="14.885089909091477"><ele>445.0</ele><time>2026-05-01T17:18:14Z</time></trkpt><trkpt lat="45.0821636468841" lon="14.88510580277818"><ele>445.0</ele><time>2026-05-01T17:18:15Z</time></trkpt><trkpt lat="45.0820383979055" lon="14.88515233611624"><ele>445.0</ele><time>2026-05-01T17:18:16Z</time></trkpt><trkpt lat="45.08191062708443" lon="14.88522428947142"><ele>445.0</ele><time>2026-05-01T17:18:17Z</time></trkpt><trkpt lat="45.08178996671973" lon="14.885317799592974"><ele>445.0</ele><time>2026-05-01T17:18:18Z</time></trkpt><trkpt lat="45.081669785601946" lon="14.885404267777785"><ele>445.0</ele><time>2026-05-01T17:18:19Z</time></trkpt><trkpt lat="45.081542603870886" lon="14.88549209113377"><ele>445.0</ele><time>2026-05-01T17:18:20Z</time></trkpt><trkpt lat="45.081417427753166" lon="14.885579086665324"><ele>444.6666666666667</ele><time>2026-05-01T17:18:21Z</time></trkpt><trkpt lat="45.08128601820312" lon="14.88566381173787"><ele>444.33333333333337</ele><time>2026-05-01T17:18:22Z</time></trkpt><trkpt lat="45.08114887364405" lon="14.885753030145823"><ele>444.0</ele><time>2026-05-01T17:18:23Z</time></trkpt><trkpt lat="45.081008885779774" lon="14.885847868464557"><ele>446.0</ele><time>2026-05-01T17:18:24Z</time></trkpt><trkpt lat="45.080871341201785" lon="14.885941912822256"><ele>448.0</ele><time>2026-05-01T17:18:25Z</time></trkpt><trkpt lat="45.08073320022453" lon="14.886030294647542"><ele>450.0</ele><time>2026-05-01T17:18:26Z</time></trkpt><trkpt lat="45.08059400802499" lon="14.886116516587865"><ele>450.66666666666663</ele><time>2026-05-01T17:18:27Z</time></trkpt><trkpt lat="45.080454286889015" lon="14.88619806572903"><ele>451.3333333333333</ele><time>2026-05-01T17:18:28Z</time></trkpt><trkpt lat="45.08031040795481" lon="14.886269322262825"><ele>452.0</ele><time>2026-05-01T17:18:29Z</time></trkpt><trkpt lat="45.0801640928303" lon="14.886339626729052"><ele>452.0</ele><time>2026-05-01T17:18:30Z</time></trkpt><trkpt lat="45.08001678836321" lon="14.886411419620499"><ele>452.0</ele><time>2026-05-01T17:18:31Z</time></trkpt><trkpt lat="45.0798662148545" lon="14.886485586387522"><ele>452.0</ele><time>2026-05-01T17:18:32Z</time></trkpt><trkpt lat="45.0797128777647" lon="14.886560378421665"><ele>452.0</ele><time>2026-05-01T17:18:33Z</time></trkpt><trkpt lat="45.07955761125701" lon="14.886638294575746"><ele>452.0</ele><time>2026-05-01T17:18:34Z</time></trkpt><trkpt lat="45.07940009214764" lon="14.886715168082974"><ele>452.0</ele><time>2026-05-01T17:18:35Z</time></trkpt><trkpt lat="45.07923995786986" lon="14.886792538930296"><ele>453.0</ele><time>2026-05-01T17:18:36Z</time></trkpt><trkpt lat="45.07908315796623" lon="14.886872042784695"><ele>454.0</ele><time>2026-05-01T17:18:37Z</time></trkpt><trkpt lat="45.0789233787287" lon="14.886954844380346"><ele>455.0</ele><time>2026-05-01T17:18:38Z</time></trkpt><trkpt lat="45.07875724298157" lon="14.887042581240816"><ele>455.0</ele><time>2026-05-01T17:18:39Z</time></trkpt><trkpt lat="45.07859391072873" lon="14.887127777219906"><ele>455.0</ele><time>2026-05-01T17:18:40Z</time></trkpt><trkpt lat="45.07843140384618" lon="14.887212572571096"><ele>455.0</ele><time>2026-05-01T17:18:41Z</time></trkpt><trkpt lat="45.07826656523258" lon="14.887268762605085"><ele>455.66666666666663</ele><time>2026-05-01T17:18:42Z</time></trkpt><trkpt lat="45.078105371886" lon="14.887347255121105"><ele>456.33333333333337</ele><time>2026-05-01T17:18:43Z</time></trkpt><trkpt lat="45.07795211240779" lon="14.887450494569181"><ele>457.0</ele><time>2026-05-01T17:18:44Z</time></trkpt><trkpt lat="45.07779289680284" lon="14.887525427144348"><ele>457.0</ele><time>2026-05-01T17:18:45Z</time></trkpt><trkpt lat="45.077633632028046" lon="14.887607315583931"><ele>457.0</ele><time>2026-05-01T17:18:46Z</time></trkpt><trkpt lat="45.07746537245912" lon="14.887692966223463"><ele>457.0</ele><time>2026-05-01T17:18:47Z</time></trkpt><trkpt lat="45.07729728111955" lon="14.887778544159556"><ele>457.33333333333337</ele><time>2026-05-01T17:18:48Z</time></trkpt><trkpt lat="45.07714589594325" lon="14.887853616739013"><ele>457.66666666666663</ele><time>2026-05-01T17:18:49Z</time></trkpt><trkpt lat="45.07700906907952" lon="14.887929449464485"><ele>458.0</ele><time>2026-05-01T17:18:50Z</time></trkpt><trkpt lat="45.07686745152221" lon="14.888016800207767"><ele>458.0</ele><time>2026-05-01T17:18:51Z</time></trkpt><trkpt lat="45.0767152307425" lon="14.88809236704152"><ele>458.0</ele><time>2026-05-01T17:18:52Z</time></trkpt><trkpt lat="45.07658023139779" lon="14.88822357079515"><ele>458.0</ele><time>2026-05-01T17:18:53Z</time></trkpt><trkpt lat="45.07644141074212" lon="14.888330310109058"><ele>459.0</ele><time>2026-05-01T17:18:54Z</time></trkpt><trkpt lat="45.07631942048064" lon="14.888440365517745"><ele>460.0</ele><time>2026-05-01T17:18:55Z</time></trkpt><trkpt lat="45.07620332918759" lon="14.888566046040797"><ele>461.0</ele><time>2026-05-01T17:18:56Z</time></trkpt><trkpt lat="45.076082834156765" lon="14.888694825718673"><ele>462.0</ele><time>2026-05-01T17:18:57Z</time></trkpt><trkpt lat="45.075964994794056" lon="14.888837726187763"><ele>462.0</ele><time>2026-05-01T17:18:58Z</time></trkpt><trkpt lat="45.07584686481008" lon="14.888977000666317"><ele>462.0</ele><time>2026-05-01T17:18:59Z</time></trkpt><trkpt lat="45.07572582929176" lon="14.88910732186753"><ele>462.0</ele><time>2026-05-01T17:19:00Z</time></trkpt><trkpt lat="45.075621733126276" lon="14.88925250815558"><ele>463.5</ele><time>2026-05-01T17:19:01Z</time></trkpt><trkpt lat="45.075510393877686" lon="14.889375883413646"><ele>465.0</ele><time>2026-05-01T17:19:02Z</time></trkpt><trkpt lat="45.07539610780976" lon="14.889486678694038"><ele>466.5</ele><time>2026-05-01T17:19:03Z</time></trkpt><trkpt lat="45.075268639629364" lon="14.889549222723288"><ele>468.0</ele><time>2026-05-01T17:19:04Z</time></trkpt><trkpt lat="45.075136911791446" lon="14.889616235425407"><ele>468.0</ele><time>2026-05-01T17:19:05Z</time></trkpt><trkpt lat="45.07499528000861" lon="14.889680586756592"><ele>468.0</ele><time>2026-05-01T17:19:06Z</time></trkpt><trkpt lat="45.074850553593606" lon="14.889762348289963"><ele>468.0</ele><time>2026-05-01T17:19:07Z</time></trkpt><trkpt lat="45.07470196253997" lon="14.889826734165359"><ele>468.0</ele><time>2026-05-01T17:19:08Z</time></trkpt><trkpt lat="45.074561014191225" lon="14.889900064690035"><ele>468.0</ele><time>2026-05-01T17:19:09Z</time></trkpt><trkpt lat="45.07442584482455" lon="14.889988807443936"><ele>468.0</ele><time>2026-05-01T17:19:10Z</time></trkpt><trkpt lat="45.074303913545535" lon="14.890082233136726"><ele>468.0</ele><time>2026-05-01T17:19:11Z</time></trkpt><trkpt lat="45.074202793215406" lon="14.890173027073157"><ele>468.0</ele><time>2026-05-01T17:19:12Z</time></trkpt><trkpt lat="45.07412131560989" lon="14.89026817539059"><ele>468.0</ele><time>2026-05-01T17:19:13Z</time></trkpt><trkpt lat="45.07405264968513" lon="14.89039316957646"><ele>468.0</ele><time>2026-05-01T17:19:14Z</time></trkpt><trkpt lat="45.07398646969388" lon="14.890534232577313"><ele>468.0</ele><time>2026-05-01T17:19:15Z</time></trkpt><trkpt lat="45.073919252845116" lon="14.890691856983064"><ele>467.2</ele><time>2026-05-01T17:19:16Z</time></trkpt><trkpt lat="45.07384941516213" lon="14.890836396689986"><ele>466.4</ele><time>2026-05-01T17:19:17Z</time></trkpt><trkpt lat="45.073787788516476" lon="14.890970633492277"><ele>465.59999999999997</ele><time>2026-05-01T17:19:18Z</time></trkpt><trkpt lat="45.07371519908705" lon="14.891068581054741"><ele>464.79999999999995</ele><time>2026-05-01T17:19:19Z</time></trkpt><trkpt lat="45.0736219080827" lon="14.89107968121466"><ele>464.0</ele><time>2026-05-01T17:19:20Z</time></trkpt><trkpt lat="45.07351706827769" lon="14.891148937005722"><ele>466.0</ele><time>2026-05-01T17:19:21Z</time></trkpt><trkpt lat="45.07339922516453" lon="14.89119982823623"><ele>468.0</ele><time>2026-05-01T17:19:22Z</time></trkpt><trkpt lat="45.07328301658171" lon="14.891258437039744"><ele>470.0</ele><time>2026-05-01T17:19:23Z</time></trkpt><trkpt lat="45.07317046723441" lon="14.891321928370536"><ele>472.0</ele><time>2026-05-01T17:19:24Z</time></trkpt><trkpt lat="45.07305635130794" lon="14.891378321044712"><ele>472.0</ele><time>2026-05-01T17:19:25Z</time></trkpt><trkpt lat="45.07295366439914" lon="14.891419164158242"><ele>472.0</ele><time>2026-05-01T17:19:26Z</time></trkpt><trkpt lat="45.07283482888719" lon="14.891429029045144"><ele>472.0</ele><time>2026-05-01T17:19:27Z</time></trkpt><trkpt lat="45.072713721741366" lon="14.891433991471025"><ele>472.0</ele><time>2026-05-01T17:19:28Z</time></trkpt><trkpt lat="45.07260784478849" lon="14.891456361889679"><ele>472.0</ele><time>2026-05-01T17:19:29Z</time></trkpt><trkpt lat="45.072521856336444" lon="14.891501628930738"><ele>472.00000000000006</ele><time>2026-05-01T17:19:30Z</time></trkpt><trkpt lat="45.072437070266204" lon="14.891543790378398"><ele>472.00000000000006</ele><time>2026-05-01T17:19:31Z</time></trkpt><trkpt lat="45.072340307648155" lon="14.891592469555382"><ele>472.0</ele><time>2026-05-01T17:19:32Z</time></trkpt><trkpt lat="45.072232519764796" lon="14.891638316676463"><ele>472.0</ele><time>2026-05-01T17:19:33Z</time></trkpt><trkpt lat="45.07211819921157" lon="14.89167198583168"><ele>471.6</ele><time>2026-05-01T17:19:34Z</time></trkpt><trkpt lat="45.07201747145374" lon="14.891741022907212"><ele>471.20000000000005</ele><time>2026-05-01T17:19:35Z</time></trkpt><trkpt lat="45.07191396722219" lon="14.891786354260432"><ele>470.8</ele><time>2026-05-01T17:19:36Z</time></trkpt><trkpt lat="45.071812573557715" lon="14.891829194265403"><ele>470.4</ele><time>2026-05-01T17:19:37Z</time></trkpt><trkpt lat="45.071703777259316" lon="14.89188738643662"><ele>470.0</ele><time>2026-05-01T17:19:38Z</time></trkpt><trkpt lat="45.07159358253534" lon="14.891963780842987"><ele>470.0</ele><time>2026-05-01T17:19:39Z</time></trkpt><trkpt lat="45.07147527728689" lon="14.892045785835743"><ele>470.0</ele><time>2026-05-01T17:19:40Z</time></trkpt><trkpt lat="45.07134425189113" lon="14.892132954344762"><ele>470.0</ele><time>2026-05-01T17:19:41Z</time></trkpt><trkpt lat="45.071209124993594" lon="14.892222711949133"><ele>470.0</ele><time>2026-05-01T17:19:42Z</time></trkpt><trkpt lat="45.07106879047139" lon="14.892318424439312"><ele>470.0</ele><time>2026-05-01T17:19:43Z</time></trkpt><trkpt lat="45.07092614935921" lon="14.892418174806144"><ele>470.0</ele><time>2026-05-01T17:19:44Z</time></trkpt><trkpt lat="45.07077938024124" lon="14.892518958389077"><ele>470.0</ele><time>2026-05-01T17:19:45Z</time></trkpt><trkpt lat="45.070621551175684" lon="14.892618315886818"><ele>471.66666666666663</ele><time>2026-05-01T17:19:46Z</time></trkpt><trkpt lat="45.07046400357911" lon="14.892719337876768"><ele>473.33333333333337</ele><time>2026-05-01T17:19:47Z</time></trkpt><trkpt lat="45.07031173157473" lon="14.892815585960896"><ele>475.0</ele><time>2026-05-01T17:19:48Z</time></trkpt><trkpt lat="45.070156788613374" lon="14.892917899208431"><ele>475.0</ele><time>2026-05-01T17:19:49Z</time></trkpt><trkpt lat="45.069995603707234" lon="14.89302310792606"><ele>475.0</ele><time>2026-05-01T17:19:50Z</time></trkpt><trkpt lat="45.069833400809706" lon="14.89312947675068"><ele>475.0</ele><time>2026-05-01T17:19:51Z</time></trkpt><trkpt lat="45.069666239109814" lon="14.893236785816194"><ele>476.0</ele><time>2026-05-01T17:19:52Z</time></trkpt><trkpt lat="45.06949951334508" lon="14.893346463102459"><ele>477.0</ele><time>2026-05-01T17:19:53Z</time></trkpt><trkpt lat="45.069345677996445" lon="14.893449885838413"><ele>478.0</ele><time>2026-05-01T17:19:54Z</time></trkpt><trkpt lat="45.06920412202504" lon="14.893546368047474"><ele>476.25</ele><time>2026-05-01T17:19:55Z</time></trkpt><trkpt lat="45.06907227582918" lon="14.893607103703406"><ele>474.5</ele><time>2026-05-01T17:19:56Z</time></trkpt><trkpt lat="45.06895549639524" lon="14.893681944008977"><ele>472.75</ele><time>2026-05-01T17:19:57Z</time></trkpt><trkpt lat="45.068849579558105" lon="14.89374987573035"><ele>471.0</ele><time>2026-05-01T17:19:58Z</time></trkpt><trkpt lat="45.06874243859345" lon="14.893816093286233"><ele>471.0</ele><time>2026-05-01T17:19:59Z</time></trkpt><trkpt lat="45.06861517500968" lon="14.893894747603786"><ele>471.0</ele><time>2026-05-01T17:20:00Z</time></trkpt><trkpt lat="45.068479993567564" lon="14.893978562939594"><ele>471.0</ele><time>2026-05-01T17:20:01Z</time></trkpt><trkpt lat="45.06836263363914" lon="14.894055016947302"><ele>471.0</ele><time>2026-05-01T17:20:02Z</time></trkpt><trkpt lat="45.06826589564502" lon="14.89414218796292"><ele>471.0</ele><time>2026-05-01T17:20:03Z</time></trkpt><trkpt lat="45.0681787858804" lon="14.89421227553751"><ele>471.0</ele><time>2026-05-01T17:20:04Z</time></trkpt><trkpt lat="45.06809608290108" lon="14.894288884667562"><ele>471.0</ele><time>2026-05-01T17:20:05Z</time></trkpt><trkpt lat="45.06802317651107" lon="14.89438546149919"><ele>471.0</ele><time>2026-05-01T17:20:06Z</time></trkpt><trkpt lat="45.06797085241171" lon="14.894491847426796"><ele>471.0</ele><time>2026-05-01T17:20:07Z</time></trkpt><trkpt lat="45.06792637344743" lon="14.894579612815894"><ele>471.0</ele><time>2026-05-01T17:20:08Z</time></trkpt><trkpt lat="45.06793841129452" lon="14.894693865855968"><ele>471.0</ele><time>2026-05-01T17:20:09Z</time></trkpt><trkpt lat="45.06795663577641" lon="14.89481378305737"><ele>471.0</ele><time>2026-05-01T17:20:10Z</time></trkpt><trkpt lat="45.06796732695907" lon="14.894957999637947"><ele>471.0</ele><time>2026-05-01T17:20:11Z</time></trkpt><trkpt lat="45.06798314364281" lon="14.895058116942595"><ele>471.0</ele><time>2026-05-01T17:20:12Z</time></trkpt><trkpt lat="45.067954968925456" lon="14.895171895309083"><ele>471.0</ele><time>2026-05-01T17:20:14Z</time></trkpt><trkpt lat="45.06787066527124" lon="14.895223022389276"><ele>471.0</ele><time>2026-05-01T17:20:16Z</time></trkpt><trkpt lat="45.06777273597204" lon="14.895164881992336"><ele>471.0</ele><time>2026-05-01T17:20:18Z</time></trkpt><trkpt lat="45.067724570126984" lon="14.89509085809385"><ele>471.0</ele><time>2026-05-01T17:20:19Z</time></trkpt><trkpt lat="45.067661491941024" lon="14.89502538206044"><ele>471.0</ele><time>2026-05-01T17:20:20Z</time></trkpt><trkpt lat="45.0675997850989" lon="14.894968401212587"><ele>471.0</ele><time>2026-05-01T17:20:21Z</time></trkpt><trkpt lat="45.06753282668876" lon="14.894920787580114"><ele>471.0</ele><time>2026-05-01T17:20:22Z</time></trkpt><trkpt lat="45.067459734636685" lon="14.89488430950523"><ele>471.0</ele><time>2026-05-01T17:20:23Z</time></trkpt><trkpt lat="45.067375920151726" lon="14.894857184696779"><ele>471.0</ele><time>2026-05-01T17:20:24Z</time></trkpt><trkpt lat="45.06728491167727" lon="14.894856560307176"><ele>471.0</ele><time>2026-05-01T17:20:25Z</time></trkpt><trkpt lat="45.0671760915916" lon="14.894876914515548"><ele>471.0</ele><time>2026-05-01T17:20:26Z</time></trkpt><trkpt lat="45.067068849640876" lon="14.894904997113379"><ele>471.0</ele><time>2026-05-01T17:20:27Z</time></trkpt><trkpt lat="45.06697329416932" lon="14.894942037673113"><ele>471.0</ele><time>2026-05-01T17:20:28Z</time></trkpt><trkpt lat="45.06689124898449" lon="14.894997840776687"><ele>471.0</ele><time>2026-05-01T17:20:29Z</time></trkpt><trkpt lat="45.066815176980604" lon="14.895074496589737"><ele>471.0</ele><time>2026-05-01T17:20:30Z</time></trkpt><trkpt lat="45.06674508781211" lon="14.895176774406377"><ele>471.0</ele><time>2026-05-01T17:20:31Z</time></trkpt><trkpt lat="45.066671400134084" lon="14.895302530841246"><ele>471.0</ele><time>2026-05-01T17:20:32Z</time></trkpt><trkpt lat="45.066589254648115" lon="14.895448988388543"><ele>471.8</ele><time>2026-05-01T17:20:33Z</time></trkpt><trkpt lat="45.06650633662966" lon="14.895583385529203"><ele>472.6</ele><time>2026-05-01T17:20:34Z</time></trkpt><trkpt lat="45.06643387204952" lon="14.895698237102417"><ele>473.4</ele><time>2026-05-01T17:20:35Z</time></trkpt><trkpt lat="45.06636822627022" lon="14.895805152294441"><ele>474.2</ele><time>2026-05-01T17:20:36Z</time></trkpt><trkpt lat="45.06631982596213" lon="14.89594167938963"><ele>475.0</ele><time>2026-05-01T17:20:37Z</time></trkpt><trkpt lat="45.06628706642504" lon="14.896090725974245"><ele>476.25</ele><time>2026-05-01T17:20:38Z</time></trkpt><trkpt lat="45.0662627621553" lon="14.896248348043539"><ele>477.5</ele><time>2026-05-01T17:20:39Z</time></trkpt><trkpt lat="45.06624671573468" lon="14.896417832683412"><ele>478.75</ele><time>2026-05-01T17:20:40Z</time></trkpt><trkpt lat="45.0662256946975" lon="14.89659296633195"><ele>480.0</ele><time>2026-05-01T17:20:41Z</time></trkpt><trkpt lat="45.06619401815952" lon="14.896750001782928"><ele>482.0</ele><time>2026-05-01T17:20:42Z</time></trkpt><trkpt lat="45.066128195911254" lon="14.89688158200504"><ele>484.0</ele><time>2026-05-01T17:20:43Z</time></trkpt><trkpt lat="45.066063629763946" lon="14.897018086410176"><ele>486.0</ele><time>2026-05-01T17:20:44Z</time></trkpt><trkpt lat="45.06599816319824" lon="14.897175880623891"><ele>488.0</ele><time>2026-05-01T17:20:45Z</time></trkpt><trkpt lat="45.0659210636395" lon="14.897321502829325"><ele>488.0</ele><time>2026-05-01T17:20:46Z</time></trkpt><trkpt lat="45.065859220779124" lon="14.897441201877601"><ele>487.99999999999994</ele><time>2026-05-01T17:20:47Z</time></trkpt><trkpt lat="45.0658131617862" lon="14.897557887688233"><ele>487.99999999999994</ele><time>2026-05-01T17:20:48Z</time></trkpt><trkpt lat="45.065772290707834" lon="14.897663593953606"><ele>488.0</ele><time>2026-05-01T17:20:49Z</time></trkpt><trkpt lat="45.06578435336739" lon="14.897795354211294"><ele>488.0</ele><time>2026-05-01T17:20:50Z</time></trkpt><trkpt lat="45.065789880851874" lon="14.897912979344648"><ele>489.0</ele><time>2026-05-01T17:20:51Z</time></trkpt><trkpt lat="45.06581279790993" lon="14.8980379773415"><ele>489.99999999999994</ele><time>2026-05-01T17:20:52Z</time></trkpt><trkpt lat="45.06585377055477" lon="14.898169298075828"><ele>490.99999999999994</ele><time>2026-05-01T17:20:53Z</time></trkpt><trkpt lat="45.06592057442145" lon="14.898316429914692"><ele>492.0</ele><time>2026-05-01T17:20:54Z</time></trkpt><trkpt lat="45.06599005811009" lon="14.8984648015632"><ele>493.0</ele><time>2026-05-01T17:20:55Z</time></trkpt><trkpt lat="45.066014261803666" lon="14.898585143189809"><ele>493.00000000000006</ele><time>2026-05-01T17:20:56Z</time></trkpt><trkpt lat="45.066024354592464" lon="14.898736960772757"><ele>493.0</ele><time>2026-05-01T17:20:58Z</time></trkpt><trkpt lat="45.065984111385774" lon="14.898823169620394"><ele>493.0</ele><time>2026-05-01T17:20:59Z</time></trkpt><trkpt lat="45.0659374337301" lon="14.898911233901371"><ele>493.0</ele><time>2026-05-01T17:21:00Z</time></trkpt><trkpt lat="45.065866838141595" lon="14.898975848811508"><ele>493.00000000000006</ele><time>2026-05-01T17:21:01Z</time></trkpt><trkpt lat="45.065777863269034" lon="14.899032576123913"><ele>493.0</ele><time>2026-05-01T17:21:02Z</time></trkpt><trkpt lat="45.06568384097928" lon="14.899099806111977"><ele>493.0</ele><time>2026-05-01T17:21:03Z</time></trkpt><trkpt lat="45.06558437479256" lon="14.899179535972962"><ele>493.0</ele><time>2026-05-01T17:21:04Z</time></trkpt><trkpt lat="45.06547999222454" lon="14.89926514918394"><ele>493.0</ele><time>2026-05-01T17:21:05Z</time></trkpt><trkpt lat="45.065371386806454" lon="14.899360142022877"><ele>493.0</ele><time>2026-05-01T17:21:06Z</time></trkpt><trkpt lat="45.065246515311664" lon="14.899454712242642"><ele>493.33333333333337</ele><time>2026-05-01T17:21:07Z</time></trkpt><trkpt lat="45.065106315402105" lon="14.899550716052092"><ele>493.66666666666663</ele><time>2026-05-01T17:21:08Z</time></trkpt><trkpt lat="45.06496975707597" lon="14.899661726785611"><ele>494.0</ele><time>2026-05-01T17:21:09Z</time></trkpt><trkpt lat="45.06483230044656" lon="14.899766338577825"><ele>494.0</ele><time>2026-05-01T17:21:10Z</time></trkpt><trkpt lat="45.06467792339205" lon="14.899882336926341"><ele>494.0</ele><time>2026-05-01T17:21:11Z</time></trkpt><trkpt lat="45.064521358683066" lon="14.899963396968962"><ele>494.0</ele><time>2026-05-01T17:21:12Z</time></trkpt><trkpt lat="45.06439211989354" lon="14.900039886999327"><ele>494.5</ele><time>2026-05-01T17:21:13Z</time></trkpt><trkpt lat="45.064272299638105" lon="14.900112468461808"><ele>495.0</ele><time>2026-05-01T17:21:14Z</time></trkpt><trkpt lat="45.06415460930935" lon="14.900189181139677"><ele>495.5</ele><time>2026-05-01T17:21:15Z</time></trkpt><trkpt lat="45.064025116639655" lon="14.900259259874991"><ele>496.0</ele><time>2026-05-01T17:21:16Z</time></trkpt><trkpt lat="45.06389528105376" lon="14.900323435873405"><ele>496.0</ele><time>2026-05-01T17:21:17Z</time></trkpt><trkpt lat="45.06376509899921" lon="14.900390354364085"><ele>496.0</ele><time>2026-05-01T17:21:18Z</time></trkpt><trkpt lat="45.063651730206416" lon="14.900472067275292"><ele>496.0</ele><time>2026-05-01T17:21:19Z</time></trkpt><trkpt lat="45.063538279300516" lon="14.900526240089935"><ele>496.0</ele><time>2026-05-01T17:21:20Z</time></trkpt><trkpt lat="45.06341347052303" lon="14.900586129621315"><ele>496.0</ele><time>2026-05-01T17:21:21Z</time></trkpt><trkpt lat="45.06328339745356" lon="14.900668467541886"><ele>496.0</ele><time>2026-05-01T17:21:22Z</time></trkpt><trkpt lat="45.06314395735258" lon="14.90076301832315"><ele>496.0</ele><time>2026-05-01T17:21:23Z</time></trkpt><trkpt lat="45.06300651621678" lon="14.90085463554108"><ele>496.0</ele><time>2026-05-01T17:21:24Z</time></trkpt><trkpt lat="45.062873984400035" lon="14.90094235095919"><ele>497.0</ele><time>2026-05-01T17:21:25Z</time></trkpt><trkpt lat="45.06274780638968" lon="14.901022421571989"><ele>498.0</ele><time>2026-05-01T17:21:26Z</time></trkpt><trkpt lat="45.062634511426936" lon="14.901123489771958"><ele>499.0</ele><time>2026-05-01T17:21:27Z</time></trkpt><trkpt lat="45.06252350075364" lon="14.90119616281134"><ele>500.0</ele><time>2026-05-01T17:21:28Z</time></trkpt><trkpt lat="45.06242057105659" lon="14.901259969518858"><ele>497.2</ele><time>2026-05-01T17:21:29Z</time></trkpt><trkpt lat="45.06232488520593" lon="14.901328425361346"><ele>494.4</ele><time>2026-05-01T17:21:30Z</time></trkpt><trkpt lat="45.062230134909896" lon="14.901397101008302"><ele>491.6</ele><time>2026-05-01T17:21:31Z</time></trkpt><trkpt lat="45.06214050174847" lon="14.901471002253421"><ele>488.8</ele><time>2026-05-01T17:21:32Z</time></trkpt><trkpt lat="45.06206194035539" lon="14.90156892231251"><ele>486.0</ele><time>2026-05-01T17:21:33Z</time></trkpt><trkpt lat="45.06198711039196" lon="14.901661722931792"><ele>489.4</ele><time>2026-05-01T17:21:34Z</time></trkpt><trkpt lat="45.06192296647447" lon="14.901763548598032"><ele>492.8</ele><time>2026-05-01T17:21:35Z</time></trkpt><trkpt lat="45.061868364650955" lon="14.901883292679468"><ele>496.19999999999993</ele><time>2026-05-01T17:21:36Z</time></trkpt><trkpt lat="45.06181610222161" lon="14.90201028997211"><ele>499.59999999999997</ele><time>2026-05-01T17:21:37Z</time></trkpt><trkpt lat="45.06176623781188" lon="14.902114883471658"><ele>503.0</ele><time>2026-05-01T17:21:38Z</time></trkpt><trkpt lat="45.061695763072805" lon="14.902169957778083"><ele>501.79999999999995</ele><time>2026-05-01T17:21:39Z</time></trkpt><trkpt lat="45.06156639189991" lon="14.902210257648218"><ele>500.59999999999997</ele><time>2026-05-01T17:21:41.001Z</time></trkpt><trkpt lat="45.06149122440646" lon="14.902136369616997"><ele>499.40000000000003</ele><time>2026-05-01T17:21:42.001Z</time></trkpt><trkpt lat="45.06139817062498" lon="14.902075559778755"><ele>498.20000000000005</ele><time>2026-05-01T17:21:43.001Z</time></trkpt><trkpt lat="45.06129840277891" lon="14.902028487387161"><ele>497.0</ele><time>2026-05-01T17:21:44.001Z</time></trkpt><trkpt lat="45.06119942181101" lon="14.902018213575317"><ele>497.0</ele><time>2026-05-01T17:21:45.001Z</time></trkpt><trkpt lat="45.061102742995686" lon="14.902032828228993"><ele>497.0</ele><time>2026-05-01T17:21:46.001Z</time></trkpt><trkpt lat="45.06097964263523" lon="14.90206506811421"><ele>497.0</ele><time>2026-05-01T17:21:47Z</time></trkpt><trkpt lat="45.06084208894719" lon="14.90210022599348"><ele>497.0</ele><time>2026-05-01T17:21:48Z</time></trkpt><trkpt lat="45.060714398466345" lon="14.902146320165018"><ele>494.25</ele><time>2026-05-01T17:21:49Z</time></trkpt><trkpt lat="45.060591076968315" lon="14.902218339853176"><ele>491.5</ele><time>2026-05-01T17:21:50Z</time></trkpt><trkpt lat="45.06047987704501" lon="14.902313348019465"><ele>488.75</ele><time>2026-05-01T17:21:51Z</time></trkpt><trkpt lat="45.06036854089952" lon="14.902390361887665"><ele>486.0</ele><time>2026-05-01T17:21:52Z</time></trkpt><trkpt lat="45.06026296220378" lon="14.902442499598958"><ele>486.0</ele><time>2026-05-01T17:21:53Z</time></trkpt><trkpt lat="45.06017423152308" lon="14.902513666411782"><ele>486.0</ele><time>2026-05-01T17:21:54Z</time></trkpt><trkpt lat="45.06008587960904" lon="14.902586613280713"><ele>486.0</ele><time>2026-05-01T17:21:55Z</time></trkpt><trkpt lat="45.06001309933911" lon="14.902675743233646"><ele>486.0</ele><time>2026-05-01T17:21:56Z</time></trkpt><trkpt lat="45.05996128445271" lon="14.90279037314355"><ele>486.0</ele><time>2026-05-01T17:21:57Z</time></trkpt><trkpt lat="45.0599015167479" lon="14.902922377859966"><ele>483.5</ele><time>2026-05-01T17:21:58Z</time></trkpt><trkpt lat="45.05983087881701" lon="14.903064237373533"><ele>481.0</ele><time>2026-05-01T17:21:59Z</time></trkpt><trkpt lat="45.0597705384377" lon="14.903232310032552"><ele>478.5</ele><time>2026-05-01T17:22:00Z</time></trkpt><trkpt lat="45.05971305276464" lon="14.903403935783503"><ele>476.0</ele><time>2026-05-01T17:22:01Z</time></trkpt><trkpt lat="45.05967560726066" lon="14.903588870732362"><ele>476.0</ele><time>2026-05-01T17:22:02Z</time></trkpt><trkpt lat="45.05962050316677" lon="14.903771943792439"><ele>476.0</ele><time>2026-05-01T17:22:03Z</time></trkpt><trkpt lat="45.05958158763883" lon="14.90396611825605"><ele>476.0</ele><time>2026-05-01T17:22:04Z</time></trkpt><trkpt lat="45.059534930183084" lon="14.904153953715964"><ele>476.0</ele><time>2026-05-01T17:22:05Z</time></trkpt><trkpt lat="45.0594777401969" lon="14.90434863829601"><ele>477.0</ele><time>2026-05-01T17:22:06Z</time></trkpt><trkpt lat="45.05942850616162" lon="14.904555281077833"><ele>478.0</ele><time>2026-05-01T17:22:07Z</time></trkpt><trkpt lat="45.05938064332501" lon="14.904757556253603"><ele>479.0</ele><time>2026-05-01T17:22:08Z</time></trkpt><trkpt lat="45.05933862585845" lon="14.904939946990671"><ele>480.0</ele><time>2026-05-01T17:22:09Z</time></trkpt><trkpt lat="45.059316658608374" lon="14.905119902057594"><ele>481.4</ele><time>2026-05-01T17:22:10Z</time></trkpt><trkpt lat="45.059269107589934" lon="14.905283662200077"><ele>482.8</ele><time>2026-05-01T17:22:11Z</time></trkpt><trkpt lat="45.05923669131142" lon="14.905428398158545"><ele>484.20000000000005</ele><time>2026-05-01T17:22:12Z</time></trkpt><trkpt lat="45.05920500987544" lon="14.905543556734047"><ele>485.6</ele><time>2026-05-01T17:22:13Z</time></trkpt><trkpt lat="45.059166460477414" lon="14.90563640757286"><ele>487.0</ele><time>2026-05-01T17:22:14Z</time></trkpt><trkpt lat="45.05910992420281" lon="14.905699749193689"><ele>490.40000000000003</ele><time>2026-05-01T17:22:15Z</time></trkpt><trkpt lat="45.05903673989499" lon="14.905711774930198"><ele>493.80000000000007</ele><time>2026-05-01T17:22:16Z</time></trkpt><trkpt lat="45.05892738847189" lon="14.905654718902367"><ele>497.2</ele><time>2026-05-01T17:22:18Z</time></trkpt><trkpt lat="45.05884262471198" lon="14.905531420729728"><ele>500.6</ele><time>2026-05-01T17:22:20Z</time></trkpt><trkpt lat="45.05880473428825" lon="14.905431637668842"><ele>504.0</ele><time>2026-05-01T17:22:21Z</time></trkpt><trkpt lat="45.05874582610153" lon="14.905281884192386"><ele>504.0</ele><time>2026-05-01T17:22:22Z</time></trkpt><trkpt lat="45.058664065179386" lon="14.905094665991708"><ele>504.0</ele><time>2026-05-01T17:22:23Z</time></trkpt><trkpt lat="45.058580225547054" lon="14.90487928823552"><ele>504.0</ele><time>2026-05-01T17:22:24Z</time></trkpt><trkpt lat="45.05849511014945" lon="14.904654978122336"><ele>502.66666666666663</ele><time>2026-05-01T17:22:25Z</time></trkpt><trkpt lat="45.058402055860704" lon="14.904408155538542"><ele>501.3333333333333</ele><time>2026-05-01T17:22:26Z</time></trkpt><trkpt lat="45.058325754939965" lon="14.90420753255714"><ele>500.0</ele><time>2026-05-01T17:22:27Z</time></trkpt><trkpt lat="45.058258804056855" lon="14.904036941856331"><ele>500.0</ele><time>2026-05-01T17:22:28Z</time></trkpt><trkpt lat="45.058189476204156" lon="14.903895103881178"><ele>500.0</ele><time>2026-05-01T17:22:29Z</time></trkpt><trkpt lat="45.05814136720745" lon="14.903744702099113"><ele>500.0</ele><time>2026-05-01T17:22:30Z</time></trkpt><trkpt lat="45.0580886750497" lon="14.903607533121697"><ele>500.0</ele><time>2026-05-01T17:22:31Z</time></trkpt><trkpt lat="45.05803504850407" lon="14.903496110323463"><ele>500.0</ele><time>2026-05-01T17:22:32Z</time></trkpt><trkpt lat="45.057970305789404" lon="14.903399499751696"><ele>498.25</ele><time>2026-05-01T17:22:33Z</time></trkpt><trkpt lat="45.05789887924621" lon="14.903291659321779"><ele>496.5</ele><time>2026-05-01T17:22:34Z</time></trkpt><trkpt lat="45.05779197733963" lon="14.903195287350988"><ele>494.75</ele><time>2026-05-01T17:22:35Z</time></trkpt><trkpt lat="45.05766564905652" lon="14.903127253976024"><ele>493.0</ele><time>2026-05-01T17:22:36Z</time></trkpt><trkpt lat="45.05755816369663" lon="14.90308715948886"><ele>493.0</ele><time>2026-05-01T17:22:37Z</time></trkpt><trkpt lat="45.05745654313392" lon="14.90308222899613"><ele>492.99999999999994</ele><time>2026-05-01T17:22:38Z</time></trkpt><trkpt lat="45.05737025389691" lon="14.903088587133233"><ele>492.99999999999994</ele><time>2026-05-01T17:22:39Z</time></trkpt><trkpt lat="45.057279525676606" lon="14.90309045086347"><ele>493.0</ele><time>2026-05-01T17:22:40Z</time></trkpt><trkpt lat="45.05717571083535" lon="14.903131385201302"><ele>493.0</ele><time>2026-05-01T17:22:41Z</time></trkpt><trkpt lat="45.057051431363234" lon="14.903202439984998"><ele>492.6666666666667</ele><time>2026-05-01T17:22:42Z</time></trkpt><trkpt lat="45.056914867934395" lon="14.903285856868859"><ele>492.33333333333337</ele><time>2026-05-01T17:22:43Z</time></trkpt><trkpt lat="45.05677589073547" lon="14.903370748137544"><ele>492.0</ele><time>2026-05-01T17:22:44Z</time></trkpt><trkpt lat="45.056619860374596" lon="14.9034660562844"><ele>494.5</ele><time>2026-05-01T17:22:45Z</time></trkpt><trkpt lat="45.05648766782469" lon="14.903583574100962"><ele>497.0</ele><time>2026-05-01T17:22:46Z</time></trkpt><trkpt lat="45.056373794659834" lon="14.903668920379753"><ele>499.5</ele><time>2026-05-01T17:22:47Z</time></trkpt><trkpt lat="45.056272678454974" lon="14.903752374590852"><ele>502.0</ele><time>2026-05-01T17:22:48Z</time></trkpt><trkpt lat="45.05617333369402" lon="14.90382262640312"><ele>502.0</ele><time>2026-05-01T17:22:49Z</time></trkpt><trkpt lat="45.05608318311003" lon="14.903893074099072"><ele>502.00000000000006</ele><time>2026-05-01T17:22:50Z</time></trkpt><trkpt lat="45.05601148920731" lon="14.903967133157797"><ele>502.00000000000006</ele><time>2026-05-01T17:22:51Z</time></trkpt><trkpt lat="45.055926252655134" lon="14.903969782064948"><ele>502.0</ele><time>2026-05-01T17:22:52Z</time></trkpt><trkpt lat="45.05584478254723" lon="14.904002288121243"><ele>502.0</ele><time>2026-05-01T17:22:53Z</time></trkpt><trkpt lat="45.055757329643015" lon="14.904032374079662"><ele>501.0</ele><time>2026-05-01T17:22:54Z</time></trkpt><trkpt lat="45.05565970944225" lon="14.90407342306023"><ele>500.00000000000006</ele><time>2026-05-01T17:22:55Z</time></trkpt><trkpt lat="45.05555334433553" lon="14.904091047752022"><ele>499.00000000000006</ele><time>2026-05-01T17:22:56Z</time></trkpt><trkpt lat="45.055442936149916" lon="14.904098172077514"><ele>498.0</ele><time>2026-05-01T17:22:57Z</time></trkpt><trkpt lat="45.055332360220994" lon="14.904105058362429"><ele>497.0</ele><time>2026-05-01T17:22:58Z</time></trkpt><trkpt lat="45.05521348067167" lon="14.904104169364599"><ele>497.0</ele><time>2026-05-01T17:22:59Z</time></trkpt><trkpt lat="45.05510379286336" lon="14.904126778644232"><ele>497.00000000000006</ele><time>2026-05-01T17:23:00Z</time></trkpt><trkpt lat="45.054996291957785" lon="14.904113878012577"><ele>497.00000000000006</ele><time>2026-05-01T17:23:01Z</time></trkpt><trkpt lat="45.05489609956475" lon="14.904133439623182"><ele>497.0</ele><time>2026-05-01T17:23:02Z</time></trkpt><trkpt lat="45.05478843568516" lon="14.9041745346927"><ele>497.0</ele><time>2026-05-01T17:23:03Z</time></trkpt><trkpt lat="45.05467387904947" lon="14.90423691409368"><ele>499.25</ele><time>2026-05-01T17:23:04Z</time></trkpt><trkpt lat="45.05455797515188" lon="14.904311662203284"><ele>501.5</ele><time>2026-05-01T17:23:05Z</time></trkpt><trkpt lat="45.054439441632965" lon="14.904383959001839"><ele>503.75</ele><time>2026-05-01T17:23:06Z</time></trkpt><trkpt lat="45.05431366329473" lon="14.904458128724098"><ele>506.0</ele><time>2026-05-01T17:23:07Z</time></trkpt><trkpt lat="45.05419615635114" lon="14.904521250331921"><ele>504.75</ele><time>2026-05-01T17:23:08Z</time></trkpt><trkpt lat="45.05408100981121" lon="14.904570573432698"><ele>503.5</ele><time>2026-05-01T17:23:09Z</time></trkpt><trkpt lat="45.05394621084483" lon="14.904644887966562"><ele>502.25</ele><time>2026-05-01T17:23:10Z</time></trkpt><trkpt lat="45.05382565785964" lon="14.904700042216662"><ele>501.0</ele><time>2026-05-01T17:23:11Z</time></trkpt><trkpt lat="45.0537086154094" lon="14.904745337294552"><ele>501.0</ele><time>2026-05-01T17:23:12Z</time></trkpt><trkpt lat="45.05358727410584" lon="14.904790090602857"><ele>501.0</ele><time>2026-05-01T17:23:13Z</time></trkpt><trkpt lat="45.05347049018563" lon="14.904863911931695"><ele>501.0</ele><time>2026-05-01T17:23:14Z</time></trkpt><trkpt lat="45.05335776037204" lon="14.904908538126085"><ele>501.0</ele><time>2026-05-01T17:23:15Z</time></trkpt><trkpt lat="45.05324818494464" lon="14.90495797916149"><ele>500.25</ele><time>2026-05-01T17:23:16Z</time></trkpt><trkpt lat="45.0531396946787" lon="14.905029524946205"><ele>499.5</ele><time>2026-05-01T17:23:17Z</time></trkpt><trkpt lat="45.05302853790121" lon="14.905115356718245"><ele>498.75</ele><time>2026-05-01T17:23:18Z</time></trkpt><trkpt lat="45.05291409630101" lon="14.905220902511786"><ele>498.0</ele><time>2026-05-01T17:23:19Z</time></trkpt><trkpt lat="45.05280313111272" lon="14.905341567722292"><ele>498.0</ele><time>2026-05-01T17:23:20Z</time></trkpt><trkpt lat="45.05268472697717" lon="14.905444536702465"><ele>498.0</ele><time>2026-05-01T17:23:21Z</time></trkpt><trkpt lat="45.0525702930537" lon="14.905558597751309"><ele>498.0</ele><time>2026-05-01T17:23:22Z</time></trkpt><trkpt lat="45.0524460279441" lon="14.90568122864816"><ele>498.0</ele><time>2026-05-01T17:23:23Z</time></trkpt><trkpt lat="45.052330683583534" lon="14.905801214132198"><ele>500.66666666666663</ele><time>2026-05-01T17:23:24Z</time></trkpt><trkpt lat="45.05220581329868" lon="14.905930891408937"><ele>503.3333333333333</ele><time>2026-05-01T17:23:25Z</time></trkpt><trkpt lat="45.05207980424902" lon="14.906047514662061"><ele>506.0</ele><time>2026-05-01T17:23:26Z</time></trkpt><trkpt lat="45.05194907367535" lon="14.906168730230807"><ele>506.0</ele><time>2026-05-01T17:23:27Z</time></trkpt><trkpt lat="45.05181481858771" lon="14.906293152478648"><ele>506.0</ele><time>2026-05-01T17:23:28Z</time></trkpt><trkpt lat="45.051682746727835" lon="14.90641605923331"><ele>506.0</ele><time>2026-05-01T17:23:29Z</time></trkpt><trkpt lat="45.05155814091297" lon="14.906566864663253"><ele>507.0</ele><time>2026-05-01T17:23:30Z</time></trkpt><trkpt lat="45.05141291232607" lon="14.906673989927274"><ele>508.0</ele><time>2026-05-01T17:23:31Z</time></trkpt><trkpt lat="45.051275154270485" lon="14.90680016522217"><ele>509.0</ele><time>2026-05-01T17:23:32Z</time></trkpt><trkpt lat="45.051142732326404" lon="14.906938589501758"><ele>509.0</ele><time>2026-05-01T17:23:33Z</time></trkpt><trkpt lat="45.05099359233146" lon="14.907045163199438"><ele>509.0</ele><time>2026-05-01T17:23:34Z</time></trkpt><trkpt lat="45.05083577407783" lon="14.907134477177777"><ele>509.0</ele><time>2026-05-01T17:23:35Z</time></trkpt><trkpt lat="45.050671082880854" lon="14.90721599503629"><ele>507.0</ele><time>2026-05-01T17:23:36Z</time></trkpt><trkpt lat="45.05051527309276" lon="14.907296629334938"><ele>505.0</ele><time>2026-05-01T17:23:37Z</time></trkpt><trkpt lat="45.05036631399202" lon="14.907371415841766"><ele>503.0</ele><time>2026-05-01T17:23:38Z</time></trkpt><trkpt lat="45.050221968711234" lon="14.907461199756792"><ele>503.0</ele><time>2026-05-01T17:23:39Z</time></trkpt><trkpt lat="45.0500764430093" lon="14.907569207555092"><ele>503.0</ele><time>2026-05-01T17:23:40Z</time></trkpt><trkpt lat="45.04993154937833" lon="14.907688885024232"><ele>503.0</ele><time>2026-05-01T17:23:41Z</time></trkpt><trkpt lat="45.04978628207239" lon="14.907813179403568"><ele>503.5</ele><time>2026-05-01T17:23:42Z</time></trkpt><trkpt lat="45.04964428550989" lon="14.907915094134594"><ele>504.0</ele><time>2026-05-01T17:23:43Z</time></trkpt><trkpt lat="45.04951554366893" lon="14.908013663973716"><ele>504.5</ele><time>2026-05-01T17:23:44Z</time></trkpt><trkpt lat="45.04940083257753" lon="14.908107735576232"><ele>505.0</ele><time>2026-05-01T17:23:45Z</time></trkpt><trkpt lat="45.049306744751156" lon="14.908197919187309"><ele>505.0</ele><time>2026-05-01T17:23:46.001Z</time></trkpt><trkpt lat="45.04922024550386" lon="14.908302421581443"><ele>505.0</ele><time>2026-05-01T17:23:47.001Z</time></trkpt><trkpt lat="45.049137175617396" lon="14.908435603802477"><ele>505.0</ele><time>2026-05-01T17:23:48.001Z</time></trkpt><trkpt lat="45.049063877700625" lon="14.908590424704675"><ele>505.0</ele><time>2026-05-01T17:23:49.001Z</time></trkpt><trkpt lat="45.04899496799926" lon="14.908764831472467"><ele>504.33333333333337</ele><time>2026-05-01T17:23:50.001Z</time></trkpt><trkpt lat="45.04892522041934" lon="14.908956237715193"><ele>503.66666666666663</ele><time>2026-05-01T17:23:51.001Z</time></trkpt><trkpt lat="45.048854869417355" lon="14.909163032600828"><ele>503.0</ele><time>2026-05-01T17:23:52.001Z</time></trkpt><trkpt lat="45.048763135659485" lon="14.909368108965468"><ele>505.0</ele><time>2026-05-01T17:23:53.001Z</time></trkpt><trkpt lat="45.04869667303498" lon="14.909598163359696"><ele>507.0</ele><time>2026-05-01T17:23:54.001Z</time></trkpt><trkpt lat="45.0486221405107" lon="14.909815851236665"><ele>509.0</ele><time>2026-05-01T17:23:55.001Z</time></trkpt><trkpt lat="45.04855504612713" lon="14.910006320632649"><ele>509.75</ele><time>2026-05-01T17:23:56.001Z</time></trkpt><trkpt lat="45.04848233266227" lon="14.910169854954153"><ele>510.5</ele><time>2026-05-01T17:23:57.001Z</time></trkpt><trkpt lat="45.04842763667357" lon="14.91031296915099"><ele>511.25</ele><time>2026-05-01T17:23:58.001Z</time></trkpt><trkpt lat="45.04835363950412" lon="14.910450017319176"><ele>512.0</ele><time>2026-05-01T17:23:59.001Z</time></trkpt><trkpt lat="45.048280270413564" lon="14.910541168905374"><ele>512.0</ele><time>2026-05-01T17:24:00.001Z</time></trkpt><trkpt lat="45.04819045531672" lon="14.910587311665843"><ele>512.0</ele><time>2026-05-01T17:24:01.001Z</time></trkpt><trkpt lat="45.048081841869646" lon="14.910645738833695"><ele>512.0</ele><time>2026-05-01T17:24:02.001Z</time></trkpt><trkpt lat="45.047966462218" lon="14.910694643443437"><ele>512.0</ele><time>2026-05-01T17:24:03.001Z</time></trkpt><trkpt lat="45.04784370773797" lon="14.910728706191916"><ele>512.0</ele><time>2026-05-01T17:24:04.001Z</time></trkpt><trkpt lat="45.04770657907793" lon="14.910767562570562"><ele>512.0</ele><time>2026-05-01T17:24:05.001Z</time></trkpt><trkpt lat="45.047557536040806" lon="14.910813599627993"><ele>512.0</ele><time>2026-05-01T17:24:06Z</time></trkpt><trkpt lat="45.047392855219414" lon="14.910855536951201"><ele>512.25</ele><time>2026-05-01T17:24:07Z</time></trkpt><trkpt lat="45.04725632176218" lon="14.910889347044508"><ele>512.5</ele><time>2026-05-01T17:24:08Z</time></trkpt><trkpt lat="45.04713734140624" lon="14.91091733899727"><ele>512.75</ele><time>2026-05-01T17:24:09Z</time></trkpt><trkpt lat="45.04703212781743" lon="14.910947175094119"><ele>513.0</ele><time>2026-05-01T17:24:10Z</time></trkpt><trkpt lat="45.04693779574256" lon="14.911006745596382"><ele>513.6</ele><time>2026-05-01T17:24:11Z</time></trkpt><trkpt lat="45.04684731938113" lon="14.91106262276217"><ele>514.1999999999999</ele><time>2026-05-01T17:24:12Z</time></trkpt><trkpt lat="45.046769403752066" lon="14.911107672928678"><ele>514.8</ele><time>2026-05-01T17:24:13Z</time></trkpt><trkpt lat="45.04672020795832" lon="14.911204273799564"><ele>515.4</ele><time>2026-05-01T17:24:14Z</time></trkpt><trkpt lat="45.04666138611179" lon="14.911306039648013"><ele>516.0</ele><time>2026-05-01T17:24:15Z</time></trkpt><trkpt lat="45.046604317542375" lon="14.91143976260653"><ele>516.4</ele><time>2026-05-01T17:24:16Z</time></trkpt><trkpt lat="45.04654160059994" lon="14.911599275060658"><ele>516.8</ele><time>2026-05-01T17:24:17Z</time></trkpt><trkpt lat="45.046475828818615" lon="14.911693272881665"><ele>517.1999999999999</ele><time>2026-05-01T17:24:18Z</time></trkpt><trkpt lat="45.04640001883565" lon="14.911717480257222"><ele>517.6</ele><time>2026-05-01T17:24:19Z</time></trkpt><trkpt lat="45.04632478284424" lon="14.911713984955508"><ele>518.0</ele><time>2026-05-01T17:24:20Z</time></trkpt><trkpt lat="45.04623409143493" lon="14.911688935293123"><ele>518.0</ele><time>2026-05-01T17:24:21Z</time></trkpt><trkpt lat="45.04610089019627" lon="14.911632302031107"><ele>518.0</ele><time>2026-05-01T17:24:22Z</time></trkpt><trkpt lat="45.045973167057916" lon="14.911588841445942"><ele>518.0</ele><time>2026-05-01T17:24:23Z</time></trkpt><trkpt lat="45.045847333878775" lon="14.91151967558572"><ele>518.0</ele><time>2026-05-01T17:24:24Z</time></trkpt><trkpt lat="45.045704185950996" lon="14.911478422232708"><ele>520.3333333333333</ele><time>2026-05-01T17:24:25Z</time></trkpt><trkpt lat="45.04555442687141" lon="14.911469258958805"><ele>522.6666666666666</ele><time>2026-05-01T17:24:26Z</time></trkpt><trkpt lat="45.04539418681545" lon="14.91148786237082"><ele>525.0</ele><time>2026-05-01T17:24:27Z</time></trkpt><trkpt lat="45.045246077758314" lon="14.911491889160175"><ele>525.0</ele><time>2026-05-01T17:24:28Z</time></trkpt><trkpt lat="45.045127676960604" lon="14.91152333370349"><ele>525.0</ele><time>2026-05-01T17:24:29Z</time></trkpt><trkpt lat="45.04503306231992" lon="14.91157816718808"><ele>525.0</ele><time>2026-05-01T17:24:30Z</time></trkpt><trkpt lat="45.044953608893316" lon="14.911700381229652"><ele>525.0</ele><time>2026-05-01T17:24:31Z</time></trkpt><trkpt lat="45.044851142297375" lon="14.911812263254141"><ele>527.4</ele><time>2026-05-01T17:24:32Z</time></trkpt><trkpt lat="45.04476304570296" lon="14.911955632830113"><ele>529.8</ele><time>2026-05-01T17:24:33Z</time></trkpt><trkpt lat="45.044682287686726" lon="14.912081667038752"><ele>532.2</ele><time>2026-05-01T17:24:34Z</time></trkpt><trkpt lat="45.044599922595474" lon="14.91217075417391"><ele>534.6</ele><time>2026-05-01T17:24:35Z</time></trkpt><trkpt lat="45.04452199024895" lon="14.912228345264166"><ele>537.0</ele><time>2026-05-01T17:24:36Z</time></trkpt><trkpt lat="45.044438236186735" lon="14.912268456859945"><ele>537.0</ele><time>2026-05-01T17:24:37Z</time></trkpt><trkpt lat="45.04434211346924" lon="14.912298918498454"><ele>537.0</ele><time>2026-05-01T17:24:38Z</time></trkpt><trkpt lat="45.04419988227707" lon="14.912308665603378"><ele>537.0</ele><time>2026-05-01T17:24:39Z</time></trkpt><trkpt lat="45.044045487394435" lon="14.91234298570326"><ele>537.0</ele><time>2026-05-01T17:24:40Z</time></trkpt><trkpt lat="45.043894347035355" lon="14.912383550258628"><ele>539.6666666666666</ele><time>2026-05-01T17:24:41Z</time></trkpt><trkpt lat="45.043722462728255" lon="14.912432038173437"><ele>542.3333333333333</ele><time>2026-05-01T17:24:42Z</time></trkpt><trkpt lat="45.04355193314978" lon="14.912417610419517"><ele>545.0</ele><time>2026-05-01T17:24:43Z</time></trkpt><trkpt lat="45.043392033292434" lon="14.912389716531504"><ele>547.0</ele><time>2026-05-01T17:24:44Z</time></trkpt><trkpt lat="45.04323102637997" lon="14.912347975296694"><ele>549.0</ele><time>2026-05-01T17:24:45Z</time></trkpt><trkpt lat="45.04305424769433" lon="14.912302286442284"><ele>551.0</ele><time>2026-05-01T17:24:46Z</time></trkpt><trkpt lat="45.04287307642669" lon="14.912255942362737"><ele>551.0</ele><time>2026-05-01T17:24:47Z</time></trkpt><trkpt lat="45.04272195460958" lon="14.912232167466989"><ele>551.0</ele><time>2026-05-01T17:24:48Z</time></trkpt><trkpt lat="45.04259237022633" lon="14.912251878151837"><ele>551.0</ele><time>2026-05-01T17:24:49Z</time></trkpt><trkpt lat="45.042481227858254" lon="14.912247063097897"><ele>551.0</ele><time>2026-05-01T17:24:50Z</time></trkpt><trkpt lat="45.042373427645465" lon="14.91228304909464"><ele>551.5</ele><time>2026-05-01T17:24:51Z</time></trkpt><trkpt lat="45.042245597824845" lon="14.912316171411291"><ele>552.0</ele><time>2026-05-01T17:24:52Z</time></trkpt><trkpt lat="45.04211655093386" lon="14.912393236176312"><ele>552.5</ele><time>2026-05-01T17:24:53Z</time></trkpt><trkpt lat="45.04199179664677" lon="14.912497970358267"><ele>553.0</ele><time>2026-05-01T17:24:54Z</time></trkpt><trkpt lat="45.0418445234091" lon="14.912572909219234"><ele>555.5</ele><time>2026-05-01T17:24:55Z</time></trkpt><trkpt lat="45.041713057683054" lon="14.91265875707383"><ele>558.0</ele><time>2026-05-01T17:24:56Z</time></trkpt><trkpt lat="45.04160389968066" lon="14.912751820768129"><ele>560.5</ele><time>2026-05-01T17:24:57Z</time></trkpt><trkpt lat="45.04150590830023" lon="14.912884201789185"><ele>563.0</ele><time>2026-05-01T17:24:58Z</time></trkpt><trkpt lat="45.04141291445134" lon="14.913045913218285"><ele>563.0</ele><time>2026-05-01T17:24:59Z</time></trkpt><trkpt lat="45.04134751338463" lon="14.913198701025456"><ele>563.0</ele><time>2026-05-01T17:25:00Z</time></trkpt><trkpt lat="45.04130007755894" lon="14.91336704461594"><ele>563.0</ele><time>2026-05-01T17:25:01Z</time></trkpt><trkpt lat="45.04126742147858" lon="14.913537107743588"><ele>563.0</ele><time>2026-05-01T17:25:02Z</time></trkpt><trkpt lat="45.041238653356004" lon="14.913688227381789"><ele>563.8</ele><time>2026-05-01T17:25:03Z</time></trkpt><trkpt lat="45.04117615049274" lon="14.913767919806823"><ele>564.5999999999999</ele><time>2026-05-01T17:25:04Z</time></trkpt><trkpt lat="45.04111544778713" lon="14.913840433545047"><ele>565.4000000000001</ele><time>2026-05-01T17:25:05Z</time></trkpt><trkpt lat="45.04104189676326" lon="14.913928134493988"><ele>566.2</ele><time>2026-05-01T17:25:06Z</time></trkpt><trkpt lat="45.04096711761178" lon="14.914043932835158"><ele>567.0</ele><time>2026-05-01T17:25:07Z</time></trkpt><trkpt lat="45.040865317548615" lon="14.914138900789698"><ele>567.75</ele><time>2026-05-01T17:25:08Z</time></trkpt><trkpt lat="45.04077298125235" lon="14.914259522338714"><ele>568.5</ele><time>2026-05-01T17:25:09Z</time></trkpt><trkpt lat="45.04066530121186" lon="14.914381635411306"><ele>569.25</ele><time>2026-05-01T17:25:10Z</time></trkpt><trkpt lat="45.04055311093359" lon="14.914531014336431"><ele>570.0</ele><time>2026-05-01T17:25:11Z</time></trkpt><trkpt lat="45.04044478800038" lon="14.914666004827595"><ele>570.0</ele><time>2026-05-01T17:25:12Z</time></trkpt><trkpt lat="45.040338602981414" lon="14.914768374397617"><ele>570.0</ele><time>2026-05-01T17:25:13Z</time></trkpt><trkpt lat="45.04022555362631" lon="14.91483875196721"><ele>570.0</ele><time>2026-05-01T17:25:14Z</time></trkpt><trkpt lat="45.04010654973585" lon="14.91490033216329"><ele>570.0</ele><time>2026-05-01T17:25:15Z</time></trkpt><trkpt lat="45.03997983938611" lon="14.914965255876321"><ele>571.3333333333334</ele><time>2026-05-01T17:25:16Z</time></trkpt><trkpt lat="45.039836374367006" lon="14.91504575608415"><ele>572.6666666666667</ele><time>2026-05-01T17:25:17Z</time></trkpt><trkpt lat="45.03968899324466" lon="14.915126249734906"><ele>574.0</ele><time>2026-05-01T17:25:18Z</time></trkpt><trkpt lat="45.0395471338008" lon="14.91522951110038"><ele>574.0</ele><time>2026-05-01T17:25:19Z</time></trkpt><trkpt lat="45.039416485176645" lon="14.91530307235462"><ele>574.0</ele><time>2026-05-01T17:25:20Z</time></trkpt><trkpt lat="45.03930812951055" lon="14.915377614086491"><ele>574.0</ele><time>2026-05-01T17:25:21Z</time></trkpt><trkpt lat="45.03922846322079" lon="14.915455818453268"><ele>574.0</ele><time>2026-05-01T17:25:22Z</time></trkpt><trkpt lat="45.039162655684045" lon="14.915551272963674"><ele>575.8</ele><time>2026-05-01T17:25:23Z</time></trkpt><trkpt lat="45.039108907101706" lon="14.915666283470792"><ele>577.5999999999999</ele><time>2026-05-01T17:25:24Z</time></trkpt><trkpt lat="45.039070838062614" lon="14.915797752678822"><ele>579.4</ele><time>2026-05-01T17:25:25Z</time></trkpt><trkpt lat="45.039047619969566" lon="14.915943823789274"><ele>581.1999999999999</ele><time>2026-05-01T17:25:26Z</time></trkpt><trkpt lat="45.03902932072493" lon="14.916119725106805"><ele>583.0</ele><time>2026-05-01T17:25:27Z</time></trkpt><trkpt lat="45.03900845928419" lon="14.916309136510623"><ele>583.5</ele><time>2026-05-01T17:25:28Z</time></trkpt><trkpt lat="45.038976190041744" lon="14.9164839277678"><ele>584.0</ele><time>2026-05-01T17:25:29Z</time></trkpt><trkpt lat="45.03890959720985" lon="14.916633218896509"><ele>584.5</ele><time>2026-05-01T17:25:30Z</time></trkpt><trkpt lat="45.038844286691976" lon="14.916754073961666"><ele>585.0</ele><time>2026-05-01T17:25:31Z</time></trkpt><trkpt lat="45.03876430350079" lon="14.916854044304662"><ele>585.0</ele><time>2026-05-01T17:25:32Z</time></trkpt><trkpt lat="45.03866140215044" lon="14.91695027222665"><ele>585.0</ele><time>2026-05-01T17:25:33Z</time></trkpt><trkpt lat="45.03854309456755" lon="14.917053174863335"><ele>585.0</ele><time>2026-05-01T17:25:34Z</time></trkpt><trkpt lat="45.03840857750904" lon="14.917165936891557"><ele>585.0</ele><time>2026-05-01T17:25:35Z</time></trkpt><trkpt lat="45.03826554863439" lon="14.917280298948949"><ele>587.3333333333334</ele><time>2026-05-01T17:25:36Z</time></trkpt><trkpt lat="45.03812153943483" lon="14.917396349494465"><ele>589.6666666666667</ele><time>2026-05-01T17:25:37Z</time></trkpt><trkpt lat="45.03798726238271" lon="14.917515285445477"><ele>592.0</ele><time>2026-05-01T17:25:38Z</time></trkpt><trkpt lat="45.03787795763838" lon="14.917639258358317"><ele>592.25</ele><time>2026-05-01T17:25:39Z</time></trkpt><trkpt lat="45.03778660450804" lon="14.917744924044495"><ele>592.5</ele><time>2026-05-01T17:25:40Z</time></trkpt><trkpt lat="45.03770930401051" lon="14.917867264834065"><ele>592.75</ele><time>2026-05-01T17:25:41Z</time></trkpt><trkpt lat="45.03764587527665" lon="14.918011543389191"><ele>593.0</ele><time>2026-05-01T17:25:42Z</time></trkpt><trkpt lat="45.03758949598608" lon="14.918179350943108"><ele>593.0</ele><time>2026-05-01T17:25:43Z</time></trkpt><trkpt lat="45.037518912640266" lon="14.918353381197154"><ele>593.0</ele><time>2026-05-01T17:25:44Z</time></trkpt><trkpt lat="45.037453420288884" lon="14.918545859559194"><ele>593.0</ele><time>2026-05-01T17:25:45Z</time></trkpt><trkpt lat="45.037409002914195" lon="14.918721863001657"><ele>593.0</ele><time>2026-05-01T17:25:46Z</time></trkpt><trkpt lat="45.03737783869356" lon="14.91885687791765"><ele>595.0</ele><time>2026-05-01T17:25:47Z</time></trkpt><trkpt lat="45.03738642165275" lon="14.918985261418566"><ele>597.0</ele><time>2026-05-01T17:25:48Z</time></trkpt><trkpt lat="45.037421201701335" lon="14.91911649040414"><ele>599.0</ele><time>2026-05-01T17:25:49Z</time></trkpt><trkpt lat="45.03749526692431" lon="14.91924510658899"><ele>601.0</ele><time>2026-05-01T17:25:50Z</time></trkpt><trkpt lat="45.03758921931861" lon="14.919400631951149"><ele>601.0</ele><time>2026-05-01T17:25:51Z</time></trkpt><trkpt lat="45.03767281999538" lon="14.91954076797633"><ele>601.0</ele><time>2026-05-01T17:25:52.001Z</time></trkpt><trkpt lat="45.03774173407408" lon="14.91967452261629"><ele>601.0</ele><time>2026-05-01T17:25:53.001Z</time></trkpt><trkpt lat="45.03778055934683" lon="14.919830611528951"><ele>601.0</ele><time>2026-05-01T17:25:54.001Z</time></trkpt><trkpt lat="45.03778887449848" lon="14.920001532463303"><ele>601.0</ele><time>2026-05-01T17:25:55.001Z</time></trkpt><trkpt lat="45.0378005073195" lon="14.920194237098183"><ele>601.0</ele><time>2026-05-01T17:25:56.001Z</time></trkpt><trkpt lat="45.037779349483216" lon="14.920386931514217"><ele>601.0</ele><time>2026-05-01T17:25:57.001Z</time></trkpt><trkpt lat="45.037747502720364" lon="14.920576186493138"><ele>601.0</ele><time>2026-05-01T17:25:58.001Z</time></trkpt><trkpt lat="45.03771162876617" lon="14.920753338794508"><ele>601.0</ele><time>2026-05-01T17:25:59.001Z</time></trkpt><trkpt lat="45.03762203209184" lon="14.920878180490723"><ele>601.0</ele><time>2026-05-01T17:26:00.001Z</time></trkpt><trkpt lat="45.03754409701298" lon="14.921008064188685"><ele>601.0</ele><time>2026-05-01T17:26:01.001Z</time></trkpt><trkpt lat="45.037456287610134" lon="14.921128249446086"><ele>601.0</ele><time>2026-05-01T17:26:02.001Z</time></trkpt><trkpt lat="45.037359533412136" lon="14.92125329788515"><ele>603.5</ele><time>2026-05-01T17:26:03.001Z</time></trkpt><trkpt lat="45.03724016835199" lon="14.921365853573294"><ele>606.0</ele><time>2026-05-01T17:26:04.001Z</time></trkpt><trkpt lat="45.0371163785117" lon="14.921487714057696"><ele>608.5</ele><time>2026-05-01T17:26:05.001Z</time></trkpt><trkpt lat="45.03699985042297" lon="14.9216328119513"><ele>611.0</ele><time>2026-05-01T17:26:06Z</time></trkpt><trkpt lat="45.0368975003195" lon="14.92180825507302"><ele>611.3333333333333</ele><time>2026-05-01T17:26:07Z</time></trkpt><trkpt lat="45.03680683725672" lon="14.922014829232541"><ele>611.6666666666666</ele><time>2026-05-01T17:26:08Z</time></trkpt><trkpt lat="45.036723696767474" lon="14.922237508511758"><ele>612.0</ele><time>2026-05-01T17:26:09Z</time></trkpt><trkpt lat="45.03665506875385" lon="14.922428219074957"><ele>612.0</ele><time>2026-05-01T17:26:10Z</time></trkpt><trkpt lat="45.036595833483105" lon="14.922571623188817"><ele>612.0</ele><time>2026-05-01T17:26:11Z</time></trkpt><trkpt lat="45.03652694638671" lon="14.922684820860564"><ele>612.0</ele><time>2026-05-01T17:26:12Z</time></trkpt><trkpt lat="45.03645240179793" lon="14.922789339215177"><ele>612.0</ele><time>2026-05-01T17:26:13Z</time></trkpt><trkpt lat="45.0363476321151" lon="14.92285508997933"><ele>612.0</ele><time>2026-05-01T17:26:14Z</time></trkpt><trkpt lat="45.0362205251431" lon="14.922939500729555"><ele>612.0</ele><time>2026-05-01T17:26:15Z</time></trkpt><trkpt lat="45.03608341472633" lon="14.923005640867247"><ele>612.0</ele><time>2026-05-01T17:26:16Z</time></trkpt><trkpt lat="45.03594852688369" lon="14.923087695049693"><ele>612.0</ele><time>2026-05-01T17:26:17Z</time></trkpt><trkpt lat="45.03579939715168" lon="14.923154983401774"><ele>612.0</ele><time>2026-05-01T17:26:18Z</time></trkpt><trkpt lat="45.035639496715746" lon="14.923227671844977"><ele>611.6666666666666</ele><time>2026-05-01T17:26:19Z</time></trkpt><trkpt lat="45.03546678494024" lon="14.92330587850495"><ele>611.3333333333333</ele><time>2026-05-01T17:26:20Z</time></trkpt><trkpt lat="45.03528183234576" lon="14.923364918122967"><ele>611.0</ele><time>2026-05-01T17:26:21Z</time></trkpt><trkpt lat="45.03509031792237" lon="14.923442793033155"><ele>610.6666666666666</ele><time>2026-05-01T17:26:22Z</time></trkpt><trkpt lat="45.034898288367636" lon="14.923526470168522"><ele>610.3333333333334</ele><time>2026-05-01T17:26:23Z</time></trkpt><trkpt lat="45.03471093040052" lon="14.923610202841344"><ele>610.0</ele><time>2026-05-01T17:26:24Z</time></trkpt><trkpt lat="45.03452306091933" lon="14.923697230073927"><ele>610.0</ele><time>2026-05-01T17:26:25Z</time></trkpt><trkpt lat="45.034337717507405" lon="14.92378268794704"><ele>610.0</ele><time>2026-05-01T17:26:26Z</time></trkpt><trkpt lat="45.034149896651236" lon="14.923869962307714"><ele>610.0</ele><time>2026-05-01T17:26:27Z</time></trkpt><trkpt lat="45.033960692208495" lon="14.923957879581565"><ele>609.3333333333334</ele><time>2026-05-01T17:26:28Z</time></trkpt><trkpt lat="45.033766817536886" lon="14.924046030159738"><ele>608.6666666666666</ele><time>2026-05-01T17:26:29Z</time></trkpt><trkpt lat="45.033567835143565" lon="14.92413740808269"><ele>608.0</ele><time>2026-05-01T17:26:30Z</time></trkpt><trkpt lat="45.03337232804803" lon="14.924229501170885"><ele>607.6666666666666</ele><time>2026-05-01T17:26:31Z</time></trkpt><trkpt lat="45.03319939953431" lon="14.924335083498502"><ele>607.3333333333334</ele><time>2026-05-01T17:26:32Z</time></trkpt><trkpt lat="45.0330256131726" lon="14.924430390845753"><ele>607.0</ele><time>2026-05-01T17:26:33Z</time></trkpt><trkpt lat="45.0328491467105" lon="14.92455735074765"><ele>607.0</ele><time>2026-05-01T17:26:34Z</time></trkpt><trkpt lat="45.032675744630914" lon="14.924696606880978"><ele>607.0</ele><time>2026-05-01T17:26:35Z</time></trkpt><trkpt lat="45.03250519335768" lon="14.92480859429147"><ele>607.0</ele><time>2026-05-01T17:26:36Z</time></trkpt><trkpt lat="45.03235217650405" lon="14.92492859098891"><ele>606.6666666666667</ele><time>2026-05-01T17:26:37Z</time></trkpt><trkpt lat="45.03220835090677" lon="14.925043826587267"><ele>606.3333333333334</ele><time>2026-05-01T17:26:38Z</time></trkpt><trkpt lat="45.03206536712095" lon="14.92518068503632"><ele>606.0</ele><time>2026-05-01T17:26:39Z</time></trkpt><trkpt lat="45.03191207482368" lon="14.925307366418835"><ele>605.0</ele><time>2026-05-01T17:26:40Z</time></trkpt><trkpt lat="45.031745787957085" lon="14.925413791027387"><ele>604.0</ele><time>2026-05-01T17:26:41Z</time></trkpt><trkpt lat="45.0315830154183" lon="14.925543490599859"><ele>603.0</ele><time>2026-05-01T17:26:42Z</time></trkpt><trkpt lat="45.031415612806676" lon="14.925676879568194"><ele>603.0</ele><time>2026-05-01T17:26:43Z</time></trkpt><trkpt lat="45.031250467380346" lon="14.925828501018248"><ele>603.0</ele><time>2026-05-01T17:26:44Z</time></trkpt><trkpt lat="45.0310814778219" lon="14.925955889660957"><ele>603.0</ele><time>2026-05-01T17:26:45Z</time></trkpt><trkpt lat="45.03091647974799" lon="14.926081389868738"><ele>601.0</ele><time>2026-05-01T17:26:46Z</time></trkpt><trkpt lat="45.03074723881109" lon="14.926188168271432"><ele>599.0</ele><time>2026-05-01T17:26:47Z</time></trkpt><trkpt lat="45.03059688190059" lon="14.926311397289773"><ele>597.0</ele><time>2026-05-01T17:26:48Z</time></trkpt><trkpt lat="45.03045512187934" lon="14.926454038252972"><ele>597.0</ele><time>2026-05-01T17:26:49Z</time></trkpt><trkpt lat="45.030327790276715" lon="14.926626041372614"><ele>597.0</ele><time>2026-05-01T17:26:50Z</time></trkpt><trkpt lat="45.03020629847454" lon="14.92680625740606"><ele>597.0</ele><time>2026-05-01T17:26:51Z</time></trkpt><trkpt lat="45.03008146495083" lon="14.926995067909305"><ele>598.0</ele><time>2026-05-01T17:26:52Z</time></trkpt><trkpt lat="45.02995359838395" lon="14.927189010227167"><ele>599.0</ele><time>2026-05-01T17:26:53Z</time></trkpt><trkpt lat="45.02983715186256" lon="14.927389150696706"><ele>600.0</ele><time>2026-05-01T17:26:54Z</time></trkpt><trkpt lat="45.02970787398686" lon="14.927566113168108"><ele>600.6666666666666</ele><time>2026-05-01T17:26:55Z</time></trkpt><trkpt lat="45.02957549635703" lon="14.927721020007905"><ele>601.3333333333333</ele><time>2026-05-01T17:26:56Z</time></trkpt><trkpt lat="45.02943959456915" lon="14.927845748706602"><ele>602.0</ele><time>2026-05-01T17:26:57Z</time></trkpt><trkpt lat="45.02928791324398" lon="14.927955807945985"><ele>605.6666666666666</ele><time>2026-05-01T17:26:58Z</time></trkpt><trkpt lat="45.02911930768813" lon="14.928035588986472"><ele>609.3333333333334</ele><time>2026-05-01T17:26:59Z</time></trkpt><trkpt lat="45.02896625542202" lon="14.928177000435936"><ele>613.0</ele><time>2026-05-01T17:27:00Z</time></trkpt><trkpt lat="45.02880889146409" lon="14.928308492510869"><ele>612.0</ele><time>2026-05-01T17:27:01Z</time></trkpt><trkpt lat="45.02865011680892" lon="14.928453668315639"><ele>611.0</ele><time>2026-05-01T17:27:02Z</time></trkpt><trkpt lat="45.02848047427049" lon="14.928608496030193"><ele>610.0</ele><time>2026-05-01T17:27:03Z</time></trkpt><trkpt lat="45.02829829893644" lon="14.928770565411089"><ele>611.3333333333334</ele><time>2026-05-01T17:27:04Z</time></trkpt><trkpt lat="45.02811112177109" lon="14.928941040089898"><ele>612.6666666666666</ele><time>2026-05-01T17:27:05Z</time></trkpt><trkpt lat="45.02794258876394" lon="14.929096193519337"><ele>614.0</ele><time>2026-05-01T17:27:06Z</time></trkpt><trkpt lat="45.02778266798252" lon="14.929238770302414"><ele>614.0</ele><time>2026-05-01T17:27:07Z</time></trkpt><trkpt lat="45.02763096423123" lon="14.929378354534531"><ele>614.0</ele><time>2026-05-01T17:27:08Z</time></trkpt><trkpt lat="45.02748684326191" lon="14.929523169708123"><ele>614.0</ele><time>2026-05-01T17:27:09Z</time></trkpt><trkpt lat="45.02734928842435" lon="14.929677306810262"><ele>615.3333333333333</ele><time>2026-05-01T17:27:10Z</time></trkpt><trkpt lat="45.02721583198894" lon="14.929839047225533"><ele>616.6666666666666</ele><time>2026-05-01T17:27:11Z</time></trkpt><trkpt lat="45.027084570179476" lon="14.930007079793214"><ele>618.0</ele><time>2026-05-01T17:27:12Z</time></trkpt><trkpt lat="45.026939181874326" lon="14.930146477085104"><ele>618.0</ele><time>2026-05-01T17:27:13Z</time></trkpt><trkpt lat="45.02681442209572" lon="14.930301331986456"><ele>618.0</ele><time>2026-05-01T17:27:14Z</time></trkpt><trkpt lat="45.02670920094762" lon="14.930456686710396"><ele>618.0</ele><time>2026-05-01T17:27:15Z</time></trkpt><trkpt lat="45.02659566866108" lon="14.930573089005277"><ele>618.0</ele><time>2026-05-01T17:27:16Z</time></trkpt><trkpt lat="45.02647402217512" lon="14.93065998949256"><ele>618.0</ele><time>2026-05-01T17:27:17Z</time></trkpt><trkpt lat="45.02633697161943" lon="14.930735322468792"><ele>618.0</ele><time>2026-05-01T17:27:18Z</time></trkpt><trkpt lat="45.02621206123485" lon="14.93080430431846"><ele>618.0</ele><time>2026-05-01T17:27:19Z</time></trkpt><trkpt lat="45.026114121830695" lon="14.93085792089726"><ele>618.0</ele><time>2026-05-01T17:27:20Z</time></trkpt><trkpt lat="45.026053722585395" lon="14.930888412443373"><ele>618.0</ele><time>2026-05-01T17:27:21Z</time></trkpt><trkpt lat="45.025976762272215" lon="14.930897525961166"><ele>618.0</ele><time>2026-05-01T17:27:23Z</time></trkpt><trkpt lat="45.02588385897565" lon="14.93080534475627"><ele>618.0</ele><time>2026-05-01T17:27:25Z</time></trkpt><trkpt lat="45.02579321669455" lon="14.930745391433021"><ele>618.0</ele><time>2026-05-01T17:27:26Z</time></trkpt><trkpt lat="45.02567661789081" lon="14.930698534396402"><ele>617.3333333333334</ele><time>2026-05-01T17:27:27Z</time></trkpt><trkpt lat="45.02554275084824" lon="14.930628046111936"><ele>616.6666666666667</ele><time>2026-05-01T17:27:28Z</time></trkpt><trkpt lat="45.0253980060935" lon="14.930561694025034"><ele>616.0</ele><time>2026-05-01T17:27:29Z</time></trkpt><trkpt lat="45.02524628408263" lon="14.930490266541055"><ele>616.0</ele><time>2026-05-01T17:27:30Z</time></trkpt><trkpt lat="45.02508464114931" lon="14.930423455772674"><ele>616.0</ele><time>2026-05-01T17:27:31Z</time></trkpt><trkpt lat="45.02491689585013" lon="14.930348234451522"><ele>616.0</ele><time>2026-05-01T17:27:32Z</time></trkpt><trkpt lat="45.024733720360345" lon="14.930277423437703"><ele>615.3333333333334</ele><time>2026-05-01T17:27:33Z</time></trkpt><trkpt lat="45.02453419749069" lon="14.930209950908523"><ele>614.6666666666666</ele><time>2026-05-01T17:27:34Z</time></trkpt><trkpt lat="45.02432036507749" lon="14.930152595178956"><ele>614.0</ele><time>2026-05-01T17:27:35Z</time></trkpt><trkpt lat="45.02411024186942" lon="14.930108449398173"><ele>615.3333333333333</ele><time>2026-05-01T17:27:36Z</time></trkpt><trkpt lat="45.02390750997865" lon="14.930082121779698"><ele>616.6666666666666</ele><time>2026-05-01T17:27:37Z</time></trkpt><trkpt lat="45.02370827499954" lon="14.930063909165854"><ele>618.0</ele><time>2026-05-01T17:27:38Z</time></trkpt><trkpt lat="45.02352251486217" lon="14.930052630498102"><ele>618.0</ele><time>2026-05-01T17:27:39Z</time></trkpt><trkpt lat="45.023341575811635" lon="14.930040001946791"><ele>618.0</ele><time>2026-05-01T17:27:40Z</time></trkpt><trkpt lat="45.02316028051785" lon="14.93002390974278"><ele>618.0</ele><time>2026-05-01T17:27:41Z</time></trkpt><trkpt lat="45.022981932511996" lon="14.929997112227772"><ele>618.0</ele><time>2026-05-01T17:27:42Z</time></trkpt><trkpt lat="45.02280702470938" lon="14.929946971433578"><ele>618.0</ele><time>2026-05-01T17:27:43Z</time></trkpt><trkpt lat="45.0226301657021" lon="14.929868449277304"><ele>618.0</ele><time>2026-05-01T17:27:44Z</time></trkpt><trkpt lat="45.02244995548353" lon="14.92976830436897"><ele>617.0</ele><time>2026-05-01T17:27:45Z</time></trkpt><trkpt lat="45.02226591790736" lon="14.92965314351472"><ele>616.0</ele><time>2026-05-01T17:27:46Z</time></trkpt><trkpt lat="45.02207322749247" lon="14.929532753754868"><ele>615.0</ele><time>2026-05-01T17:27:47Z</time></trkpt><trkpt lat="45.02187097637264" lon="14.929413205768617"><ele>615.0</ele><time>2026-05-01T17:27:48Z</time></trkpt><trkpt lat="45.021655045261426" lon="14.929286203103532"><ele>615.0</ele><time>2026-05-01T17:27:49Z</time></trkpt><trkpt lat="45.02143209502787" lon="14.929161577853572"><ele>614.3333333333334</ele><time>2026-05-01T17:27:50Z</time></trkpt><trkpt lat="45.02121459580295" lon="14.9290456450697"><ele>613.6666666666667</ele><time>2026-05-01T17:27:51Z</time></trkpt><trkpt lat="45.02101154139292" lon="14.928946005097242"><ele>613.0</ele><time>2026-05-01T17:27:52Z</time></trkpt><trkpt lat="45.02082308851335" lon="14.928854915065742"><ele>612.0</ele><time>2026-05-01T17:27:53Z</time></trkpt><trkpt lat="45.020658832140526" lon="14.928770814750928"><ele>611.0</ele><time>2026-05-01T17:27:54Z</time></trkpt><trkpt lat="45.02051933667409" lon="14.928635926059053"><ele>610.0</ele><time>2026-05-01T17:27:55Z</time></trkpt><trkpt lat="45.02037818222005" lon="14.928495714116657"><ele>611.6666666666667</ele><time>2026-05-01T17:27:56Z</time></trkpt><trkpt lat="45.020242658696915" lon="14.92834758726586"><ele>613.3333333333334</ele><time>2026-05-01T17:27:57Z</time></trkpt><trkpt lat="45.020112834900324" lon="14.928184503876528"><ele>615.0</ele><time>2026-05-01T17:27:58Z</time></trkpt><trkpt lat="45.01998968127727" lon="14.92799530817464"><ele>615.0</ele><time>2026-05-01T17:27:59Z</time></trkpt><trkpt lat="45.01986330109721" lon="14.927795667564386"><ele>615.0</ele><time>2026-05-01T17:28:00Z</time></trkpt><trkpt lat="45.01973943438232" lon="14.927604218694814"><ele>615.0</ele><time>2026-05-01T17:28:01Z</time></trkpt><trkpt lat="45.01961688316807" lon="14.927424205807897"><ele>615.0</ele><time>2026-05-01T17:28:02Z</time></trkpt><trkpt lat="45.01947800725942" lon="14.927259646448974"><ele>615.0</ele><time>2026-05-01T17:28:03Z</time></trkpt><trkpt lat="45.01931414477586" lon="14.927131336219142"><ele>615.0</ele><time>2026-05-01T17:28:04Z</time></trkpt><trkpt lat="45.019140182439486" lon="14.927017968640948"><ele>615.0</ele><time>2026-05-01T17:28:05Z</time></trkpt><trkpt lat="45.01897882107299" lon="14.926900711183267"><ele>615.0</ele><time>2026-05-01T17:28:06Z</time></trkpt><trkpt lat="45.018832484629954" lon="14.926768565079898"><ele>615.0</ele><time>2026-05-01T17:28:07Z</time></trkpt><trkpt lat="45.01869735493628" lon="14.926623981906037"><ele>615.0</ele><time>2026-05-01T17:28:08Z</time></trkpt><trkpt lat="45.018562035448525" lon="14.926472208069736"><ele>615.0</ele><time>2026-05-01T17:28:09Z</time></trkpt><trkpt lat="45.01842558630843" lon="14.92631841514684"><ele>615.0</ele><time>2026-05-01T17:28:10Z</time></trkpt><trkpt lat="45.01830534826306" lon="14.926172293338343"><ele>613.6666666666666</ele><time>2026-05-01T17:28:11Z</time></trkpt><trkpt lat="45.018179375193846" lon="14.926021249233543"><ele>612.3333333333333</ele><time>2026-05-01T17:28:12Z</time></trkpt><trkpt lat="45.01808169211555" lon="14.925855551105267"><ele>611.0</ele><time>2026-05-01T17:28:13Z</time></trkpt><trkpt lat="45.01803366731553" lon="14.92567758606638"><ele>610.3333333333333</ele><time>2026-05-01T17:28:14Z</time></trkpt><trkpt lat="45.01798029784312" lon="14.92548827162488"><ele>609.6666666666666</ele><time>2026-05-01T17:28:15Z</time></trkpt><trkpt lat="45.017917527756765" lon="14.925263680123134"><ele>609.0</ele><time>2026-05-01T17:28:16Z</time></trkpt><trkpt lat="45.01784813677565" lon="14.925027774043004"><ele>609.0</ele><time>2026-05-01T17:28:17Z</time></trkpt><trkpt lat="45.01778011200519" lon="14.924797792087418"><ele>609.0</ele><time>2026-05-01T17:28:18Z</time></trkpt><trkpt lat="45.01771298492518" lon="14.924577046695678"><ele>609.0</ele><time>2026-05-01T17:28:19Z</time></trkpt><trkpt lat="45.01764594424826" lon="14.92436022885857"><ele>609.25</ele><time>2026-05-01T17:28:20Z</time></trkpt><trkpt lat="45.01758352885454" lon="14.924158369268227"><ele>609.5</ele><time>2026-05-01T17:28:21Z</time></trkpt><trkpt lat="45.01752928977109" lon="14.923973280136256"><ele>609.75</ele><time>2026-05-01T17:28:22Z</time></trkpt><trkpt lat="45.017491472786745" lon="14.923788008741184"><ele>610.0</ele><time>2026-05-01T17:28:23Z</time></trkpt><trkpt lat="45.01746222775068" lon="14.92358921934879"><ele>609.0</ele><time>2026-05-01T17:28:24Z</time></trkpt><trkpt lat="45.01748325636866" lon="14.923375654956615"><ele>608.0</ele><time>2026-05-01T17:28:25Z</time></trkpt><trkpt lat="45.01750153990486" lon="14.92317468361807"><ele>607.0</ele><time>2026-05-01T17:28:26Z</time></trkpt><trkpt lat="45.0175070368083" lon="14.922981806520063"><ele>606.0</ele><time>2026-05-01T17:28:27Z</time></trkpt><trkpt lat="45.017546793974084" lon="14.922811070164785"><ele>606.0</ele><time>2026-05-01T17:28:28Z</time></trkpt><trkpt lat="45.017605411496184" lon="14.922664280041085"><ele>606.0</ele><time>2026-05-01T17:28:29Z</time></trkpt><trkpt lat="45.01770129756538" lon="14.92252582373346"><ele>606.0</ele><time>2026-05-01T17:28:30Z</time></trkpt><trkpt lat="45.017823984953964" lon="14.922396816367254"><ele>606.0</ele><time>2026-05-01T17:28:31Z</time></trkpt><trkpt lat="45.01795854887479" lon="14.922269206828341"><ele>604.6666666666666</ele><time>2026-05-01T17:28:32Z</time></trkpt><trkpt lat="45.01810908808768" lon="14.922158188447655"><ele>603.3333333333333</ele><time>2026-05-01T17:28:33Z</time></trkpt><trkpt lat="45.01826803728923" lon="14.922030319387108"><ele>602.0</ele><time>2026-05-01T17:28:34Z</time></trkpt><trkpt lat="45.01842242626325" lon="14.921904015864186"><ele>600.0</ele><time>2026-05-01T17:28:35Z</time></trkpt><trkpt lat="45.01857136061537" lon="14.921770844637015"><ele>598.0</ele><time>2026-05-01T17:28:36Z</time></trkpt><trkpt lat="45.018718847635355" lon="14.921632339915515"><ele>596.0</ele><time>2026-05-01T17:28:37Z</time></trkpt><trkpt lat="45.01886351326677" lon="14.921486721107998"><ele>595.3333333333333</ele><time>2026-05-01T17:28:38Z</time></trkpt><trkpt lat="45.01899642986309" lon="14.921324713218533"><ele>594.6666666666666</ele><time>2026-05-01T17:28:39Z</time></trkpt><trkpt lat="45.01911697580168" lon="14.921140610869825"><ele>594.0</ele><time>2026-05-01T17:28:40Z</time></trkpt><trkpt lat="45.01922557708932" lon="14.920943116915659"><ele>593.6666666666666</ele><time>2026-05-01T17:28:41Z</time></trkpt><trkpt lat="45.019324818470444" lon="14.92075822447255"><ele>593.3333333333333</ele><time>2026-05-01T17:28:42Z</time></trkpt><trkpt lat="45.01943119601728" lon="14.920594536208178"><ele>593.0</ele><time>2026-05-01T17:28:43Z</time></trkpt><trkpt lat="45.01954583983646" lon="14.920454835288904"><ele>593.0</ele><time>2026-05-01T17:28:44Z</time></trkpt><trkpt lat="45.01966581546905" lon="14.92029449384661"><ele>593.0</ele><time>2026-05-01T17:28:45Z</time></trkpt><trkpt lat="45.019799787591026" lon="14.920196287617625"><ele>593.0</ele><time>2026-05-01T17:28:46Z</time></trkpt><trkpt lat="45.01993633213664" lon="14.92010069124699"><ele>591.0</ele><time>2026-05-01T17:28:47Z</time></trkpt><trkpt lat="45.020083991706656" lon="14.920010221867425"><ele>589.0</ele><time>2026-05-01T17:28:48Z</time></trkpt><trkpt lat="45.020222524565526" lon="14.91990616736339"><ele>587.0</ele><time>2026-05-01T17:28:49Z</time></trkpt><trkpt lat="45.02035731803343" lon="14.919788953707808"><ele>587.0</ele><time>2026-05-01T17:28:50Z</time></trkpt><trkpt lat="45.02050275318802" lon="14.919718049657433"><ele>587.0</ele><time>2026-05-01T17:28:51Z</time></trkpt><trkpt lat="45.02065424393202" lon="14.919637211451404"><ele>587.0</ele><time>2026-05-01T17:28:52Z</time></trkpt><trkpt lat="45.0208132970909" lon="14.919549610650677"><ele>590.0</ele><time>2026-05-01T17:28:53Z</time></trkpt><trkpt lat="45.02097568353858" lon="14.919532839101167"><ele>593.0</ele><time>2026-05-01T17:28:54Z</time></trkpt><trkpt lat="45.02113124699915" lon="14.919483969676799"><ele>596.0</ele><time>2026-05-01T17:28:55Z</time></trkpt><trkpt lat="45.02128016386173" lon="14.919378061332843"><ele>596.0</ele><time>2026-05-01T17:28:56Z</time></trkpt><trkpt lat="45.02143771426283" lon="14.919268006763094"><ele>596.0</ele><time>2026-05-01T17:28:57Z</time></trkpt><trkpt lat="45.021590601577095" lon="14.919134585407082"><ele>596.0</ele><time>2026-05-01T17:28:58Z</time></trkpt><trkpt lat="45.021731524597946" lon="14.919021042780187"><ele>594.75</ele><time>2026-05-01T17:28:59Z</time></trkpt><trkpt lat="45.021860886596265" lon="14.91891941458322"><ele>593.5</ele><time>2026-05-01T17:29:00Z</time></trkpt><trkpt lat="45.02197045555336" lon="14.918815185386203"><ele>592.25</ele><time>2026-05-01T17:29:01Z</time></trkpt><trkpt lat="45.02207554252518" lon="14.918731799564233"><ele>591.0</ele><time>2026-05-01T17:29:02Z</time></trkpt><trkpt lat="45.02215145310105" lon="14.918614038967942"><ele>591.0</ele><time>2026-05-01T17:29:03Z</time></trkpt><trkpt lat="45.02220175821099" lon="14.918451836471776"><ele>591.0</ele><time>2026-05-01T17:29:04Z</time></trkpt><trkpt lat="45.02220949061553" lon="14.918261618817933"><ele>591.0</ele><time>2026-05-01T17:29:05Z</time></trkpt><trkpt lat="45.02225487747951" lon="14.918112144784116"><ele>591.0</ele><time>2026-05-01T17:29:06Z</time></trkpt><trkpt lat="45.022293508918224" lon="14.91797276946762"><ele>588.2</ele><time>2026-05-01T17:29:07Z</time></trkpt><trkpt lat="45.022338597221044" lon="14.917822597070463"><ele>585.4000000000001</ele><time>2026-05-01T17:29:08Z</time></trkpt><trkpt lat="45.022426821388606" lon="14.917715723811842"><ele>582.6</ele><time>2026-05-01T17:29:09Z</time></trkpt><trkpt lat="45.02246656223248" lon="14.917588249098538"><ele>579.8000000000001</ele><time>2026-05-01T17:29:10Z</time></trkpt><trkpt lat="45.022466845330285" lon="14.917455303414991"><ele>577.0</ele><time>2026-05-01T17:29:11Z</time></trkpt><trkpt lat="45.022394556361284" lon="14.91732246837367"><ele>575.0</ele><time>2026-05-01T17:29:12Z</time></trkpt><trkpt lat="45.02232003500456" lon="14.917201851673438"><ele>573.0</ele><time>2026-05-01T17:29:13Z</time></trkpt><trkpt lat="45.02222646364297" lon="14.917084592927779"><ele>571.0</ele><time>2026-05-01T17:29:14Z</time></trkpt><trkpt lat="45.02213259616853" lon="14.916978458994738"><ele>569.0</ele><time>2026-05-01T17:29:15Z</time></trkpt><trkpt lat="45.02203586861768" lon="14.916865877112976"><ele>569.0</ele><time>2026-05-01T17:29:16Z</time></trkpt><trkpt lat="45.02192150074175" lon="14.916747948713052"><ele>569.0</ele><time>2026-05-01T17:29:17Z</time></trkpt><trkpt lat="45.02179589958204" lon="14.916637455415716"><ele>569.0</ele><time>2026-05-01T17:29:18Z</time></trkpt><trkpt lat="45.021647927653255" lon="14.916540729031821"><ele>565.3333333333333</ele><time>2026-05-01T17:29:19Z</time></trkpt><trkpt lat="45.021487375681836" lon="14.916455375756968"><ele>561.6666666666666</ele><time>2026-05-01T17:29:20Z</time></trkpt><trkpt lat="45.02131963475889" lon="14.916368290838529"><ele>558.0</ele><time>2026-05-01T17:29:21Z</time></trkpt><trkpt lat="45.02115794081784" lon="14.916301283522039"><ele>558.0</ele><time>2026-05-01T17:29:22Z</time></trkpt><trkpt lat="45.02100225089836" lon="14.91623215580742"><ele>558.0</ele><time>2026-05-01T17:29:23Z</time></trkpt><trkpt lat="45.02085461887128" lon="14.916147103701876"><ele>558.0</ele><time>2026-05-01T17:29:24Z</time></trkpt><trkpt lat="45.02071391122643" lon="14.916055491615554"><ele>555.0</ele><time>2026-05-01T17:29:25Z</time></trkpt><trkpt lat="45.02057511453422" lon="14.915954875786161"><ele>552.0</ele><time>2026-05-01T17:29:26Z</time></trkpt><trkpt lat="45.02044129676963" lon="14.915845151333587"><ele>549.0</ele><time>2026-05-01T17:29:27Z</time></trkpt><trkpt lat="45.020300208818135" lon="14.915756025522425"><ele>549.0</ele><time>2026-05-01T17:29:28Z</time></trkpt><trkpt lat="45.020171781701556" lon="14.915646917366784"><ele>549.0</ele><time>2026-05-01T17:29:29Z</time></trkpt><trkpt lat="45.02005293796937" lon="14.915516991400871"><ele>549.0</ele><time>2026-05-01T17:29:30Z</time></trkpt><trkpt lat="45.0199254191892" lon="14.915408345730299"><ele>549.0</ele><time>2026-05-01T17:29:31Z</time></trkpt><trkpt lat="45.01979002260345" lon="14.915297412860678"><ele>546.3333333333334</ele><time>2026-05-01T17:29:32Z</time></trkpt><trkpt lat="45.01964189371557" lon="14.915215131425484"><ele>543.6666666666667</ele><time>2026-05-01T17:29:33Z</time></trkpt><trkpt lat="45.01949309413498" lon="14.915179853981945"><ele>541.0</ele><time>2026-05-01T17:29:34Z</time></trkpt><trkpt lat="45.01933172767005" lon="14.915214675339287"><ele>541.0</ele><time>2026-05-01T17:29:35Z</time></trkpt><trkpt lat="45.019173502639305" lon="14.915235431225126"><ele>541.0</ele><time>2026-05-01T17:29:36Z</time></trkpt><trkpt lat="45.01901704964172" lon="14.915206116484276"><ele>541.0</ele><time>2026-05-01T17:29:37Z</time></trkpt><trkpt lat="45.01885382693739" lon="14.915176675529267"><ele>541.3333333333334</ele><time>2026-05-01T17:29:38Z</time></trkpt><trkpt lat="45.018689096748446" lon="14.915146292823453"><ele>541.6666666666666</ele><time>2026-05-01T17:29:39Z</time></trkpt><trkpt lat="45.01852231896779" lon="14.915118420456578"><ele>542.0</ele><time>2026-05-01T17:29:40Z</time></trkpt><trkpt lat="45.01834884379164" lon="14.915118703966446"><ele>543.75</ele><time>2026-05-01T17:29:41Z</time></trkpt><trkpt lat="45.01818393128761" lon="14.91513333884485"><ele>545.5</ele><time>2026-05-01T17:29:42Z</time></trkpt><trkpt lat="45.01803807324079" lon="14.915150798992054"><ele>547.25</ele><time>2026-05-01T17:29:43Z</time></trkpt><trkpt lat="45.01792543987157" lon="14.915143050237447"><ele>549.0</ele><time>2026-05-01T17:29:44Z</time></trkpt><trkpt lat="45.01782717673286" lon="14.915093615826937"><ele>548.5</ele><time>2026-05-01T17:29:45Z</time></trkpt><trkpt lat="45.0177293932405" lon="14.91499483600396"><ele>548.0</ele><time>2026-05-01T17:29:46Z</time></trkpt><trkpt lat="45.017607904129065" lon="14.914876124818642"><ele>547.5</ele><time>2026-05-01T17:29:47Z</time></trkpt><trkpt lat="45.01747500301076" lon="14.914758070166284"><ele>547.0</ele><time>2026-05-01T17:29:48Z</time></trkpt><trkpt lat="45.01734922683415" lon="14.914652032750002"><ele>547.0</ele><time>2026-05-01T17:29:48.999Z</time></trkpt><trkpt lat="45.017230666384556" lon="14.914552402370354"><ele>547.0</ele><time>2026-05-01T17:29:49.999Z</time></trkpt><trkpt lat="45.01710077387909" lon="14.914453994227848"><ele>547.0</ele><time>2026-05-01T17:29:50.999Z</time></trkpt><trkpt lat="45.0169624371181" lon="14.914364918143496"><ele>547.0</ele><time>2026-05-01T17:29:51.999Z</time></trkpt><trkpt lat="45.01681936846546" lon="14.914280564991945"><ele>543.0</ele><time>2026-05-01T17:29:52.999Z</time></trkpt><trkpt lat="45.016669839571655" lon="14.914201261022622"><ele>539.0</ele><time>2026-05-01T17:29:53.999Z</time></trkpt><trkpt lat="45.01651721988989" lon="14.914130033116964"><ele>535.0</ele><time>2026-05-01T17:29:54.999Z</time></trkpt><trkpt lat="45.01636556772262" lon="14.914055778453783"><ele>533.6666666666667</ele><time>2026-05-01T17:29:55.999Z</time></trkpt><trkpt lat="45.01621293221079" lon="14.913981042293567"><ele>532.3333333333334</ele><time>2026-05-01T17:29:56.999Z</time></trkpt><trkpt lat="45.01606032335887" lon="14.913908460273817"><ele>531.0</ele><time>2026-05-01T17:29:57.999Z</time></trkpt><trkpt lat="45.015909341705004" lon="14.91384918355603"><ele>529.3333333333334</ele><time>2026-05-01T17:29:58.999Z</time></trkpt><trkpt lat="45.01575680407916" lon="14.913819710743313"><ele>527.6666666666667</ele><time>2026-05-01T17:29:59.999Z</time></trkpt><trkpt lat="45.01560194494718" lon="14.913770284650218"><ele>526.0</ele><time>2026-05-01T17:30:00.999Z</time></trkpt><trkpt lat="45.01545744428331" lon="14.913706902631338"><ele>526.0</ele><time>2026-05-01T17:30:01.999Z</time></trkpt><trkpt lat="45.01531336696475" lon="14.91370247179953"><ele>526.0</ele><time>2026-05-01T17:30:02.999Z</time></trkpt><trkpt lat="45.01516581174353" lon="14.913689026100874"><ele>526.0</ele><time>2026-05-01T17:30:04Z</time></trkpt><trkpt lat="45.01500186017568" lon="14.913702868721138"><ele>523.0</ele><time>2026-05-01T17:30:05Z</time></trkpt><trkpt lat="45.014824758098946" lon="14.913725540482748"><ele>520.0</ele><time>2026-05-01T17:30:06Z</time></trkpt><trkpt lat="45.01464144484587" lon="14.913738527988011"><ele>517.0</ele><time>2026-05-01T17:30:07Z</time></trkpt><trkpt lat="45.01446375862968" lon="14.91377924939299"><ele>517.0</ele><time>2026-05-01T17:30:08Z</time></trkpt><trkpt lat="45.01429980822809" lon="14.913845122044377"><ele>517.0</ele><time>2026-05-01T17:30:09Z</time></trkpt><trkpt lat="45.01413598815475" lon="14.913887456606183"><ele>517.0</ele><time>2026-05-01T17:30:10Z</time></trkpt><trkpt lat="45.01397276665668" lon="14.913917041442739"><ele>514.3333333333334</ele><time>2026-05-01T17:30:11Z</time></trkpt><trkpt lat="45.013803151179" lon="14.91389332058839"><ele>511.66666666666663</ele><time>2026-05-01T17:30:12Z</time></trkpt><trkpt lat="45.01364081672355" lon="14.913873111309735"><ele>509.0</ele><time>2026-05-01T17:30:13Z</time></trkpt><trkpt lat="45.01348315678832" lon="14.913860362317356"><ele>505.0</ele><time>2026-05-01T17:30:14Z</time></trkpt><trkpt lat="45.01331546300064" lon="14.913853232603053"><ele>501.0</ele><time>2026-05-01T17:30:15Z</time></trkpt><trkpt lat="45.01313525000535" lon="14.913866278681668"><ele>497.0</ele><time>2026-05-01T17:30:16Z</time></trkpt><trkpt lat="45.01294807095502" lon="14.913906839462353"><ele>497.0</ele><time>2026-05-01T17:30:17Z</time></trkpt><trkpt lat="45.01277371626475" lon="14.913959324787188"><ele>497.0</ele><time>2026-05-01T17:30:18Z</time></trkpt><trkpt lat="45.01260626380663" lon="14.914006144258657"><ele>497.0</ele><time>2026-05-01T17:30:19Z</time></trkpt><trkpt lat="45.012453575112836" lon="14.914063398329779"><ele>496.5</ele><time>2026-05-01T17:30:20Z</time></trkpt><trkpt lat="45.01230940099024" lon="14.914068789421654"><ele>496.0</ele><time>2026-05-01T17:30:21Z</time></trkpt><trkpt lat="45.01216942272691" lon="14.914018428404093"><ele>495.5</ele><time>2026-05-01T17:30:22Z</time></trkpt><trkpt lat="45.012027122611364" lon="14.913947836773163"><ele>495.0</ele><time>2026-05-01T17:30:23Z</time></trkpt><trkpt lat="45.01187571531366" lon="14.913852618814456"><ele>495.0</ele><time>2026-05-01T17:30:24Z</time></trkpt><trkpt lat="45.0117345591544" lon="14.913765084450704"><ele>495.0</ele><time>2026-05-01T17:30:25Z</time></trkpt><trkpt lat="45.01159733171779" lon="14.9136801620021"><ele>495.0</ele><time>2026-05-01T17:30:26Z</time></trkpt><trkpt lat="45.011461784753685" lon="14.9136106028876"><ele>495.0</ele><time>2026-05-01T17:30:27Z</time></trkpt><trkpt lat="45.01132141294884" lon="14.913585343244081"><ele>493.66666666666663</ele><time>2026-05-01T17:30:28Z</time></trkpt><trkpt lat="45.0111821516764" lon="14.913562988896722"><ele>492.3333333333333</ele><time>2026-05-01T17:30:29Z</time></trkpt><trkpt lat="45.01102782884257" lon="14.91356020262534"><ele>491.0</ele><time>2026-05-01T17:30:30Z</time></trkpt><trkpt lat="45.01087013700163" lon="14.913576269350191"><ele>485.0</ele><time>2026-05-01T17:30:31Z</time></trkpt><trkpt lat="45.010710458550065" lon="14.913606431526745"><ele>479.0</ele><time>2026-05-01T17:30:32Z</time></trkpt><trkpt lat="45.01054878036408" lon="14.91365043133238"><ele>473.0</ele><time>2026-05-01T17:30:33Z</time></trkpt><trkpt lat="45.01038718331562" lon="14.913711701869174"><ele>473.0</ele><time>2026-05-01T17:30:34Z</time></trkpt><trkpt lat="45.010228767221975" lon="14.913781972576707"><ele>473.0</ele><time>2026-05-01T17:30:35Z</time></trkpt><trkpt lat="45.01007424241053" lon="14.913870109543629"><ele>473.0</ele><time>2026-05-01T17:30:36Z</time></trkpt><trkpt lat="45.00992863809042" lon="14.913968155284527"><ele>472.0</ele><time>2026-05-01T17:30:37Z</time></trkpt><trkpt lat="45.00978430730827" lon="14.9140493163676"><ele>471.0</ele><time>2026-05-01T17:30:38Z</time></trkpt><trkpt lat="45.009662815631366" lon="14.91417818177589"><ele>470.0</ele><time>2026-05-01T17:30:39Z</time></trkpt><trkpt lat="45.00954110140503" lon="14.91429014224312"><ele>470.0</ele><time>2026-05-01T17:30:40Z</time></trkpt><trkpt lat="45.009431571169586" lon="14.914412220108723"><ele>470.0</ele><time>2026-05-01T17:30:41Z</time></trkpt><trkpt lat="45.00933292094963" lon="14.914542047532493"><ele>470.0</ele><time>2026-05-01T17:30:42Z</time></trkpt><trkpt lat="45.00923045865591" lon="14.914638332827924"><ele>470.0</ele><time>2026-05-01T17:30:43Z</time></trkpt><trkpt lat="45.00917262880149" lon="14.914710543149425"><ele>470.0</ele><time>2026-05-01T17:30:44Z</time></trkpt><trkpt lat="45.00908466628006" lon="14.91473141192814"><ele>470.0</ele><time>2026-05-01T17:30:46Z</time></trkpt><trkpt lat="45.00903370957154" lon="14.914604520485904"><ele>470.0</ele><time>2026-05-01T17:30:48Z</time></trkpt><trkpt lat="45.00915671377698" lon="14.914482188426058"><ele>470.0</ele><time>2026-05-01T17:30:49Z</time></trkpt><trkpt lat="45.0092146467858" lon="14.914344711975495"><ele>465.5</ele><time>2026-05-01T17:30:50Z</time></trkpt><trkpt lat="45.009282440176655" lon="14.91419549128891"><ele>461.0</ele><time>2026-05-01T17:30:51Z</time></trkpt><trkpt lat="45.009345656240846" lon="14.914040841582688"><ele>456.5</ele><time>2026-05-01T17:30:52Z</time></trkpt><trkpt lat="45.009411603480515" lon="14.91389455719456"><ele>452.0</ele><time>2026-05-01T17:30:53Z</time></trkpt><trkpt lat="45.00948180960818" lon="14.913750997729343"><ele>452.0</ele><time>2026-05-01T17:30:54Z</time></trkpt><trkpt lat="45.00956083335946" lon="14.913609738171107"><ele>452.0</ele><time>2026-05-01T17:30:55Z</time></trkpt><trkpt lat="45.009664404807864" lon="14.913475509769752"><ele>452.0</ele><time>2026-05-01T17:30:56Z</time></trkpt><trkpt lat="45.00975933645687" lon="14.913325721458891"><ele>452.0</ele><time>2026-05-01T17:30:57Z</time></trkpt><trkpt lat="45.00984038800019" lon="14.913169277076776"><ele>452.75</ele><time>2026-05-01T17:30:58Z</time></trkpt><trkpt lat="45.00993024603395" lon="14.913031994478661"><ele>453.5</ele><time>2026-05-01T17:30:59Z</time></trkpt><trkpt lat="45.010018238313286" lon="14.912895975610033"><ele>454.25</ele><time>2026-05-01T17:31:00Z</time></trkpt><trkpt lat="45.0101135278067" lon="14.91275975254808"><ele>455.0</ele><time>2026-05-01T17:31:01Z</time></trkpt><trkpt lat="45.01022181904686" lon="14.912619357504115"><ele>448.0</ele><time>2026-05-01T17:31:02Z</time></trkpt><trkpt lat="45.01034306328105" lon="14.912485565337159"><ele>441.0</ele><time>2026-05-01T17:31:03Z</time></trkpt><trkpt lat="45.01047413713404" lon="14.912357309268463"><ele>434.0</ele><time>2026-05-01T17:31:04Z</time></trkpt><trkpt lat="45.01061139258382" lon="14.912226514900372"><ele>434.0</ele><time>2026-05-01T17:31:05Z</time></trkpt><trkpt lat="45.010755043923965" lon="14.91210507279892"><ele>434.0</ele><time>2026-05-01T17:31:06Z</time></trkpt><trkpt lat="45.010901679603435" lon="14.911986470122272"><ele>434.0</ele><time>2026-05-01T17:31:07Z</time></trkpt><trkpt lat="45.011055496528634" lon="14.911870208607242"><ele>432.0</ele><time>2026-05-01T17:31:08Z</time></trkpt><trkpt lat="45.011203834130264" lon="14.911754210687798"><ele>430.0</ele><time>2026-05-01T17:31:09Z</time></trkpt><trkpt lat="45.01134720716407" lon="14.91166114774187"><ele>428.0</ele><time>2026-05-01T17:31:10Z</time></trkpt><trkpt lat="45.011490209601114" lon="14.91157668747975"><ele>428.0</ele><time>2026-05-01T17:31:11Z</time></trkpt><trkpt lat="45.01162335654285" lon="14.911509520924248"><ele>428.0</ele><time>2026-05-01T17:31:12Z</time></trkpt><trkpt lat="45.01174556578642" lon="14.911455244879598"><ele>428.0</ele><time>2026-05-01T17:31:13Z</time></trkpt><trkpt lat="45.011849016854654" lon="14.911401951497965"><ele>428.0</ele><time>2026-05-01T17:31:14Z</time></trkpt><trkpt lat="45.01191816680299" lon="14.911335922069032"><ele>429.75</ele><time>2026-05-01T17:31:15Z</time></trkpt><trkpt lat="45.011959499254395" lon="14.911214596476574"><ele>431.5</ele><time>2026-05-01T17:31:16Z</time></trkpt><trkpt lat="45.011964785374275" lon="14.91105656705525"><ele>433.25</ele><time>2026-05-01T17:31:17Z</time></trkpt><trkpt lat="45.01193694418041" lon="14.910884797624806"><ele>435.0</ele><time>2026-05-01T17:31:18Z</time></trkpt><trkpt lat="45.01190680566504" lon="14.910679968662265"><ele>430.33333333333337</ele><time>2026-05-01T17:31:19Z</time></trkpt><trkpt lat="45.01182965027848" lon="14.910469568605567"><ele>425.6666666666667</ele><time>2026-05-01T17:31:20Z</time></trkpt><trkpt lat="45.01176035104113" lon="14.910278519008644"><ele>421.0</ele><time>2026-05-01T17:31:21Z</time></trkpt><trkpt lat="45.011697774227585" lon="14.910093326599952"><ele>419.8</ele><time>2026-05-01T17:31:22Z</time></trkpt><trkpt lat="45.01165078006614" lon="14.90995195672272"><ele>418.6</ele><time>2026-05-01T17:31:23Z</time></trkpt><trkpt lat="45.011637563475446" lon="14.909833512097057"><ele>417.4</ele><time>2026-05-01T17:31:24Z</time></trkpt><trkpt lat="45.011661124614974" lon="14.909704577227663"><ele>416.2</ele><time>2026-05-01T17:31:25Z</time></trkpt><trkpt lat="45.011724900509684" lon="14.909575903563532"><ele>415.0</ele><time>2026-05-01T17:31:26Z</time></trkpt><trkpt lat="45.01178429127658" lon="14.909509736453918"><ele>415.0</ele><time>2026-05-01T17:31:27Z</time></trkpt><trkpt lat="45.011828987408094" lon="14.909342647936965"><ele>415.0</ele><time>2026-05-01T17:31:29Z</time></trkpt><trkpt lat="45.01177278424693" lon="14.90926076772613"><ele>415.0</ele><time>2026-05-01T17:31:30Z</time></trkpt><trkpt lat="45.01169952709881" lon="14.909236163647087"><ele>415.0</ele><time>2026-05-01T17:31:31Z</time></trkpt><trkpt lat="45.011618678761714" lon="14.909288490115078"><ele>415.0</ele><time>2026-05-01T17:31:32Z</time></trkpt><trkpt lat="45.0115438507432" lon="14.909390243583337"><ele>409.5</ele><time>2026-05-01T17:31:33Z</time></trkpt><trkpt lat="45.011453472340456" lon="14.909517013179418"><ele>404.0</ele><time>2026-05-01T17:31:34Z</time></trkpt><trkpt lat="45.01137043914579" lon="14.909630926230468"><ele>398.5</ele><time>2026-05-01T17:31:35Z</time></trkpt><trkpt lat="45.01131385337707" lon="14.909757006455026"><ele>393.0</ele><time>2026-05-01T17:31:36Z</time></trkpt><trkpt lat="45.01129929097423" lon="14.909941871665373"><ele>395.59999999999997</ele><time>2026-05-01T17:31:37Z</time></trkpt><trkpt lat="45.01130902335737" lon="14.910125481508103"><ele>398.2</ele><time>2026-05-01T17:31:38Z</time></trkpt><trkpt lat="45.01130347073596" lon="14.910267791843788"><ele>400.8</ele><time>2026-05-01T17:31:39Z</time></trkpt><trkpt lat="45.01123429324678" lon="14.910357752691713"><ele>403.4</ele><time>2026-05-01T17:31:40Z</time></trkpt><trkpt lat="45.011140090092255" lon="14.910378360889478"><ele>406.0</ele><time>2026-05-01T17:31:41Z</time></trkpt><trkpt lat="45.01102165694396" lon="14.910393230188763"><ele>406.0</ele><time>2026-05-01T17:31:42Z</time></trkpt><trkpt lat="45.01086712417299" lon="14.910437722704204"><ele>406.0</ele><time>2026-05-01T17:31:43Z</time></trkpt><trkpt lat="45.01069342610784" lon="14.910523132702558"><ele>406.0</ele><time>2026-05-01T17:31:44Z</time></trkpt><trkpt lat="45.010496176880245" lon="14.910611618782486"><ele>401.6666666666667</ele><time>2026-05-01T17:31:45Z</time></trkpt><trkpt lat="45.01029529629361" lon="14.910698044851674"><ele>397.33333333333337</ele><time>2026-05-01T17:31:46Z</time></trkpt><trkpt lat="45.010096227911454" lon="14.910737953606905"><ele>393.0</ele><time>2026-05-01T17:31:47Z</time></trkpt><trkpt lat="45.009894606554205" lon="14.910769449667686"><ele>388.0</ele><time>2026-05-01T17:31:48Z</time></trkpt><trkpt lat="45.00969985122563" lon="14.910800523284905"><ele>383.0</ele><time>2026-05-01T17:31:49Z</time></trkpt><trkpt lat="45.009521225631445" lon="14.910822260818136"><ele>378.0</ele><time>2026-05-01T17:31:50Z</time></trkpt><trkpt lat="45.009360002354526" lon="14.910871776354378"><ele>373.6666666666667</ele><time>2026-05-01T17:31:51Z</time></trkpt><trkpt lat="45.00920626010176" lon="14.910909103324585"><ele>369.33333333333337</ele><time>2026-05-01T17:31:52Z</time></trkpt><trkpt lat="45.009065689194976" lon="14.91097611418979"><ele>365.0</ele><time>2026-05-01T17:31:53Z</time></trkpt><trkpt lat="45.00893684282175" lon="14.911079764875822"><ele>365.0</ele><time>2026-05-01T17:31:54Z</time></trkpt><trkpt lat="45.00881731319014" lon="14.911200458478854"><ele>365.0</ele><time>2026-05-01T17:31:55Z</time></trkpt><trkpt lat="45.00870536937041" lon="14.911334407100592"><ele>365.0</ele><time>2026-05-01T17:31:56Z</time></trkpt><trkpt lat="45.00860429455946" lon="14.911485273645315"><ele>365.0</ele><time>2026-05-01T17:31:57Z</time></trkpt><trkpt lat="45.008519665221996" lon="14.911659530088945"><ele>363.25</ele><time>2026-05-01T17:31:58Z</time></trkpt><trkpt lat="45.00844704460275" lon="14.911842253251887"><ele>361.5</ele><time>2026-05-01T17:31:59Z</time></trkpt><trkpt lat="45.00837741260786" lon="14.912014676361089"><ele>359.75</ele><time>2026-05-01T17:32:00Z</time></trkpt><trkpt lat="45.00830620990237" lon="14.912162992114617"><ele>358.0</ele><time>2026-05-01T17:32:01Z</time></trkpt><trkpt lat="45.00822021899274" lon="14.91225395067944"><ele>358.0</ele><time>2026-05-01T17:32:02Z</time></trkpt><trkpt lat="45.008138752538315" lon="14.912315064268084"><ele>358.0</ele><time>2026-05-01T17:32:03Z</time></trkpt><trkpt lat="45.00804506815957" lon="14.912296797234674"><ele>358.0</ele><time>2026-05-01T17:32:04Z</time></trkpt><trkpt lat="45.00791998711757" lon="14.91229393686252"><ele>358.0</ele><time>2026-05-01T17:32:05Z</time></trkpt><trkpt lat="45.0077839477247" lon="14.912335640527722"><ele>358.0</ele><time>2026-05-01T17:32:06Z</time></trkpt><trkpt lat="45.007657589508966" lon="14.91238613977268"><ele>358.0</ele><time>2026-05-01T17:32:07Z</time></trkpt><trkpt lat="45.00754404121487" lon="14.912466602193982"><ele>358.0</ele><time>2026-05-01T17:32:08Z</time></trkpt><trkpt lat="45.007429111617924" lon="14.912525641633227"><ele>358.0</ele><time>2026-05-01T17:32:09Z</time></trkpt><trkpt lat="45.007315565003445" lon="14.912592947032623"><ele>358.0</ele><time>2026-05-01T17:32:10Z</time></trkpt><trkpt lat="45.00720567323594" lon="14.912673799730088"><ele>358.0</ele><time>2026-05-01T17:32:11Z</time></trkpt><trkpt lat="45.00710266464118" lon="14.9127680813991"><ele>358.0</ele><time>2026-05-01T17:32:12Z</time></trkpt><trkpt lat="45.00701284270981" lon="14.912889005482882"><ele>358.0</ele><time>2026-05-01T17:32:13Z</time></trkpt><trkpt lat="45.00693491451486" lon="14.913022888344393"><ele>358.0</ele><time>2026-05-01T17:32:14Z</time></trkpt><trkpt lat="45.00687089822733" lon="14.913158499398449"><ele>358.0</ele><time>2026-05-01T17:32:15Z</time></trkpt><trkpt lat="45.006818390867316" lon="14.913272298511679"><ele>358.0</ele><time>2026-05-01T17:32:16Z</time></trkpt><trkpt lat="45.00674376021856" lon="14.913333718220636"><ele>358.0</ele><time>2026-05-01T17:32:17Z</time></trkpt><trkpt lat="45.00666039071789" lon="14.913367215436711"><ele>358.0</ele><time>2026-05-01T17:32:18Z</time></trkpt><trkpt lat="45.00656423519885" lon="14.913309819568655"><ele>359.5</ele><time>2026-05-01T17:32:19Z</time></trkpt><trkpt lat="45.00648383849876" lon="14.913158000750748"><ele>361.0</ele><time>2026-05-01T17:32:20Z</time></trkpt><trkpt lat="45.006366676149625" lon="14.913056480693728"><ele>362.5</ele><time>2026-05-01T17:32:21Z</time></trkpt><trkpt lat="45.00622627730288" lon="14.912978200777014"><ele>364.0</ele><time>2026-05-01T17:32:22Z</time></trkpt><trkpt lat="45.00606404414543" lon="14.912919105122361"><ele>364.0</ele><time>2026-05-01T17:32:23Z</time></trkpt><trkpt lat="45.005880099359764" lon="14.912869760002392"><ele>364.0</ele><time>2026-05-01T17:32:24Z</time></trkpt><trkpt lat="45.005711048115735" lon="14.912815985431555"><ele>364.0</ele><time>2026-05-01T17:32:25Z</time></trkpt><trkpt lat="45.00555333701263" lon="14.912760779215661"><ele>365.66666666666663</ele><time>2026-05-01T17:32:26Z</time></trkpt><trkpt lat="45.00539949778974" lon="14.912641268647658"><ele>367.3333333333333</ele><time>2026-05-01T17:32:27Z</time></trkpt><trkpt lat="45.005224381831" lon="14.912541216860683"><ele>369.0</ele><time>2026-05-01T17:32:28Z</time></trkpt><trkpt lat="45.00505285406875" lon="14.91241790680797"><ele>361.0</ele><time>2026-05-01T17:32:29Z</time></trkpt><trkpt lat="45.0048801249024" lon="14.912302377893393"><ele>353.0</ele><time>2026-05-01T17:32:30Z</time></trkpt><trkpt lat="45.00471609687047" lon="14.912192931704594"><ele>345.0</ele><time>2026-05-01T17:32:31Z</time></trkpt><trkpt lat="45.00456308442532" lon="14.912085468149572"><ele>345.0</ele><time>2026-05-01T17:32:32Z</time></trkpt><trkpt lat="45.00442147938404" lon="14.911983445377814"><ele>345.0</ele><time>2026-05-01T17:32:33Z</time></trkpt><trkpt lat="45.00427975570095" lon="14.911904518447841"><ele>345.0</ele><time>2026-05-01T17:32:34Z</time></trkpt><trkpt lat="45.00413911098948" lon="14.911849079536754"><ele>340.0</ele><time>2026-05-01T17:32:35Z</time></trkpt><trkpt lat="45.003991831718594" lon="14.91183031809878"><ele>335.0</ele><time>2026-05-01T17:32:36Z</time></trkpt><trkpt lat="45.003828592238115" lon="14.911839137220177"><ele>330.0</ele><time>2026-05-01T17:32:37Z</time></trkpt><trkpt lat="45.00365977940811" lon="14.911872498275017"><ele>330.0</ele><time>2026-05-01T17:32:38Z</time></trkpt><trkpt lat="45.003506519679874" lon="14.911910604706168"><ele>330.0</ele><time>2026-05-01T17:32:39Z</time></trkpt><trkpt lat="45.003367758009354" lon="14.911953141270603"><ele>330.0</ele><time>2026-05-01T17:32:40Z</time></trkpt><trkpt lat="45.00323736280555" lon="14.912008781674825"><ele>330.0</ele><time>2026-05-01T17:32:41Z</time></trkpt><trkpt lat="45.00311589269912" lon="14.912104782393705"><ele>330.6666666666667</ele><time>2026-05-01T17:32:42Z</time></trkpt><trkpt lat="45.00300051427525" lon="14.912238038528784"><ele>331.33333333333337</ele><time>2026-05-01T17:32:43Z</time></trkpt><trkpt lat="45.002903926338796" lon="14.912398986157704"><ele>332.0</ele><time>2026-05-01T17:32:44Z</time></trkpt><trkpt lat="45.00282112535385" lon="14.9125797222568"><ele>332.0</ele><time>2026-05-01T17:32:45Z</time></trkpt><trkpt lat="45.00274289361079" lon="14.912748659890868"><ele>332.0</ele><time>2026-05-01T17:32:46Z</time></trkpt><trkpt lat="45.00268686342198" lon="14.912903869519537"><ele>332.0</ele><time>2026-05-01T17:32:47Z</time></trkpt><trkpt lat="45.00264080352448" lon="14.912991710992529"><ele>332.0</ele><time>2026-05-01T17:32:48Z</time></trkpt><trkpt lat="45.0025209957547" lon="14.913013816246123"><ele>334.0</ele><time>2026-05-01T17:32:50Z</time></trkpt><trkpt lat="45.002448712080756" lon="14.91293215529321"><ele>336.0</ele><time>2026-05-01T17:32:51Z</time></trkpt><trkpt lat="45.0023977907215" lon="14.912784431800201"><ele>338.0</ele><time>2026-05-01T17:32:52Z</time></trkpt><trkpt lat="45.00231688031422" lon="14.9126270558633"><ele>340.0</ele><time>2026-05-01T17:32:53Z</time></trkpt><trkpt lat="45.002239152525355" lon="14.912477122459967"><ele>334.25</ele><time>2026-05-01T17:32:54Z</time></trkpt><trkpt lat="45.00216973398694" lon="14.912327742795329"><ele>328.5</ele><time>2026-05-01T17:32:55Z</time></trkpt><trkpt lat="45.0020959184982" lon="14.912191235365901"><ele>322.75</ele><time>2026-05-01T17:32:56Z</time></trkpt><trkpt lat="45.002034797212836" lon="14.912054851986511"><ele>317.0</ele><time>2026-05-01T17:32:57Z</time></trkpt><trkpt lat="45.00197308237626" lon="14.911934097275156"><ele>317.0</ele><time>2026-05-01T17:32:58Z</time></trkpt><trkpt lat="45.001900242332574" lon="14.911820583047598"><ele>317.0</ele><time>2026-05-01T17:32:59Z</time></trkpt><trkpt lat="45.00179090648385" lon="14.911750482156545"><ele>317.0</ele><time>2026-05-01T17:33:00Z</time></trkpt><trkpt lat="45.001695180646344" lon="14.91170449402898"><ele>317.0</ele><time>2026-05-01T17:33:01Z</time></trkpt><trkpt lat="45.001558383858224" lon="14.911707469753104"><ele>309.25</ele><time>2026-05-01T17:33:02Z</time></trkpt><trkpt lat="45.00143700768393" lon="14.911706065692726"><ele>301.5</ele><time>2026-05-01T17:33:03Z</time></trkpt><trkpt lat="45.00131702060395" lon="14.911695006806431"><ele>293.75</ele><time>2026-05-01T17:33:04Z</time></trkpt><trkpt lat="45.001198354193214" lon="14.911693210724886"><ele>286.0</ele><time>2026-05-01T17:33:05Z</time></trkpt><trkpt lat="45.00108056442427" lon="14.911678974394288"><ele>286.0</ele><time>2026-05-01T17:33:06Z</time></trkpt><trkpt lat="45.00096310940713" lon="14.911677192368904"><ele>286.0</ele><time>2026-05-01T17:33:07Z</time></trkpt><trkpt lat="45.00084653504215" lon="14.91167706779466"><ele>286.0</ele><time>2026-05-01T17:33:08Z</time></trkpt><trkpt lat="45.00072539840651" lon="14.911680705930717"><ele>286.0</ele><time>2026-05-01T17:33:09Z</time></trkpt><trkpt lat="45.00060593408009" lon="14.911687367799654"><ele>287.25</ele><time>2026-05-01T17:33:10Z</time></trkpt><trkpt lat="45.000483747896936" lon="14.911712466564397"><ele>288.5</ele><time>2026-05-01T17:33:11Z</time></trkpt><trkpt lat="45.00036978132447" lon="14.91176098185145"><ele>289.75</ele><time>2026-05-01T17:33:12Z</time></trkpt><trkpt lat="45.00025987821705" lon="14.911828442554697"><ele>291.0</ele><time>2026-05-01T17:33:13Z</time></trkpt><trkpt lat="45.00015899752092" lon="14.91190921948436"><ele>291.0</ele><time>2026-05-01T17:33:14Z</time></trkpt><trkpt lat="45.0000771638476" lon="14.912012330711722"><ele>291.0</ele><time>2026-05-01T17:33:15Z</time></trkpt><trkpt lat="45.000015090822366" lon="14.912124433126305"><ele>291.0</ele><time>2026-05-01T17:33:16Z</time></trkpt><trkpt lat="44.99996930447889" lon="14.912210360238774"><ele>291.0</ele><time>2026-05-01T17:33:17Z</time></trkpt><trkpt lat="44.99987263006309" lon="14.91222346848737"><ele>291.0</ele><time>2026-05-01T17:33:19Z</time></trkpt><trkpt lat="44.99986082436035" lon="14.912056739031534"><ele>291.0</ele><time>2026-05-01T17:33:21Z</time></trkpt><trkpt lat="44.99993544863897" lon="14.911971286137977"><ele>291.0</ele><time>2026-05-01T17:33:22Z</time></trkpt><trkpt lat="45.000019010327335" lon="14.911870049917344"><ele>291.0</ele><time>2026-05-01T17:33:23Z</time></trkpt><trkpt lat="45.000118864964264" lon="14.911743941562877"><ele>291.0</ele><time>2026-05-01T17:33:24Z</time></trkpt><trkpt lat="45.0002268235809" lon="14.911609554847193"><ele>285.0</ele><time>2026-05-01T17:33:25Z</time></trkpt><trkpt lat="45.000330602761444" lon="14.911472321390882"><ele>279.0</ele><time>2026-05-01T17:33:26Z</time></trkpt><trkpt lat="45.00044760418078" lon="14.911348746671687"><ele>273.0</ele><time>2026-05-01T17:33:27Z</time></trkpt><trkpt lat="45.00056569101449" lon="14.911229468848388"><ele>267.0</ele><time>2026-05-01T17:33:28Z</time></trkpt><trkpt lat="45.00069587367676" lon="14.911139834787292"><ele>267.0</ele><time>2026-05-01T17:33:29Z</time></trkpt><trkpt lat="45.00081999678456" lon="14.911041042490176"><ele>267.0</ele><time>2026-05-01T17:33:30Z</time></trkpt><trkpt lat="45.00094176780895" lon="14.910945556031901"><ele>267.0</ele><time>2026-05-01T17:33:31Z</time></trkpt><trkpt lat="45.001066033192124" lon="14.91084836526985"><ele>267.0</ele><time>2026-05-01T17:33:32Z</time></trkpt><trkpt lat="45.001189674557544" lon="14.910752343310204"><ele>267.25</ele><time>2026-05-01T17:33:33Z</time></trkpt><trkpt lat="45.001312916141664" lon="14.910659497075022"><ele>267.5</ele><time>2026-05-01T17:33:34Z</time></trkpt><trkpt lat="45.001431943193026" lon="14.91054757960671"><ele>267.75</ele><time>2026-05-01T17:33:35Z</time></trkpt><trkpt lat="45.00156860182135" lon="14.910492477166457"><ele>268.0</ele><time>2026-05-01T17:33:36Z</time></trkpt><trkpt lat="45.00169503299411" lon="14.910412802247404"><ele>268.0</ele><time>2026-05-01T17:33:37Z</time></trkpt><trkpt lat="45.00181860642724" lon="14.910400922633407"><ele>268.0</ele><time>2026-05-01T17:33:38Z</time></trkpt><trkpt lat="45.00192569878402" lon="14.910440706565923"><ele>268.0</ele><time>2026-05-01T17:33:39Z</time></trkpt><trkpt lat="45.002003444488786" lon="14.910567098752264"><ele>268.0</ele><time>2026-05-01T17:33:40Z</time></trkpt><trkpt lat="45.00210404021111" lon="14.910671044351714"><ele>268.0</ele><time>2026-05-01T17:33:41Z</time></trkpt><trkpt lat="45.002215320284975" lon="14.910735594198345"><ele>268.0</ele><time>2026-05-01T17:33:42Z</time></trkpt><trkpt lat="45.00230511161059" lon="14.910761108887904"><ele>268.0</ele><time>2026-05-01T17:33:43Z</time></trkpt><trkpt lat="45.00239092860617" lon="14.910719246612933"><ele>268.0</ele><time>2026-05-01T17:33:44Z</time></trkpt><trkpt lat="45.00246674422663" lon="14.91061667310651"><ele>268.0</ele><time>2026-05-01T17:33:45Z</time></trkpt><trkpt lat="45.00251354747347" lon="14.910458964670335"><ele>267.5</ele><time>2026-05-01T17:33:46Z</time></trkpt><trkpt lat="45.002540152788384" lon="14.910271424739225"><ele>267.0</ele><time>2026-05-01T17:33:47Z</time></trkpt><trkpt lat="45.002561692059885" lon="14.910063635159686"><ele>266.5</ele><time>2026-05-01T17:33:48Z</time></trkpt><trkpt lat="45.00258700096953" lon="14.909861015767948"><ele>266.0</ele><time>2026-05-01T17:33:49Z</time></trkpt><trkpt lat="45.00263548134791" lon="14.909672775190565"><ele>260.5</ele><time>2026-05-01T17:33:50Z</time></trkpt><trkpt lat="45.0026739833306" lon="14.90950418330011"><ele>255.0</ele><time>2026-05-01T17:33:51Z</time></trkpt><trkpt lat="45.00273404143796" lon="14.909357823298354"><ele>249.5</ele><time>2026-05-01T17:33:52Z</time></trkpt><trkpt lat="45.00281853113734" lon="14.909218099942999"><ele>244.0</ele><time>2026-05-01T17:33:53Z</time></trkpt><trkpt lat="45.00292719162131" lon="14.909109049988139"><ele>242.0</ele><time>2026-05-01T17:33:54Z</time></trkpt><trkpt lat="45.00305295369616" lon="14.909038364304525"><ele>240.0</ele><time>2026-05-01T17:33:55Z</time></trkpt><trkpt lat="45.00319074557756" lon="14.908970450759291"><ele>238.0</ele><time>2026-05-01T17:33:56Z</time></trkpt><trkpt lat="45.003325215720245" lon="14.908923354442594"><ele>236.0</ele><time>2026-05-01T17:33:57Z</time></trkpt><trkpt lat="45.00346282708186" lon="14.908901340874005"><ele>236.0</ele><time>2026-05-01T17:33:58Z</time></trkpt><trkpt lat="45.003602748524514" lon="14.908888036338395"><ele>236.0</ele><time>2026-05-01T17:33:59Z</time></trkpt><trkpt lat="45.00374342768277" lon="14.90888478628349"><ele>236.0</ele><time>2026-05-01T17:34:00Z</time></trkpt><trkpt lat="45.00388361346004" lon="14.908916345059952"><ele>236.0</ele><time>2026-05-01T17:34:01Z</time></trkpt><trkpt lat="45.004010769800246" lon="14.908985972308296"><ele>236.0</ele><time>2026-05-01T17:34:02Z</time></trkpt><trkpt lat="45.00412861314025" lon="14.90904133234973"><ele>236.00000000000003</ele><time>2026-05-01T17:34:03Z</time></trkpt><trkpt lat="45.00423063513702" lon="14.909090463722697"><ele>236.00000000000003</ele><time>2026-05-01T17:34:04Z</time></trkpt><trkpt lat="45.00431599611513" lon="14.909103266322512"><ele>236.0</ele><time>2026-05-01T17:34:05Z</time></trkpt><trkpt lat="45.004378313556515" lon="14.909119388559278"><ele>236.0</ele><time>2026-05-01T17:34:05.999Z</time></trkpt><trkpt lat="45.00443783999095" lon="14.909043769681004"><ele>236.0</ele><time>2026-05-01T17:34:06.999Z</time></trkpt><trkpt lat="45.00442108164901" lon="14.908876456861787"><ele>236.00000000000003</ele><time>2026-05-01T17:34:07.999Z</time></trkpt><trkpt lat="45.00436757388939" lon="14.90878124148477"><ele>236.00000000000003</ele><time>2026-05-01T17:34:08.999Z</time></trkpt><trkpt lat="45.004270902480336" lon="14.908729384612771"><ele>236.0</ele><time>2026-05-01T17:34:09.999Z</time></trkpt><trkpt lat="45.004166450266325" lon="14.908666691093888"><ele>236.0</ele><time>2026-05-01T17:34:10.999Z</time></trkpt><trkpt lat="45.00404023741859" lon="14.908605981268376"><ele>236.0</ele><time>2026-05-01T17:34:11.999Z</time></trkpt><trkpt lat="45.003918327024344" lon="14.908498981424236"><ele>236.0</ele><time>2026-05-01T17:34:12.999Z</time></trkpt><trkpt lat="45.00377849899787" lon="14.908418116318126"><ele>236.0</ele><time>2026-05-01T17:34:13.999Z</time></trkpt><trkpt lat="45.003644152808924" lon="14.908309171898406"><ele>236.0</ele><time>2026-05-01T17:34:14.999Z</time></trkpt><trkpt lat="45.00351128133913" lon="14.908191536774673"><ele>232.0</ele><time>2026-05-01T17:34:16Z</time></trkpt><trkpt lat="45.00336697512444" lon="14.908118006481642"><ele>228.0</ele><time>2026-05-01T17:34:17Z</time></trkpt><trkpt lat="45.003225443556225" lon="14.908048073989523"><ele>224.0</ele><time>2026-05-01T17:34:18Z</time></trkpt><trkpt lat="45.00309310450016" lon="14.90797935820036"><ele>220.0</ele><time>2026-05-01T17:34:19Z</time></trkpt><trkpt lat="45.00296806339128" lon="14.907897922110418"><ele>220.0</ele><time>2026-05-01T17:34:20Z</time></trkpt><trkpt lat="45.002843844317795" lon="14.907787181514053"><ele>220.0</ele><time>2026-05-01T17:34:21Z</time></trkpt><trkpt lat="45.00272320215228" lon="14.907661885502165"><ele>220.0</ele><time>2026-05-01T17:34:22Z</time></trkpt><trkpt lat="45.00262433521273" lon="14.907539685815305"><ele>220.0</ele><time>2026-05-01T17:34:23Z</time></trkpt><trkpt lat="45.00252449353194" lon="14.907447770440688"><ele>217.4</ele><time>2026-05-01T17:34:24Z</time></trkpt><trkpt lat="45.00241650224016" lon="14.90737934714119"><ele>214.8</ele><time>2026-05-01T17:34:25Z</time></trkpt><trkpt lat="45.00230807441011" lon="14.907356439052634"><ele>212.2</ele><time>2026-05-01T17:34:26Z</time></trkpt><trkpt lat="45.00220575810695" lon="14.907385586659668"><ele>209.6</ele><time>2026-05-01T17:34:27Z</time></trkpt><trkpt lat="45.002119581686046" lon="14.907484409193529"><ele>207.0</ele><time>2026-05-01T17:34:28Z</time></trkpt><trkpt lat="45.002052189669996" lon="14.90761341113511"><ele>207.0</ele><time>2026-05-01T17:34:29Z</time></trkpt><trkpt lat="45.00200914519869" lon="14.907760538679486"><ele>207.0</ele><time>2026-05-01T17:34:30Z</time></trkpt><trkpt lat="45.001937156781146" lon="14.907857972052486"><ele>207.0</ele><time>2026-05-01T17:34:31Z</time></trkpt><trkpt lat="45.00184678781553" lon="14.907889660936483"><ele>207.0</ele><time>2026-05-01T17:34:32Z</time></trkpt><trkpt lat="45.001752970026175" lon="14.907858876197258"><ele>207.0</ele><time>2026-05-01T17:34:33Z</time></trkpt><trkpt lat="45.001670447909774" lon="14.907752921686013"><ele>202.5</ele><time>2026-05-01T17:34:34Z</time></trkpt><trkpt lat="45.00157289839154" lon="14.907655575089448"><ele>198.0</ele><time>2026-05-01T17:34:35Z</time></trkpt><trkpt lat="45.001474672172755" lon="14.907576709035556"><ele>193.5</ele><time>2026-05-01T17:34:36Z</time></trkpt><trkpt lat="45.00136157730683" lon="14.907559415993019"><ele>189.0</ele><time>2026-05-01T17:34:37Z</time></trkpt><trkpt lat="45.00124077587403" lon="14.90758902875016"><ele>189.0</ele><time>2026-05-01T17:34:38Z</time></trkpt><trkpt lat="45.00112042643872" lon="14.907665091265866"><ele>189.0</ele><time>2026-05-01T17:34:39Z</time></trkpt><trkpt lat="45.00100653996439" lon="14.907771955525465"><ele>189.0</ele><time>2026-05-01T17:34:40Z</time></trkpt><trkpt lat="45.00089409901042" lon="14.90790290564133"><ele>189.0</ele><time>2026-05-01T17:34:41Z</time></trkpt><trkpt lat="45.000775411561285" lon="14.908032586092556"><ele>181.33333333333334</ele><time>2026-05-01T17:34:42Z</time></trkpt><trkpt lat="45.00064780554057" lon="14.90815513833324"><ele>173.66666666666669</ele><time>2026-05-01T17:34:43Z</time></trkpt><trkpt lat="45.00051607106243" lon="14.908264561167728"><ele>166.0</ele><time>2026-05-01T17:34:44Z</time></trkpt><trkpt lat="45.0003844034249" lon="14.90836900089951"><ele>172.0</ele><time>2026-05-01T17:34:45Z</time></trkpt><trkpt lat="45.000261200999525" lon="14.908472126322726"><ele>178.0</ele><time>2026-05-01T17:34:46Z</time></trkpt><trkpt lat="45.00013713205765" lon="14.908557976244047"><ele>184.0</ele><time>2026-05-01T17:34:47Z</time></trkpt><trkpt lat="45.00004855823602" lon="14.90869987496608"><ele>190.0</ele><time>2026-05-01T17:34:48Z</time></trkpt><trkpt lat="44.999972773671864" lon="14.908825836276472"><ele>190.0</ele><time>2026-05-01T17:34:49Z</time></trkpt><trkpt lat="44.99990259962118" lon="14.908931285468686"><ele>190.0</ele><time>2026-05-01T17:34:50Z</time></trkpt><trkpt lat="44.999829689358016" lon="14.908983563555926"><ele>190.0</ele><time>2026-05-01T17:34:51Z</time></trkpt><trkpt lat="44.999752817676026" lon="14.908972021762372"><ele>190.0</ele><time>2026-05-01T17:34:52Z</time></trkpt><trkpt lat="44.99966713905402" lon="14.908889941231642"><ele>190.0</ele><time>2026-05-01T17:34:53Z</time></trkpt><trkpt lat="44.999585009748095" lon="14.908765469348342"><ele>190.0</ele><time>2026-05-01T17:34:54Z</time></trkpt><trkpt lat="44.999506785647704" lon="14.908681681657823"><ele>190.0</ele><time>2026-05-01T17:34:55Z</time></trkpt><trkpt lat="44.999408836526044" lon="14.908650421218347"><ele>190.0</ele><time>2026-05-01T17:34:56Z</time></trkpt><trkpt lat="44.99929959653072" lon="14.908662593592657"><ele>190.0</ele><time>2026-05-01T17:34:57Z</time></trkpt><trkpt lat="44.99917666223333" lon="14.908734978149019"><ele>190.0</ele><time>2026-05-01T17:34:58Z</time></trkpt><trkpt lat="44.999050002842914" lon="14.908814283979769"><ele>188.0</ele><time>2026-05-01T17:34:59Z</time></trkpt><trkpt lat="44.99891232253196" lon="14.90885970200653"><ele>186.0</ele><time>2026-05-01T17:35:00Z</time></trkpt><trkpt lat="44.99876011820911" lon="14.908883295351139"><ele>184.0</ele><time>2026-05-01T17:35:01Z</time></trkpt><trkpt lat="44.99860816139362" lon="14.908890771040365"><ele>182.0</ele><time>2026-05-01T17:35:02Z</time></trkpt><trkpt lat="44.99845768114469" lon="14.908876608796056"><ele>180.66666666666666</ele><time>2026-05-01T17:35:03Z</time></trkpt><trkpt lat="44.99830843297473" lon="14.908843973026064"><ele>179.33333333333334</ele><time>2026-05-01T17:35:04Z</time></trkpt><trkpt lat="44.99816393305527" lon="14.908785931593117"><ele>178.0</ele><time>2026-05-01T17:35:05Z</time></trkpt><trkpt lat="44.998024389393464" lon="14.908707361949556"><ele>178.0</ele><time>2026-05-01T17:35:06Z</time></trkpt><trkpt lat="44.997891311586926" lon="14.9086119706697"><ele>178.0</ele><time>2026-05-01T17:35:07Z</time></trkpt><trkpt lat="44.99776100189928" lon="14.908512390346736"><ele>178.0</ele><time>2026-05-01T17:35:08Z</time></trkpt><trkpt lat="44.99763250712736" lon="14.908412078312134"><ele>178.0</ele><time>2026-05-01T17:35:09Z</time></trkpt><trkpt lat="44.99750266172803" lon="14.90831216292907"><ele>171.0</ele><time>2026-05-01T17:35:10Z</time></trkpt><trkpt lat="44.99737671484922" lon="14.908208731895458"><ele>164.0</ele><time>2026-05-01T17:35:11Z</time></trkpt><trkpt lat="44.99725946515394" lon="14.908109988625158"><ele>157.0</ele><time>2026-05-01T17:35:12Z</time></trkpt><trkpt lat="44.997117894481654" lon="14.908038825103873"><ele>150.0</ele><time>2026-05-01T17:35:13Z</time></trkpt><trkpt lat="44.99695651356546" lon="14.907994687578817"><ele>150.0</ele><time>2026-05-01T17:35:14Z</time></trkpt><trkpt lat="44.99678485684374" lon="14.907951259573423"><ele>150.0</ele><time>2026-05-01T17:35:15Z</time></trkpt><trkpt lat="44.99660153120684" lon="14.907902170388132"><ele>150.0</ele><time>2026-05-01T17:35:16Z</time></trkpt><trkpt lat="44.996414244226536" lon="14.907850769881305"><ele>152.33333333333334</ele><time>2026-05-01T17:35:17Z</time></trkpt><trkpt lat="44.99622641780353" lon="14.907791619068231"><ele>154.66666666666669</ele><time>2026-05-01T17:35:18Z</time></trkpt><trkpt lat="44.99604953792976" lon="14.907726201284856"><ele>157.0</ele><time>2026-05-01T17:35:19Z</time></trkpt><trkpt lat="44.99587691416839" lon="14.907659752855016"><ele>157.66666666666669</ele><time>2026-05-01T17:35:20Z</time></trkpt><trkpt lat="44.995710110092325" lon="14.907585125942386"><ele>158.33333333333334</ele><time>2026-05-01T17:35:21Z</time></trkpt><trkpt lat="44.99554939927919" lon="14.907497793871896"><ele>159.0</ele><time>2026-05-01T17:35:22Z</time></trkpt><trkpt lat="44.995397065477896" lon="14.907396761922719"><ele>149.66666666666666</ele><time>2026-05-01T17:35:23Z</time></trkpt><trkpt lat="44.995252006873066" lon="14.907291814544525"><ele>140.33333333333331</ele><time>2026-05-01T17:35:24Z</time></trkpt><trkpt lat="44.99511337046098" lon="14.907193099741683"><ele>131.0</ele><time>2026-05-01T17:35:25Z</time></trkpt><trkpt lat="44.99497310309349" lon="14.9071127402414"><ele>131.0</ele><time>2026-05-01T17:35:26Z</time></trkpt><trkpt lat="44.994829586665226" lon="14.907058408026876"><ele>131.0</ele><time>2026-05-01T17:35:27Z</time></trkpt><trkpt lat="44.99468393967287" lon="14.907020233286872"><ele>131.0</ele><time>2026-05-01T17:35:28Z</time></trkpt><trkpt lat="44.99453899832297" lon="14.906991459807399"><ele>131.0</ele><time>2026-05-01T17:35:29Z</time></trkpt><trkpt lat="44.99439812859802" lon="14.90697474146649"><ele>131.0</ele><time>2026-05-01T17:35:30Z</time></trkpt><trkpt lat="44.9942655370521" lon="14.906971048329769"><ele>131.0</ele><time>2026-05-01T17:35:31Z</time></trkpt><trkpt lat="44.99413453886347" lon="14.906996048128265"><ele>131.0</ele><time>2026-05-01T17:35:32Z</time></trkpt><trkpt lat="44.99401918568807" lon="14.907042096312965"><ele>131.0</ele><time>2026-05-01T17:35:33Z</time></trkpt><trkpt lat="44.993921781568964" lon="14.907105274441719"><ele>130.2</ele><time>2026-05-01T17:35:34Z</time></trkpt><trkpt lat="44.993847346561424" lon="14.907208342926314"><ele>129.39999999999998</ele><time>2026-05-01T17:35:35Z</time></trkpt><trkpt lat="44.99381198340235" lon="14.907349400844222"><ele>128.6</ele><time>2026-05-01T17:35:36Z</time></trkpt><trkpt lat="44.993812293907745" lon="14.907510526723598"><ele>127.8</ele><time>2026-05-01T17:35:37Z</time></trkpt><trkpt lat="44.993817057237365" lon="14.907641713369618"><ele>127.0</ele><time>2026-05-01T17:35:38Z</time></trkpt><trkpt lat="44.99379267271001" lon="14.907741806971492"><ele>127.0</ele><time>2026-05-01T17:35:39Z</time></trkpt><trkpt lat="44.99373428719206" lon="14.907802900686296"><ele>126.99999999999999</ele><time>2026-05-01T17:35:40Z</time></trkpt><trkpt lat="44.99362435629224" lon="14.907734846281679"><ele>126.99999999999999</ele><time>2026-05-01T17:35:42Z</time></trkpt><trkpt lat="44.9936318499558" lon="14.907623909051877"><ele>127.0</ele><time>2026-05-01T17:35:43Z</time></trkpt><trkpt lat="44.99362207997314" lon="14.907484843127431"><ele>127.0</ele><time>2026-05-01T17:35:44Z</time></trkpt><trkpt lat="44.993637003074625" lon="14.907332275661195"><ele>125.6</ele><time>2026-05-01T17:35:45Z</time></trkpt><trkpt lat="44.99361372590641" lon="14.907185828650114"><ele>124.19999999999999</ele><time>2026-05-01T17:35:46Z</time></trkpt><trkpt lat="44.99361358150032" lon="14.907045415967994"><ele>122.8</ele><time>2026-05-01T17:35:47Z</time></trkpt><trkpt lat="44.99362091450486" lon="14.906906977023203"><ele>121.4</ele><time>2026-05-01T17:35:48Z</time></trkpt><trkpt lat="44.99363980141745" lon="14.906775361259067"><ele>120.0</ele><time>2026-05-01T17:35:49Z</time></trkpt><trkpt lat="44.99368303471004" lon="14.906653841791124"><ele>117.33333333333333</ele><time>2026-05-01T17:35:50Z</time></trkpt><trkpt lat="44.99374038395209" lon="14.906550142679478"><ele>114.66666666666666</ele><time>2026-05-01T17:35:51Z</time></trkpt><trkpt lat="44.99380122257859" lon="14.906456611794258"><ele>112.0</ele><time>2026-05-01T17:35:52Z</time></trkpt><trkpt lat="44.993860830783454" lon="14.906370506679"><ele>109.33333333333333</ele><time>2026-05-01T17:35:53Z</time></trkpt><trkpt lat="44.993926655232485" lon="14.906298203417677"><ele>106.66666666666666</ele><time>2026-05-01T17:35:54Z</time></trkpt><trkpt lat="44.994001115113065" lon="14.906234019630576"><ele>104.0</ele><time>2026-05-01T17:35:55Z</time></trkpt><trkpt lat="44.99408510801019" lon="14.90617473487548"><ele>103.6</ele><time>2026-05-01T17:35:56Z</time></trkpt><trkpt lat="44.99417254251667" lon="14.90611906830264"><ele>103.2</ele><time>2026-05-01T17:35:57Z</time></trkpt><trkpt lat="44.99426194788658" lon="14.90606441420276"><ele>102.8</ele><time>2026-05-01T17:35:58Z</time></trkpt><trkpt lat="44.99436162892379" lon="14.906014983702654"><ele>102.39999999999999</ele><time>2026-05-01T17:35:59Z</time></trkpt><trkpt lat="44.9944679970397" lon="14.905968422747748"><ele>102.0</ele><time>2026-05-01T17:36:00Z</time></trkpt><trkpt lat="44.99458009108897" lon="14.905935124426012"><ele>102.0</ele><time>2026-05-01T17:36:01Z</time></trkpt><trkpt lat="44.99469820117317" lon="14.905926135162622"><ele>102.0</ele><time>2026-05-01T17:36:02Z</time></trkpt><trkpt lat="44.99481479382391" lon="14.905937409991594"><ele>102.0</ele><time>2026-05-01T17:36:03Z</time></trkpt><trkpt lat="44.994930588633025" lon="14.90596851595618"><ele>102.0</ele><time>2026-05-01T17:36:04Z</time></trkpt><trkpt lat="44.99504142104811" lon="14.906023059936542"><ele>97.5</ele><time>2026-05-01T17:36:04.999Z</time></trkpt><trkpt lat="44.995148499544015" lon="14.906090849162785"><ele>93.0</ele><time>2026-05-01T17:36:05.999Z</time></trkpt><trkpt lat="44.995252768349076" lon="14.906164646922607"><ele>88.5</ele><time>2026-05-01T17:36:06.999Z</time></trkpt><trkpt lat="44.995353006777066" lon="14.906246636882774"><ele>84.0</ele><time>2026-05-01T17:36:07.999Z</time></trkpt><trkpt lat="44.99545359420536" lon="14.90632735021594"><ele>84.0</ele><time>2026-05-01T17:36:08.999Z</time></trkpt><trkpt lat="44.995563357204055" lon="14.906385617143089"><ele>84.0</ele><time>2026-05-01T17:36:09.999Z</time></trkpt><trkpt lat="44.99567456689053" lon="14.906435313208403"><ele>84.0</ele><time>2026-05-01T17:36:10.999Z</time></trkpt><trkpt lat="44.99578855362824" lon="14.906487787555724"><ele>84.0</ele><time>2026-05-01T17:36:11.999Z</time></trkpt><trkpt lat="44.99590820050769" lon="14.906472875193643"><ele>84.2</ele><time>2026-05-01T17:36:12.999Z</time></trkpt><trkpt lat="44.99602343872391" lon="14.906463504415356"><ele>84.4</ele><time>2026-05-01T17:36:13.999Z</time></trkpt><trkpt lat="44.996125682647545" lon="14.906443542077504"><ele>84.6</ele><time>2026-05-01T17:36:14.999Z</time></trkpt><trkpt lat="44.996210228687325" lon="14.906421153465262"><ele>84.8</ele><time>2026-05-01T17:36:15.999Z</time></trkpt><trkpt lat="44.996278432985186" lon="14.906391509875277"><ele>85.0</ele><time>2026-05-01T17:36:16.999Z</time></trkpt><trkpt lat="44.99634308614456" lon="14.906275776774207"><ele>85.0</ele><time>2026-05-01T17:36:18.999Z</time></trkpt><trkpt lat="44.996328975156736" lon="14.906179775147598"><ele>85.0</ele><time>2026-05-01T17:36:20.999Z</time></trkpt><trkpt lat="44.996268589704364" lon="14.90612988641336"><ele>85.0</ele><time>2026-05-01T17:36:22.999Z</time></trkpt><trkpt lat="44.99618370564694" lon="14.90605460099952"><ele>85.0</ele><time>2026-05-01T17:36:24.999Z</time></trkpt><trkpt lat="44.99611577103837" lon="14.906010186832338"><ele>85.0</ele><time>2026-05-01T17:36:25.999Z</time></trkpt><trkpt lat="44.99603255430389" lon="14.905960655323044"><ele>85.0</ele><time>2026-05-01T17:36:26.999Z</time></trkpt><trkpt lat="44.995955222442205" lon="14.905892307785388"><ele>85.8</ele><time>2026-05-01T17:36:27.999Z</time></trkpt><trkpt lat="44.99588427414095" lon="14.905802274292501"><ele>86.6</ele><time>2026-05-01T17:36:28.999Z</time></trkpt><trkpt lat="44.99582411305125" lon="14.905694621837451"><ele>87.4</ele><time>2026-05-01T17:36:29.999Z</time></trkpt><trkpt lat="44.99577639516091" lon="14.905574076039025"><ele>88.2</ele><time>2026-05-01T17:36:30.999Z</time></trkpt><trkpt lat="44.99573557987562" lon="14.905431228131265"><ele>89.0</ele><time>2026-05-01T17:36:31.999Z</time></trkpt><trkpt lat="44.99569564228866" lon="14.90526191456105"><ele>84.25</ele><time>2026-05-01T17:36:32.999Z</time></trkpt><trkpt lat="44.995633298950075" lon="14.90508463304377"><ele>79.5</ele><time>2026-05-01T17:36:33.999Z</time></trkpt><trkpt lat="44.99555245253725" lon="14.904914131840702"><ele>74.75</ele><time>2026-05-01T17:36:34.999Z</time></trkpt><trkpt lat="44.99546465210356" lon="14.904756965598162"><ele>70.0</ele><time>2026-05-01T17:36:35.999Z</time></trkpt><trkpt lat="44.995369880134206" lon="14.904607848393505"><ele>70.0</ele><time>2026-05-01T17:36:36.999Z</time></trkpt><trkpt lat="44.99527142837509" lon="14.904462665291272"><ele>70.0</ele><time>2026-05-01T17:36:37.999Z</time></trkpt><trkpt lat="44.99517177992326" lon="14.904322052736791"><ele>70.0</ele><time>2026-05-01T17:36:39Z</time></trkpt><trkpt lat="44.99507374860636" lon="14.904180972904026"><ele>70.0</ele><time>2026-05-01T17:36:40Z</time></trkpt><trkpt lat="44.99498582274902" lon="14.904033664424645"><ele>64.5</ele><time>2026-05-01T17:36:41Z</time></trkpt><trkpt lat="44.994911510058245" lon="14.903878634025528"><ele>59.0</ele><time>2026-05-01T17:36:42Z</time></trkpt><trkpt lat="44.9948333472168" lon="14.903731221248133"><ele>53.5</ele><time>2026-05-01T17:36:43Z</time></trkpt><trkpt lat="44.99475318554449" lon="14.903587879723455"><ele>48.0</ele><time>2026-05-01T17:36:44Z</time></trkpt><trkpt lat="44.994685732122164" lon="14.90343954786534"><ele>48.25</ele><time>2026-05-01T17:36:45Z</time></trkpt><trkpt lat="44.994635723479156" lon="14.903284117718032"><ele>48.5</ele><time>2026-05-01T17:36:46Z</time></trkpt><trkpt lat="44.99459319310412" lon="14.903106526295334"><ele>48.75</ele><time>2026-05-01T17:36:47Z</time></trkpt><trkpt lat="44.99454413258412" lon="14.90290952030384"><ele>49.0</ele><time>2026-05-01T17:36:48Z</time></trkpt><trkpt lat="44.994495261642044" lon="14.902709465974906"><ele>48.75</ele><time>2026-05-01T17:36:49Z</time></trkpt><trkpt lat="44.99445609129097" lon="14.902524254254315"><ele>48.5</ele><time>2026-05-01T17:36:50Z</time></trkpt><trkpt lat="44.99442249494124" lon="14.902346467436189"><ele>48.25</ele><time>2026-05-01T17:36:51Z</time></trkpt><trkpt lat="44.99439465235071" lon="14.902171377078737"><ele>48.0</ele><time>2026-05-01T17:36:52Z</time></trkpt><trkpt lat="44.994368092788996" lon="14.902000366869359"><ele>48.0</ele><time>2026-05-01T17:36:53Z</time></trkpt><trkpt lat="44.99435039821395" lon="14.901841348742787"><ele>48.0</ele><time>2026-05-01T17:36:54Z</time></trkpt><trkpt lat="44.99434176118332" lon="14.901693552948574"><ele>48.0</ele><time>2026-05-01T17:36:55Z</time></trkpt><trkpt lat="44.99433850821739" lon="14.901576346902768"><ele>48.0</ele><time>2026-05-01T17:36:56Z</time></trkpt><trkpt lat="44.99434595179007" lon="14.90143145739808"><ele>48.0</ele><time>2026-05-01T17:36:57Z</time></trkpt><trkpt lat="44.994358288159724" lon="14.901279800445826"><ele>46.666666666666664</ele><time>2026-05-01T17:36:58Z</time></trkpt><trkpt lat="44.994368214662614" lon="14.901159732365349"><ele>45.333333333333336</ele><time>2026-05-01T17:36:59Z</time></trkpt><trkpt lat="44.99435337369871" lon="14.90106176641732"><ele>44.0</ele><time>2026-05-01T17:37:00Z</time></trkpt><trkpt lat="44.99431761733099" lon="14.900974403940983"><ele>42.66666666666667</ele><time>2026-05-01T17:37:01Z</time></trkpt><trkpt lat="44.99425018852549" lon="14.900917093233344"><ele>41.333333333333336</ele><time>2026-05-01T17:37:02Z</time></trkpt><trkpt lat="44.99415790215877" lon="14.900883087571637"><ele>40.0</ele><time>2026-05-01T17:37:03Z</time></trkpt><trkpt lat="44.99405222009467" lon="14.900854612107326"><ele>36.4</ele><time>2026-05-01T17:37:04Z</time></trkpt><trkpt lat="44.9939372405751" lon="14.900834465448447"><ele>32.8</ele><time>2026-05-01T17:37:05Z</time></trkpt><trkpt lat="44.993817769485936" lon="14.900850528818859"><ele>29.200000000000003</ele><time>2026-05-01T17:37:06Z</time></trkpt><trkpt lat="44.993703031270705" lon="14.900867222818862"><ele>25.6</ele><time>2026-05-01T17:37:07Z</time></trkpt><trkpt lat="44.99361868383096" lon="14.9009110458477"><ele>22.0</ele><time>2026-05-01T17:37:08Z</time></trkpt><trkpt lat="44.9935357492902" lon="14.90091335161468"><ele>22.0</ele><time>2026-05-01T17:37:09Z</time></trkpt><trkpt lat="44.99347476222262" lon="14.900888916338676"><ele>22.0</ele><time>2026-05-01T17:37:10Z</time></trkpt><trkpt lat="44.99340835714226" lon="14.900826027060093"><ele>22.0</ele><time>2026-05-01T17:37:11Z</time></trkpt><trkpt lat="44.99335590378972" lon="14.900727396306355"><ele>22.0</ele><time>2026-05-01T17:37:12Z</time></trkpt><trkpt lat="44.99331270612595" lon="14.900607578447895"><ele>22.0</ele><time>2026-05-01T17:37:13Z</time></trkpt><trkpt lat="44.99327341950529" lon="14.9004792873381"><ele>22.0</ele><time>2026-05-01T17:37:14Z</time></trkpt><trkpt lat="44.99323581799117" lon="14.900363141779643"><ele>20.5</ele><time>2026-05-01T17:37:15Z</time></trkpt><trkpt lat="44.99318738956172" lon="14.900291841819195"><ele>19.0</ele><time>2026-05-01T17:37:16Z</time></trkpt><trkpt lat="44.993126674576615" lon="14.900251091490912"><ele>17.5</ele><time>2026-05-01T17:37:17Z</time></trkpt><trkpt lat="44.993017359112464" lon="14.900250147855534"><ele>16.0</ele><time>2026-05-01T17:37:19Z</time></trkpt><trkpt lat="44.992943571155195" lon="14.900202865105102"><ele>14.499999999999998</ele><time>2026-05-01T17:37:21Z</time></trkpt><trkpt lat="44.9928627380574" lon="14.90011655154836"><ele>13.0</ele><time>2026-05-01T17:37:23Z</time></trkpt><trkpt lat="44.992790512406366" lon="14.900161544411903"><ele>13.0</ele><time>2026-05-01T17:37:24Z</time></trkpt><trkpt lat="44.99272931152852" lon="14.900301700316646"><ele>13.0</ele><time>2026-05-01T17:37:26Z</time></trkpt><trkpt lat="44.99271775887561" lon="14.900396953104977"><ele>13.0</ele><time>2026-05-01T17:37:27Z</time></trkpt><trkpt lat="44.99268947545607" lon="14.900480089200839"><ele>13.0</ele><time>2026-05-01T17:37:28Z</time></trkpt><trkpt lat="44.99256652891244" lon="14.900508385192671"><ele>13.0</ele><time>2026-05-01T17:37:30Z</time></trkpt><trkpt lat="44.99250325679908" lon="14.900435780575014"><ele>11.6</ele><time>2026-05-01T17:37:31Z</time></trkpt><trkpt lat="44.992428469839005" lon="14.900396834625848"><ele>10.200000000000001</ele><time>2026-05-01T17:37:32Z</time></trkpt><trkpt lat="44.992327980113885" lon="14.90047469122045"><ele>8.8</ele><time>2026-05-01T17:37:33Z</time></trkpt><trkpt lat="44.992241020925555" lon="14.900539988925408"><ele>7.4</ele><time>2026-05-01T17:37:34Z</time></trkpt><trkpt lat="44.99215586595203" lon="14.900605290577497"><ele>6.0</ele><time>2026-05-01T17:37:35Z</time></trkpt><trkpt lat="44.99206896647109" lon="14.900661430175148"><ele>6.0</ele><time>2026-05-01T17:37:36Z</time></trkpt><trkpt lat="44.99198370101096" lon="14.900714039148186"><ele>6.0</ele><time>2026-05-01T17:37:37Z</time></trkpt><trkpt lat="44.9919011040551" lon="14.900769946371952"><ele>6.0</ele><time>2026-05-01T17:37:38Z</time></trkpt><trkpt lat="44.991821163283845" lon="14.900824906678741"><ele>6.0</ele><time>2026-05-01T17:37:39Z</time></trkpt><trkpt lat="44.99174777330992" lon="14.9008772585121"><ele>6.0</ele><time>2026-05-01T17:37:40Z</time></trkpt><trkpt lat="44.99167800167263" lon="14.900927431833829"><ele>6.0</ele><time>2026-05-01T17:37:41Z</time></trkpt><trkpt lat="44.99161084511926" lon="14.900977022357472"><ele>6.7142857142857135</ele><time>2026-05-01T17:37:42Z</time></trkpt><trkpt lat="44.991541530761154" lon="14.901023780849416"><ele>7.428571428571429</ele><time>2026-05-01T17:37:43Z</time></trkpt><trkpt lat="44.99147584881064" lon="14.901063515365838"><ele>8.142857142857142</ele><time>2026-05-01T17:37:44Z</time></trkpt><trkpt lat="44.99140656754185" lon="14.901093747390021"><ele>8.857142857142858</ele><time>2026-05-01T17:37:45Z</time></trkpt><trkpt lat="44.99133489739993" lon="14.901110556423781"><ele>9.571428571428571</ele><time>2026-05-01T17:37:46Z</time></trkpt><trkpt lat="44.991264730458205" lon="14.90110215644856"><ele>10.285714285714286</ele><time>2026-05-01T17:37:47Z</time></trkpt><trkpt lat="44.991194477083255" lon="14.901087443453525"><ele>11.0</ele><time>2026-05-01T17:37:48Z</time></trkpt><trkpt lat="44.99113046601584" lon="14.901072420154888"><ele>11.0</ele><time>2026-05-01T17:37:49Z</time></trkpt><trkpt lat="44.99105931118029" lon="14.901028412095153"><ele>11.0</ele><time>2026-05-01T17:37:51Z</time></trkpt><trkpt lat="44.99098101083822" lon="14.901025833255344"><ele>11.0</ele><time>2026-05-01T17:38:34.999Z</time></trkpt><trkpt lat="44.99091458482996" lon="14.90095734891204"><ele>11.0</ele><time>2026-05-01T17:38:36.999Z</time></trkpt><trkpt lat="44.99081550133762" lon="14.900958171110968"><ele>11.0</ele><time>2026-05-01T17:38:38.999Z</time></trkpt><trkpt lat="44.990704686885856" lon="14.900929778321053"><ele>9.4</ele><time>2026-05-01T17:38:40.999Z</time></trkpt><trkpt lat="44.99064287066767" lon="14.900909437374443"><ele>7.800000000000001</ele><time>2026-05-01T17:38:41.999Z</time></trkpt><trkpt lat="44.99058132702232" lon="14.900880441882574"><ele>6.2</ele><time>2026-05-01T17:38:42.999Z</time></trkpt><trkpt lat="44.990476316453375" lon="14.90083364398511"><ele>4.6</ele><time>2026-05-01T17:38:44.999Z</time></trkpt><trkpt lat="44.99036671573125" lon="14.90077921282958"><ele>3.0</ele><time>2026-05-01T17:38:46.999Z</time></trkpt><trkpt lat="44.990263124444056" lon="14.900697160053028"><ele>3.0</ele><time>2026-05-01T17:38:48.999Z</time></trkpt><trkpt lat="44.99019082704001" lon="14.900648419274383"><ele>3.0</ele><time>2026-05-01T17:38:50.999Z</time></trkpt><trkpt lat="44.99010893196829" lon="14.90058666394366"><ele>3.0</ele><time>2026-05-01T17:38:54Z</time></trkpt><trkpt lat="44.9900555618805" lon="14.900529149067665"><ele>3.0</ele><time>2026-05-01T17:38:56Z</time></trkpt><trkpt lat="44.98999508254417" lon="14.900457713795006"><ele>3.0</ele><time>2026-05-01T17:38:59Z</time></trkpt><trkpt lat="44.989907878000984" lon="14.900388375686031"><ele>3.0</ele><time>2026-05-01T17:39:02Z</time></trkpt><trkpt lat="44.98982506064297" lon="14.90029115449466"><ele>3.3333333333333335</ele><time>2026-05-01T17:39:04Z</time></trkpt><trkpt lat="44.98978074055551" lon="14.900226765244692"><ele>3.666666666666667</ele><time>2026-05-01T17:39:05Z</time></trkpt><trkpt lat="44.98973825228143" lon="14.900159271025123"><ele>4.0</ele><time>2026-05-01T17:39:06Z</time></trkpt><trkpt lat="44.9896954974545" lon="14.90008491678636"><ele>4.333333333333334</ele><time>2026-05-01T17:39:07Z</time></trkpt><trkpt lat="44.98961993096384" lon="14.899941686570148"><ele>4.666666666666667</ele><time>2026-05-01T17:39:09Z</time></trkpt><trkpt lat="44.98958317466354" lon="14.899864815248069"><ele>5.0</ele><time>2026-05-01T17:39:10Z</time></trkpt><trkpt lat="44.98954761769895" lon="14.899782811699998"><ele>4.428571428571429</ele><time>2026-05-01T17:39:11Z</time></trkpt><trkpt lat="44.989514576362055" lon="14.89969950787637"><ele>3.857142857142857</ele><time>2026-05-01T17:39:12Z</time></trkpt><trkpt lat="44.98948557942579" lon="14.899613998222081"><ele>3.2857142857142856</ele><time>2026-05-01T17:39:13Z</time></trkpt><trkpt lat="44.989474376447966" lon="14.899514967094241"><ele>2.7142857142857144</ele><time>2026-05-01T17:39:14Z</time></trkpt><trkpt lat="44.98944740844504" lon="14.899422800367931"><ele>2.142857142857143</ele><time>2026-05-01T17:39:15Z</time></trkpt><trkpt lat="44.98942167498993" lon="14.899330270144691"><ele>1.5714285714285714</ele><time>2026-05-01T17:39:16Z</time></trkpt><trkpt lat="44.98939702959087" lon="14.89924216843933"><ele>1.0</ele><time>2026-05-01T17:39:17Z</time></trkpt><trkpt lat="44.98937262061636" lon="14.899154851364964"><ele>0.8571428571428571</ele><time>2026-05-01T17:39:18Z</time></trkpt><trkpt lat="44.98934857770947" lon="14.899067848334166"><ele>0.7142857142857142</ele><time>2026-05-01T17:39:19Z</time></trkpt><trkpt lat="44.989324914219054" lon="14.898982214305155"><ele>0.5714285714285714</ele><time>2026-05-01T17:39:20Z</time></trkpt><trkpt lat="44.98927669054232" lon="14.898908058256156"><ele>0.42857142857142855</ele><time>2026-05-01T17:39:21Z</time></trkpt><trkpt lat="44.98925226053224" lon="14.898822412618333"><ele>0.2857142857142857</ele><time>2026-05-01T17:39:22Z</time></trkpt><trkpt lat="44.989224930428776" lon="14.898738388192356"><ele>0.14285714285714285</ele><time>2026-05-01T17:39:23Z</time></trkpt><trkpt lat="44.98919655403339" lon="14.89865361407126"><ele>0.0</ele><time>2026-05-01T17:39:24Z</time></trkpt><trkpt lat="44.98916699195013" lon="14.8985682803278"><ele>1.2857142857142858</ele><time>2026-05-01T17:39:25Z</time></trkpt><trkpt lat="44.98913136443094" lon="14.898485589809013"><ele>2.5714285714285716</ele><time>2026-05-01T17:39:26Z</time></trkpt><trkpt lat="44.98908206504669" lon="14.898412940845333"><ele>3.8571428571428577</ele><time>2026-05-01T17:39:27Z</time></trkpt><trkpt lat="44.98902791280109" lon="14.898349827497523"><ele>5.142857142857143</ele><time>2026-05-01T17:39:28Z</time></trkpt><trkpt lat="44.988964623749986" lon="14.898305396381657"><ele>6.428571428571429</ele><time>2026-05-01T17:39:29Z</time></trkpt><trkpt lat="44.98889235740619" lon="14.898279785111868"><ele>7.714285714285715</ele><time>2026-05-01T17:39:30Z</time></trkpt><trkpt lat="44.98882566102529" lon="14.898196919079165"><ele>9.0</ele><time>2026-05-01T17:39:31Z</time></trkpt><trkpt lat="44.98874960297348" lon="14.898182065305429"><ele>9.0</ele><time>2026-05-01T17:39:32Z</time></trkpt><trkpt lat="44.98867948017446" lon="14.898174762501089"><ele>9.0</ele><time>2026-05-01T17:39:33Z</time></trkpt><trkpt lat="44.98860504210303" lon="14.898169687845392"><ele>9.0</ele><time>2026-05-01T17:39:34Z</time></trkpt><trkpt lat="44.98852550924827" lon="14.8981698406172"><ele>9.0</ele><time>2026-05-01T17:39:35Z</time></trkpt><trkpt lat="44.98844409741999" lon="14.898169840620383"><ele>9.0</ele><time>2026-05-01T17:39:36Z</time></trkpt><trkpt lat="44.9883498385027" lon="14.898189644671332"><ele>9.0</ele><time>2026-05-01T17:39:37Z</time></trkpt><trkpt lat="44.98825058975567" lon="14.898213642863452"><ele>10.5</ele><time>2026-05-01T17:39:38Z</time></trkpt><trkpt lat="44.98814790578488" lon="14.898251597004332"><ele>12.0</ele><time>2026-05-01T17:39:39Z</time></trkpt><trkpt lat="44.98804189096239" lon="14.898304702602337"><ele>13.5</ele><time>2026-05-01T17:39:40Z</time></trkpt><trkpt lat="44.987937427737016" lon="14.898367017799778"><ele>15.0</ele><time>2026-05-01T17:39:41Z</time></trkpt><trkpt lat="44.98782668138521" lon="14.898448927863722"><ele>16.0</ele><time>2026-05-01T17:39:42Z</time></trkpt><trkpt lat="44.98771661204912" lon="14.898551389635657"><ele>17.0</ele><time>2026-05-01T17:39:43Z</time></trkpt><trkpt lat="44.987615326829435" lon="14.898667106542907"><ele>18.0</ele><time>2026-05-01T17:39:44Z</time></trkpt><trkpt lat="44.987519576739906" lon="14.898795777819783"><ele>19.0</ele><time>2026-05-01T17:39:45Z</time></trkpt><trkpt lat="44.9874301938631" lon="14.898935976889275"><ele>19.0</ele><time>2026-05-01T17:39:46Z</time></trkpt><trkpt lat="44.98735205880024" lon="14.899088776262328"><ele>19.0</ele><time>2026-05-01T17:39:47Z</time></trkpt><trkpt lat="44.987282872861506" lon="14.899248083209711"><ele>19.0</ele><time>2026-05-01T17:39:48Z</time></trkpt><trkpt lat="44.98721369329796" lon="14.899407235949948"><ele>19.0</ele><time>2026-05-01T17:39:49Z</time></trkpt><trkpt lat="44.98714393383932" lon="14.899573610145325"><ele>22.5</ele><time>2026-05-01T17:39:50Z</time></trkpt><trkpt lat="44.987074463963594" lon="14.89974164625052"><ele>26.0</ele><time>2026-05-01T17:39:51Z</time></trkpt><trkpt lat="44.987002770069914" lon="14.899916154889983"><ele>29.5</ele><time>2026-05-01T17:39:52Z</time></trkpt><trkpt lat="44.98693005157229" lon="14.90009376256064"><ele>33.0</ele><time>2026-05-01T17:39:53Z</time></trkpt><trkpt lat="44.98685498074221" lon="14.900274551834485"><ele>31.333333333333336</ele><time>2026-05-01T17:39:54Z</time></trkpt><trkpt lat="44.986777114587014" lon="14.90045438741267"><ele>29.666666666666668</ele><time>2026-05-01T17:39:55Z</time></trkpt><trkpt lat="44.986690981795086" lon="14.90063774718749"><ele>28.0</ele><time>2026-05-01T17:39:56Z</time></trkpt><trkpt lat="44.98659736176894" lon="14.900823391324908"><ele>32.66666666666667</ele><time>2026-05-01T17:39:57Z</time></trkpt><trkpt lat="44.98649678581175" lon="14.901012065677422"><ele>37.333333333333336</ele><time>2026-05-01T17:39:58Z</time></trkpt><trkpt lat="44.98638954841641" lon="14.901201186963943"><ele>42.0</ele><time>2026-05-01T17:39:59Z</time></trkpt><trkpt lat="44.986267397435775" lon="14.901394871868598"><ele>42.0</ele><time>2026-05-01T17:40:00Z</time></trkpt><trkpt lat="44.98614186636385" lon="14.901578902700209"><ele>42.0</ele><time>2026-05-01T17:40:01Z</time></trkpt><trkpt lat="44.9860154605071" lon="14.901757843820358"><ele>42.0</ele><time>2026-05-01T17:40:02Z</time></trkpt><trkpt lat="44.985887443526984" lon="14.901935643001238"><ele>41.0</ele><time>2026-05-01T17:40:03Z</time></trkpt><trkpt lat="44.985759698646575" lon="14.90211312917911"><ele>40.0</ele><time>2026-05-01T17:40:04Z</time></trkpt><trkpt lat="44.98563432427629" lon="14.902286975023848"><ele>39.0</ele><time>2026-05-01T17:40:05Z</time></trkpt><trkpt lat="44.985512936775436" lon="14.902455916109604"><ele>43.0</ele><time>2026-05-01T17:40:06Z</time></trkpt><trkpt lat="44.98539797757288" lon="14.902632756282186"><ele>47.0</ele><time>2026-05-01T17:40:07Z</time></trkpt><trkpt lat="44.985289326506994" lon="14.902806930674815"><ele>51.0</ele><time>2026-05-01T17:40:08Z</time></trkpt><trkpt lat="44.985187949285454" lon="14.902990808921311"><ele>51.0</ele><time>2026-05-01T17:40:09Z</time></trkpt><trkpt lat="44.98509232264154" lon="14.903178005539601"><ele>51.0</ele><time>2026-05-01T17:40:10Z</time></trkpt><trkpt lat="44.98500093194771" lon="14.903363169000711"><ele>51.0</ele><time>2026-05-01T17:40:11Z</time></trkpt><trkpt lat="44.98490917028027" lon="14.903550774409888"><ele>47.666666666666664</ele><time>2026-05-01T17:40:12Z</time></trkpt><trkpt lat="44.984820444542926" lon="14.903740731649744"><ele>44.33333333333333</ele><time>2026-05-01T17:40:13Z</time></trkpt><trkpt lat="44.98473566190521" lon="14.90392831407564"><ele>41.0</ele><time>2026-05-01T17:40:14Z</time></trkpt><trkpt lat="44.9846639455112" lon="14.904130370372448"><ele>42.33333333333333</ele><time>2026-05-01T17:40:15Z</time></trkpt><trkpt lat="44.98457238701757" lon="14.904310774013657"><ele>43.666666666666664</ele><time>2026-05-01T17:40:16Z</time></trkpt><trkpt lat="44.98448425899429" lon="14.904486653827753"><ele>45.0</ele><time>2026-05-01T17:40:17Z</time></trkpt><trkpt lat="44.98440073065318" lon="14.90466469614016"><ele>45.0</ele><time>2026-05-01T17:40:18Z</time></trkpt><trkpt lat="44.984319144075435" lon="14.904839576798786"><ele>45.0</ele><time>2026-05-01T17:40:19Z</time></trkpt><trkpt lat="44.98424364033722" lon="14.905002094085964"><ele>45.0</ele><time>2026-05-01T17:40:20Z</time></trkpt><trkpt lat="44.984178130857885" lon="14.90514478740633"><ele>45.0</ele><time>2026-05-01T17:40:21Z</time></trkpt><trkpt lat="44.98412572685687" lon="14.905276187661869"><ele>45.0</ele><time>2026-05-01T17:40:22Z</time></trkpt><trkpt lat="44.98410052620669" lon="14.905407849576454"><ele>45.0</ele><time>2026-05-01T17:40:23Z</time></trkpt><trkpt lat="44.984101394877165" lon="14.905516500283008"><ele>45.0</ele><time>2026-05-01T17:40:24Z</time></trkpt><trkpt lat="44.98411985040855" lon="14.9056104051808"><ele>45.0</ele><time>2026-05-01T17:40:25Z</time></trkpt><trkpt lat="44.98414392944785" lon="14.905701812340602"><ele>45.0</ele><time>2026-05-01T17:40:26Z</time></trkpt><trkpt lat="44.984169760602" lon="14.905785645490795"><ele>45.0</ele><time>2026-05-01T17:40:27Z</time></trkpt><trkpt lat="44.984221952700935" lon="14.905909820951386"><ele>45.6</ele><time>2026-05-01T17:40:29Z</time></trkpt><trkpt lat="44.98424871204796" lon="14.906051953526092"><ele>46.2</ele><time>2026-05-01T17:40:31Z</time></trkpt><trkpt lat="44.98433195041956" lon="14.906193371090342"><ele>46.8</ele><time>2026-05-01T17:40:33Z</time></trkpt><trkpt lat="44.98439203250825" lon="14.906264829468302"><ele>47.4</ele><time>2026-05-01T17:40:33.998Z</time></trkpt><trkpt lat="44.98444479018538" lon="14.90635587017355"><ele>48.0</ele><time>2026-05-01T17:40:34.998Z</time></trkpt><trkpt lat="44.9844924359709" lon="14.906469784872554"><ele>48.0</ele><time>2026-05-01T17:40:35.998Z</time></trkpt><trkpt lat="44.984543550040975" lon="14.906588801259367"><ele>48.0</ele><time>2026-05-01T17:40:36.998Z</time></trkpt><trkpt lat="44.98459765078018" lon="14.906713362072077"><ele>48.0</ele><time>2026-05-01T17:40:37.998Z</time></trkpt><trkpt lat="44.98465395015086" lon="14.906833823927723"><ele>48.0</ele><time>2026-05-01T17:40:38.998Z</time></trkpt><trkpt lat="44.98470533030637" lon="14.906936867721436"><ele>48.0</ele><time>2026-05-01T17:40:39.998Z</time></trkpt><trkpt lat="44.984752164342176" lon="14.90703722192939"><ele>48.0</ele><time>2026-05-01T17:40:40.998Z</time></trkpt><trkpt lat="44.9848001590565" lon="14.90714800279321"><ele>48.0</ele><time>2026-05-01T17:40:41.998Z</time></trkpt><trkpt lat="44.98484496864036" lon="14.907287586394931"><ele>48.0</ele><time>2026-05-01T17:40:42.998Z</time></trkpt><trkpt lat="44.98491157877914" lon="14.907426621097251"><ele>48.0</ele><time>2026-05-01T17:40:43.998Z</time></trkpt><trkpt lat="44.98499574618738" lon="14.907556223712657"><ele>48.0</ele><time>2026-05-01T17:40:44.998Z</time></trkpt><trkpt lat="44.98506602771623" lon="14.907709531133559"><ele>48.0</ele><time>2026-05-01T17:40:45.998Z</time></trkpt><trkpt lat="44.9851366941374" lon="14.907862811217827"><ele>48.0</ele><time>2026-05-01T17:40:46.998Z</time></trkpt><trkpt lat="44.9851964433788" lon="14.908019823568791"><ele>48.0</ele><time>2026-05-01T17:40:47.998Z</time></trkpt><trkpt lat="44.98524774895104" lon="14.908168332223296"><ele>48.0</ele><time>2026-05-01T17:40:48.998Z</time></trkpt><trkpt lat="44.98529004540237" lon="14.90829829007586"><ele>48.4</ele><time>2026-05-01T17:40:49.998Z</time></trkpt><trkpt lat="44.98532768092355" lon="14.908421347910908"><ele>48.8</ele><time>2026-05-01T17:40:50.998Z</time></trkpt><trkpt lat="44.98534377055631" lon="14.908562097308081"><ele>49.2</ele><time>2026-05-01T17:40:51.998Z</time></trkpt><trkpt lat="44.985387307738996" lon="14.908705271374867"><ele>49.6</ele><time>2026-05-01T17:40:52.999Z</time></trkpt><trkpt lat="44.9853929152635" lon="14.908869962763337"><ele>50.0</ele><time>2026-05-01T17:40:53.999Z</time></trkpt><trkpt lat="44.98540827820513" lon="14.90903581926356"><ele>50.0</ele><time>2026-05-01T17:40:54.999Z</time></trkpt><trkpt lat="44.98543318962469" lon="14.909203472894875"><ele>50.0</ele><time>2026-05-01T17:40:55.999Z</time></trkpt><trkpt lat="44.985439467903035" lon="14.909378639858426"><ele>50.0</ele><time>2026-05-01T17:40:56.999Z</time></trkpt><trkpt lat="44.98544141048771" lon="14.909555022279793"><ele>50.0</ele><time>2026-05-01T17:40:57.999Z</time></trkpt><trkpt lat="44.985435517436976" lon="14.90971810849766"><ele>51.0</ele><time>2026-05-01T17:40:58.999Z</time></trkpt><trkpt lat="44.98543034324563" lon="14.909866955352808"><ele>52.0</ele><time>2026-05-01T17:40:59.999Z</time></trkpt><trkpt lat="44.98542205176811" lon="14.9100239021373"><ele>53.0</ele><time>2026-05-01T17:41:00.999Z</time></trkpt><trkpt lat="44.98540322514037" lon="14.91017307617848"><ele>54.0</ele><time>2026-05-01T17:41:01.999Z</time></trkpt><trkpt lat="44.985375396688816" lon="14.91031647550576"><ele>55.0</ele><time>2026-05-01T17:41:02.999Z</time></trkpt><trkpt lat="44.98534095891435" lon="14.910460853158941"><ele>55.25</ele><time>2026-05-01T17:41:03.999Z</time></trkpt><trkpt lat="44.985303310319985" lon="14.91060985937012"><ele>55.5</ele><time>2026-05-01T17:41:04.999Z</time></trkpt><trkpt lat="44.98525509373297" lon="14.910761148424278"><ele>55.75</ele><time>2026-05-01T17:41:05.999Z</time></trkpt><trkpt lat="44.985198262846644" lon="14.910917831841083"><ele>56.0</ele><time>2026-05-01T17:41:06.999Z</time></trkpt><trkpt lat="44.985141443551754" lon="14.911079976950246"><ele>55.0</ele><time>2026-05-01T17:41:07.999Z</time></trkpt><trkpt lat="44.9850873910224" lon="14.91125163659134"><ele>54.0</ele><time>2026-05-01T17:41:08.999Z</time></trkpt><trkpt lat="44.985033832902694" lon="14.911429987372216"><ele>53.0</ele><time>2026-05-01T17:41:09.999Z</time></trkpt><trkpt lat="44.98496201674762" lon="14.911604136135587"><ele>52.0</ele><time>2026-05-01T17:41:10.999Z</time></trkpt><trkpt lat="44.984907115634215" lon="14.911788150538799"><ele>59.75</ele><time>2026-05-01T17:41:11.999Z</time></trkpt><trkpt lat="44.98487203984614" lon="14.911970043865319"><ele>67.5</ele><time>2026-05-01T17:41:12.999Z</time></trkpt><trkpt lat="44.984845134093135" lon="14.912144262718636"><ele>75.25</ele><time>2026-05-01T17:41:13.999Z</time></trkpt><trkpt lat="44.984828344592984" lon="14.912304601250412"><ele>83.0</ele><time>2026-05-01T17:41:14.999Z</time></trkpt><trkpt lat="44.984785962169866" lon="14.912424165415963"><ele>83.0</ele><time>2026-05-01T17:41:15.999Z</time></trkpt><trkpt lat="44.98473071457386" lon="14.912491014557931"><ele>83.0</ele><time>2026-05-01T17:41:16.999Z</time></trkpt><trkpt lat="44.98466403114767" lon="14.912518647326564"><ele>83.0</ele><time>2026-05-01T17:41:17.999Z</time></trkpt><trkpt lat="44.98459505471299" lon="14.912510485314359"><ele>83.0</ele><time>2026-05-01T17:41:18.999Z</time></trkpt><trkpt lat="44.98452510690038" lon="14.91246947895013"><ele>83.0</ele><time>2026-05-01T17:41:19.999Z</time></trkpt><trkpt lat="44.984460413784895" lon="14.91239579683345"><ele>83.0</ele><time>2026-05-01T17:41:20.999Z</time></trkpt><trkpt lat="44.98440622167989" lon="14.912278832961901"><ele>83.0</ele><time>2026-05-01T17:41:21.999Z</time></trkpt><trkpt lat="44.98432546883878" lon="14.912149649856337"><ele>83.0</ele><time>2026-05-01T17:41:22.999Z</time></trkpt><trkpt lat="44.98425810757221" lon="14.912043590344785"><ele>83.0</ele><time>2026-05-01T17:41:23.999Z</time></trkpt><trkpt lat="44.98419467510453" lon="14.911948314861744"><ele>83.0</ele><time>2026-05-01T17:41:24.999Z</time></trkpt><trkpt lat="44.9841008124109" lon="14.911874990096052"><ele>83.0</ele><time>2026-05-01T17:41:25.999Z</time></trkpt><trkpt lat="44.98401286268439" lon="14.911797413924242"><ele>85.2</ele><time>2026-05-01T17:41:26.999Z</time></trkpt><trkpt lat="44.98392145017743" lon="14.911750802753424"><ele>87.4</ele><time>2026-05-01T17:41:27.999Z</time></trkpt><trkpt lat="44.98383253562027" lon="14.911723869141284"><ele>89.60000000000001</ele><time>2026-05-01T17:41:28.999Z</time></trkpt><trkpt lat="44.98374129302088" lon="14.911699040215845"><ele>91.80000000000001</ele><time>2026-05-01T17:41:29.999Z</time></trkpt><trkpt lat="44.98364702517144" lon="14.911641416764088"><ele>94.0</ele><time>2026-05-01T17:41:30.999Z</time></trkpt><trkpt lat="44.983553654160566" lon="14.911616660353685"><ele>94.0</ele><time>2026-05-01T17:41:31.999Z</time></trkpt><trkpt lat="44.98348539600581" lon="14.911620327313253"><ele>94.0</ele><time>2026-05-01T17:41:32.999Z</time></trkpt><trkpt lat="44.98340935792515" lon="14.91161302889027"><ele>94.0</ele><time>2026-05-01T17:41:34.999Z</time></trkpt><trkpt lat="44.98342929063248" lon="14.911830780717171"><ele>94.0</ele><time>2026-05-01T17:41:37.999Z</time></trkpt><trkpt lat="44.9834810423743" lon="14.911907240186416"><ele>94.0</ele><time>2026-05-01T17:41:38.999Z</time></trkpt><trkpt lat="44.98353037907285" lon="14.912005956722183"><ele>94.83333333333333</ele><time>2026-05-01T17:41:39.999Z</time></trkpt><trkpt lat="44.98357886375408" lon="14.912120873426819"><ele>95.66666666666666</ele><time>2026-05-01T17:41:40.999Z</time></trkpt><trkpt lat="44.98363925369408" lon="14.912247567884574"><ele>96.5</ele><time>2026-05-01T17:41:41.999Z</time></trkpt><trkpt lat="44.983686575599016" lon="14.912343406870123"><ele>97.33333333333333</ele><time>2026-05-01T17:41:42.999Z</time></trkpt><trkpt lat="44.983733908525075" lon="14.912439488127458"><ele>98.16666666666667</ele><time>2026-05-01T17:41:43.999Z</time></trkpt><trkpt lat="44.983778841471974" lon="14.912526260139996"><ele>99.0</ele><time>2026-05-01T17:41:44.999Z</time></trkpt><trkpt lat="44.98385573167945" lon="14.912655501022511"><ele>99.0</ele><time>2026-05-01T17:41:46.999Z</time></trkpt><trkpt lat="44.98390405494826" lon="14.912752056597759"><ele>99.0</ele><time>2026-05-01T17:41:49Z</time></trkpt><trkpt lat="44.983856612936236" lon="14.912652704501005"><ele>99.0</ele><time>2026-05-01T17:41:55Z</time></trkpt><trkpt lat="44.983770187673294" lon="14.912512133212992"><ele>99.0</ele><time>2026-05-01T17:41:57Z</time></trkpt><trkpt lat="44.98372877637979" lon="14.912436323242877"><ele>99.0</ele><time>2026-05-01T17:41:58Z</time></trkpt><trkpt lat="44.98366335312615" lon="14.912414463962698"><ele>99.0</ele><time>2026-05-01T17:42:01Z</time></trkpt><trkpt lat="44.983628217730335" lon="14.912516757082383"><ele>99.0</ele><time>2026-05-01T17:51:37Z</time></trkpt><trkpt lat="44.98367430813167" lon="14.912438997554496"><ele>99.0</ele><time>2026-05-01T17:52:19Z</time></trkpt><trkpt lat="44.98369697285714" lon="14.91235074185014"><ele>99.0</ele><time>2026-05-01T17:52:28Z</time></trkpt><trkpt lat="44.98363503226492" lon="14.912405309206314"><ele>99.0</ele><time>2026-05-01T17:52:35.999Z</time></trkpt><trkpt lat="44.98357865367346" lon="14.912476063834736"><ele>99.0</ele><time>2026-05-01T17:52:41.999Z</time></trkpt><trkpt lat="44.98350947855399" lon="14.912487417752153"><ele>99.0</ele><time>2026-05-01T17:53:41Z</time></trkpt><trkpt lat="44.98354041619762" lon="14.912571428514562"><ele>99.0</ele><time>2026-05-01T17:53:54Z</time></trkpt><trkpt lat="44.983615560025484" lon="14.912545736065669"><ele>99.0</ele><time>2026-05-01T17:54:06Z</time></trkpt><trkpt lat="44.98355249868542" lon="14.912627349608305"><ele>105.0</ele><time>2026-05-01T17:54:14.999Z</time></trkpt><trkpt lat="44.983471747261866" lon="14.912504853705542"><ele>99.0</ele><time>2026-05-01T17:54:31.999Z</time></trkpt><trkpt lat="44.98350949804794" lon="14.912579407990172"><ele>105.0</ele><time>2026-05-01T17:54:54.999Z</time></trkpt><trkpt lat="44.983560253457235" lon="14.912639275122007"><ele>105.0</ele><time>2026-05-01T17:55:36Z</time></trkpt><trkpt lat="44.98363409581781" lon="14.912586139941894"><ele>105.0</ele><time>2026-05-01T17:55:54Z</time></trkpt></trkseg></trk></gpx>